<?xml version="1.0" encoding="UTF-8" standalone="no" ?>
<gpx xmlns="http://www.topografix.com/GPX/1/1" xmlns:xsi="http://www.w3.org/2001/XMLSchema-instance" xsi:schemaLocation="http://www.topografix.com/GPX/1/1 http://www.topografix.com/GPX/1/1/gpx.xsd" version="1.1" creator="VisuGPX - https://www.visugpx.com">
  <metadata>
    <name>Course à pied matinale</name>
  </metadata>
  <trk>
    <name><![CDATA[Course à pied matinale]]></name>
    <trkseg>
      <trkpt lat="49.42893" lon="1.07825">
        <ele>12.3</ele>
        <time>2021-10-16T06:57:44Z</time>
      </trkpt>
      <trkpt lat="49.42893" lon="1.07824">
        <ele>12.3</ele>
        <time>2021-10-16T06:57:45Z</time>
      </trkpt>
      <trkpt lat="49.42893" lon="1.07823">
        <ele>12.3</ele>
        <time>2021-10-16T06:57:46Z</time>
      </trkpt>
      <trkpt lat="49.42893" lon="1.07824">
        <ele>12.3</ele>
        <time>2021-10-16T06:57:47Z</time>
      </trkpt>
      <trkpt lat="49.42893" lon="1.07823">
        <ele>12.3</ele>
        <time>2021-10-16T06:57:48Z</time>
      </trkpt>
      <trkpt lat="49.42893" lon="1.07823">
        <ele>12.3</ele>
        <time>2021-10-16T06:57:49Z</time>
      </trkpt>
      <trkpt lat="49.42894" lon="1.07822">
        <ele>12.3</ele>
        <time>2021-10-16T06:57:51Z</time>
      </trkpt>
      <trkpt lat="49.42894" lon="1.07821">
        <ele>12.3</ele>
        <time>2021-10-16T06:57:52Z</time>
      </trkpt>
      <trkpt lat="49.42892" lon="1.07821">
        <ele>12.3</ele>
        <time>2021-10-16T06:57:53Z</time>
      </trkpt>
      <trkpt lat="49.42888" lon="1.0782">
        <ele>12.3</ele>
        <time>2021-10-16T06:57:54Z</time>
      </trkpt>
      <trkpt lat="49.42884" lon="1.0782">
        <ele>12.3</ele>
        <time>2021-10-16T06:57:55Z</time>
      </trkpt>
      <trkpt lat="49.4288" lon="1.07819">
        <ele>12.4</ele>
        <time>2021-10-16T06:57:56Z</time>
      </trkpt>
      <trkpt lat="49.42876" lon="1.07817">
        <ele>12.4</ele>
        <time>2021-10-16T06:57:57Z</time>
      </trkpt>
      <trkpt lat="49.42872" lon="1.07816">
        <ele>12.4</ele>
        <time>2021-10-16T06:57:58Z</time>
      </trkpt>
      <trkpt lat="49.42868" lon="1.07814">
        <ele>12.5</ele>
        <time>2021-10-16T06:57:59Z</time>
      </trkpt>
      <trkpt lat="49.42864" lon="1.07813">
        <ele>12.5</ele>
        <time>2021-10-16T06:58:00Z</time>
      </trkpt>
      <trkpt lat="49.4286" lon="1.07812">
        <ele>12.6</ele>
        <time>2021-10-16T06:58:02Z</time>
      </trkpt>
      <trkpt lat="49.42857" lon="1.0781">
        <ele>12.6</ele>
        <time>2021-10-16T06:58:03Z</time>
      </trkpt>
      <trkpt lat="49.42854" lon="1.07808">
        <ele>12.6</ele>
        <time>2021-10-16T06:58:04Z</time>
      </trkpt>
      <trkpt lat="49.42851" lon="1.07807">
        <ele>12.6</ele>
        <time>2021-10-16T06:58:05Z</time>
      </trkpt>
      <trkpt lat="49.42848" lon="1.07805">
        <ele>12.7</ele>
        <time>2021-10-16T06:58:06Z</time>
      </trkpt>
      <trkpt lat="49.42844" lon="1.07803">
        <ele>12.7</ele>
        <time>2021-10-16T06:58:08Z</time>
      </trkpt>
      <trkpt lat="49.42841" lon="1.07802">
        <ele>12.7</ele>
        <time>2021-10-16T06:58:09Z</time>
      </trkpt>
      <trkpt lat="49.42837" lon="1.07802">
        <ele>12.7</ele>
        <time>2021-10-16T06:58:10Z</time>
      </trkpt>
      <trkpt lat="49.42836" lon="1.07801">
        <ele>12.7</ele>
        <time>2021-10-16T06:58:11Z</time>
      </trkpt>
      <trkpt lat="49.42832" lon="1.078">
        <ele>12.7</ele>
        <time>2021-10-16T06:58:12Z</time>
      </trkpt>
      <trkpt lat="49.42831" lon="1.078">
        <ele>12.7</ele>
        <time>2021-10-16T06:58:13Z</time>
      </trkpt>
      <trkpt lat="49.42827" lon="1.07799">
        <ele>12.7</ele>
        <time>2021-10-16T06:58:15Z</time>
      </trkpt>
      <trkpt lat="49.42826" lon="1.07798">
        <ele>12.7</ele>
        <time>2021-10-16T06:58:16Z</time>
      </trkpt>
      <trkpt lat="49.42823" lon="1.07797">
        <ele>12.8</ele>
        <time>2021-10-16T06:58:17Z</time>
      </trkpt>
      <trkpt lat="49.4282" lon="1.07795">
        <ele>12.8</ele>
        <time>2021-10-16T06:58:18Z</time>
      </trkpt>
      <trkpt lat="49.42818" lon="1.07793">
        <ele>12.8</ele>
        <time>2021-10-16T06:58:19Z</time>
      </trkpt>
      <trkpt lat="49.42814" lon="1.0779">
        <ele>12.8</ele>
        <time>2021-10-16T06:58:21Z</time>
      </trkpt>
      <trkpt lat="49.4281" lon="1.07786">
        <ele>12.8</ele>
        <time>2021-10-16T06:58:22Z</time>
      </trkpt>
      <trkpt lat="49.42808" lon="1.07782">
        <ele>12.8</ele>
        <time>2021-10-16T06:58:23Z</time>
      </trkpt>
      <trkpt lat="49.42804" lon="1.07777">
        <ele>12.8</ele>
        <time>2021-10-16T06:58:25Z</time>
      </trkpt>
      <trkpt lat="49.42801" lon="1.07774">
        <ele>12.8</ele>
        <time>2021-10-16T06:58:26Z</time>
      </trkpt>
      <trkpt lat="49.42798" lon="1.07769">
        <ele>12.8</ele>
        <time>2021-10-16T06:58:27Z</time>
      </trkpt>
      <trkpt lat="49.42795" lon="1.07766">
        <ele>12.9</ele>
        <time>2021-10-16T06:58:28Z</time>
      </trkpt>
      <trkpt lat="49.42793" lon="1.07762">
        <ele>12.9</ele>
        <time>2021-10-16T06:58:30Z</time>
      </trkpt>
      <trkpt lat="49.42789" lon="1.0776">
        <ele>12.9</ele>
        <time>2021-10-16T06:58:31Z</time>
      </trkpt>
      <trkpt lat="49.42786" lon="1.07758">
        <ele>12.9</ele>
        <time>2021-10-16T06:58:32Z</time>
      </trkpt>
      <trkpt lat="49.42783" lon="1.07755">
        <ele>12.9</ele>
        <time>2021-10-16T06:58:33Z</time>
      </trkpt>
      <trkpt lat="49.4278" lon="1.07753">
        <ele>12.9</ele>
        <time>2021-10-16T06:58:34Z</time>
      </trkpt>
      <trkpt lat="49.42777" lon="1.0775">
        <ele>12.9</ele>
        <time>2021-10-16T06:58:36Z</time>
      </trkpt>
      <trkpt lat="49.42773" lon="1.07747">
        <ele>12.9</ele>
        <time>2021-10-16T06:58:37Z</time>
      </trkpt>
      <trkpt lat="49.4277" lon="1.07746">
        <ele>13</ele>
        <time>2021-10-16T06:58:38Z</time>
      </trkpt>
      <trkpt lat="49.42767" lon="1.07742">
        <ele>13</ele>
        <time>2021-10-16T06:58:40Z</time>
      </trkpt>
      <trkpt lat="49.42764" lon="1.0774">
        <ele>13</ele>
        <time>2021-10-16T06:58:41Z</time>
      </trkpt>
      <trkpt lat="49.42762" lon="1.07737">
        <ele>13</ele>
        <time>2021-10-16T06:58:42Z</time>
      </trkpt>
      <trkpt lat="49.42759" lon="1.07735">
        <ele>13</ele>
        <time>2021-10-16T06:58:43Z</time>
      </trkpt>
      <trkpt lat="49.42754" lon="1.07731">
        <ele>13</ele>
        <time>2021-10-16T06:58:45Z</time>
      </trkpt>
      <trkpt lat="49.42752" lon="1.07729">
        <ele>13</ele>
        <time>2021-10-16T06:58:46Z</time>
      </trkpt>
      <trkpt lat="49.42748" lon="1.07728">
        <ele>13</ele>
        <time>2021-10-16T06:58:47Z</time>
      </trkpt>
      <trkpt lat="49.42745" lon="1.07726">
        <ele>13</ele>
        <time>2021-10-16T06:58:48Z</time>
      </trkpt>
      <trkpt lat="49.42742" lon="1.07723">
        <ele>13</ele>
        <time>2021-10-16T06:58:50Z</time>
      </trkpt>
      <trkpt lat="49.42738" lon="1.07719">
        <ele>13.1</ele>
        <time>2021-10-16T06:58:51Z</time>
      </trkpt>
      <trkpt lat="49.42736" lon="1.07717">
        <ele>13.1</ele>
        <time>2021-10-16T06:58:52Z</time>
      </trkpt>
      <trkpt lat="49.42732" lon="1.07715">
        <ele>13.1</ele>
        <time>2021-10-16T06:58:54Z</time>
      </trkpt>
      <trkpt lat="49.42729" lon="1.07714">
        <ele>13.1</ele>
        <time>2021-10-16T06:58:55Z</time>
      </trkpt>
      <trkpt lat="49.42725" lon="1.07715">
        <ele>13.2</ele>
        <time>2021-10-16T06:58:56Z</time>
      </trkpt>
      <trkpt lat="49.42721" lon="1.07714">
        <ele>13.2</ele>
        <time>2021-10-16T06:58:58Z</time>
      </trkpt>
      <trkpt lat="49.42718" lon="1.07713">
        <ele>13.2</ele>
        <time>2021-10-16T06:58:59Z</time>
      </trkpt>
      <trkpt lat="49.42716" lon="1.07709">
        <ele>13.2</ele>
        <time>2021-10-16T06:59:00Z</time>
      </trkpt>
      <trkpt lat="49.42713" lon="1.07706">
        <ele>13.2</ele>
        <time>2021-10-16T06:59:01Z</time>
      </trkpt>
      <trkpt lat="49.4271" lon="1.07702">
        <ele>13.3</ele>
        <time>2021-10-16T06:59:02Z</time>
      </trkpt>
      <trkpt lat="49.42707" lon="1.07701">
        <ele>13.2</ele>
        <time>2021-10-16T06:59:04Z</time>
      </trkpt>
      <trkpt lat="49.42704" lon="1.077">
        <ele>13.2</ele>
        <time>2021-10-16T06:59:05Z</time>
      </trkpt>
      <trkpt lat="49.42702" lon="1.07699">
        <ele>13.2</ele>
        <time>2021-10-16T06:59:06Z</time>
      </trkpt>
      <trkpt lat="49.42701" lon="1.07698">
        <ele>13.1</ele>
        <time>2021-10-16T06:59:07Z</time>
      </trkpt>
      <trkpt lat="49.42696" lon="1.07696">
        <ele>13.1</ele>
        <time>2021-10-16T06:59:09Z</time>
      </trkpt>
      <trkpt lat="49.42695" lon="1.07695">
        <ele>13.1</ele>
        <time>2021-10-16T06:59:10Z</time>
      </trkpt>
      <trkpt lat="49.42693" lon="1.07695">
        <ele>13</ele>
        <time>2021-10-16T06:59:11Z</time>
      </trkpt>
      <trkpt lat="49.42689" lon="1.07695">
        <ele>13</ele>
        <time>2021-10-16T06:59:12Z</time>
      </trkpt>
      <trkpt lat="49.42688" lon="1.07696">
        <ele>13</ele>
        <time>2021-10-16T06:59:13Z</time>
      </trkpt>
      <trkpt lat="49.42683" lon="1.07695">
        <ele>13</ele>
        <time>2021-10-16T06:59:15Z</time>
      </trkpt>
      <trkpt lat="49.42679" lon="1.07694">
        <ele>12.9</ele>
        <time>2021-10-16T06:59:16Z</time>
      </trkpt>
      <trkpt lat="49.42674" lon="1.07693">
        <ele>12.8</ele>
        <time>2021-10-16T06:59:18Z</time>
      </trkpt>
      <trkpt lat="49.42671" lon="1.07692">
        <ele>12.8</ele>
        <time>2021-10-16T06:59:19Z</time>
      </trkpt>
      <trkpt lat="49.42667" lon="1.0769">
        <ele>12.7</ele>
        <time>2021-10-16T06:59:20Z</time>
      </trkpt>
      <trkpt lat="49.42662" lon="1.07689">
        <ele>12.6</ele>
        <time>2021-10-16T06:59:21Z</time>
      </trkpt>
      <trkpt lat="49.42658" lon="1.07687">
        <ele>12.5</ele>
        <time>2021-10-16T06:59:23Z</time>
      </trkpt>
      <trkpt lat="49.42654" lon="1.07686">
        <ele>12.4</ele>
        <time>2021-10-16T06:59:24Z</time>
      </trkpt>
      <trkpt lat="49.42649" lon="1.07684">
        <ele>12.3</ele>
        <time>2021-10-16T06:59:25Z</time>
      </trkpt>
      <trkpt lat="49.42646" lon="1.07683">
        <ele>12.2</ele>
        <time>2021-10-16T06:59:26Z</time>
      </trkpt>
      <trkpt lat="49.42642" lon="1.0768">
        <ele>12.1</ele>
        <time>2021-10-16T06:59:28Z</time>
      </trkpt>
      <trkpt lat="49.42638" lon="1.07679">
        <ele>12</ele>
        <time>2021-10-16T06:59:29Z</time>
      </trkpt>
      <trkpt lat="49.42636" lon="1.07677">
        <ele>11.9</ele>
        <time>2021-10-16T06:59:30Z</time>
      </trkpt>
      <trkpt lat="49.42633" lon="1.07675">
        <ele>11.8</ele>
        <time>2021-10-16T06:59:31Z</time>
      </trkpt>
      <trkpt lat="49.4263" lon="1.07674">
        <ele>11.8</ele>
        <time>2021-10-16T06:59:32Z</time>
      </trkpt>
      <trkpt lat="49.42626" lon="1.07671">
        <ele>11.6</ele>
        <time>2021-10-16T06:59:34Z</time>
      </trkpt>
      <trkpt lat="49.42623" lon="1.0767">
        <ele>11.6</ele>
        <time>2021-10-16T06:59:35Z</time>
      </trkpt>
      <trkpt lat="49.42621" lon="1.07668">
        <ele>11.5</ele>
        <time>2021-10-16T06:59:36Z</time>
      </trkpt>
      <trkpt lat="49.42617" lon="1.07666">
        <ele>11.4</ele>
        <time>2021-10-16T06:59:38Z</time>
      </trkpt>
      <trkpt lat="49.42614" lon="1.07665">
        <ele>11.4</ele>
        <time>2021-10-16T06:59:39Z</time>
      </trkpt>
      <trkpt lat="49.42611" lon="1.07664">
        <ele>11.3</ele>
        <time>2021-10-16T06:59:40Z</time>
      </trkpt>
      <trkpt lat="49.42608" lon="1.07661">
        <ele>11.2</ele>
        <time>2021-10-16T06:59:41Z</time>
      </trkpt>
      <trkpt lat="49.42604" lon="1.0766">
        <ele>11.1</ele>
        <time>2021-10-16T06:59:43Z</time>
      </trkpt>
      <trkpt lat="49.426" lon="1.07657">
        <ele>11</ele>
        <time>2021-10-16T06:59:44Z</time>
      </trkpt>
      <trkpt lat="49.42598" lon="1.07656">
        <ele>11</ele>
        <time>2021-10-16T06:59:45Z</time>
      </trkpt>
      <trkpt lat="49.42592" lon="1.07653">
        <ele>10.9</ele>
        <time>2021-10-16T06:59:47Z</time>
      </trkpt>
      <trkpt lat="49.42589" lon="1.07652">
        <ele>10.8</ele>
        <time>2021-10-16T06:59:48Z</time>
      </trkpt>
      <trkpt lat="49.42585" lon="1.0765">
        <ele>10.7</ele>
        <time>2021-10-16T06:59:49Z</time>
      </trkpt>
      <trkpt lat="49.42582" lon="1.07648">
        <ele>10.6</ele>
        <time>2021-10-16T06:59:50Z</time>
      </trkpt>
      <trkpt lat="49.42578" lon="1.07645">
        <ele>10.6</ele>
        <time>2021-10-16T06:59:51Z</time>
      </trkpt>
      <trkpt lat="49.42573" lon="1.07642">
        <ele>10.5</ele>
        <time>2021-10-16T06:59:53Z</time>
      </trkpt>
      <trkpt lat="49.4257" lon="1.0764">
        <ele>10.4</ele>
        <time>2021-10-16T06:59:54Z</time>
      </trkpt>
      <trkpt lat="49.42567" lon="1.07638">
        <ele>10.3</ele>
        <time>2021-10-16T06:59:55Z</time>
      </trkpt>
      <trkpt lat="49.42565" lon="1.07636">
        <ele>10.3</ele>
        <time>2021-10-16T06:59:57Z</time>
      </trkpt>
      <trkpt lat="49.42562" lon="1.07633">
        <ele>10.2</ele>
        <time>2021-10-16T06:59:58Z</time>
      </trkpt>
      <trkpt lat="49.42559" lon="1.07632">
        <ele>10.2</ele>
        <time>2021-10-16T06:59:59Z</time>
      </trkpt>
      <trkpt lat="49.42556" lon="1.0763">
        <ele>10.1</ele>
        <time>2021-10-16T07:00:00Z</time>
      </trkpt>
      <trkpt lat="49.42553" lon="1.07628">
        <ele>10.1</ele>
        <time>2021-10-16T07:00:01Z</time>
      </trkpt>
      <trkpt lat="49.4255" lon="1.07626">
        <ele>10.1</ele>
        <time>2021-10-16T07:00:02Z</time>
      </trkpt>
      <trkpt lat="49.42546" lon="1.07625">
        <ele>10</ele>
        <time>2021-10-16T07:00:04Z</time>
      </trkpt>
      <trkpt lat="49.42543" lon="1.07623">
        <ele>10</ele>
        <time>2021-10-16T07:00:05Z</time>
      </trkpt>
      <trkpt lat="49.42541" lon="1.07621">
        <ele>10</ele>
        <time>2021-10-16T07:00:06Z</time>
      </trkpt>
      <trkpt lat="49.42537" lon="1.07619">
        <ele>9.9</ele>
        <time>2021-10-16T07:00:07Z</time>
      </trkpt>
      <trkpt lat="49.42533" lon="1.07618">
        <ele>9.9</ele>
        <time>2021-10-16T07:00:09Z</time>
      </trkpt>
      <trkpt lat="49.4253" lon="1.07616">
        <ele>9.9</ele>
        <time>2021-10-16T07:00:10Z</time>
      </trkpt>
      <trkpt lat="49.42528" lon="1.07615">
        <ele>9.8</ele>
        <time>2021-10-16T07:00:11Z</time>
      </trkpt>
      <trkpt lat="49.42524" lon="1.07613">
        <ele>9.8</ele>
        <time>2021-10-16T07:00:12Z</time>
      </trkpt>
      <trkpt lat="49.42522" lon="1.07612">
        <ele>9.8</ele>
        <time>2021-10-16T07:00:13Z</time>
      </trkpt>
      <trkpt lat="49.42518" lon="1.0761">
        <ele>9.7</ele>
        <time>2021-10-16T07:00:15Z</time>
      </trkpt>
      <trkpt lat="49.42515" lon="1.07608">
        <ele>9.7</ele>
        <time>2021-10-16T07:00:16Z</time>
      </trkpt>
      <trkpt lat="49.42511" lon="1.07605">
        <ele>9.7</ele>
        <time>2021-10-16T07:00:17Z</time>
      </trkpt>
      <trkpt lat="49.42507" lon="1.07601">
        <ele>9.7</ele>
        <time>2021-10-16T07:00:19Z</time>
      </trkpt>
      <trkpt lat="49.42504" lon="1.07598">
        <ele>9.6</ele>
        <time>2021-10-16T07:00:20Z</time>
      </trkpt>
      <trkpt lat="49.42501" lon="1.07595">
        <ele>9.6</ele>
        <time>2021-10-16T07:00:21Z</time>
      </trkpt>
      <trkpt lat="49.42498" lon="1.07592">
        <ele>9.6</ele>
        <time>2021-10-16T07:00:22Z</time>
      </trkpt>
      <trkpt lat="49.42495" lon="1.0759">
        <ele>9.6</ele>
        <time>2021-10-16T07:00:23Z</time>
      </trkpt>
      <trkpt lat="49.42491" lon="1.07588">
        <ele>9.6</ele>
        <time>2021-10-16T07:00:24Z</time>
      </trkpt>
      <trkpt lat="49.42487" lon="1.07586">
        <ele>9.6</ele>
        <time>2021-10-16T07:00:26Z</time>
      </trkpt>
      <trkpt lat="49.42484" lon="1.07583">
        <ele>9.6</ele>
        <time>2021-10-16T07:00:27Z</time>
      </trkpt>
      <trkpt lat="49.42483" lon="1.07582">
        <ele>9.6</ele>
        <time>2021-10-16T07:00:28Z</time>
      </trkpt>
      <trkpt lat="49.42479" lon="1.07577">
        <ele>9.6</ele>
        <time>2021-10-16T07:00:30Z</time>
      </trkpt>
      <trkpt lat="49.42478" lon="1.07576">
        <ele>9.6</ele>
        <time>2021-10-16T07:00:31Z</time>
      </trkpt>
      <trkpt lat="49.42476" lon="1.07574">
        <ele>9.6</ele>
        <time>2021-10-16T07:00:32Z</time>
      </trkpt>
      <trkpt lat="49.42473" lon="1.07571">
        <ele>9.6</ele>
        <time>2021-10-16T07:00:33Z</time>
      </trkpt>
      <trkpt lat="49.42472" lon="1.0757">
        <ele>9.6</ele>
        <time>2021-10-16T07:00:34Z</time>
      </trkpt>
      <trkpt lat="49.42469" lon="1.07566">
        <ele>9.6</ele>
        <time>2021-10-16T07:00:36Z</time>
      </trkpt>
      <trkpt lat="49.42466" lon="1.07564">
        <ele>9.6</ele>
        <time>2021-10-16T07:00:37Z</time>
      </trkpt>
      <trkpt lat="49.42463" lon="1.07561">
        <ele>9.6</ele>
        <time>2021-10-16T07:00:39Z</time>
      </trkpt>
      <trkpt lat="49.42459" lon="1.07558">
        <ele>9.6</ele>
        <time>2021-10-16T07:00:40Z</time>
      </trkpt>
      <trkpt lat="49.42457" lon="1.07557">
        <ele>9.6</ele>
        <time>2021-10-16T07:00:41Z</time>
      </trkpt>
      <trkpt lat="49.42454" lon="1.07555">
        <ele>9.6</ele>
        <time>2021-10-16T07:00:42Z</time>
      </trkpt>
      <trkpt lat="49.4245" lon="1.07552">
        <ele>9.6</ele>
        <time>2021-10-16T07:00:43Z</time>
      </trkpt>
      <trkpt lat="49.42446" lon="1.07551">
        <ele>9.6</ele>
        <time>2021-10-16T07:00:44Z</time>
      </trkpt>
      <trkpt lat="49.42442" lon="1.07551">
        <ele>9.6</ele>
        <time>2021-10-16T07:00:45Z</time>
      </trkpt>
      <trkpt lat="49.42439" lon="1.07551">
        <ele>9.5</ele>
        <time>2021-10-16T07:00:46Z</time>
      </trkpt>
      <trkpt lat="49.42434" lon="1.07552">
        <ele>9.5</ele>
        <time>2021-10-16T07:00:48Z</time>
      </trkpt>
      <trkpt lat="49.42429" lon="1.07553">
        <ele>9.5</ele>
        <time>2021-10-16T07:00:49Z</time>
      </trkpt>
      <trkpt lat="49.42425" lon="1.07555">
        <ele>9.5</ele>
        <time>2021-10-16T07:00:50Z</time>
      </trkpt>
      <trkpt lat="49.42422" lon="1.07556">
        <ele>9.5</ele>
        <time>2021-10-16T07:00:51Z</time>
      </trkpt>
      <trkpt lat="49.42415" lon="1.07557">
        <ele>9.6</ele>
        <time>2021-10-16T07:00:53Z</time>
      </trkpt>
      <trkpt lat="49.42409" lon="1.07557">
        <ele>9.6</ele>
        <time>2021-10-16T07:00:55Z</time>
      </trkpt>
      <trkpt lat="49.42404" lon="1.07556">
        <ele>9.7</ele>
        <time>2021-10-16T07:00:57Z</time>
      </trkpt>
      <trkpt lat="49.424" lon="1.07552">
        <ele>9.7</ele>
        <time>2021-10-16T07:00:59Z</time>
      </trkpt>
      <trkpt lat="49.42399" lon="1.07552">
        <ele>9.7</ele>
        <time>2021-10-16T07:01:00Z</time>
      </trkpt>
      <trkpt lat="49.42398" lon="1.07551">
        <ele>9.8</ele>
        <time>2021-10-16T07:01:01Z</time>
      </trkpt>
      <trkpt lat="49.42394" lon="1.07548">
        <ele>9.8</ele>
        <time>2021-10-16T07:01:03Z</time>
      </trkpt>
      <trkpt lat="49.42392" lon="1.07547">
        <ele>9.8</ele>
        <time>2021-10-16T07:01:04Z</time>
      </trkpt>
      <trkpt lat="49.4239" lon="1.07546">
        <ele>9.9</ele>
        <time>2021-10-16T07:01:05Z</time>
      </trkpt>
      <trkpt lat="49.42387" lon="1.07544">
        <ele>9.9</ele>
        <time>2021-10-16T07:01:07Z</time>
      </trkpt>
      <trkpt lat="49.42385" lon="1.07543">
        <ele>9.9</ele>
        <time>2021-10-16T07:01:08Z</time>
      </trkpt>
      <trkpt lat="49.42382" lon="1.07541">
        <ele>10</ele>
        <time>2021-10-16T07:01:09Z</time>
      </trkpt>
      <trkpt lat="49.42379" lon="1.07539">
        <ele>10.1</ele>
        <time>2021-10-16T07:01:10Z</time>
      </trkpt>
      <trkpt lat="49.42377" lon="1.07537">
        <ele>10.1</ele>
        <time>2021-10-16T07:01:11Z</time>
      </trkpt>
      <trkpt lat="49.42374" lon="1.07536">
        <ele>10.2</ele>
        <time>2021-10-16T07:01:12Z</time>
      </trkpt>
      <trkpt lat="49.42372" lon="1.07535">
        <ele>10.2</ele>
        <time>2021-10-16T07:01:14Z</time>
      </trkpt>
      <trkpt lat="49.42369" lon="1.07534">
        <ele>10.3</ele>
        <time>2021-10-16T07:01:15Z</time>
      </trkpt>
      <trkpt lat="49.42365" lon="1.0753">
        <ele>10.4</ele>
        <time>2021-10-16T07:01:16Z</time>
      </trkpt>
      <trkpt lat="49.42361" lon="1.07528">
        <ele>10.5</ele>
        <time>2021-10-16T07:01:17Z</time>
      </trkpt>
      <trkpt lat="49.42357" lon="1.07524">
        <ele>10.6</ele>
        <time>2021-10-16T07:01:18Z</time>
      </trkpt>
      <trkpt lat="49.42351" lon="1.07522">
        <ele>10.7</ele>
        <time>2021-10-16T07:01:20Z</time>
      </trkpt>
      <trkpt lat="49.42347" lon="1.0752">
        <ele>10.8</ele>
        <time>2021-10-16T07:01:21Z</time>
      </trkpt>
      <trkpt lat="49.42342" lon="1.07518">
        <ele>10.9</ele>
        <time>2021-10-16T07:01:22Z</time>
      </trkpt>
      <trkpt lat="49.42338" lon="1.07515">
        <ele>11</ele>
        <time>2021-10-16T07:01:23Z</time>
      </trkpt>
      <trkpt lat="49.42334" lon="1.07512">
        <ele>11.1</ele>
        <time>2021-10-16T07:01:25Z</time>
      </trkpt>
      <trkpt lat="49.42331" lon="1.0751">
        <ele>11.2</ele>
        <time>2021-10-16T07:01:26Z</time>
      </trkpt>
      <trkpt lat="49.4233" lon="1.07509">
        <ele>11.2</ele>
        <time>2021-10-16T07:01:27Z</time>
      </trkpt>
      <trkpt lat="49.42326" lon="1.07507">
        <ele>11.3</ele>
        <time>2021-10-16T07:01:28Z</time>
      </trkpt>
      <trkpt lat="49.42325" lon="1.07506">
        <ele>11.3</ele>
        <time>2021-10-16T07:01:29Z</time>
      </trkpt>
      <trkpt lat="49.42321" lon="1.07505">
        <ele>11.4</ele>
        <time>2021-10-16T07:01:31Z</time>
      </trkpt>
      <trkpt lat="49.42319" lon="1.07504">
        <ele>11.5</ele>
        <time>2021-10-16T07:01:32Z</time>
      </trkpt>
      <trkpt lat="49.42318" lon="1.07503">
        <ele>11.5</ele>
        <time>2021-10-16T07:01:33Z</time>
      </trkpt>
      <trkpt lat="49.42314" lon="1.07501">
        <ele>11.6</ele>
        <time>2021-10-16T07:01:34Z</time>
      </trkpt>
      <trkpt lat="49.42313" lon="1.075">
        <ele>11.7</ele>
        <time>2021-10-16T07:01:35Z</time>
      </trkpt>
      <trkpt lat="49.4231" lon="1.07497">
        <ele>11.8</ele>
        <time>2021-10-16T07:01:36Z</time>
      </trkpt>
      <trkpt lat="49.42308" lon="1.07496">
        <ele>11.8</ele>
        <time>2021-10-16T07:01:37Z</time>
      </trkpt>
      <trkpt lat="49.42302" lon="1.07493">
        <ele>12</ele>
        <time>2021-10-16T07:01:39Z</time>
      </trkpt>
      <trkpt lat="49.42298" lon="1.07491">
        <ele>12.1</ele>
        <time>2021-10-16T07:01:40Z</time>
      </trkpt>
      <trkpt lat="49.42292" lon="1.07488">
        <ele>12.3</ele>
        <time>2021-10-16T07:01:41Z</time>
      </trkpt>
      <trkpt lat="49.42289" lon="1.07486">
        <ele>12.4</ele>
        <time>2021-10-16T07:01:42Z</time>
      </trkpt>
      <trkpt lat="49.42285" lon="1.07484">
        <ele>12.6</ele>
        <time>2021-10-16T07:01:44Z</time>
      </trkpt>
      <trkpt lat="49.42282" lon="1.07481">
        <ele>12.7</ele>
        <time>2021-10-16T07:01:45Z</time>
      </trkpt>
      <trkpt lat="49.42279" lon="1.07479">
        <ele>12.8</ele>
        <time>2021-10-16T07:01:46Z</time>
      </trkpt>
      <trkpt lat="49.42274" lon="1.07476">
        <ele>12.9</ele>
        <time>2021-10-16T07:01:47Z</time>
      </trkpt>
      <trkpt lat="49.42271" lon="1.07474">
        <ele>13</ele>
        <time>2021-10-16T07:01:48Z</time>
      </trkpt>
      <trkpt lat="49.42269" lon="1.07473">
        <ele>13.1</ele>
        <time>2021-10-16T07:01:49Z</time>
      </trkpt>
      <trkpt lat="49.42265" lon="1.07471">
        <ele>13.2</ele>
        <time>2021-10-16T07:01:51Z</time>
      </trkpt>
      <trkpt lat="49.42261" lon="1.0747">
        <ele>13.4</ele>
        <time>2021-10-16T07:01:52Z</time>
      </trkpt>
      <trkpt lat="49.42258" lon="1.07469">
        <ele>13.5</ele>
        <time>2021-10-16T07:01:53Z</time>
      </trkpt>
      <trkpt lat="49.42256" lon="1.07468">
        <ele>13.6</ele>
        <time>2021-10-16T07:01:54Z</time>
      </trkpt>
      <trkpt lat="49.42251" lon="1.07466">
        <ele>13.8</ele>
        <time>2021-10-16T07:01:56Z</time>
      </trkpt>
      <trkpt lat="49.42248" lon="1.07464">
        <ele>13.9</ele>
        <time>2021-10-16T07:01:57Z</time>
      </trkpt>
      <trkpt lat="49.42245" lon="1.07463">
        <ele>14</ele>
        <time>2021-10-16T07:01:58Z</time>
      </trkpt>
      <trkpt lat="49.4224" lon="1.0746">
        <ele>14.2</ele>
        <time>2021-10-16T07:02:00Z</time>
      </trkpt>
      <trkpt lat="49.42237" lon="1.07458">
        <ele>14.3</ele>
        <time>2021-10-16T07:02:01Z</time>
      </trkpt>
      <trkpt lat="49.42234" lon="1.07457">
        <ele>14.5</ele>
        <time>2021-10-16T07:02:02Z</time>
      </trkpt>
      <trkpt lat="49.42231" lon="1.07456">
        <ele>14.6</ele>
        <time>2021-10-16T07:02:03Z</time>
      </trkpt>
      <trkpt lat="49.42228" lon="1.07454">
        <ele>14.7</ele>
        <time>2021-10-16T07:02:04Z</time>
      </trkpt>
      <trkpt lat="49.42227" lon="1.07454">
        <ele>14.8</ele>
        <time>2021-10-16T07:02:05Z</time>
      </trkpt>
      <trkpt lat="49.42223" lon="1.07454">
        <ele>14.9</ele>
        <time>2021-10-16T07:02:07Z</time>
      </trkpt>
      <trkpt lat="49.42221" lon="1.07454">
        <ele>15</ele>
        <time>2021-10-16T07:02:08Z</time>
      </trkpt>
      <trkpt lat="49.4222" lon="1.07452">
        <ele>15</ele>
        <time>2021-10-16T07:02:09Z</time>
      </trkpt>
      <trkpt lat="49.42218" lon="1.07451">
        <ele>15.1</ele>
        <time>2021-10-16T07:02:10Z</time>
      </trkpt>
      <trkpt lat="49.42217" lon="1.0745">
        <ele>15.2</ele>
        <time>2021-10-16T07:02:11Z</time>
      </trkpt>
      <trkpt lat="49.42216" lon="1.07449">
        <ele>15.2</ele>
        <time>2021-10-16T07:02:13Z</time>
      </trkpt>
      <trkpt lat="49.42214" lon="1.07448">
        <ele>15.3</ele>
        <time>2021-10-16T07:02:14Z</time>
      </trkpt>
      <trkpt lat="49.42212" lon="1.07446">
        <ele>15.4</ele>
        <time>2021-10-16T07:02:15Z</time>
      </trkpt>
      <trkpt lat="49.42209" lon="1.07444">
        <ele>15.5</ele>
        <time>2021-10-16T07:02:16Z</time>
      </trkpt>
      <trkpt lat="49.42206" lon="1.07442">
        <ele>15.6</ele>
        <time>2021-10-16T07:02:17Z</time>
      </trkpt>
      <trkpt lat="49.42201" lon="1.0744">
        <ele>15.7</ele>
        <time>2021-10-16T07:02:19Z</time>
      </trkpt>
      <trkpt lat="49.42199" lon="1.07437">
        <ele>15.8</ele>
        <time>2021-10-16T07:02:20Z</time>
      </trkpt>
      <trkpt lat="49.42196" lon="1.07434">
        <ele>15.9</ele>
        <time>2021-10-16T07:02:21Z</time>
      </trkpt>
      <trkpt lat="49.42195" lon="1.07432">
        <ele>16</ele>
        <time>2021-10-16T07:02:22Z</time>
      </trkpt>
      <trkpt lat="49.42192" lon="1.07429">
        <ele>16.1</ele>
        <time>2021-10-16T07:02:23Z</time>
      </trkpt>
      <trkpt lat="49.42191" lon="1.07428">
        <ele>16.1</ele>
        <time>2021-10-16T07:02:24Z</time>
      </trkpt>
      <trkpt lat="49.42189" lon="1.07427">
        <ele>16.2</ele>
        <time>2021-10-16T07:02:25Z</time>
      </trkpt>
      <trkpt lat="49.42186" lon="1.07424">
        <ele>16.3</ele>
        <time>2021-10-16T07:02:26Z</time>
      </trkpt>
      <trkpt lat="49.42182" lon="1.07421">
        <ele>16.4</ele>
        <time>2021-10-16T07:02:28Z</time>
      </trkpt>
      <trkpt lat="49.42177" lon="1.07417">
        <ele>16.6</ele>
        <time>2021-10-16T07:02:29Z</time>
      </trkpt>
      <trkpt lat="49.42173" lon="1.07414">
        <ele>16.7</ele>
        <time>2021-10-16T07:02:30Z</time>
      </trkpt>
      <trkpt lat="49.4217" lon="1.07412">
        <ele>16.8</ele>
        <time>2021-10-16T07:02:31Z</time>
      </trkpt>
      <trkpt lat="49.42167" lon="1.07409">
        <ele>17</ele>
        <time>2021-10-16T07:02:32Z</time>
      </trkpt>
      <trkpt lat="49.42163" lon="1.07406">
        <ele>17.1</ele>
        <time>2021-10-16T07:02:34Z</time>
      </trkpt>
      <trkpt lat="49.42159" lon="1.07404">
        <ele>17.3</ele>
        <time>2021-10-16T07:02:35Z</time>
      </trkpt>
      <trkpt lat="49.42154" lon="1.074">
        <ele>17.4</ele>
        <time>2021-10-16T07:02:36Z</time>
      </trkpt>
      <trkpt lat="49.42149" lon="1.07399">
        <ele>17.6</ele>
        <time>2021-10-16T07:02:37Z</time>
      </trkpt>
      <trkpt lat="49.42145" lon="1.07397">
        <ele>17.8</ele>
        <time>2021-10-16T07:02:39Z</time>
      </trkpt>
      <trkpt lat="49.4214" lon="1.07395">
        <ele>17.9</ele>
        <time>2021-10-16T07:02:40Z</time>
      </trkpt>
      <trkpt lat="49.42135" lon="1.07393">
        <ele>18.1</ele>
        <time>2021-10-16T07:02:41Z</time>
      </trkpt>
      <trkpt lat="49.4213" lon="1.07391">
        <ele>18.3</ele>
        <time>2021-10-16T07:02:43Z</time>
      </trkpt>
      <trkpt lat="49.42127" lon="1.07389">
        <ele>18.4</ele>
        <time>2021-10-16T07:02:44Z</time>
      </trkpt>
      <trkpt lat="49.42124" lon="1.07388">
        <ele>18.5</ele>
        <time>2021-10-16T07:02:45Z</time>
      </trkpt>
      <trkpt lat="49.42121" lon="1.07387">
        <ele>18.7</ele>
        <time>2021-10-16T07:02:46Z</time>
      </trkpt>
      <trkpt lat="49.42118" lon="1.07386">
        <ele>18.8</ele>
        <time>2021-10-16T07:02:47Z</time>
      </trkpt>
      <trkpt lat="49.42114" lon="1.07384">
        <ele>18.9</ele>
        <time>2021-10-16T07:02:49Z</time>
      </trkpt>
      <trkpt lat="49.42111" lon="1.07382">
        <ele>19</ele>
        <time>2021-10-16T07:02:50Z</time>
      </trkpt>
      <trkpt lat="49.42107" lon="1.0738">
        <ele>19.2</ele>
        <time>2021-10-16T07:02:51Z</time>
      </trkpt>
      <trkpt lat="49.42104" lon="1.07377">
        <ele>19.3</ele>
        <time>2021-10-16T07:02:52Z</time>
      </trkpt>
      <trkpt lat="49.421" lon="1.07373">
        <ele>19.5</ele>
        <time>2021-10-16T07:02:53Z</time>
      </trkpt>
      <trkpt lat="49.42097" lon="1.07371">
        <ele>19.6</ele>
        <time>2021-10-16T07:02:54Z</time>
      </trkpt>
      <trkpt lat="49.42092" lon="1.07369">
        <ele>19.8</ele>
        <time>2021-10-16T07:02:56Z</time>
      </trkpt>
      <trkpt lat="49.42091" lon="1.07371">
        <ele>19.9</ele>
        <time>2021-10-16T07:02:57Z</time>
      </trkpt>
      <trkpt lat="49.42093" lon="1.07374">
        <ele>19.8</ele>
        <time>2021-10-16T07:02:58Z</time>
      </trkpt>
      <trkpt lat="49.42095" lon="1.07379">
        <ele>19.8</ele>
        <time>2021-10-16T07:02:59Z</time>
      </trkpt>
      <trkpt lat="49.42096" lon="1.0738">
        <ele>19.8</ele>
        <time>2021-10-16T07:03:00Z</time>
      </trkpt>
      <trkpt lat="49.42098" lon="1.07385">
        <ele>19.8</ele>
        <time>2021-10-16T07:03:02Z</time>
      </trkpt>
      <trkpt lat="49.42099" lon="1.07391">
        <ele>19.8</ele>
        <time>2021-10-16T07:03:03Z</time>
      </trkpt>
      <trkpt lat="49.42099" lon="1.07393">
        <ele>19.8</ele>
        <time>2021-10-16T07:03:04Z</time>
      </trkpt>
      <trkpt lat="49.42099" lon="1.07397">
        <ele>19.8</ele>
        <time>2021-10-16T07:03:05Z</time>
      </trkpt>
      <trkpt lat="49.42099" lon="1.07401">
        <ele>19.8</ele>
        <time>2021-10-16T07:03:06Z</time>
      </trkpt>
      <trkpt lat="49.42099" lon="1.07407">
        <ele>19.7</ele>
        <time>2021-10-16T07:03:08Z</time>
      </trkpt>
      <trkpt lat="49.42099" lon="1.07412">
        <ele>19.7</ele>
        <time>2021-10-16T07:03:09Z</time>
      </trkpt>
      <trkpt lat="49.42098" lon="1.07418">
        <ele>19.6</ele>
        <time>2021-10-16T07:03:10Z</time>
      </trkpt>
      <trkpt lat="49.42097" lon="1.07423">
        <ele>19.6</ele>
        <time>2021-10-16T07:03:11Z</time>
      </trkpt>
      <trkpt lat="49.42097" lon="1.07428">
        <ele>19.5</ele>
        <time>2021-10-16T07:03:12Z</time>
      </trkpt>
      <trkpt lat="49.42096" lon="1.07433">
        <ele>19.5</ele>
        <time>2021-10-16T07:03:13Z</time>
      </trkpt>
      <trkpt lat="49.42095" lon="1.07441">
        <ele>19.4</ele>
        <time>2021-10-16T07:03:15Z</time>
      </trkpt>
      <trkpt lat="49.42096" lon="1.07446">
        <ele>19.4</ele>
        <time>2021-10-16T07:03:16Z</time>
      </trkpt>
      <trkpt lat="49.42096" lon="1.07451">
        <ele>19.3</ele>
        <time>2021-10-16T07:03:17Z</time>
      </trkpt>
      <trkpt lat="49.42096" lon="1.07457">
        <ele>19.2</ele>
        <time>2021-10-16T07:03:18Z</time>
      </trkpt>
      <trkpt lat="49.42098" lon="1.07462">
        <ele>19.1</ele>
        <time>2021-10-16T07:03:19Z</time>
      </trkpt>
      <trkpt lat="49.42099" lon="1.07467">
        <ele>19</ele>
        <time>2021-10-16T07:03:20Z</time>
      </trkpt>
      <trkpt lat="49.421" lon="1.07473">
        <ele>18.9</ele>
        <time>2021-10-16T07:03:22Z</time>
      </trkpt>
      <trkpt lat="49.42101" lon="1.07478">
        <ele>18.8</ele>
        <time>2021-10-16T07:03:23Z</time>
      </trkpt>
      <trkpt lat="49.42102" lon="1.07482">
        <ele>18.6</ele>
        <time>2021-10-16T07:03:24Z</time>
      </trkpt>
      <trkpt lat="49.42103" lon="1.07487">
        <ele>18.5</ele>
        <time>2021-10-16T07:03:25Z</time>
      </trkpt>
      <trkpt lat="49.42104" lon="1.07492">
        <ele>18.3</ele>
        <time>2021-10-16T07:03:26Z</time>
      </trkpt>
      <trkpt lat="49.42105" lon="1.07498">
        <ele>18</ele>
        <time>2021-10-16T07:03:27Z</time>
      </trkpt>
      <trkpt lat="49.42107" lon="1.07503">
        <ele>17.8</ele>
        <time>2021-10-16T07:03:29Z</time>
      </trkpt>
      <trkpt lat="49.4211" lon="1.07507">
        <ele>17.5</ele>
        <time>2021-10-16T07:03:30Z</time>
      </trkpt>
      <trkpt lat="49.42111" lon="1.07512">
        <ele>17.2</ele>
        <time>2021-10-16T07:03:31Z</time>
      </trkpt>
      <trkpt lat="49.42113" lon="1.07517">
        <ele>17.1</ele>
        <time>2021-10-16T07:03:32Z</time>
      </trkpt>
      <trkpt lat="49.42114" lon="1.07522">
        <ele>17.1</ele>
        <time>2021-10-16T07:03:33Z</time>
      </trkpt>
      <trkpt lat="49.42116" lon="1.07526">
        <ele>17</ele>
        <time>2021-10-16T07:03:34Z</time>
      </trkpt>
      <trkpt lat="49.42118" lon="1.07529">
        <ele>16.9</ele>
        <time>2021-10-16T07:03:35Z</time>
      </trkpt>
      <trkpt lat="49.42121" lon="1.07532">
        <ele>16.8</ele>
        <time>2021-10-16T07:03:36Z</time>
      </trkpt>
      <trkpt lat="49.42121" lon="1.07534">
        <ele>16.8</ele>
        <time>2021-10-16T07:03:37Z</time>
      </trkpt>
      <trkpt lat="49.42122" lon="1.0754">
        <ele>16.6</ele>
        <time>2021-10-16T07:03:38Z</time>
      </trkpt>
      <trkpt lat="49.42123" lon="1.07542">
        <ele>16.6</ele>
        <time>2021-10-16T07:03:39Z</time>
      </trkpt>
      <trkpt lat="49.42123" lon="1.07548">
        <ele>16.5</ele>
        <time>2021-10-16T07:03:41Z</time>
      </trkpt>
      <trkpt lat="49.42123" lon="1.07553">
        <ele>16.4</ele>
        <time>2021-10-16T07:03:42Z</time>
      </trkpt>
      <trkpt lat="49.42124" lon="1.07558">
        <ele>16.3</ele>
        <time>2021-10-16T07:03:43Z</time>
      </trkpt>
      <trkpt lat="49.42124" lon="1.07563">
        <ele>16.3</ele>
        <time>2021-10-16T07:03:44Z</time>
      </trkpt>
      <trkpt lat="49.42123" lon="1.07568">
        <ele>16.2</ele>
        <time>2021-10-16T07:03:45Z</time>
      </trkpt>
      <trkpt lat="49.42122" lon="1.07574">
        <ele>16.2</ele>
        <time>2021-10-16T07:03:47Z</time>
      </trkpt>
      <trkpt lat="49.4212" lon="1.07578">
        <ele>16.2</ele>
        <time>2021-10-16T07:03:48Z</time>
      </trkpt>
      <trkpt lat="49.42118" lon="1.07583">
        <ele>16.1</ele>
        <time>2021-10-16T07:03:49Z</time>
      </trkpt>
      <trkpt lat="49.42114" lon="1.07588">
        <ele>16.1</ele>
        <time>2021-10-16T07:03:50Z</time>
      </trkpt>
      <trkpt lat="49.4211" lon="1.07592">
        <ele>16.1</ele>
        <time>2021-10-16T07:03:51Z</time>
      </trkpt>
      <trkpt lat="49.42105" lon="1.07598">
        <ele>16.2</ele>
        <time>2021-10-16T07:03:53Z</time>
      </trkpt>
      <trkpt lat="49.42102" lon="1.07601">
        <ele>16.3</ele>
        <time>2021-10-16T07:03:54Z</time>
      </trkpt>
      <trkpt lat="49.42099" lon="1.07604">
        <ele>16.4</ele>
        <time>2021-10-16T07:03:55Z</time>
      </trkpt>
      <trkpt lat="49.42096" lon="1.07606">
        <ele>16.4</ele>
        <time>2021-10-16T07:03:56Z</time>
      </trkpt>
      <trkpt lat="49.42093" lon="1.07608">
        <ele>16.5</ele>
        <time>2021-10-16T07:03:57Z</time>
      </trkpt>
      <trkpt lat="49.42089" lon="1.0761">
        <ele>16.5</ele>
        <time>2021-10-16T07:03:58Z</time>
      </trkpt>
      <trkpt lat="49.42085" lon="1.07612">
        <ele>16.6</ele>
        <time>2021-10-16T07:04:00Z</time>
      </trkpt>
      <trkpt lat="49.42082" lon="1.07613">
        <ele>16.6</ele>
        <time>2021-10-16T07:04:01Z</time>
      </trkpt>
      <trkpt lat="49.42078" lon="1.07614">
        <ele>16.7</ele>
        <time>2021-10-16T07:04:02Z</time>
      </trkpt>
      <trkpt lat="49.42075" lon="1.07616">
        <ele>16.7</ele>
        <time>2021-10-16T07:04:03Z</time>
      </trkpt>
      <trkpt lat="49.42071" lon="1.07618">
        <ele>16.8</ele>
        <time>2021-10-16T07:04:05Z</time>
      </trkpt>
      <trkpt lat="49.42069" lon="1.07619">
        <ele>16.8</ele>
        <time>2021-10-16T07:04:06Z</time>
      </trkpt>
      <trkpt lat="49.42066" lon="1.07622">
        <ele>16.9</ele>
        <time>2021-10-16T07:04:07Z</time>
      </trkpt>
      <trkpt lat="49.42064" lon="1.07624">
        <ele>16.9</ele>
        <time>2021-10-16T07:04:08Z</time>
      </trkpt>
      <trkpt lat="49.42061" lon="1.07626">
        <ele>16.9</ele>
        <time>2021-10-16T07:04:09Z</time>
      </trkpt>
      <trkpt lat="49.42059" lon="1.07629">
        <ele>16.9</ele>
        <time>2021-10-16T07:04:10Z</time>
      </trkpt>
      <trkpt lat="49.42057" lon="1.07632">
        <ele>16.9</ele>
        <time>2021-10-16T07:04:11Z</time>
      </trkpt>
      <trkpt lat="49.42054" lon="1.07635">
        <ele>17</ele>
        <time>2021-10-16T07:04:13Z</time>
      </trkpt>
      <trkpt lat="49.42051" lon="1.07639">
        <ele>17</ele>
        <time>2021-10-16T07:04:14Z</time>
      </trkpt>
      <trkpt lat="49.42048" lon="1.07641">
        <ele>17</ele>
        <time>2021-10-16T07:04:15Z</time>
      </trkpt>
      <trkpt lat="49.42045" lon="1.07643">
        <ele>17</ele>
        <time>2021-10-16T07:04:16Z</time>
      </trkpt>
      <trkpt lat="49.42042" lon="1.07647">
        <ele>17.1</ele>
        <time>2021-10-16T07:04:17Z</time>
      </trkpt>
      <trkpt lat="49.42041" lon="1.07648">
        <ele>17.1</ele>
        <time>2021-10-16T07:04:18Z</time>
      </trkpt>
      <trkpt lat="49.42039" lon="1.07652">
        <ele>17.2</ele>
        <time>2021-10-16T07:04:19Z</time>
      </trkpt>
      <trkpt lat="49.42038" lon="1.07653">
        <ele>17.2</ele>
        <time>2021-10-16T07:04:20Z</time>
      </trkpt>
      <trkpt lat="49.42036" lon="1.07656">
        <ele>17.2</ele>
        <time>2021-10-16T07:04:21Z</time>
      </trkpt>
      <trkpt lat="49.42034" lon="1.0766">
        <ele>17.2</ele>
        <time>2021-10-16T07:04:23Z</time>
      </trkpt>
      <trkpt lat="49.42033" lon="1.07664">
        <ele>17.3</ele>
        <time>2021-10-16T07:04:24Z</time>
      </trkpt>
      <trkpt lat="49.42032" lon="1.07665">
        <ele>17.3</ele>
        <time>2021-10-16T07:04:25Z</time>
      </trkpt>
      <trkpt lat="49.42031" lon="1.07669">
        <ele>17.3</ele>
        <time>2021-10-16T07:04:26Z</time>
      </trkpt>
      <trkpt lat="49.4203" lon="1.07671">
        <ele>17.3</ele>
        <time>2021-10-16T07:04:27Z</time>
      </trkpt>
      <trkpt lat="49.42029" lon="1.07675">
        <ele>17.2</ele>
        <time>2021-10-16T07:04:28Z</time>
      </trkpt>
      <trkpt lat="49.42028" lon="1.0768">
        <ele>17.2</ele>
        <time>2021-10-16T07:04:29Z</time>
      </trkpt>
      <trkpt lat="49.42026" lon="1.07684">
        <ele>17.1</ele>
        <time>2021-10-16T07:04:31Z</time>
      </trkpt>
      <trkpt lat="49.42025" lon="1.07688">
        <ele>17</ele>
        <time>2021-10-16T07:04:32Z</time>
      </trkpt>
      <trkpt lat="49.42024" lon="1.07693">
        <ele>17</ele>
        <time>2021-10-16T07:04:33Z</time>
      </trkpt>
      <trkpt lat="49.42022" lon="1.07698">
        <ele>16.9</ele>
        <time>2021-10-16T07:04:34Z</time>
      </trkpt>
      <trkpt lat="49.4202" lon="1.07705">
        <ele>16.7</ele>
        <time>2021-10-16T07:04:35Z</time>
      </trkpt>
      <trkpt lat="49.42018" lon="1.0771">
        <ele>16.7</ele>
        <time>2021-10-16T07:04:36Z</time>
      </trkpt>
      <trkpt lat="49.42015" lon="1.07715">
        <ele>16.6</ele>
        <time>2021-10-16T07:04:37Z</time>
      </trkpt>
      <trkpt lat="49.42012" lon="1.07723">
        <ele>16.5</ele>
        <time>2021-10-16T07:04:39Z</time>
      </trkpt>
      <trkpt lat="49.42009" lon="1.07729">
        <ele>16.4</ele>
        <time>2021-10-16T07:04:41Z</time>
      </trkpt>
      <trkpt lat="49.42006" lon="1.07735">
        <ele>16.4</ele>
        <time>2021-10-16T07:04:42Z</time>
      </trkpt>
      <trkpt lat="49.42003" lon="1.07741">
        <ele>16.4</ele>
        <time>2021-10-16T07:04:44Z</time>
      </trkpt>
      <trkpt lat="49.42002" lon="1.07745">
        <ele>16.3</ele>
        <time>2021-10-16T07:04:45Z</time>
      </trkpt>
      <trkpt lat="49.42" lon="1.07748">
        <ele>16.3</ele>
        <time>2021-10-16T07:04:46Z</time>
      </trkpt>
      <trkpt lat="49.41999" lon="1.07752">
        <ele>16.3</ele>
        <time>2021-10-16T07:04:47Z</time>
      </trkpt>
      <trkpt lat="49.41998" lon="1.07756">
        <ele>16.3</ele>
        <time>2021-10-16T07:04:48Z</time>
      </trkpt>
      <trkpt lat="49.41996" lon="1.07762">
        <ele>16.3</ele>
        <time>2021-10-16T07:04:50Z</time>
      </trkpt>
      <trkpt lat="49.41995" lon="1.07766">
        <ele>16.3</ele>
        <time>2021-10-16T07:04:51Z</time>
      </trkpt>
      <trkpt lat="49.41995" lon="1.07771">
        <ele>16.2</ele>
        <time>2021-10-16T07:04:52Z</time>
      </trkpt>
      <trkpt lat="49.41996" lon="1.07775">
        <ele>16.2</ele>
        <time>2021-10-16T07:04:53Z</time>
      </trkpt>
      <trkpt lat="49.41998" lon="1.07778">
        <ele>16.2</ele>
        <time>2021-10-16T07:04:54Z</time>
      </trkpt>
      <trkpt lat="49.42" lon="1.07781">
        <ele>16.2</ele>
        <time>2021-10-16T07:04:56Z</time>
      </trkpt>
      <trkpt lat="49.42003" lon="1.07786">
        <ele>16.1</ele>
        <time>2021-10-16T07:04:57Z</time>
      </trkpt>
      <trkpt lat="49.42004" lon="1.07788">
        <ele>16.1</ele>
        <time>2021-10-16T07:04:58Z</time>
      </trkpt>
      <trkpt lat="49.42006" lon="1.07791">
        <ele>16.1</ele>
        <time>2021-10-16T07:04:59Z</time>
      </trkpt>
      <trkpt lat="49.42008" lon="1.07795">
        <ele>16</ele>
        <time>2021-10-16T07:05:00Z</time>
      </trkpt>
      <trkpt lat="49.42011" lon="1.07799">
        <ele>16</ele>
        <time>2021-10-16T07:05:01Z</time>
      </trkpt>
      <trkpt lat="49.42015" lon="1.07804">
        <ele>15.9</ele>
        <time>2021-10-16T07:05:03Z</time>
      </trkpt>
      <trkpt lat="49.42018" lon="1.07808">
        <ele>15.8</ele>
        <time>2021-10-16T07:05:04Z</time>
      </trkpt>
      <trkpt lat="49.4202" lon="1.07811">
        <ele>15.7</ele>
        <time>2021-10-16T07:05:05Z</time>
      </trkpt>
      <trkpt lat="49.42025" lon="1.07817">
        <ele>15.6</ele>
        <time>2021-10-16T07:05:07Z</time>
      </trkpt>
      <trkpt lat="49.42028" lon="1.07821">
        <ele>15.5</ele>
        <time>2021-10-16T07:05:08Z</time>
      </trkpt>
      <trkpt lat="49.42031" lon="1.07824">
        <ele>15.5</ele>
        <time>2021-10-16T07:05:09Z</time>
      </trkpt>
      <trkpt lat="49.42034" lon="1.07828">
        <ele>15.4</ele>
        <time>2021-10-16T07:05:10Z</time>
      </trkpt>
      <trkpt lat="49.42037" lon="1.07831">
        <ele>15.3</ele>
        <time>2021-10-16T07:05:12Z</time>
      </trkpt>
      <trkpt lat="49.42039" lon="1.07834">
        <ele>15.2</ele>
        <time>2021-10-16T07:05:13Z</time>
      </trkpt>
      <trkpt lat="49.42042" lon="1.07837">
        <ele>15.1</ele>
        <time>2021-10-16T07:05:14Z</time>
      </trkpt>
      <trkpt lat="49.42045" lon="1.0784">
        <ele>15</ele>
        <time>2021-10-16T07:05:15Z</time>
      </trkpt>
      <trkpt lat="49.42049" lon="1.07844">
        <ele>14.9</ele>
        <time>2021-10-16T07:05:16Z</time>
      </trkpt>
      <trkpt lat="49.42055" lon="1.07849">
        <ele>14.7</ele>
        <time>2021-10-16T07:05:18Z</time>
      </trkpt>
      <trkpt lat="49.42058" lon="1.07852">
        <ele>14.6</ele>
        <time>2021-10-16T07:05:19Z</time>
      </trkpt>
      <trkpt lat="49.42062" lon="1.07856">
        <ele>14.4</ele>
        <time>2021-10-16T07:05:20Z</time>
      </trkpt>
      <trkpt lat="49.42065" lon="1.07859">
        <ele>14.3</ele>
        <time>2021-10-16T07:05:21Z</time>
      </trkpt>
      <trkpt lat="49.42069" lon="1.07862">
        <ele>14.2</ele>
        <time>2021-10-16T07:05:23Z</time>
      </trkpt>
      <trkpt lat="49.42071" lon="1.07864">
        <ele>14.2</ele>
        <time>2021-10-16T07:05:24Z</time>
      </trkpt>
      <trkpt lat="49.42074" lon="1.07867">
        <ele>14.1</ele>
        <time>2021-10-16T07:05:25Z</time>
      </trkpt>
      <trkpt lat="49.42077" lon="1.07869">
        <ele>14.1</ele>
        <time>2021-10-16T07:05:26Z</time>
      </trkpt>
      <trkpt lat="49.42078" lon="1.07871">
        <ele>14</ele>
        <time>2021-10-16T07:05:27Z</time>
      </trkpt>
      <trkpt lat="49.42081" lon="1.07874">
        <ele>14</ele>
        <time>2021-10-16T07:05:29Z</time>
      </trkpt>
      <trkpt lat="49.42083" lon="1.07876">
        <ele>13.9</ele>
        <time>2021-10-16T07:05:30Z</time>
      </trkpt>
      <trkpt lat="49.42084" lon="1.07877">
        <ele>13.9</ele>
        <time>2021-10-16T07:05:31Z</time>
      </trkpt>
      <trkpt lat="49.42087" lon="1.07879">
        <ele>13.8</ele>
        <time>2021-10-16T07:05:32Z</time>
      </trkpt>
      <trkpt lat="49.4209" lon="1.0788">
        <ele>13.8</ele>
        <time>2021-10-16T07:05:33Z</time>
      </trkpt>
      <trkpt lat="49.42094" lon="1.07884">
        <ele>13.6</ele>
        <time>2021-10-16T07:05:35Z</time>
      </trkpt>
      <trkpt lat="49.42097" lon="1.07887">
        <ele>13.6</ele>
        <time>2021-10-16T07:05:36Z</time>
      </trkpt>
      <trkpt lat="49.42099" lon="1.07891">
        <ele>13.5</ele>
        <time>2021-10-16T07:05:38Z</time>
      </trkpt>
      <trkpt lat="49.42102" lon="1.07894">
        <ele>13.4</ele>
        <time>2021-10-16T07:05:39Z</time>
      </trkpt>
      <trkpt lat="49.42103" lon="1.07895">
        <ele>13.4</ele>
        <time>2021-10-16T07:05:40Z</time>
      </trkpt>
      <trkpt lat="49.42106" lon="1.07898">
        <ele>13.3</ele>
        <time>2021-10-16T07:05:41Z</time>
      </trkpt>
      <trkpt lat="49.4211" lon="1.07902">
        <ele>13.2</ele>
        <time>2021-10-16T07:05:42Z</time>
      </trkpt>
      <trkpt lat="49.42114" lon="1.07905">
        <ele>13.1</ele>
        <time>2021-10-16T07:05:44Z</time>
      </trkpt>
      <trkpt lat="49.42118" lon="1.07908">
        <ele>13</ele>
        <time>2021-10-16T07:05:45Z</time>
      </trkpt>
      <trkpt lat="49.42122" lon="1.07911">
        <ele>13</ele>
        <time>2021-10-16T07:05:46Z</time>
      </trkpt>
      <trkpt lat="49.42126" lon="1.07913">
        <ele>12.9</ele>
        <time>2021-10-16T07:05:47Z</time>
      </trkpt>
      <trkpt lat="49.42131" lon="1.07915">
        <ele>12.9</ele>
        <time>2021-10-16T07:05:48Z</time>
      </trkpt>
      <trkpt lat="49.42136" lon="1.07919">
        <ele>12.8</ele>
        <time>2021-10-16T07:05:50Z</time>
      </trkpt>
      <trkpt lat="49.4214" lon="1.0792">
        <ele>12.8</ele>
        <time>2021-10-16T07:05:51Z</time>
      </trkpt>
      <trkpt lat="49.42144" lon="1.07922">
        <ele>12.7</ele>
        <time>2021-10-16T07:05:52Z</time>
      </trkpt>
      <trkpt lat="49.42148" lon="1.07925">
        <ele>12.7</ele>
        <time>2021-10-16T07:05:53Z</time>
      </trkpt>
      <trkpt lat="49.42152" lon="1.07927">
        <ele>12.7</ele>
        <time>2021-10-16T07:05:55Z</time>
      </trkpt>
      <trkpt lat="49.42155" lon="1.07929">
        <ele>12.6</ele>
        <time>2021-10-16T07:05:56Z</time>
      </trkpt>
      <trkpt lat="49.42159" lon="1.07932">
        <ele>12.5</ele>
        <time>2021-10-16T07:05:57Z</time>
      </trkpt>
      <trkpt lat="49.42161" lon="1.07933">
        <ele>12.5</ele>
        <time>2021-10-16T07:05:58Z</time>
      </trkpt>
      <trkpt lat="49.42163" lon="1.07933">
        <ele>12.5</ele>
        <time>2021-10-16T07:05:59Z</time>
      </trkpt>
      <trkpt lat="49.42165" lon="1.07931">
        <ele>12.3</ele>
        <time>2021-10-16T07:06:01Z</time>
      </trkpt>
      <trkpt lat="49.42168" lon="1.07929">
        <ele>12.3</ele>
        <time>2021-10-16T07:06:02Z</time>
      </trkpt>
      <trkpt lat="49.42169" lon="1.07927">
        <ele>12.3</ele>
        <time>2021-10-16T07:06:03Z</time>
      </trkpt>
      <trkpt lat="49.42172" lon="1.07922">
        <ele>12.3</ele>
        <time>2021-10-16T07:06:05Z</time>
      </trkpt>
      <trkpt lat="49.42174" lon="1.07919">
        <ele>12.3</ele>
        <time>2021-10-16T07:06:06Z</time>
      </trkpt>
      <trkpt lat="49.42175" lon="1.07914">
        <ele>12.3</ele>
        <time>2021-10-16T07:06:07Z</time>
      </trkpt>
      <trkpt lat="49.42176" lon="1.07909">
        <ele>12.3</ele>
        <time>2021-10-16T07:06:08Z</time>
      </trkpt>
      <trkpt lat="49.42178" lon="1.07903">
        <ele>12.3</ele>
        <time>2021-10-16T07:06:10Z</time>
      </trkpt>
      <trkpt lat="49.42179" lon="1.07898">
        <ele>12.3</ele>
        <time>2021-10-16T07:06:11Z</time>
      </trkpt>
      <trkpt lat="49.4218" lon="1.07893">
        <ele>12.4</ele>
        <time>2021-10-16T07:06:12Z</time>
      </trkpt>
      <trkpt lat="49.42182" lon="1.07886">
        <ele>12.4</ele>
        <time>2021-10-16T07:06:13Z</time>
      </trkpt>
      <trkpt lat="49.42182" lon="1.0788">
        <ele>12.5</ele>
        <time>2021-10-16T07:06:14Z</time>
      </trkpt>
      <trkpt lat="49.42183" lon="1.07872">
        <ele>12.5</ele>
        <time>2021-10-16T07:06:16Z</time>
      </trkpt>
      <trkpt lat="49.42183" lon="1.07867">
        <ele>12.6</ele>
        <time>2021-10-16T07:06:17Z</time>
      </trkpt>
      <trkpt lat="49.42182" lon="1.0786">
        <ele>12.6</ele>
        <time>2021-10-16T07:06:18Z</time>
      </trkpt>
      <trkpt lat="49.42182" lon="1.07853">
        <ele>12.7</ele>
        <time>2021-10-16T07:06:20Z</time>
      </trkpt>
      <trkpt lat="49.42179" lon="1.07849">
        <ele>12.7</ele>
        <time>2021-10-16T07:06:21Z</time>
      </trkpt>
      <trkpt lat="49.42178" lon="1.07848">
        <ele>12.7</ele>
        <time>2021-10-16T07:06:22Z</time>
      </trkpt>
      <trkpt lat="49.42174" lon="1.07847">
        <ele>12.7</ele>
        <time>2021-10-16T07:06:24Z</time>
      </trkpt>
      <trkpt lat="49.4217" lon="1.07847">
        <ele>12.7</ele>
        <time>2021-10-16T07:06:25Z</time>
      </trkpt>
      <trkpt lat="49.42169" lon="1.07848">
        <ele>12.7</ele>
        <time>2021-10-16T07:06:26Z</time>
      </trkpt>
      <trkpt lat="49.42167" lon="1.07848">
        <ele>12.7</ele>
        <time>2021-10-16T07:06:27Z</time>
      </trkpt>
      <trkpt lat="49.42165" lon="1.07848">
        <ele>12.7</ele>
        <time>2021-10-16T07:06:28Z</time>
      </trkpt>
      <trkpt lat="49.42162" lon="1.07848">
        <ele>12.7</ele>
        <time>2021-10-16T07:06:30Z</time>
      </trkpt>
      <trkpt lat="49.42161" lon="1.07848">
        <ele>12.7</ele>
        <time>2021-10-16T07:06:31Z</time>
      </trkpt>
      <trkpt lat="49.42158" lon="1.07845">
        <ele>12.7</ele>
        <time>2021-10-16T07:06:32Z</time>
      </trkpt>
      <trkpt lat="49.42157" lon="1.07844">
        <ele>12.6</ele>
        <time>2021-10-16T07:06:33Z</time>
      </trkpt>
      <trkpt lat="49.42156" lon="1.07839">
        <ele>12.6</ele>
        <time>2021-10-16T07:06:35Z</time>
      </trkpt>
      <trkpt lat="49.42154" lon="1.07835">
        <ele>12.5</ele>
        <time>2021-10-16T07:06:36Z</time>
      </trkpt>
      <trkpt lat="49.42153" lon="1.0783">
        <ele>12.4</ele>
        <time>2021-10-16T07:06:37Z</time>
      </trkpt>
      <trkpt lat="49.42153" lon="1.07824">
        <ele>12.4</ele>
        <time>2021-10-16T07:06:38Z</time>
      </trkpt>
      <trkpt lat="49.42153" lon="1.07819">
        <ele>12.4</ele>
        <time>2021-10-16T07:06:39Z</time>
      </trkpt>
      <trkpt lat="49.42155" lon="1.07814">
        <ele>12.3</ele>
        <time>2021-10-16T07:06:41Z</time>
      </trkpt>
      <trkpt lat="49.42156" lon="1.0781">
        <ele>12.3</ele>
        <time>2021-10-16T07:06:42Z</time>
      </trkpt>
      <trkpt lat="49.42157" lon="1.07806">
        <ele>12.3</ele>
        <time>2021-10-16T07:06:43Z</time>
      </trkpt>
      <trkpt lat="49.42162" lon="1.07802">
        <ele>12.2</ele>
        <time>2021-10-16T07:06:44Z</time>
      </trkpt>
      <trkpt lat="49.42165" lon="1.07799">
        <ele>12.2</ele>
        <time>2021-10-16T07:06:45Z</time>
      </trkpt>
      <trkpt lat="49.42169" lon="1.07797">
        <ele>12.2</ele>
        <time>2021-10-16T07:06:47Z</time>
      </trkpt>
      <trkpt lat="49.42174" lon="1.07797">
        <ele>12.2</ele>
        <time>2021-10-16T07:06:48Z</time>
      </trkpt>
      <trkpt lat="49.42177" lon="1.07799">
        <ele>12.2</ele>
        <time>2021-10-16T07:06:49Z</time>
      </trkpt>
      <trkpt lat="49.42182" lon="1.07802">
        <ele>12.2</ele>
        <time>2021-10-16T07:06:51Z</time>
      </trkpt>
      <trkpt lat="49.42184" lon="1.07804">
        <ele>12.2</ele>
        <time>2021-10-16T07:06:52Z</time>
      </trkpt>
      <trkpt lat="49.42187" lon="1.07806">
        <ele>12.2</ele>
        <time>2021-10-16T07:06:53Z</time>
      </trkpt>
      <trkpt lat="49.4219" lon="1.07808">
        <ele>12.2</ele>
        <time>2021-10-16T07:06:54Z</time>
      </trkpt>
      <trkpt lat="49.42195" lon="1.07807">
        <ele>12.1</ele>
        <time>2021-10-16T07:06:56Z</time>
      </trkpt>
      <trkpt lat="49.42197" lon="1.07806">
        <ele>12.1</ele>
        <time>2021-10-16T07:06:57Z</time>
      </trkpt>
      <trkpt lat="49.422" lon="1.07805">
        <ele>12.1</ele>
        <time>2021-10-16T07:06:58Z</time>
      </trkpt>
      <trkpt lat="49.42204" lon="1.07802">
        <ele>12.1</ele>
        <time>2021-10-16T07:06:59Z</time>
      </trkpt>
      <trkpt lat="49.42205" lon="1.07801">
        <ele>12.1</ele>
        <time>2021-10-16T07:07:00Z</time>
      </trkpt>
      <trkpt lat="49.42209" lon="1.07799">
        <ele>12</ele>
        <time>2021-10-16T07:07:02Z</time>
      </trkpt>
      <trkpt lat="49.42212" lon="1.07799">
        <ele>12</ele>
        <time>2021-10-16T07:07:03Z</time>
      </trkpt>
      <trkpt lat="49.42215" lon="1.07798">
        <ele>11.9</ele>
        <time>2021-10-16T07:07:04Z</time>
      </trkpt>
      <trkpt lat="49.4222" lon="1.07798">
        <ele>11.8</ele>
        <time>2021-10-16T07:07:06Z</time>
      </trkpt>
      <trkpt lat="49.42224" lon="1.07798">
        <ele>11.8</ele>
        <time>2021-10-16T07:07:07Z</time>
      </trkpt>
      <trkpt lat="49.42227" lon="1.07799">
        <ele>11.7</ele>
        <time>2021-10-16T07:07:08Z</time>
      </trkpt>
      <trkpt lat="49.42231" lon="1.078">
        <ele>11.7</ele>
        <time>2021-10-16T07:07:09Z</time>
      </trkpt>
      <trkpt lat="49.42235" lon="1.07802">
        <ele>11.6</ele>
        <time>2021-10-16T07:07:11Z</time>
      </trkpt>
      <trkpt lat="49.42239" lon="1.07803">
        <ele>11.6</ele>
        <time>2021-10-16T07:07:12Z</time>
      </trkpt>
      <trkpt lat="49.42243" lon="1.07805">
        <ele>11.5</ele>
        <time>2021-10-16T07:07:13Z</time>
      </trkpt>
      <trkpt lat="49.42246" lon="1.07806">
        <ele>11.5</ele>
        <time>2021-10-16T07:07:14Z</time>
      </trkpt>
      <trkpt lat="49.42248" lon="1.07807">
        <ele>11.5</ele>
        <time>2021-10-16T07:07:15Z</time>
      </trkpt>
      <trkpt lat="49.42251" lon="1.07808">
        <ele>11.5</ele>
        <time>2021-10-16T07:07:17Z</time>
      </trkpt>
      <trkpt lat="49.42255" lon="1.07811">
        <ele>11.5</ele>
        <time>2021-10-16T07:07:19Z</time>
      </trkpt>
      <trkpt lat="49.42256" lon="1.07812">
        <ele>11.4</ele>
        <time>2021-10-16T07:07:20Z</time>
      </trkpt>
      <trkpt lat="49.4226" lon="1.07812">
        <ele>11.4</ele>
        <time>2021-10-16T07:07:21Z</time>
      </trkpt>
      <trkpt lat="49.42261" lon="1.07812">
        <ele>11.4</ele>
        <time>2021-10-16T07:07:22Z</time>
      </trkpt>
      <trkpt lat="49.42263" lon="1.07811">
        <ele>11.4</ele>
        <time>2021-10-16T07:07:23Z</time>
      </trkpt>
      <trkpt lat="49.42266" lon="1.07808">
        <ele>11.4</ele>
        <time>2021-10-16T07:07:25Z</time>
      </trkpt>
      <trkpt lat="49.42268" lon="1.07803">
        <ele>11.3</ele>
        <time>2021-10-16T07:07:27Z</time>
      </trkpt>
      <trkpt lat="49.4227" lon="1.07799">
        <ele>11.3</ele>
        <time>2021-10-16T07:07:28Z</time>
      </trkpt>
      <trkpt lat="49.42272" lon="1.07792">
        <ele>11.3</ele>
        <time>2021-10-16T07:07:29Z</time>
      </trkpt>
      <trkpt lat="49.42272" lon="1.07787">
        <ele>11.3</ele>
        <time>2021-10-16T07:07:30Z</time>
      </trkpt>
      <trkpt lat="49.42272" lon="1.07781">
        <ele>11.4</ele>
        <time>2021-10-16T07:07:32Z</time>
      </trkpt>
      <trkpt lat="49.42273" lon="1.07778">
        <ele>11.4</ele>
        <time>2021-10-16T07:07:33Z</time>
      </trkpt>
      <trkpt lat="49.42274" lon="1.07772">
        <ele>11.4</ele>
        <time>2021-10-16T07:07:35Z</time>
      </trkpt>
      <trkpt lat="49.42275" lon="1.07767">
        <ele>11.4</ele>
        <time>2021-10-16T07:07:36Z</time>
      </trkpt>
      <trkpt lat="49.42277" lon="1.07762">
        <ele>11.4</ele>
        <time>2021-10-16T07:07:37Z</time>
      </trkpt>
      <trkpt lat="49.42279" lon="1.07755">
        <ele>11.6</ele>
        <time>2021-10-16T07:07:38Z</time>
      </trkpt>
      <trkpt lat="49.42282" lon="1.07746">
        <ele>11.7</ele>
        <time>2021-10-16T07:07:40Z</time>
      </trkpt>
      <trkpt lat="49.42283" lon="1.07741">
        <ele>11.9</ele>
        <time>2021-10-16T07:07:41Z</time>
      </trkpt>
      <trkpt lat="49.42284" lon="1.07736">
        <ele>12</ele>
        <time>2021-10-16T07:07:42Z</time>
      </trkpt>
      <trkpt lat="49.42285" lon="1.07729">
        <ele>12.2</ele>
        <time>2021-10-16T07:07:44Z</time>
      </trkpt>
      <trkpt lat="49.42286" lon="1.07724">
        <ele>12.4</ele>
        <time>2021-10-16T07:07:45Z</time>
      </trkpt>
      <trkpt lat="49.42287" lon="1.07719">
        <ele>12.6</ele>
        <time>2021-10-16T07:07:46Z</time>
      </trkpt>
      <trkpt lat="49.42287" lon="1.07713">
        <ele>12.8</ele>
        <time>2021-10-16T07:07:47Z</time>
      </trkpt>
      <trkpt lat="49.42286" lon="1.07705">
        <ele>13.1</ele>
        <time>2021-10-16T07:07:49Z</time>
      </trkpt>
      <trkpt lat="49.42286" lon="1.07699">
        <ele>13.2</ele>
        <time>2021-10-16T07:07:50Z</time>
      </trkpt>
      <trkpt lat="49.42284" lon="1.07694">
        <ele>13.4</ele>
        <time>2021-10-16T07:07:51Z</time>
      </trkpt>
      <trkpt lat="49.42284" lon="1.0769">
        <ele>13.5</ele>
        <time>2021-10-16T07:07:52Z</time>
      </trkpt>
      <trkpt lat="49.42282" lon="1.07682">
        <ele>13.6</ele>
        <time>2021-10-16T07:07:54Z</time>
      </trkpt>
      <trkpt lat="49.42281" lon="1.07677">
        <ele>13.6</ele>
        <time>2021-10-16T07:07:55Z</time>
      </trkpt>
      <trkpt lat="49.4228" lon="1.07669">
        <ele>13.6</ele>
        <time>2021-10-16T07:07:57Z</time>
      </trkpt>
      <trkpt lat="49.42279" lon="1.07665">
        <ele>13.6</ele>
        <time>2021-10-16T07:07:58Z</time>
      </trkpt>
      <trkpt lat="49.42278" lon="1.0766">
        <ele>13.5</ele>
        <time>2021-10-16T07:07:59Z</time>
      </trkpt>
      <trkpt lat="49.42277" lon="1.07659">
        <ele>13.5</ele>
        <time>2021-10-16T07:08:00Z</time>
      </trkpt>
      <trkpt lat="49.42276" lon="1.07655">
        <ele>13.4</ele>
        <time>2021-10-16T07:08:02Z</time>
      </trkpt>
      <trkpt lat="49.42276" lon="1.07653">
        <ele>13.3</ele>
        <time>2021-10-16T07:08:03Z</time>
      </trkpt>
      <trkpt lat="49.42275" lon="1.07652">
        <ele>13.3</ele>
        <time>2021-10-16T07:08:04Z</time>
      </trkpt>
      <trkpt lat="49.42272" lon="1.07648">
        <ele>13.1</ele>
        <time>2021-10-16T07:08:06Z</time>
      </trkpt>
      <trkpt lat="49.4227" lon="1.07645">
        <ele>12.9</ele>
        <time>2021-10-16T07:08:07Z</time>
      </trkpt>
      <trkpt lat="49.42269" lon="1.07644">
        <ele>12.8</ele>
        <time>2021-10-16T07:08:08Z</time>
      </trkpt>
      <trkpt lat="49.42269" lon="1.07642">
        <ele>12.7</ele>
        <time>2021-10-16T07:08:09Z</time>
      </trkpt>
      <trkpt lat="49.42268" lon="1.07639">
        <ele>12.6</ele>
        <time>2021-10-16T07:08:10Z</time>
      </trkpt>
      <trkpt lat="49.42266" lon="1.07632">
        <ele>12</ele>
        <time>2021-10-16T07:08:12Z</time>
      </trkpt>
      <trkpt lat="49.42263" lon="1.07625">
        <ele>12</ele>
        <time>2021-10-16T07:08:13Z</time>
      </trkpt>
      <trkpt lat="49.42261" lon="1.07619">
        <ele>12</ele>
        <time>2021-10-16T07:08:14Z</time>
      </trkpt>
      <trkpt lat="49.42258" lon="1.0761">
        <ele>12</ele>
        <time>2021-10-16T07:08:16Z</time>
      </trkpt>
      <trkpt lat="49.42255" lon="1.07605">
        <ele>12</ele>
        <time>2021-10-16T07:08:17Z</time>
      </trkpt>
      <trkpt lat="49.42252" lon="1.07598">
        <ele>12</ele>
        <time>2021-10-16T07:08:18Z</time>
      </trkpt>
      <trkpt lat="49.42249" lon="1.07593">
        <ele>12</ele>
        <time>2021-10-16T07:08:19Z</time>
      </trkpt>
      <trkpt lat="49.42247" lon="1.07588">
        <ele>12.1</ele>
        <time>2021-10-16T07:08:21Z</time>
      </trkpt>
      <trkpt lat="49.42244" lon="1.07583">
        <ele>12.1</ele>
        <time>2021-10-16T07:08:22Z</time>
      </trkpt>
      <trkpt lat="49.42242" lon="1.07578">
        <ele>12.1</ele>
        <time>2021-10-16T07:08:23Z</time>
      </trkpt>
      <trkpt lat="49.42241" lon="1.07573">
        <ele>12.2</ele>
        <time>2021-10-16T07:08:24Z</time>
      </trkpt>
      <trkpt lat="49.42239" lon="1.07568">
        <ele>12.2</ele>
        <time>2021-10-16T07:08:25Z</time>
      </trkpt>
      <trkpt lat="49.42238" lon="1.07567">
        <ele>12.2</ele>
        <time>2021-10-16T07:08:26Z</time>
      </trkpt>
      <trkpt lat="49.42235" lon="1.07562">
        <ele>12.3</ele>
        <time>2021-10-16T07:08:28Z</time>
      </trkpt>
      <trkpt lat="49.42234" lon="1.07561">
        <ele>12.3</ele>
        <time>2021-10-16T07:08:29Z</time>
      </trkpt>
      <trkpt lat="49.42233" lon="1.07559">
        <ele>12.3</ele>
        <time>2021-10-16T07:08:30Z</time>
      </trkpt>
      <trkpt lat="49.42231" lon="1.07556">
        <ele>12.4</ele>
        <time>2021-10-16T07:08:31Z</time>
      </trkpt>
      <trkpt lat="49.42229" lon="1.07552">
        <ele>12.5</ele>
        <time>2021-10-16T07:08:33Z</time>
      </trkpt>
      <trkpt lat="49.42226" lon="1.07546">
        <ele>12.6</ele>
        <time>2021-10-16T07:08:34Z</time>
      </trkpt>
      <trkpt lat="49.42223" lon="1.07543">
        <ele>12.7</ele>
        <time>2021-10-16T07:08:35Z</time>
      </trkpt>
      <trkpt lat="49.42219" lon="1.07539">
        <ele>12.8</ele>
        <time>2021-10-16T07:08:37Z</time>
      </trkpt>
      <trkpt lat="49.42216" lon="1.07536">
        <ele>12.8</ele>
        <time>2021-10-16T07:08:38Z</time>
      </trkpt>
      <trkpt lat="49.42213" lon="1.07534">
        <ele>12.9</ele>
        <time>2021-10-16T07:08:40Z</time>
      </trkpt>
      <trkpt lat="49.4221" lon="1.07532">
        <ele>13</ele>
        <time>2021-10-16T07:08:41Z</time>
      </trkpt>
      <trkpt lat="49.42207" lon="1.0753">
        <ele>13</ele>
        <time>2021-10-16T07:08:42Z</time>
      </trkpt>
      <trkpt lat="49.42202" lon="1.07527">
        <ele>13.1</ele>
        <time>2021-10-16T07:08:43Z</time>
      </trkpt>
      <trkpt lat="49.42196" lon="1.07525">
        <ele>13.4</ele>
        <time>2021-10-16T07:08:45Z</time>
      </trkpt>
      <trkpt lat="49.42194" lon="1.07524">
        <ele>13.4</ele>
        <time>2021-10-16T07:08:46Z</time>
      </trkpt>
      <trkpt lat="49.42192" lon="1.07521">
        <ele>13.5</ele>
        <time>2021-10-16T07:08:47Z</time>
      </trkpt>
      <trkpt lat="49.42191" lon="1.07515">
        <ele>13.6</ele>
        <time>2021-10-16T07:08:49Z</time>
      </trkpt>
      <trkpt lat="49.42191" lon="1.07511">
        <ele>13.6</ele>
        <time>2021-10-16T07:08:50Z</time>
      </trkpt>
      <trkpt lat="49.4219" lon="1.07507">
        <ele>13.7</ele>
        <time>2021-10-16T07:08:51Z</time>
      </trkpt>
      <trkpt lat="49.42191" lon="1.07501">
        <ele>13.8</ele>
        <time>2021-10-16T07:08:53Z</time>
      </trkpt>
      <trkpt lat="49.4219" lon="1.07497">
        <ele>13.8</ele>
        <time>2021-10-16T07:08:54Z</time>
      </trkpt>
      <trkpt lat="49.4219" lon="1.07492">
        <ele>13.9</ele>
        <time>2021-10-16T07:08:55Z</time>
      </trkpt>
      <trkpt lat="49.42189" lon="1.07486">
        <ele>14</ele>
        <time>2021-10-16T07:08:56Z</time>
      </trkpt>
      <trkpt lat="49.42188" lon="1.07481">
        <ele>14.2</ele>
        <time>2021-10-16T07:08:58Z</time>
      </trkpt>
      <trkpt lat="49.42187" lon="1.07477">
        <ele>14.2</ele>
        <time>2021-10-16T07:08:59Z</time>
      </trkpt>
      <trkpt lat="49.42184" lon="1.07472">
        <ele>14.4</ele>
        <time>2021-10-16T07:09:00Z</time>
      </trkpt>
      <trkpt lat="49.42182" lon="1.07469">
        <ele>14.5</ele>
        <time>2021-10-16T07:09:01Z</time>
      </trkpt>
      <trkpt lat="49.42179" lon="1.07464">
        <ele>14.8</ele>
        <time>2021-10-16T07:09:03Z</time>
      </trkpt>
      <trkpt lat="49.42177" lon="1.0746">
        <ele>15</ele>
        <time>2021-10-16T07:09:04Z</time>
      </trkpt>
      <trkpt lat="49.42175" lon="1.07456">
        <ele>15.2</ele>
        <time>2021-10-16T07:09:05Z</time>
      </trkpt>
      <trkpt lat="49.42172" lon="1.0745">
        <ele>15.5</ele>
        <time>2021-10-16T07:09:07Z</time>
      </trkpt>
      <trkpt lat="49.42169" lon="1.07446">
        <ele>15.7</ele>
        <time>2021-10-16T07:09:08Z</time>
      </trkpt>
      <trkpt lat="49.42166" lon="1.07443">
        <ele>15.9</ele>
        <time>2021-10-16T07:09:09Z</time>
      </trkpt>
      <trkpt lat="49.42163" lon="1.07439">
        <ele>16.1</ele>
        <time>2021-10-16T07:09:11Z</time>
      </trkpt>
      <trkpt lat="49.4216" lon="1.07436">
        <ele>16.3</ele>
        <time>2021-10-16T07:09:12Z</time>
      </trkpt>
      <trkpt lat="49.42157" lon="1.07433">
        <ele>16.5</ele>
        <time>2021-10-16T07:09:13Z</time>
      </trkpt>
      <trkpt lat="49.42155" lon="1.07431">
        <ele>16.7</ele>
        <time>2021-10-16T07:09:15Z</time>
      </trkpt>
      <trkpt lat="49.42151" lon="1.07428">
        <ele>16.9</ele>
        <time>2021-10-16T07:09:16Z</time>
      </trkpt>
      <trkpt lat="49.42149" lon="1.07426">
        <ele>17.1</ele>
        <time>2021-10-16T07:09:17Z</time>
      </trkpt>
      <trkpt lat="49.42145" lon="1.07424">
        <ele>17.4</ele>
        <time>2021-10-16T07:09:19Z</time>
      </trkpt>
      <trkpt lat="49.42141" lon="1.07423">
        <ele>17.6</ele>
        <time>2021-10-16T07:09:20Z</time>
      </trkpt>
      <trkpt lat="49.42138" lon="1.07422">
        <ele>17.8</ele>
        <time>2021-10-16T07:09:22Z</time>
      </trkpt>
      <trkpt lat="49.42135" lon="1.07421">
        <ele>17.9</ele>
        <time>2021-10-16T07:09:23Z</time>
      </trkpt>
      <trkpt lat="49.42131" lon="1.07419">
        <ele>18.1</ele>
        <time>2021-10-16T07:09:24Z</time>
      </trkpt>
      <trkpt lat="49.42128" lon="1.07417">
        <ele>18.3</ele>
        <time>2021-10-16T07:09:25Z</time>
      </trkpt>
      <trkpt lat="49.42124" lon="1.07416">
        <ele>18.5</ele>
        <time>2021-10-16T07:09:27Z</time>
      </trkpt>
      <trkpt lat="49.42121" lon="1.07416">
        <ele>18.6</ele>
        <time>2021-10-16T07:09:28Z</time>
      </trkpt>
      <trkpt lat="49.42117" lon="1.07415">
        <ele>18.8</ele>
        <time>2021-10-16T07:09:30Z</time>
      </trkpt>
      <trkpt lat="49.42114" lon="1.07416">
        <ele>19</ele>
        <time>2021-10-16T07:09:31Z</time>
      </trkpt>
      <trkpt lat="49.42111" lon="1.07417">
        <ele>19.1</ele>
        <time>2021-10-16T07:09:32Z</time>
      </trkpt>
      <trkpt lat="49.42108" lon="1.07419">
        <ele>19.7</ele>
        <time>2021-10-16T07:09:34Z</time>
      </trkpt>
      <trkpt lat="49.42104" lon="1.07422">
        <ele>19.6</ele>
        <time>2021-10-16T07:09:35Z</time>
      </trkpt>
      <trkpt lat="49.42102" lon="1.07426">
        <ele>19.6</ele>
        <time>2021-10-16T07:09:36Z</time>
      </trkpt>
      <trkpt lat="49.421" lon="1.07432">
        <ele>19.5</ele>
        <time>2021-10-16T07:09:38Z</time>
      </trkpt>
      <trkpt lat="49.42099" lon="1.07435">
        <ele>19.5</ele>
        <time>2021-10-16T07:09:39Z</time>
      </trkpt>
      <trkpt lat="49.42095" lon="1.0744">
        <ele>19.4</ele>
        <time>2021-10-16T07:09:41Z</time>
      </trkpt>
      <trkpt lat="49.42094" lon="1.07445">
        <ele>19.4</ele>
        <time>2021-10-16T07:09:43Z</time>
      </trkpt>
      <trkpt lat="49.42095" lon="1.0745">
        <ele>19.3</ele>
        <time>2021-10-16T07:09:44Z</time>
      </trkpt>
      <trkpt lat="49.42095" lon="1.07456">
        <ele>19.2</ele>
        <time>2021-10-16T07:09:46Z</time>
      </trkpt>
      <trkpt lat="49.42094" lon="1.07461">
        <ele>19.1</ele>
        <time>2021-10-16T07:09:47Z</time>
      </trkpt>
      <trkpt lat="49.42093" lon="1.07463">
        <ele>19.1</ele>
        <time>2021-10-16T07:09:48Z</time>
      </trkpt>
      <trkpt lat="49.42094" lon="1.07467">
        <ele>19</ele>
        <time>2021-10-16T07:09:50Z</time>
      </trkpt>
      <trkpt lat="49.42095" lon="1.07471">
        <ele>18.9</ele>
        <time>2021-10-16T07:09:51Z</time>
      </trkpt>
      <trkpt lat="49.42097" lon="1.07475">
        <ele>18.8</ele>
        <time>2021-10-16T07:09:52Z</time>
      </trkpt>
      <trkpt lat="49.42098" lon="1.07479">
        <ele>18.7</ele>
        <time>2021-10-16T07:09:54Z</time>
      </trkpt>
      <trkpt lat="49.421" lon="1.07484">
        <ele>18.6</ele>
        <time>2021-10-16T07:09:55Z</time>
      </trkpt>
      <trkpt lat="49.42101" lon="1.07488">
        <ele>18.4</ele>
        <time>2021-10-16T07:09:56Z</time>
      </trkpt>
      <trkpt lat="49.42103" lon="1.07492">
        <ele>18.2</ele>
        <time>2021-10-16T07:09:57Z</time>
      </trkpt>
      <trkpt lat="49.42105" lon="1.07496">
        <ele>18</ele>
        <time>2021-10-16T07:09:58Z</time>
      </trkpt>
      <trkpt lat="49.42108" lon="1.075">
        <ele>17.8</ele>
        <time>2021-10-16T07:09:59Z</time>
      </trkpt>
      <trkpt lat="49.42111" lon="1.07507">
        <ele>17.5</ele>
        <time>2021-10-16T07:10:01Z</time>
      </trkpt>
      <trkpt lat="49.42114" lon="1.07512">
        <ele>17.2</ele>
        <time>2021-10-16T07:10:02Z</time>
      </trkpt>
      <trkpt lat="49.42118" lon="1.0752">
        <ele>17</ele>
        <time>2021-10-16T07:10:03Z</time>
      </trkpt>
      <trkpt lat="49.4212" lon="1.07525">
        <ele>16.9</ele>
        <time>2021-10-16T07:10:04Z</time>
      </trkpt>
      <trkpt lat="49.42122" lon="1.07534">
        <ele>16.8</ele>
        <time>2021-10-16T07:10:06Z</time>
      </trkpt>
      <trkpt lat="49.42123" lon="1.0754">
        <ele>16.6</ele>
        <time>2021-10-16T07:10:07Z</time>
      </trkpt>
      <trkpt lat="49.42125" lon="1.07546">
        <ele>16.5</ele>
        <time>2021-10-16T07:10:08Z</time>
      </trkpt>
      <trkpt lat="49.42125" lon="1.07551">
        <ele>16.4</ele>
        <time>2021-10-16T07:10:09Z</time>
      </trkpt>
      <trkpt lat="49.42124" lon="1.07561">
        <ele>16.3</ele>
        <time>2021-10-16T07:10:11Z</time>
      </trkpt>
      <trkpt lat="49.42123" lon="1.07566">
        <ele>16.2</ele>
        <time>2021-10-16T07:10:12Z</time>
      </trkpt>
      <trkpt lat="49.42121" lon="1.07572">
        <ele>16.2</ele>
        <time>2021-10-16T07:10:13Z</time>
      </trkpt>
      <trkpt lat="49.42119" lon="1.07578">
        <ele>16.2</ele>
        <time>2021-10-16T07:10:15Z</time>
      </trkpt>
      <trkpt lat="49.42115" lon="1.07585">
        <ele>16.1</ele>
        <time>2021-10-16T07:10:16Z</time>
      </trkpt>
      <trkpt lat="49.42113" lon="1.07591">
        <ele>16.1</ele>
        <time>2021-10-16T07:10:18Z</time>
      </trkpt>
      <trkpt lat="49.42111" lon="1.07595">
        <ele>16.1</ele>
        <time>2021-10-16T07:10:19Z</time>
      </trkpt>
      <trkpt lat="49.42107" lon="1.07597">
        <ele>16.2</ele>
        <time>2021-10-16T07:10:20Z</time>
      </trkpt>
      <trkpt lat="49.42106" lon="1.07598">
        <ele>16.2</ele>
        <time>2021-10-16T07:10:21Z</time>
      </trkpt>
      <trkpt lat="49.42103" lon="1.07601">
        <ele>16.3</ele>
        <time>2021-10-16T07:10:23Z</time>
      </trkpt>
      <trkpt lat="49.42099" lon="1.07603">
        <ele>16.3</ele>
        <time>2021-10-16T07:10:24Z</time>
      </trkpt>
      <trkpt lat="49.42098" lon="1.07603">
        <ele>16.4</ele>
        <time>2021-10-16T07:10:25Z</time>
      </trkpt>
      <trkpt lat="49.42093" lon="1.07604">
        <ele>16.5</ele>
        <time>2021-10-16T07:10:27Z</time>
      </trkpt>
      <trkpt lat="49.42091" lon="1.07605">
        <ele>16.5</ele>
        <time>2021-10-16T07:10:28Z</time>
      </trkpt>
      <trkpt lat="49.4209" lon="1.07605">
        <ele>16.5</ele>
        <time>2021-10-16T07:10:29Z</time>
      </trkpt>
      <trkpt lat="49.42087" lon="1.07607">
        <ele>16.5</ele>
        <time>2021-10-16T07:10:30Z</time>
      </trkpt>
      <trkpt lat="49.42083" lon="1.07609">
        <ele>16.6</ele>
        <time>2021-10-16T07:10:31Z</time>
      </trkpt>
      <trkpt lat="49.4208" lon="1.0761">
        <ele>16.6</ele>
        <time>2021-10-16T07:10:33Z</time>
      </trkpt>
      <trkpt lat="49.42076" lon="1.07611">
        <ele>16.7</ele>
        <time>2021-10-16T07:10:34Z</time>
      </trkpt>
      <trkpt lat="49.42072" lon="1.07613">
        <ele>16.8</ele>
        <time>2021-10-16T07:10:35Z</time>
      </trkpt>
      <trkpt lat="49.42068" lon="1.07615">
        <ele>16.8</ele>
        <time>2021-10-16T07:10:36Z</time>
      </trkpt>
      <trkpt lat="49.42063" lon="1.07618">
        <ele>16.9</ele>
        <time>2021-10-16T07:10:37Z</time>
      </trkpt>
      <trkpt lat="49.4206" lon="1.0762">
        <ele>16.9</ele>
        <time>2021-10-16T07:10:38Z</time>
      </trkpt>
      <trkpt lat="49.42057" lon="1.07622">
        <ele>16.9</ele>
        <time>2021-10-16T07:10:39Z</time>
      </trkpt>
      <trkpt lat="49.42054" lon="1.07627">
        <ele>16.9</ele>
        <time>2021-10-16T07:10:41Z</time>
      </trkpt>
      <trkpt lat="49.42051" lon="1.0763">
        <ele>17</ele>
        <time>2021-10-16T07:10:42Z</time>
      </trkpt>
      <trkpt lat="49.42049" lon="1.07634">
        <ele>17</ele>
        <time>2021-10-16T07:10:43Z</time>
      </trkpt>
      <trkpt lat="49.42047" lon="1.07638">
        <ele>17</ele>
        <time>2021-10-16T07:10:44Z</time>
      </trkpt>
      <trkpt lat="49.42044" lon="1.07641">
        <ele>17</ele>
        <time>2021-10-16T07:10:45Z</time>
      </trkpt>
      <trkpt lat="49.42042" lon="1.07644">
        <ele>17</ele>
        <time>2021-10-16T07:10:46Z</time>
      </trkpt>
      <trkpt lat="49.42039" lon="1.07649">
        <ele>17.1</ele>
        <time>2021-10-16T07:10:48Z</time>
      </trkpt>
      <trkpt lat="49.42037" lon="1.07653">
        <ele>17.2</ele>
        <time>2021-10-16T07:10:49Z</time>
      </trkpt>
      <trkpt lat="49.42034" lon="1.07659">
        <ele>17.2</ele>
        <time>2021-10-16T07:10:50Z</time>
      </trkpt>
      <trkpt lat="49.42033" lon="1.07662">
        <ele>17.3</ele>
        <time>2021-10-16T07:10:51Z</time>
      </trkpt>
      <trkpt lat="49.42029" lon="1.07669">
        <ele>17.3</ele>
        <time>2021-10-16T07:10:53Z</time>
      </trkpt>
      <trkpt lat="49.42026" lon="1.07674">
        <ele>17.2</ele>
        <time>2021-10-16T07:10:55Z</time>
      </trkpt>
      <trkpt lat="49.42026" lon="1.07682">
        <ele>17.1</ele>
        <time>2021-10-16T07:10:57Z</time>
      </trkpt>
      <trkpt lat="49.42026" lon="1.07684">
        <ele>17.1</ele>
        <time>2021-10-16T07:10:58Z</time>
      </trkpt>
      <trkpt lat="49.42026" lon="1.07687">
        <ele>17</ele>
        <time>2021-10-16T07:10:59Z</time>
      </trkpt>
      <trkpt lat="49.42025" lon="1.07692">
        <ele>16.9</ele>
        <time>2021-10-16T07:11:01Z</time>
      </trkpt>
      <trkpt lat="49.42025" lon="1.07693">
        <ele>16.9</ele>
        <time>2021-10-16T07:11:02Z</time>
      </trkpt>
      <trkpt lat="49.42023" lon="1.07697">
        <ele>16.8</ele>
        <time>2021-10-16T07:11:03Z</time>
      </trkpt>
      <trkpt lat="49.42023" lon="1.07698">
        <ele>16.8</ele>
        <time>2021-10-16T07:11:04Z</time>
      </trkpt>
      <trkpt lat="49.42021" lon="1.077">
        <ele>16.8</ele>
        <time>2021-10-16T07:11:05Z</time>
      </trkpt>
      <trkpt lat="49.42019" lon="1.07702">
        <ele>16.7</ele>
        <time>2021-10-16T07:11:07Z</time>
      </trkpt>
      <trkpt lat="49.42017" lon="1.07707">
        <ele>16.6</ele>
        <time>2021-10-16T07:11:08Z</time>
      </trkpt>
      <trkpt lat="49.42016" lon="1.07714">
        <ele>16.5</ele>
        <time>2021-10-16T07:11:09Z</time>
      </trkpt>
      <trkpt lat="49.42013" lon="1.0772">
        <ele>16.5</ele>
        <time>2021-10-16T07:11:11Z</time>
      </trkpt>
      <trkpt lat="49.4201" lon="1.07725">
        <ele>16.4</ele>
        <time>2021-10-16T07:11:12Z</time>
      </trkpt>
      <trkpt lat="49.42007" lon="1.0773">
        <ele>16.4</ele>
        <time>2021-10-16T07:11:14Z</time>
      </trkpt>
      <trkpt lat="49.42005" lon="1.07735">
        <ele>16.4</ele>
        <time>2021-10-16T07:11:15Z</time>
      </trkpt>
      <trkpt lat="49.42003" lon="1.07739">
        <ele>16.3</ele>
        <time>2021-10-16T07:11:16Z</time>
      </trkpt>
      <trkpt lat="49.42001" lon="1.07744">
        <ele>16.3</ele>
        <time>2021-10-16T07:11:17Z</time>
      </trkpt>
      <trkpt lat="49.42" lon="1.07751">
        <ele>16.3</ele>
        <time>2021-10-16T07:11:19Z</time>
      </trkpt>
      <trkpt lat="49.41999" lon="1.07753">
        <ele>16.3</ele>
        <time>2021-10-16T07:11:20Z</time>
      </trkpt>
      <trkpt lat="49.41999" lon="1.07756">
        <ele>16.3</ele>
        <time>2021-10-16T07:11:21Z</time>
      </trkpt>
      <trkpt lat="49.41998" lon="1.07761">
        <ele>16.2</ele>
        <time>2021-10-16T07:11:22Z</time>
      </trkpt>
      <trkpt lat="49.41997" lon="1.0777">
        <ele>16.2</ele>
        <time>2021-10-16T07:11:24Z</time>
      </trkpt>
      <trkpt lat="49.41997" lon="1.07776">
        <ele>16.1</ele>
        <time>2021-10-16T07:11:25Z</time>
      </trkpt>
      <trkpt lat="49.41997" lon="1.07781">
        <ele>15.8</ele>
        <time>2021-10-16T07:11:26Z</time>
      </trkpt>
      <trkpt lat="49.41996" lon="1.07785">
        <ele>15.8</ele>
        <time>2021-10-16T07:11:27Z</time>
      </trkpt>
      <trkpt lat="49.41995" lon="1.07792">
        <ele>15.7</ele>
        <time>2021-10-16T07:11:29Z</time>
      </trkpt>
      <trkpt lat="49.41992" lon="1.07794">
        <ele>15.7</ele>
        <time>2021-10-16T07:11:30Z</time>
      </trkpt>
      <trkpt lat="49.41991" lon="1.07794">
        <ele>15.7</ele>
        <time>2021-10-16T07:11:31Z</time>
      </trkpt>
      <trkpt lat="49.41988" lon="1.07796">
        <ele>15.7</ele>
        <time>2021-10-16T07:11:33Z</time>
      </trkpt>
      <trkpt lat="49.41985" lon="1.07797">
        <ele>15.7</ele>
        <time>2021-10-16T07:11:34Z</time>
      </trkpt>
      <trkpt lat="49.4198" lon="1.07798">
        <ele>15.9</ele>
        <time>2021-10-16T07:11:35Z</time>
      </trkpt>
      <trkpt lat="49.41974" lon="1.07797">
        <ele>16</ele>
        <time>2021-10-16T07:11:37Z</time>
      </trkpt>
      <trkpt lat="49.41972" lon="1.07797">
        <ele>16.1</ele>
        <time>2021-10-16T07:11:38Z</time>
      </trkpt>
      <trkpt lat="49.41969" lon="1.07796">
        <ele>16.2</ele>
        <time>2021-10-16T07:11:40Z</time>
      </trkpt>
      <trkpt lat="49.41965" lon="1.07794">
        <ele>16.3</ele>
        <time>2021-10-16T07:11:41Z</time>
      </trkpt>
      <trkpt lat="49.41964" lon="1.07794">
        <ele>16.4</ele>
        <time>2021-10-16T07:11:42Z</time>
      </trkpt>
      <trkpt lat="49.41959" lon="1.07794">
        <ele>16.6</ele>
        <time>2021-10-16T07:11:44Z</time>
      </trkpt>
      <trkpt lat="49.41958" lon="1.07794">
        <ele>16.6</ele>
        <time>2021-10-16T07:11:45Z</time>
      </trkpt>
      <trkpt lat="49.41957" lon="1.07794">
        <ele>16.6</ele>
        <time>2021-10-16T07:11:46Z</time>
      </trkpt>
      <trkpt lat="49.41955" lon="1.07794">
        <ele>16.9</ele>
        <time>2021-10-16T07:11:47Z</time>
      </trkpt>
      <trkpt lat="49.41951" lon="1.07795">
        <ele>17.1</ele>
        <time>2021-10-16T07:11:49Z</time>
      </trkpt>
      <trkpt lat="49.41948" lon="1.07794">
        <ele>17.1</ele>
        <time>2021-10-16T07:11:51Z</time>
      </trkpt>
      <trkpt lat="49.41946" lon="1.07791">
        <ele>17.1</ele>
        <time>2021-10-16T07:11:52Z</time>
      </trkpt>
      <trkpt lat="49.41944" lon="1.07788">
        <ele>17</ele>
        <time>2021-10-16T07:11:53Z</time>
      </trkpt>
      <trkpt lat="49.41941" lon="1.07783">
        <ele>17.1</ele>
        <time>2021-10-16T07:11:55Z</time>
      </trkpt>
      <trkpt lat="49.41938" lon="1.07779">
        <ele>17.3</ele>
        <time>2021-10-16T07:11:56Z</time>
      </trkpt>
      <trkpt lat="49.41937" lon="1.07778">
        <ele>17.3</ele>
        <time>2021-10-16T07:11:57Z</time>
      </trkpt>
      <trkpt lat="49.41935" lon="1.07776">
        <ele>17.4</ele>
        <time>2021-10-16T07:11:58Z</time>
      </trkpt>
      <trkpt lat="49.41932" lon="1.07771">
        <ele>17.6</ele>
        <time>2021-10-16T07:12:00Z</time>
      </trkpt>
      <trkpt lat="49.41928" lon="1.07769">
        <ele>17.7</ele>
        <time>2021-10-16T07:12:02Z</time>
      </trkpt>
      <trkpt lat="49.41926" lon="1.07768">
        <ele>17.8</ele>
        <time>2021-10-16T07:12:03Z</time>
      </trkpt>
      <trkpt lat="49.41921" lon="1.07766">
        <ele>18</ele>
        <time>2021-10-16T07:12:05Z</time>
      </trkpt>
      <trkpt lat="49.41919" lon="1.07765">
        <ele>18.1</ele>
        <time>2021-10-16T07:12:06Z</time>
      </trkpt>
      <trkpt lat="49.41913" lon="1.0776">
        <ele>18.3</ele>
        <time>2021-10-16T07:12:08Z</time>
      </trkpt>
      <trkpt lat="49.41908" lon="1.0776">
        <ele>18.5</ele>
        <time>2021-10-16T07:12:10Z</time>
      </trkpt>
      <trkpt lat="49.41901" lon="1.07752">
        <ele>18.7</ele>
        <time>2021-10-16T07:12:12Z</time>
      </trkpt>
      <trkpt lat="49.41896" lon="1.07749">
        <ele>18.9</ele>
        <time>2021-10-16T07:12:14Z</time>
      </trkpt>
      <trkpt lat="49.41892" lon="1.07748">
        <ele>19</ele>
        <time>2021-10-16T07:12:16Z</time>
      </trkpt>
      <trkpt lat="49.4189" lon="1.07749">
        <ele>19.1</ele>
        <time>2021-10-16T07:12:17Z</time>
      </trkpt>
      <trkpt lat="49.41889" lon="1.07748">
        <ele>19.1</ele>
        <time>2021-10-16T07:12:18Z</time>
      </trkpt>
      <trkpt lat="49.41886" lon="1.07746">
        <ele>19.3</ele>
        <time>2021-10-16T07:12:19Z</time>
      </trkpt>
      <trkpt lat="49.41884" lon="1.07745">
        <ele>19.3</ele>
        <time>2021-10-16T07:12:20Z</time>
      </trkpt>
      <trkpt lat="49.41878" lon="1.07741">
        <ele>19.5</ele>
        <time>2021-10-16T07:12:22Z</time>
      </trkpt>
      <trkpt lat="49.41872" lon="1.07737">
        <ele>19.8</ele>
        <time>2021-10-16T07:12:24Z</time>
      </trkpt>
      <trkpt lat="49.4187" lon="1.07734">
        <ele>19.9</ele>
        <time>2021-10-16T07:12:25Z</time>
      </trkpt>
      <trkpt lat="49.41869" lon="1.07734">
        <ele>20</ele>
        <time>2021-10-16T07:12:26Z</time>
      </trkpt>
      <trkpt lat="49.41866" lon="1.07732">
        <ele>20.1</ele>
        <time>2021-10-16T07:12:28Z</time>
      </trkpt>
      <trkpt lat="49.41864" lon="1.07731">
        <ele>20.2</ele>
        <time>2021-10-16T07:12:30Z</time>
      </trkpt>
      <trkpt lat="49.41862" lon="1.07732">
        <ele>20.3</ele>
        <time>2021-10-16T07:12:32Z</time>
      </trkpt>
      <trkpt lat="49.41859" lon="1.07732">
        <ele>20.4</ele>
        <time>2021-10-16T07:12:34Z</time>
      </trkpt>
      <trkpt lat="49.41856" lon="1.07731">
        <ele>20.5</ele>
        <time>2021-10-16T07:12:36Z</time>
      </trkpt>
      <trkpt lat="49.41856" lon="1.07731">
        <ele>20.6</ele>
        <time>2021-10-16T07:12:37Z</time>
      </trkpt>
      <trkpt lat="49.41853" lon="1.0773">
        <ele>20.7</ele>
        <time>2021-10-16T07:12:39Z</time>
      </trkpt>
      <trkpt lat="49.41851" lon="1.07729">
        <ele>20.8</ele>
        <time>2021-10-16T07:12:40Z</time>
      </trkpt>
      <trkpt lat="49.41847" lon="1.07726">
        <ele>21</ele>
        <time>2021-10-16T07:12:42Z</time>
      </trkpt>
      <trkpt lat="49.41844" lon="1.07722">
        <ele>21.1</ele>
        <time>2021-10-16T07:12:44Z</time>
      </trkpt>
      <trkpt lat="49.41843" lon="1.07721">
        <ele>21.2</ele>
        <time>2021-10-16T07:12:45Z</time>
      </trkpt>
      <trkpt lat="49.41842" lon="1.07719">
        <ele>21.3</ele>
        <time>2021-10-16T07:12:46Z</time>
      </trkpt>
      <trkpt lat="49.41839" lon="1.07716">
        <ele>21.4</ele>
        <time>2021-10-16T07:12:48Z</time>
      </trkpt>
      <trkpt lat="49.41835" lon="1.0771">
        <ele>21.7</ele>
        <time>2021-10-16T07:12:49Z</time>
      </trkpt>
      <trkpt lat="49.4183" lon="1.07704">
        <ele>21.9</ele>
        <time>2021-10-16T07:12:50Z</time>
      </trkpt>
      <trkpt lat="49.41823" lon="1.07697">
        <ele>22.3</ele>
        <time>2021-10-16T07:12:52Z</time>
      </trkpt>
      <trkpt lat="49.41819" lon="1.07693">
        <ele>22.5</ele>
        <time>2021-10-16T07:12:53Z</time>
      </trkpt>
      <trkpt lat="49.41814" lon="1.07688">
        <ele>22.8</ele>
        <time>2021-10-16T07:12:55Z</time>
      </trkpt>
      <trkpt lat="49.41811" lon="1.07685">
        <ele>22.9</ele>
        <time>2021-10-16T07:12:56Z</time>
      </trkpt>
      <trkpt lat="49.41808" lon="1.07683">
        <ele>23</ele>
        <time>2021-10-16T07:12:57Z</time>
      </trkpt>
      <trkpt lat="49.41805" lon="1.0768">
        <ele>23.2</ele>
        <time>2021-10-16T07:12:58Z</time>
      </trkpt>
      <trkpt lat="49.41804" lon="1.07679">
        <ele>23.3</ele>
        <time>2021-10-16T07:12:59Z</time>
      </trkpt>
      <trkpt lat="49.418" lon="1.07676">
        <ele>23.5</ele>
        <time>2021-10-16T07:13:01Z</time>
      </trkpt>
      <trkpt lat="49.41798" lon="1.07674">
        <ele>23.6</ele>
        <time>2021-10-16T07:13:02Z</time>
      </trkpt>
      <trkpt lat="49.41797" lon="1.07673">
        <ele>23.6</ele>
        <time>2021-10-16T07:13:03Z</time>
      </trkpt>
      <trkpt lat="49.41792" lon="1.07671">
        <ele>23.8</ele>
        <time>2021-10-16T07:13:04Z</time>
      </trkpt>
      <trkpt lat="49.41785" lon="1.07667">
        <ele>24.2</ele>
        <time>2021-10-16T07:13:06Z</time>
      </trkpt>
      <trkpt lat="49.41781" lon="1.07665">
        <ele>24.3</ele>
        <time>2021-10-16T07:13:07Z</time>
      </trkpt>
      <trkpt lat="49.41777" lon="1.07662">
        <ele>24.5</ele>
        <time>2021-10-16T07:13:08Z</time>
      </trkpt>
      <trkpt lat="49.41773" lon="1.0766">
        <ele>24.7</ele>
        <time>2021-10-16T07:13:09Z</time>
      </trkpt>
      <trkpt lat="49.41768" lon="1.07657">
        <ele>24.9</ele>
        <time>2021-10-16T07:13:11Z</time>
      </trkpt>
      <trkpt lat="49.41765" lon="1.07655">
        <ele>25</ele>
        <time>2021-10-16T07:13:12Z</time>
      </trkpt>
      <trkpt lat="49.41762" lon="1.07652">
        <ele>25.2</ele>
        <time>2021-10-16T07:13:13Z</time>
      </trkpt>
      <trkpt lat="49.4176" lon="1.0765">
        <ele>25.3</ele>
        <time>2021-10-16T07:13:14Z</time>
      </trkpt>
      <trkpt lat="49.41756" lon="1.07648">
        <ele>25.4</ele>
        <time>2021-10-16T07:13:16Z</time>
      </trkpt>
      <trkpt lat="49.41754" lon="1.07646">
        <ele>25.6</ele>
        <time>2021-10-16T07:13:17Z</time>
      </trkpt>
      <trkpt lat="49.4175" lon="1.07643">
        <ele>25.7</ele>
        <time>2021-10-16T07:13:18Z</time>
      </trkpt>
      <trkpt lat="49.41746" lon="1.07641">
        <ele>25.9</ele>
        <time>2021-10-16T07:13:20Z</time>
      </trkpt>
      <trkpt lat="49.41743" lon="1.07638">
        <ele>26</ele>
        <time>2021-10-16T07:13:21Z</time>
      </trkpt>
      <trkpt lat="49.41741" lon="1.07636">
        <ele>26.1</ele>
        <time>2021-10-16T07:13:22Z</time>
      </trkpt>
      <trkpt lat="49.41737" lon="1.07633">
        <ele>26.3</ele>
        <time>2021-10-16T07:13:24Z</time>
      </trkpt>
      <trkpt lat="49.41735" lon="1.07631">
        <ele>26.4</ele>
        <time>2021-10-16T07:13:25Z</time>
      </trkpt>
      <trkpt lat="49.41732" lon="1.0763">
        <ele>26.5</ele>
        <time>2021-10-16T07:13:26Z</time>
      </trkpt>
      <trkpt lat="49.41728" lon="1.07627">
        <ele>26.6</ele>
        <time>2021-10-16T07:13:27Z</time>
      </trkpt>
      <trkpt lat="49.41727" lon="1.07626">
        <ele>26.7</ele>
        <time>2021-10-16T07:13:28Z</time>
      </trkpt>
      <trkpt lat="49.41723" lon="1.07624">
        <ele>26.8</ele>
        <time>2021-10-16T07:13:30Z</time>
      </trkpt>
      <trkpt lat="49.4172" lon="1.07622">
        <ele>26.9</ele>
        <time>2021-10-16T07:13:31Z</time>
      </trkpt>
      <trkpt lat="49.41717" lon="1.0762">
        <ele>27</ele>
        <time>2021-10-16T07:13:32Z</time>
      </trkpt>
      <trkpt lat="49.41714" lon="1.07617">
        <ele>27.1</ele>
        <time>2021-10-16T07:13:33Z</time>
      </trkpt>
      <trkpt lat="49.4171" lon="1.07614">
        <ele>27.2</ele>
        <time>2021-10-16T07:13:35Z</time>
      </trkpt>
      <trkpt lat="49.41706" lon="1.07611">
        <ele>27.3</ele>
        <time>2021-10-16T07:13:36Z</time>
      </trkpt>
      <trkpt lat="49.41703" lon="1.07609">
        <ele>27.4</ele>
        <time>2021-10-16T07:13:37Z</time>
      </trkpt>
      <trkpt lat="49.417" lon="1.07606">
        <ele>27.5</ele>
        <time>2021-10-16T07:13:38Z</time>
      </trkpt>
      <trkpt lat="49.41695" lon="1.07603">
        <ele>27.6</ele>
        <time>2021-10-16T07:13:40Z</time>
      </trkpt>
      <trkpt lat="49.41692" lon="1.07601">
        <ele>27.7</ele>
        <time>2021-10-16T07:13:41Z</time>
      </trkpt>
      <trkpt lat="49.41689" lon="1.07599">
        <ele>27.8</ele>
        <time>2021-10-16T07:13:42Z</time>
      </trkpt>
      <trkpt lat="49.41685" lon="1.07595">
        <ele>27.9</ele>
        <time>2021-10-16T07:13:44Z</time>
      </trkpt>
      <trkpt lat="49.41681" lon="1.07592">
        <ele>28</ele>
        <time>2021-10-16T07:13:45Z</time>
      </trkpt>
      <trkpt lat="49.4168" lon="1.07592">
        <ele>28</ele>
        <time>2021-10-16T07:13:46Z</time>
      </trkpt>
      <trkpt lat="49.41677" lon="1.07588">
        <ele>28.1</ele>
        <time>2021-10-16T07:13:48Z</time>
      </trkpt>
      <trkpt lat="49.41675" lon="1.07587">
        <ele>28.1</ele>
        <time>2021-10-16T07:13:49Z</time>
      </trkpt>
      <trkpt lat="49.41672" lon="1.07584">
        <ele>28.2</ele>
        <time>2021-10-16T07:13:51Z</time>
      </trkpt>
      <trkpt lat="49.4167" lon="1.07582">
        <ele>28.2</ele>
        <time>2021-10-16T07:13:52Z</time>
      </trkpt>
      <trkpt lat="49.41667" lon="1.07579">
        <ele>28.3</ele>
        <time>2021-10-16T07:13:54Z</time>
      </trkpt>
      <trkpt lat="49.41663" lon="1.07577">
        <ele>28.3</ele>
        <time>2021-10-16T07:13:55Z</time>
      </trkpt>
      <trkpt lat="49.41661" lon="1.07577">
        <ele>28.3</ele>
        <time>2021-10-16T07:13:56Z</time>
      </trkpt>
      <trkpt lat="49.41658" lon="1.07576">
        <ele>28.4</ele>
        <time>2021-10-16T07:13:57Z</time>
      </trkpt>
      <trkpt lat="49.41656" lon="1.07574">
        <ele>28.4</ele>
        <time>2021-10-16T07:13:58Z</time>
      </trkpt>
      <trkpt lat="49.41654" lon="1.07571">
        <ele>28.5</ele>
        <time>2021-10-16T07:13:59Z</time>
      </trkpt>
      <trkpt lat="49.41649" lon="1.07569">
        <ele>28.5</ele>
        <time>2021-10-16T07:14:01Z</time>
      </trkpt>
      <trkpt lat="49.41646" lon="1.07568">
        <ele>28.6</ele>
        <time>2021-10-16T07:14:02Z</time>
      </trkpt>
      <trkpt lat="49.41645" lon="1.07568">
        <ele>28.6</ele>
        <time>2021-10-16T07:14:03Z</time>
      </trkpt>
      <trkpt lat="49.41642" lon="1.07566">
        <ele>28.7</ele>
        <time>2021-10-16T07:14:04Z</time>
      </trkpt>
      <trkpt lat="49.41639" lon="1.07564">
        <ele>28.7</ele>
        <time>2021-10-16T07:14:05Z</time>
      </trkpt>
      <trkpt lat="49.41633" lon="1.07564">
        <ele>28.8</ele>
        <time>2021-10-16T07:14:07Z</time>
      </trkpt>
      <trkpt lat="49.41631" lon="1.07564">
        <ele>28.8</ele>
        <time>2021-10-16T07:14:08Z</time>
      </trkpt>
      <trkpt lat="49.41627" lon="1.07562">
        <ele>28.9</ele>
        <time>2021-10-16T07:14:09Z</time>
      </trkpt>
      <trkpt lat="49.41624" lon="1.07561">
        <ele>28.9</ele>
        <time>2021-10-16T07:14:10Z</time>
      </trkpt>
      <trkpt lat="49.4162" lon="1.07558">
        <ele>29</ele>
        <time>2021-10-16T07:14:12Z</time>
      </trkpt>
      <trkpt lat="49.41617" lon="1.07555">
        <ele>29</ele>
        <time>2021-10-16T07:14:13Z</time>
      </trkpt>
      <trkpt lat="49.41615" lon="1.07551">
        <ele>29.1</ele>
        <time>2021-10-16T07:14:14Z</time>
      </trkpt>
      <trkpt lat="49.41613" lon="1.07546">
        <ele>29.1</ele>
        <time>2021-10-16T07:14:16Z</time>
      </trkpt>
      <trkpt lat="49.41611" lon="1.07545">
        <ele>29.1</ele>
        <time>2021-10-16T07:14:17Z</time>
      </trkpt>
      <trkpt lat="49.4161" lon="1.07544">
        <ele>29.1</ele>
        <time>2021-10-16T07:14:18Z</time>
      </trkpt>
      <trkpt lat="49.41608" lon="1.07542">
        <ele>29.2</ele>
        <time>2021-10-16T07:14:19Z</time>
      </trkpt>
      <trkpt lat="49.41607" lon="1.07541">
        <ele>29.2</ele>
        <time>2021-10-16T07:14:21Z</time>
      </trkpt>
      <trkpt lat="49.41606" lon="1.07539">
        <ele>29.2</ele>
        <time>2021-10-16T07:14:22Z</time>
      </trkpt>
      <trkpt lat="49.41604" lon="1.07538">
        <ele>29.2</ele>
        <time>2021-10-16T07:14:23Z</time>
      </trkpt>
      <trkpt lat="49.41602" lon="1.07536">
        <ele>29.3</ele>
        <time>2021-10-16T07:14:24Z</time>
      </trkpt>
      <trkpt lat="49.41596" lon="1.07531">
        <ele>29.3</ele>
        <time>2021-10-16T07:14:26Z</time>
      </trkpt>
      <trkpt lat="49.41592" lon="1.07527">
        <ele>29.4</ele>
        <time>2021-10-16T07:14:27Z</time>
      </trkpt>
      <trkpt lat="49.41587" lon="1.07522">
        <ele>29.4</ele>
        <time>2021-10-16T07:14:28Z</time>
      </trkpt>
      <trkpt lat="49.41582" lon="1.07518">
        <ele>29.4</ele>
        <time>2021-10-16T07:14:30Z</time>
      </trkpt>
      <trkpt lat="49.41578" lon="1.07514">
        <ele>29.5</ele>
        <time>2021-10-16T07:14:31Z</time>
      </trkpt>
      <trkpt lat="49.41573" lon="1.07512">
        <ele>29.5</ele>
        <time>2021-10-16T07:14:32Z</time>
      </trkpt>
      <trkpt lat="49.41568" lon="1.07508">
        <ele>29.6</ele>
        <time>2021-10-16T07:14:34Z</time>
      </trkpt>
      <trkpt lat="49.41565" lon="1.07506">
        <ele>29.6</ele>
        <time>2021-10-16T07:14:35Z</time>
      </trkpt>
      <trkpt lat="49.41562" lon="1.07504">
        <ele>29.6</ele>
        <time>2021-10-16T07:14:36Z</time>
      </trkpt>
      <trkpt lat="49.41559" lon="1.07503">
        <ele>29.7</ele>
        <time>2021-10-16T07:14:37Z</time>
      </trkpt>
      <trkpt lat="49.41558" lon="1.07502">
        <ele>29.7</ele>
        <time>2021-10-16T07:14:38Z</time>
      </trkpt>
      <trkpt lat="49.41555" lon="1.075">
        <ele>29.7</ele>
        <time>2021-10-16T07:14:39Z</time>
      </trkpt>
      <trkpt lat="49.41554" lon="1.07499">
        <ele>29.7</ele>
        <time>2021-10-16T07:14:41Z</time>
      </trkpt>
      <trkpt lat="49.41552" lon="1.07499">
        <ele>29.8</ele>
        <time>2021-10-16T07:14:42Z</time>
      </trkpt>
      <trkpt lat="49.41551" lon="1.07498">
        <ele>29.8</ele>
        <time>2021-10-16T07:14:43Z</time>
      </trkpt>
      <trkpt lat="49.41548" lon="1.07495">
        <ele>29.8</ele>
        <time>2021-10-16T07:14:44Z</time>
      </trkpt>
      <trkpt lat="49.41547" lon="1.07494">
        <ele>29.9</ele>
        <time>2021-10-16T07:14:45Z</time>
      </trkpt>
      <trkpt lat="49.41544" lon="1.07492">
        <ele>29.9</ele>
        <time>2021-10-16T07:14:46Z</time>
      </trkpt>
      <trkpt lat="49.41541" lon="1.0749">
        <ele>29.9</ele>
        <time>2021-10-16T07:14:48Z</time>
      </trkpt>
      <trkpt lat="49.41537" lon="1.07488">
        <ele>30</ele>
        <time>2021-10-16T07:14:49Z</time>
      </trkpt>
      <trkpt lat="49.41531" lon="1.07486">
        <ele>30</ele>
        <time>2021-10-16T07:14:50Z</time>
      </trkpt>
      <trkpt lat="49.41526" lon="1.07483">
        <ele>30.1</ele>
        <time>2021-10-16T07:14:52Z</time>
      </trkpt>
      <trkpt lat="49.41523" lon="1.0748">
        <ele>30.2</ele>
        <time>2021-10-16T07:14:53Z</time>
      </trkpt>
      <trkpt lat="49.41521" lon="1.07478">
        <ele>30.2</ele>
        <time>2021-10-16T07:14:54Z</time>
      </trkpt>
      <trkpt lat="49.41518" lon="1.07476">
        <ele>30.2</ele>
        <time>2021-10-16T07:14:55Z</time>
      </trkpt>
      <trkpt lat="49.41515" lon="1.07474">
        <ele>30.2</ele>
        <time>2021-10-16T07:14:56Z</time>
      </trkpt>
      <trkpt lat="49.41511" lon="1.07471">
        <ele>30.3</ele>
        <time>2021-10-16T07:14:58Z</time>
      </trkpt>
      <trkpt lat="49.41508" lon="1.07468">
        <ele>30.3</ele>
        <time>2021-10-16T07:14:59Z</time>
      </trkpt>
      <trkpt lat="49.41507" lon="1.07467">
        <ele>30.3</ele>
        <time>2021-10-16T07:15:00Z</time>
      </trkpt>
      <trkpt lat="49.41503" lon="1.07464">
        <ele>30.4</ele>
        <time>2021-10-16T07:15:02Z</time>
      </trkpt>
      <trkpt lat="49.415" lon="1.07462">
        <ele>30.4</ele>
        <time>2021-10-16T07:15:03Z</time>
      </trkpt>
      <trkpt lat="49.41498" lon="1.07458">
        <ele>30.4</ele>
        <time>2021-10-16T07:15:04Z</time>
      </trkpt>
      <trkpt lat="49.41497" lon="1.07458">
        <ele>30.4</ele>
        <time>2021-10-16T07:15:05Z</time>
      </trkpt>
      <trkpt lat="49.41495" lon="1.07456">
        <ele>30.5</ele>
        <time>2021-10-16T07:15:07Z</time>
      </trkpt>
      <trkpt lat="49.41494" lon="1.07457">
        <ele>30.5</ele>
        <time>2021-10-16T07:15:08Z</time>
      </trkpt>
      <trkpt lat="49.41491" lon="1.07455">
        <ele>30.5</ele>
        <time>2021-10-16T07:15:09Z</time>
      </trkpt>
      <trkpt lat="49.41489" lon="1.07454">
        <ele>30.5</ele>
        <time>2021-10-16T07:15:10Z</time>
      </trkpt>
      <trkpt lat="49.41483" lon="1.0745">
        <ele>30.5</ele>
        <time>2021-10-16T07:15:12Z</time>
      </trkpt>
      <trkpt lat="49.41478" lon="1.07445">
        <ele>30.6</ele>
        <time>2021-10-16T07:15:13Z</time>
      </trkpt>
      <trkpt lat="49.41474" lon="1.07441">
        <ele>30.6</ele>
        <time>2021-10-16T07:15:14Z</time>
      </trkpt>
      <trkpt lat="49.4147" lon="1.07437">
        <ele>30.7</ele>
        <time>2021-10-16T07:15:15Z</time>
      </trkpt>
      <trkpt lat="49.41465" lon="1.07433">
        <ele>30.8</ele>
        <time>2021-10-16T07:15:17Z</time>
      </trkpt>
      <trkpt lat="49.41462" lon="1.0743">
        <ele>30.8</ele>
        <time>2021-10-16T07:15:18Z</time>
      </trkpt>
      <trkpt lat="49.41459" lon="1.07429">
        <ele>30.8</ele>
        <time>2021-10-16T07:15:19Z</time>
      </trkpt>
      <trkpt lat="49.41455" lon="1.07425">
        <ele>30.9</ele>
        <time>2021-10-16T07:15:21Z</time>
      </trkpt>
      <trkpt lat="49.41453" lon="1.07425">
        <ele>30.9</ele>
        <time>2021-10-16T07:15:22Z</time>
      </trkpt>
      <trkpt lat="49.41451" lon="1.07424">
        <ele>30.9</ele>
        <time>2021-10-16T07:15:23Z</time>
      </trkpt>
      <trkpt lat="49.41447" lon="1.0742">
        <ele>30.9</ele>
        <time>2021-10-16T07:15:24Z</time>
      </trkpt>
      <trkpt lat="49.41443" lon="1.07416">
        <ele>31</ele>
        <time>2021-10-16T07:15:26Z</time>
      </trkpt>
      <trkpt lat="49.41439" lon="1.07414">
        <ele>31</ele>
        <time>2021-10-16T07:15:27Z</time>
      </trkpt>
      <trkpt lat="49.41436" lon="1.07411">
        <ele>31</ele>
        <time>2021-10-16T07:15:28Z</time>
      </trkpt>
      <trkpt lat="49.41433" lon="1.0741">
        <ele>31.1</ele>
        <time>2021-10-16T07:15:29Z</time>
      </trkpt>
      <trkpt lat="49.4143" lon="1.07408">
        <ele>31.1</ele>
        <time>2021-10-16T07:15:30Z</time>
      </trkpt>
      <trkpt lat="49.41427" lon="1.07404">
        <ele>31.2</ele>
        <time>2021-10-16T07:15:32Z</time>
      </trkpt>
      <trkpt lat="49.41426" lon="1.07403">
        <ele>31.2</ele>
        <time>2021-10-16T07:15:33Z</time>
      </trkpt>
      <trkpt lat="49.41425" lon="1.07402">
        <ele>31.2</ele>
        <time>2021-10-16T07:15:34Z</time>
      </trkpt>
      <trkpt lat="49.41422" lon="1.07399">
        <ele>31.2</ele>
        <time>2021-10-16T07:15:35Z</time>
      </trkpt>
      <trkpt lat="49.41419" lon="1.07396">
        <ele>31.3</ele>
        <time>2021-10-16T07:15:36Z</time>
      </trkpt>
      <trkpt lat="49.41412" lon="1.0739">
        <ele>31.4</ele>
        <time>2021-10-16T07:15:38Z</time>
      </trkpt>
      <trkpt lat="49.41408" lon="1.07386">
        <ele>31.4</ele>
        <time>2021-10-16T07:15:39Z</time>
      </trkpt>
      <trkpt lat="49.41403" lon="1.07384">
        <ele>31.5</ele>
        <time>2021-10-16T07:15:40Z</time>
      </trkpt>
      <trkpt lat="49.41399" lon="1.07382">
        <ele>31.5</ele>
        <time>2021-10-16T07:15:41Z</time>
      </trkpt>
      <trkpt lat="49.41392" lon="1.07379">
        <ele>31.6</ele>
        <time>2021-10-16T07:15:43Z</time>
      </trkpt>
      <trkpt lat="49.4139" lon="1.07377">
        <ele>31.7</ele>
        <time>2021-10-16T07:15:44Z</time>
      </trkpt>
      <trkpt lat="49.41389" lon="1.07376">
        <ele>31.7</ele>
        <time>2021-10-16T07:15:46Z</time>
      </trkpt>
      <trkpt lat="49.41385" lon="1.07375">
        <ele>31.7</ele>
        <time>2021-10-16T07:15:47Z</time>
      </trkpt>
      <trkpt lat="49.41384" lon="1.07374">
        <ele>31.7</ele>
        <time>2021-10-16T07:15:48Z</time>
      </trkpt>
      <trkpt lat="49.4138" lon="1.07372">
        <ele>31.7</ele>
        <time>2021-10-16T07:15:49Z</time>
      </trkpt>
      <trkpt lat="49.41379" lon="1.07372">
        <ele>31.7</ele>
        <time>2021-10-16T07:15:50Z</time>
      </trkpt>
      <trkpt lat="49.41377" lon="1.0737">
        <ele>31.8</ele>
        <time>2021-10-16T07:15:51Z</time>
      </trkpt>
      <trkpt lat="49.41372" lon="1.07367">
        <ele>31.8</ele>
        <time>2021-10-16T07:15:53Z</time>
      </trkpt>
      <trkpt lat="49.41368" lon="1.07364">
        <ele>31.9</ele>
        <time>2021-10-16T07:15:55Z</time>
      </trkpt>
      <trkpt lat="49.41365" lon="1.07363">
        <ele>31.9</ele>
        <time>2021-10-16T07:15:56Z</time>
      </trkpt>
      <trkpt lat="49.41361" lon="1.0736">
        <ele>31.9</ele>
        <time>2021-10-16T07:15:57Z</time>
      </trkpt>
      <trkpt lat="49.41356" lon="1.07356">
        <ele>32</ele>
        <time>2021-10-16T07:15:59Z</time>
      </trkpt>
      <trkpt lat="49.41352" lon="1.07353">
        <ele>32</ele>
        <time>2021-10-16T07:16:00Z</time>
      </trkpt>
      <trkpt lat="49.41348" lon="1.0735">
        <ele>32.1</ele>
        <time>2021-10-16T07:16:01Z</time>
      </trkpt>
      <trkpt lat="49.41344" lon="1.07348">
        <ele>32.1</ele>
        <time>2021-10-16T07:16:02Z</time>
      </trkpt>
      <trkpt lat="49.41341" lon="1.07346">
        <ele>32.2</ele>
        <time>2021-10-16T07:16:03Z</time>
      </trkpt>
      <trkpt lat="49.41337" lon="1.07344">
        <ele>32.2</ele>
        <time>2021-10-16T07:16:05Z</time>
      </trkpt>
      <trkpt lat="49.41334" lon="1.07342">
        <ele>32.3</ele>
        <time>2021-10-16T07:16:06Z</time>
      </trkpt>
      <trkpt lat="49.4133" lon="1.07339">
        <ele>32.3</ele>
        <time>2021-10-16T07:16:08Z</time>
      </trkpt>
      <trkpt lat="49.41327" lon="1.07337">
        <ele>32.4</ele>
        <time>2021-10-16T07:16:09Z</time>
      </trkpt>
      <trkpt lat="49.41323" lon="1.07335">
        <ele>32.4</ele>
        <time>2021-10-16T07:16:10Z</time>
      </trkpt>
      <trkpt lat="49.41321" lon="1.07333">
        <ele>32.4</ele>
        <time>2021-10-16T07:16:11Z</time>
      </trkpt>
      <trkpt lat="49.41318" lon="1.0733">
        <ele>32.5</ele>
        <time>2021-10-16T07:16:12Z</time>
      </trkpt>
      <trkpt lat="49.41315" lon="1.07328">
        <ele>32.6</ele>
        <time>2021-10-16T07:16:13Z</time>
      </trkpt>
      <trkpt lat="49.41311" lon="1.07325">
        <ele>32.7</ele>
        <time>2021-10-16T07:16:15Z</time>
      </trkpt>
      <trkpt lat="49.41308" lon="1.07323">
        <ele>32.7</ele>
        <time>2021-10-16T07:16:16Z</time>
      </trkpt>
      <trkpt lat="49.41305" lon="1.07322">
        <ele>32.7</ele>
        <time>2021-10-16T07:16:17Z</time>
      </trkpt>
      <trkpt lat="49.41302" lon="1.0732">
        <ele>32.8</ele>
        <time>2021-10-16T07:16:18Z</time>
      </trkpt>
      <trkpt lat="49.41298" lon="1.07318">
        <ele>32.8</ele>
        <time>2021-10-16T07:16:20Z</time>
      </trkpt>
      <trkpt lat="49.41296" lon="1.07317">
        <ele>32.9</ele>
        <time>2021-10-16T07:16:21Z</time>
      </trkpt>
      <trkpt lat="49.41292" lon="1.07314">
        <ele>32.9</ele>
        <time>2021-10-16T07:16:22Z</time>
      </trkpt>
      <trkpt lat="49.41289" lon="1.07312">
        <ele>33</ele>
        <time>2021-10-16T07:16:23Z</time>
      </trkpt>
      <trkpt lat="49.41287" lon="1.07311">
        <ele>33</ele>
        <time>2021-10-16T07:16:24Z</time>
      </trkpt>
      <trkpt lat="49.41285" lon="1.0731">
        <ele>33</ele>
        <time>2021-10-16T07:16:25Z</time>
      </trkpt>
      <trkpt lat="49.41282" lon="1.07308">
        <ele>33.1</ele>
        <time>2021-10-16T07:16:27Z</time>
      </trkpt>
      <trkpt lat="49.41279" lon="1.07305">
        <ele>33.1</ele>
        <time>2021-10-16T07:16:28Z</time>
      </trkpt>
      <trkpt lat="49.41277" lon="1.07304">
        <ele>33.1</ele>
        <time>2021-10-16T07:16:29Z</time>
      </trkpt>
      <trkpt lat="49.41274" lon="1.07301">
        <ele>33.3</ele>
        <time>2021-10-16T07:16:31Z</time>
      </trkpt>
      <trkpt lat="49.41272" lon="1.07297">
        <ele>33.3</ele>
        <time>2021-10-16T07:16:32Z</time>
      </trkpt>
      <trkpt lat="49.4127" lon="1.07293">
        <ele>33.3</ele>
        <time>2021-10-16T07:16:33Z</time>
      </trkpt>
      <trkpt lat="49.41269" lon="1.07288">
        <ele>33.3</ele>
        <time>2021-10-16T07:16:34Z</time>
      </trkpt>
      <trkpt lat="49.41268" lon="1.07283">
        <ele>33.3</ele>
        <time>2021-10-16T07:16:35Z</time>
      </trkpt>
      <trkpt lat="49.41267" lon="1.07277">
        <ele>33.4</ele>
        <time>2021-10-16T07:16:37Z</time>
      </trkpt>
      <trkpt lat="49.41266" lon="1.07273">
        <ele>33.4</ele>
        <time>2021-10-16T07:16:38Z</time>
      </trkpt>
      <trkpt lat="49.41265" lon="1.07268">
        <ele>33.4</ele>
        <time>2021-10-16T07:16:39Z</time>
      </trkpt>
      <trkpt lat="49.41264" lon="1.07264">
        <ele>33.4</ele>
        <time>2021-10-16T07:16:40Z</time>
      </trkpt>
      <trkpt lat="49.41262" lon="1.07257">
        <ele>33.4</ele>
        <time>2021-10-16T07:16:42Z</time>
      </trkpt>
      <trkpt lat="49.41262" lon="1.07254">
        <ele>33.4</ele>
        <time>2021-10-16T07:16:44Z</time>
      </trkpt>
      <trkpt lat="49.41262" lon="1.07252">
        <ele>33.4</ele>
        <time>2021-10-16T07:16:45Z</time>
      </trkpt>
      <trkpt lat="49.4126" lon="1.07247">
        <ele>33.4</ele>
        <time>2021-10-16T07:16:46Z</time>
      </trkpt>
      <trkpt lat="49.41257" lon="1.07239">
        <ele>33.4</ele>
        <time>2021-10-16T07:16:48Z</time>
      </trkpt>
      <trkpt lat="49.41254" lon="1.07232">
        <ele>33.4</ele>
        <time>2021-10-16T07:16:49Z</time>
      </trkpt>
      <trkpt lat="49.41251" lon="1.07225">
        <ele>33.4</ele>
        <time>2021-10-16T07:16:50Z</time>
      </trkpt>
      <trkpt lat="49.41249" lon="1.07219">
        <ele>33.4</ele>
        <time>2021-10-16T07:16:51Z</time>
      </trkpt>
      <trkpt lat="49.41247" lon="1.07213">
        <ele>33.4</ele>
        <time>2021-10-16T07:16:52Z</time>
      </trkpt>
      <trkpt lat="49.41245" lon="1.07207">
        <ele>33.4</ele>
        <time>2021-10-16T07:16:54Z</time>
      </trkpt>
      <trkpt lat="49.41244" lon="1.07203">
        <ele>33.4</ele>
        <time>2021-10-16T07:16:55Z</time>
      </trkpt>
      <trkpt lat="49.41242" lon="1.07199">
        <ele>33.4</ele>
        <time>2021-10-16T07:16:56Z</time>
      </trkpt>
      <trkpt lat="49.4124" lon="1.07194">
        <ele>33.4</ele>
        <time>2021-10-16T07:16:57Z</time>
      </trkpt>
      <trkpt lat="49.41238" lon="1.07187">
        <ele>33.3</ele>
        <time>2021-10-16T07:16:58Z</time>
      </trkpt>
      <trkpt lat="49.41235" lon="1.07182">
        <ele>33.3</ele>
        <time>2021-10-16T07:17:00Z</time>
      </trkpt>
      <trkpt lat="49.41232" lon="1.07179">
        <ele>33.3</ele>
        <time>2021-10-16T07:17:01Z</time>
      </trkpt>
      <trkpt lat="49.41229" lon="1.07177">
        <ele>33.3</ele>
        <time>2021-10-16T07:17:02Z</time>
      </trkpt>
      <trkpt lat="49.41226" lon="1.07175">
        <ele>33.3</ele>
        <time>2021-10-16T07:17:03Z</time>
      </trkpt>
      <trkpt lat="49.41223" lon="1.07171">
        <ele>33.3</ele>
        <time>2021-10-16T07:17:04Z</time>
      </trkpt>
      <trkpt lat="49.4122" lon="1.07169">
        <ele>33.3</ele>
        <time>2021-10-16T07:17:05Z</time>
      </trkpt>
      <trkpt lat="49.41217" lon="1.07168">
        <ele>33.3</ele>
        <time>2021-10-16T07:17:07Z</time>
      </trkpt>
      <trkpt lat="49.41213" lon="1.07167">
        <ele>33.3</ele>
        <time>2021-10-16T07:17:08Z</time>
      </trkpt>
      <trkpt lat="49.41209" lon="1.07166">
        <ele>33.3</ele>
        <time>2021-10-16T07:17:10Z</time>
      </trkpt>
      <trkpt lat="49.41205" lon="1.07168">
        <ele>33.4</ele>
        <time>2021-10-16T07:17:12Z</time>
      </trkpt>
      <trkpt lat="49.41202" lon="1.0717">
        <ele>33.4</ele>
        <time>2021-10-16T07:17:13Z</time>
      </trkpt>
      <trkpt lat="49.41198" lon="1.07175">
        <ele>33.4</ele>
        <time>2021-10-16T07:17:15Z</time>
      </trkpt>
      <trkpt lat="49.41195" lon="1.07179">
        <ele>33.4</ele>
        <time>2021-10-16T07:17:16Z</time>
      </trkpt>
      <trkpt lat="49.41192" lon="1.07182">
        <ele>33.5</ele>
        <time>2021-10-16T07:17:17Z</time>
      </trkpt>
      <trkpt lat="49.41189" lon="1.07184">
        <ele>33.5</ele>
        <time>2021-10-16T07:17:18Z</time>
      </trkpt>
      <trkpt lat="49.41186" lon="1.07186">
        <ele>33.5</ele>
        <time>2021-10-16T07:17:19Z</time>
      </trkpt>
      <trkpt lat="49.41182" lon="1.07189">
        <ele>33.5</ele>
        <time>2021-10-16T07:17:20Z</time>
      </trkpt>
      <trkpt lat="49.41181" lon="1.0719">
        <ele>33.5</ele>
        <time>2021-10-16T07:17:21Z</time>
      </trkpt>
      <trkpt lat="49.41179" lon="1.07192">
        <ele>33.6</ele>
        <time>2021-10-16T07:17:22Z</time>
      </trkpt>
      <trkpt lat="49.41178" lon="1.07193">
        <ele>33.6</ele>
        <time>2021-10-16T07:17:23Z</time>
      </trkpt>
      <trkpt lat="49.41176" lon="1.07195">
        <ele>33.6</ele>
        <time>2021-10-16T07:17:24Z</time>
      </trkpt>
      <trkpt lat="49.41173" lon="1.07199">
        <ele>33.6</ele>
        <time>2021-10-16T07:17:26Z</time>
      </trkpt>
      <trkpt lat="49.4117" lon="1.07202">
        <ele>33.6</ele>
        <time>2021-10-16T07:17:27Z</time>
      </trkpt>
      <trkpt lat="49.41168" lon="1.07203">
        <ele>33.6</ele>
        <time>2021-10-16T07:17:28Z</time>
      </trkpt>
      <trkpt lat="49.41165" lon="1.07206">
        <ele>33.6</ele>
        <time>2021-10-16T07:17:29Z</time>
      </trkpt>
      <trkpt lat="49.41164" lon="1.07206">
        <ele>33.6</ele>
        <time>2021-10-16T07:17:30Z</time>
      </trkpt>
      <trkpt lat="49.41159" lon="1.07205">
        <ele>33.6</ele>
        <time>2021-10-16T07:17:32Z</time>
      </trkpt>
      <trkpt lat="49.41156" lon="1.07202">
        <ele>33.6</ele>
        <time>2021-10-16T07:17:33Z</time>
      </trkpt>
      <trkpt lat="49.41155" lon="1.07201">
        <ele>33.6</ele>
        <time>2021-10-16T07:17:34Z</time>
      </trkpt>
      <trkpt lat="49.41152" lon="1.07198">
        <ele>33.6</ele>
        <time>2021-10-16T07:17:36Z</time>
      </trkpt>
      <trkpt lat="49.41149" lon="1.07196">
        <ele>33.6</ele>
        <time>2021-10-16T07:17:37Z</time>
      </trkpt>
      <trkpt lat="49.41145" lon="1.07194">
        <ele>33.5</ele>
        <time>2021-10-16T07:17:38Z</time>
      </trkpt>
      <trkpt lat="49.41139" lon="1.07191">
        <ele>33.5</ele>
        <time>2021-10-16T07:17:39Z</time>
      </trkpt>
      <trkpt lat="49.41134" lon="1.07189">
        <ele>33.5</ele>
        <time>2021-10-16T07:17:40Z</time>
      </trkpt>
      <trkpt lat="49.41128" lon="1.07187">
        <ele>33.5</ele>
        <time>2021-10-16T07:17:42Z</time>
      </trkpt>
      <trkpt lat="49.41124" lon="1.07185">
        <ele>33.5</ele>
        <time>2021-10-16T07:17:43Z</time>
      </trkpt>
      <trkpt lat="49.41121" lon="1.07183">
        <ele>33.5</ele>
        <time>2021-10-16T07:17:44Z</time>
      </trkpt>
      <trkpt lat="49.41118" lon="1.07181">
        <ele>33.5</ele>
        <time>2021-10-16T07:17:45Z</time>
      </trkpt>
      <trkpt lat="49.41115" lon="1.0718">
        <ele>33.5</ele>
        <time>2021-10-16T07:17:46Z</time>
      </trkpt>
      <trkpt lat="49.41112" lon="1.07177">
        <ele>33.5</ele>
        <time>2021-10-16T07:17:47Z</time>
      </trkpt>
      <trkpt lat="49.41109" lon="1.07175">
        <ele>33.5</ele>
        <time>2021-10-16T07:17:48Z</time>
      </trkpt>
      <trkpt lat="49.41106" lon="1.07172">
        <ele>33.5</ele>
        <time>2021-10-16T07:17:50Z</time>
      </trkpt>
      <trkpt lat="49.41103" lon="1.0717">
        <ele>33.5</ele>
        <time>2021-10-16T07:17:51Z</time>
      </trkpt>
      <trkpt lat="49.411" lon="1.07168">
        <ele>33.5</ele>
        <time>2021-10-16T07:17:52Z</time>
      </trkpt>
      <trkpt lat="49.41098" lon="1.07167">
        <ele>33.5</ele>
        <time>2021-10-16T07:17:53Z</time>
      </trkpt>
      <trkpt lat="49.41095" lon="1.07165">
        <ele>33.5</ele>
        <time>2021-10-16T07:17:54Z</time>
      </trkpt>
      <trkpt lat="49.41091" lon="1.07164">
        <ele>33.5</ele>
        <time>2021-10-16T07:17:56Z</time>
      </trkpt>
      <trkpt lat="49.41088" lon="1.07162">
        <ele>33.6</ele>
        <time>2021-10-16T07:17:57Z</time>
      </trkpt>
      <trkpt lat="49.41085" lon="1.07161">
        <ele>33.6</ele>
        <time>2021-10-16T07:17:58Z</time>
      </trkpt>
      <trkpt lat="49.41082" lon="1.07159">
        <ele>33.6</ele>
        <time>2021-10-16T07:17:59Z</time>
      </trkpt>
      <trkpt lat="49.41079" lon="1.07157">
        <ele>33.6</ele>
        <time>2021-10-16T07:18:00Z</time>
      </trkpt>
      <trkpt lat="49.41075" lon="1.07156">
        <ele>33.6</ele>
        <time>2021-10-16T07:18:02Z</time>
      </trkpt>
      <trkpt lat="49.41071" lon="1.07155">
        <ele>33.6</ele>
        <time>2021-10-16T07:18:03Z</time>
      </trkpt>
      <trkpt lat="49.41068" lon="1.07153">
        <ele>33.6</ele>
        <time>2021-10-16T07:18:04Z</time>
      </trkpt>
      <trkpt lat="49.41065" lon="1.07151">
        <ele>33.7</ele>
        <time>2021-10-16T07:18:05Z</time>
      </trkpt>
      <trkpt lat="49.41062" lon="1.07149">
        <ele>33.7</ele>
        <time>2021-10-16T07:18:06Z</time>
      </trkpt>
      <trkpt lat="49.41058" lon="1.07146">
        <ele>33.7</ele>
        <time>2021-10-16T07:18:08Z</time>
      </trkpt>
      <trkpt lat="49.41055" lon="1.07145">
        <ele>33.7</ele>
        <time>2021-10-16T07:18:09Z</time>
      </trkpt>
      <trkpt lat="49.41052" lon="1.07143">
        <ele>33.7</ele>
        <time>2021-10-16T07:18:10Z</time>
      </trkpt>
      <trkpt lat="49.41049" lon="1.0714">
        <ele>33.7</ele>
        <time>2021-10-16T07:18:11Z</time>
      </trkpt>
      <trkpt lat="49.41046" lon="1.07138">
        <ele>33.8</ele>
        <time>2021-10-16T07:18:12Z</time>
      </trkpt>
      <trkpt lat="49.41043" lon="1.07135">
        <ele>33.8</ele>
        <time>2021-10-16T07:18:13Z</time>
      </trkpt>
      <trkpt lat="49.4104" lon="1.07133">
        <ele>33.8</ele>
        <time>2021-10-16T07:18:14Z</time>
      </trkpt>
      <trkpt lat="49.41035" lon="1.07131">
        <ele>33.9</ele>
        <time>2021-10-16T07:18:16Z</time>
      </trkpt>
      <trkpt lat="49.41031" lon="1.07128">
        <ele>33.9</ele>
        <time>2021-10-16T07:18:17Z</time>
      </trkpt>
      <trkpt lat="49.41027" lon="1.07125">
        <ele>34</ele>
        <time>2021-10-16T07:18:18Z</time>
      </trkpt>
      <trkpt lat="49.41021" lon="1.07125">
        <ele>34</ele>
        <time>2021-10-16T07:18:20Z</time>
      </trkpt>
      <trkpt lat="49.41018" lon="1.07127">
        <ele>33.9</ele>
        <time>2021-10-16T07:18:21Z</time>
      </trkpt>
      <trkpt lat="49.41017" lon="1.07126">
        <ele>34</ele>
        <time>2021-10-16T07:18:22Z</time>
      </trkpt>
      <trkpt lat="49.41015" lon="1.07125">
        <ele>33.9</ele>
        <time>2021-10-16T07:18:24Z</time>
      </trkpt>
      <trkpt lat="49.41014" lon="1.07125">
        <ele>33.9</ele>
        <time>2021-10-16T07:18:25Z</time>
      </trkpt>
      <trkpt lat="49.41014" lon="1.07127">
        <ele>33.9</ele>
        <time>2021-10-16T07:18:26Z</time>
      </trkpt>
      <trkpt lat="49.41014" lon="1.07129">
        <ele>34</ele>
        <time>2021-10-16T07:18:27Z</time>
      </trkpt>
      <trkpt lat="49.41015" lon="1.07134">
        <ele>34</ele>
        <time>2021-10-16T07:18:29Z</time>
      </trkpt>
      <trkpt lat="49.41014" lon="1.07136">
        <ele>34.1</ele>
        <time>2021-10-16T07:18:30Z</time>
      </trkpt>
      <trkpt lat="49.41013" lon="1.07139">
        <ele>34.1</ele>
        <time>2021-10-16T07:18:31Z</time>
      </trkpt>
      <trkpt lat="49.41012" lon="1.07141">
        <ele>34.1</ele>
        <time>2021-10-16T07:18:32Z</time>
      </trkpt>
      <trkpt lat="49.41009" lon="1.07143">
        <ele>34.2</ele>
        <time>2021-10-16T07:18:34Z</time>
      </trkpt>
      <trkpt lat="49.41006" lon="1.07146">
        <ele>34.1</ele>
        <time>2021-10-16T07:18:35Z</time>
      </trkpt>
      <trkpt lat="49.41004" lon="1.0715">
        <ele>34.2</ele>
        <time>2021-10-16T07:18:36Z</time>
      </trkpt>
      <trkpt lat="49.41" lon="1.07154">
        <ele>34.2</ele>
        <time>2021-10-16T07:18:37Z</time>
      </trkpt>
      <trkpt lat="49.40997" lon="1.07158">
        <ele>34.3</ele>
        <time>2021-10-16T07:18:38Z</time>
      </trkpt>
      <trkpt lat="49.40994" lon="1.07163">
        <ele>34.3</ele>
        <time>2021-10-16T07:18:39Z</time>
      </trkpt>
      <trkpt lat="49.40991" lon="1.07166">
        <ele>34.3</ele>
        <time>2021-10-16T07:18:40Z</time>
      </trkpt>
      <trkpt lat="49.40987" lon="1.07171">
        <ele>34.3</ele>
        <time>2021-10-16T07:18:42Z</time>
      </trkpt>
      <trkpt lat="49.40983" lon="1.07175">
        <ele>34.3</ele>
        <time>2021-10-16T07:18:43Z</time>
      </trkpt>
      <trkpt lat="49.40981" lon="1.07178">
        <ele>34.4</ele>
        <time>2021-10-16T07:18:44Z</time>
      </trkpt>
      <trkpt lat="49.40978" lon="1.07181">
        <ele>34.3</ele>
        <time>2021-10-16T07:18:45Z</time>
      </trkpt>
      <trkpt lat="49.40977" lon="1.07182">
        <ele>34.4</ele>
        <time>2021-10-16T07:18:46Z</time>
      </trkpt>
      <trkpt lat="49.40973" lon="1.07185">
        <ele>34.3</ele>
        <time>2021-10-16T07:18:48Z</time>
      </trkpt>
      <trkpt lat="49.4097" lon="1.07188">
        <ele>34.3</ele>
        <time>2021-10-16T07:18:49Z</time>
      </trkpt>
      <trkpt lat="49.40967" lon="1.07192">
        <ele>34.3</ele>
        <time>2021-10-16T07:18:50Z</time>
      </trkpt>
      <trkpt lat="49.40963" lon="1.07197">
        <ele>34.2</ele>
        <time>2021-10-16T07:18:52Z</time>
      </trkpt>
      <trkpt lat="49.40961" lon="1.07198">
        <ele>34.2</ele>
        <time>2021-10-16T07:18:53Z</time>
      </trkpt>
      <trkpt lat="49.40959" lon="1.072">
        <ele>34.1</ele>
        <time>2021-10-16T07:18:55Z</time>
      </trkpt>
      <trkpt lat="49.40956" lon="1.07203">
        <ele>34</ele>
        <time>2021-10-16T07:18:56Z</time>
      </trkpt>
      <trkpt lat="49.40955" lon="1.07204">
        <ele>33.9</ele>
        <time>2021-10-16T07:18:57Z</time>
      </trkpt>
      <trkpt lat="49.40953" lon="1.07208">
        <ele>34</ele>
        <time>2021-10-16T07:18:58Z</time>
      </trkpt>
      <trkpt lat="49.4095" lon="1.07213">
        <ele>33.9</ele>
        <time>2021-10-16T07:19:00Z</time>
      </trkpt>
      <trkpt lat="49.40947" lon="1.07217">
        <ele>33.8</ele>
        <time>2021-10-16T07:19:01Z</time>
      </trkpt>
      <trkpt lat="49.40945" lon="1.07221">
        <ele>33.7</ele>
        <time>2021-10-16T07:19:02Z</time>
      </trkpt>
      <trkpt lat="49.40943" lon="1.07226">
        <ele>33.6</ele>
        <time>2021-10-16T07:19:03Z</time>
      </trkpt>
      <trkpt lat="49.40941" lon="1.0723">
        <ele>33.6</ele>
        <time>2021-10-16T07:19:04Z</time>
      </trkpt>
      <trkpt lat="49.40939" lon="1.07234">
        <ele>33.5</ele>
        <time>2021-10-16T07:19:05Z</time>
      </trkpt>
      <trkpt lat="49.40937" lon="1.07238">
        <ele>33.5</ele>
        <time>2021-10-16T07:19:06Z</time>
      </trkpt>
      <trkpt lat="49.40935" lon="1.07242">
        <ele>33.5</ele>
        <time>2021-10-16T07:19:08Z</time>
      </trkpt>
      <trkpt lat="49.40933" lon="1.07246">
        <ele>33.5</ele>
        <time>2021-10-16T07:19:09Z</time>
      </trkpt>
      <trkpt lat="49.40931" lon="1.07249">
        <ele>33.4</ele>
        <time>2021-10-16T07:19:10Z</time>
      </trkpt>
      <trkpt lat="49.40929" lon="1.07252">
        <ele>33.4</ele>
        <time>2021-10-16T07:19:11Z</time>
      </trkpt>
      <trkpt lat="49.40927" lon="1.07256">
        <ele>33.4</ele>
        <time>2021-10-16T07:19:12Z</time>
      </trkpt>
      <trkpt lat="49.40925" lon="1.0726">
        <ele>33.4</ele>
        <time>2021-10-16T07:19:13Z</time>
      </trkpt>
      <trkpt lat="49.40923" lon="1.07264">
        <ele>33.4</ele>
        <time>2021-10-16T07:19:14Z</time>
      </trkpt>
      <trkpt lat="49.40921" lon="1.07268">
        <ele>33.4</ele>
        <time>2021-10-16T07:19:15Z</time>
      </trkpt>
      <trkpt lat="49.40919" lon="1.07272">
        <ele>33.4</ele>
        <time>2021-10-16T07:19:16Z</time>
      </trkpt>
      <trkpt lat="49.40917" lon="1.07276">
        <ele>33.4</ele>
        <time>2021-10-16T07:19:18Z</time>
      </trkpt>
      <trkpt lat="49.40916" lon="1.0728">
        <ele>33.4</ele>
        <time>2021-10-16T07:19:19Z</time>
      </trkpt>
      <trkpt lat="49.40915" lon="1.07284">
        <ele>33.4</ele>
        <time>2021-10-16T07:19:20Z</time>
      </trkpt>
      <trkpt lat="49.40914" lon="1.07288">
        <ele>33.3</ele>
        <time>2021-10-16T07:19:21Z</time>
      </trkpt>
      <trkpt lat="49.40914" lon="1.07293">
        <ele>33.3</ele>
        <time>2021-10-16T07:19:22Z</time>
      </trkpt>
      <trkpt lat="49.40913" lon="1.07297">
        <ele>33.3</ele>
        <time>2021-10-16T07:19:23Z</time>
      </trkpt>
      <trkpt lat="49.40912" lon="1.07302">
        <ele>33.3</ele>
        <time>2021-10-16T07:19:24Z</time>
      </trkpt>
      <trkpt lat="49.40911" lon="1.07307">
        <ele>33.3</ele>
        <time>2021-10-16T07:19:25Z</time>
      </trkpt>
      <trkpt lat="49.4091" lon="1.07311">
        <ele>33.3</ele>
        <time>2021-10-16T07:19:26Z</time>
      </trkpt>
      <trkpt lat="49.40909" lon="1.07316">
        <ele>33.3</ele>
        <time>2021-10-16T07:19:27Z</time>
      </trkpt>
      <trkpt lat="49.40907" lon="1.0732">
        <ele>33.3</ele>
        <time>2021-10-16T07:19:28Z</time>
      </trkpt>
      <trkpt lat="49.40905" lon="1.07323">
        <ele>33.3</ele>
        <time>2021-10-16T07:19:29Z</time>
      </trkpt>
      <trkpt lat="49.40903" lon="1.07328">
        <ele>33.3</ele>
        <time>2021-10-16T07:19:31Z</time>
      </trkpt>
      <trkpt lat="49.40901" lon="1.07332">
        <ele>33.3</ele>
        <time>2021-10-16T07:19:32Z</time>
      </trkpt>
      <trkpt lat="49.409" lon="1.07337">
        <ele>33.3</ele>
        <time>2021-10-16T07:19:33Z</time>
      </trkpt>
      <trkpt lat="49.40898" lon="1.07341">
        <ele>33.3</ele>
        <time>2021-10-16T07:19:34Z</time>
      </trkpt>
      <trkpt lat="49.40897" lon="1.07346">
        <ele>33.3</ele>
        <time>2021-10-16T07:19:35Z</time>
      </trkpt>
      <trkpt lat="49.40895" lon="1.07351">
        <ele>33.3</ele>
        <time>2021-10-16T07:19:36Z</time>
      </trkpt>
      <trkpt lat="49.40894" lon="1.07356">
        <ele>33.3</ele>
        <time>2021-10-16T07:19:37Z</time>
      </trkpt>
      <trkpt lat="49.40892" lon="1.0736">
        <ele>33.3</ele>
        <time>2021-10-16T07:19:38Z</time>
      </trkpt>
      <trkpt lat="49.4089" lon="1.07364">
        <ele>33.4</ele>
        <time>2021-10-16T07:19:39Z</time>
      </trkpt>
      <trkpt lat="49.40888" lon="1.07369">
        <ele>33.4</ele>
        <time>2021-10-16T07:19:40Z</time>
      </trkpt>
      <trkpt lat="49.40887" lon="1.07373">
        <ele>33.4</ele>
        <time>2021-10-16T07:19:41Z</time>
      </trkpt>
      <trkpt lat="49.40885" lon="1.07377">
        <ele>33.4</ele>
        <time>2021-10-16T07:19:42Z</time>
      </trkpt>
      <trkpt lat="49.40883" lon="1.07382">
        <ele>33.4</ele>
        <time>2021-10-16T07:19:44Z</time>
      </trkpt>
      <trkpt lat="49.40881" lon="1.07386">
        <ele>33.4</ele>
        <time>2021-10-16T07:19:45Z</time>
      </trkpt>
      <trkpt lat="49.4088" lon="1.07391">
        <ele>33.5</ele>
        <time>2021-10-16T07:19:46Z</time>
      </trkpt>
      <trkpt lat="49.40878" lon="1.07395">
        <ele>33.5</ele>
        <time>2021-10-16T07:19:47Z</time>
      </trkpt>
      <trkpt lat="49.40876" lon="1.074">
        <ele>33.5</ele>
        <time>2021-10-16T07:19:48Z</time>
      </trkpt>
      <trkpt lat="49.40875" lon="1.07405">
        <ele>33.5</ele>
        <time>2021-10-16T07:19:49Z</time>
      </trkpt>
      <trkpt lat="49.40873" lon="1.07409">
        <ele>33.5</ele>
        <time>2021-10-16T07:19:50Z</time>
      </trkpt>
      <trkpt lat="49.40871" lon="1.07413">
        <ele>33.5</ele>
        <time>2021-10-16T07:19:51Z</time>
      </trkpt>
      <trkpt lat="49.40869" lon="1.07417">
        <ele>33.6</ele>
        <time>2021-10-16T07:19:52Z</time>
      </trkpt>
      <trkpt lat="49.40867" lon="1.07421">
        <ele>33.6</ele>
        <time>2021-10-16T07:19:53Z</time>
      </trkpt>
      <trkpt lat="49.40866" lon="1.07425">
        <ele>33.6</ele>
        <time>2021-10-16T07:19:54Z</time>
      </trkpt>
      <trkpt lat="49.40864" lon="1.07429">
        <ele>33.6</ele>
        <time>2021-10-16T07:19:55Z</time>
      </trkpt>
      <trkpt lat="49.40862" lon="1.07434">
        <ele>33.6</ele>
        <time>2021-10-16T07:19:57Z</time>
      </trkpt>
      <trkpt lat="49.40861" lon="1.07439">
        <ele>33.6</ele>
        <time>2021-10-16T07:19:58Z</time>
      </trkpt>
      <trkpt lat="49.40859" lon="1.07443">
        <ele>33.6</ele>
        <time>2021-10-16T07:19:59Z</time>
      </trkpt>
      <trkpt lat="49.40858" lon="1.07447">
        <ele>33.6</ele>
        <time>2021-10-16T07:20:00Z</time>
      </trkpt>
      <trkpt lat="49.40857" lon="1.07452">
        <ele>33.6</ele>
        <time>2021-10-16T07:20:01Z</time>
      </trkpt>
      <trkpt lat="49.40855" lon="1.07456">
        <ele>33.7</ele>
        <time>2021-10-16T07:20:02Z</time>
      </trkpt>
      <trkpt lat="49.40854" lon="1.0746">
        <ele>33.7</ele>
        <time>2021-10-16T07:20:03Z</time>
      </trkpt>
      <trkpt lat="49.40852" lon="1.07464">
        <ele>33.7</ele>
        <time>2021-10-16T07:20:04Z</time>
      </trkpt>
      <trkpt lat="49.40851" lon="1.07469">
        <ele>33.7</ele>
        <time>2021-10-16T07:20:05Z</time>
      </trkpt>
      <trkpt lat="49.40849" lon="1.07474">
        <ele>33.7</ele>
        <time>2021-10-16T07:20:06Z</time>
      </trkpt>
      <trkpt lat="49.40848" lon="1.07478">
        <ele>33.8</ele>
        <time>2021-10-16T07:20:07Z</time>
      </trkpt>
      <trkpt lat="49.40845" lon="1.07484">
        <ele>33.8</ele>
        <time>2021-10-16T07:20:09Z</time>
      </trkpt>
      <trkpt lat="49.40843" lon="1.07489">
        <ele>33.8</ele>
        <time>2021-10-16T07:20:10Z</time>
      </trkpt>
      <trkpt lat="49.40841" lon="1.07493">
        <ele>33.9</ele>
        <time>2021-10-16T07:20:11Z</time>
      </trkpt>
      <trkpt lat="49.40838" lon="1.07497">
        <ele>33.9</ele>
        <time>2021-10-16T07:20:12Z</time>
      </trkpt>
      <trkpt lat="49.40836" lon="1.075">
        <ele>33.9</ele>
        <time>2021-10-16T07:20:13Z</time>
      </trkpt>
      <trkpt lat="49.40833" lon="1.07504">
        <ele>34</ele>
        <time>2021-10-16T07:20:14Z</time>
      </trkpt>
      <trkpt lat="49.4083" lon="1.07508">
        <ele>34</ele>
        <time>2021-10-16T07:20:16Z</time>
      </trkpt>
      <trkpt lat="49.40828" lon="1.0751">
        <ele>34</ele>
        <time>2021-10-16T07:20:17Z</time>
      </trkpt>
      <trkpt lat="49.40825" lon="1.07513">
        <ele>34.1</ele>
        <time>2021-10-16T07:20:18Z</time>
      </trkpt>
      <trkpt lat="49.40822" lon="1.07516">
        <ele>34.1</ele>
        <time>2021-10-16T07:20:19Z</time>
      </trkpt>
      <trkpt lat="49.40819" lon="1.07519">
        <ele>34.2</ele>
        <time>2021-10-16T07:20:20Z</time>
      </trkpt>
      <trkpt lat="49.40814" lon="1.07523">
        <ele>34.2</ele>
        <time>2021-10-16T07:20:22Z</time>
      </trkpt>
      <trkpt lat="49.40811" lon="1.07524">
        <ele>34.3</ele>
        <time>2021-10-16T07:20:23Z</time>
      </trkpt>
      <trkpt lat="49.40808" lon="1.07526">
        <ele>34.3</ele>
        <time>2021-10-16T07:20:24Z</time>
      </trkpt>
      <trkpt lat="49.40804" lon="1.07527">
        <ele>34.3</ele>
        <time>2021-10-16T07:20:25Z</time>
      </trkpt>
      <trkpt lat="49.40801" lon="1.07528">
        <ele>34.4</ele>
        <time>2021-10-16T07:20:26Z</time>
      </trkpt>
      <trkpt lat="49.40798" lon="1.07529">
        <ele>34.4</ele>
        <time>2021-10-16T07:20:27Z</time>
      </trkpt>
      <trkpt lat="49.40795" lon="1.0753">
        <ele>34.4</ele>
        <time>2021-10-16T07:20:29Z</time>
      </trkpt>
      <trkpt lat="49.40791" lon="1.07532">
        <ele>34.5</ele>
        <time>2021-10-16T07:20:30Z</time>
      </trkpt>
      <trkpt lat="49.40788" lon="1.07532">
        <ele>34.5</ele>
        <time>2021-10-16T07:20:31Z</time>
      </trkpt>
      <trkpt lat="49.40785" lon="1.07532">
        <ele>34.6</ele>
        <time>2021-10-16T07:20:32Z</time>
      </trkpt>
      <trkpt lat="49.40781" lon="1.07532">
        <ele>34.6</ele>
        <time>2021-10-16T07:20:33Z</time>
      </trkpt>
      <trkpt lat="49.40778" lon="1.07531">
        <ele>34.7</ele>
        <time>2021-10-16T07:20:34Z</time>
      </trkpt>
      <trkpt lat="49.40775" lon="1.07531">
        <ele>34.7</ele>
        <time>2021-10-16T07:20:35Z</time>
      </trkpt>
      <trkpt lat="49.40772" lon="1.07531">
        <ele>34.8</ele>
        <time>2021-10-16T07:20:36Z</time>
      </trkpt>
      <trkpt lat="49.40768" lon="1.07531">
        <ele>34.8</ele>
        <time>2021-10-16T07:20:37Z</time>
      </trkpt>
      <trkpt lat="49.40765" lon="1.0753">
        <ele>34.9</ele>
        <time>2021-10-16T07:20:39Z</time>
      </trkpt>
      <trkpt lat="49.40762" lon="1.0753">
        <ele>34.9</ele>
        <time>2021-10-16T07:20:40Z</time>
      </trkpt>
      <trkpt lat="49.40759" lon="1.0753">
        <ele>35</ele>
        <time>2021-10-16T07:20:41Z</time>
      </trkpt>
      <trkpt lat="49.40756" lon="1.0753">
        <ele>35</ele>
        <time>2021-10-16T07:20:42Z</time>
      </trkpt>
      <trkpt lat="49.40752" lon="1.07529">
        <ele>35.1</ele>
        <time>2021-10-16T07:20:43Z</time>
      </trkpt>
      <trkpt lat="49.40749" lon="1.07529">
        <ele>35.1</ele>
        <time>2021-10-16T07:20:44Z</time>
      </trkpt>
      <trkpt lat="49.40746" lon="1.07528">
        <ele>35.2</ele>
        <time>2021-10-16T07:20:45Z</time>
      </trkpt>
      <trkpt lat="49.40743" lon="1.07528">
        <ele>35.3</ele>
        <time>2021-10-16T07:20:46Z</time>
      </trkpt>
      <trkpt lat="49.40739" lon="1.07527">
        <ele>35.3</ele>
        <time>2021-10-16T07:20:48Z</time>
      </trkpt>
      <trkpt lat="49.40736" lon="1.07527">
        <ele>35.4</ele>
        <time>2021-10-16T07:20:49Z</time>
      </trkpt>
      <trkpt lat="49.40732" lon="1.07526">
        <ele>35.5</ele>
        <time>2021-10-16T07:20:50Z</time>
      </trkpt>
      <trkpt lat="49.40727" lon="1.07525">
        <ele>35.5</ele>
        <time>2021-10-16T07:20:52Z</time>
      </trkpt>
      <trkpt lat="49.40724" lon="1.07525">
        <ele>35.6</ele>
        <time>2021-10-16T07:20:53Z</time>
      </trkpt>
      <trkpt lat="49.40722" lon="1.07524">
        <ele>35.6</ele>
        <time>2021-10-16T07:20:54Z</time>
      </trkpt>
      <trkpt lat="49.40719" lon="1.07524">
        <ele>35.7</ele>
        <time>2021-10-16T07:20:55Z</time>
      </trkpt>
      <trkpt lat="49.40716" lon="1.07525">
        <ele>35.7</ele>
        <time>2021-10-16T07:20:56Z</time>
      </trkpt>
      <trkpt lat="49.40712" lon="1.07524">
        <ele>35.8</ele>
        <time>2021-10-16T07:20:58Z</time>
      </trkpt>
      <trkpt lat="49.40708" lon="1.07523">
        <ele>35.9</ele>
        <time>2021-10-16T07:20:59Z</time>
      </trkpt>
      <trkpt lat="49.40707" lon="1.07523">
        <ele>35.9</ele>
        <time>2021-10-16T07:21:00Z</time>
      </trkpt>
      <trkpt lat="49.40703" lon="1.07522">
        <ele>36</ele>
        <time>2021-10-16T07:21:01Z</time>
      </trkpt>
      <trkpt lat="49.40702" lon="1.07522">
        <ele>36</ele>
        <time>2021-10-16T07:21:02Z</time>
      </trkpt>
      <trkpt lat="49.40698" lon="1.07522">
        <ele>36.1</ele>
        <time>2021-10-16T07:21:04Z</time>
      </trkpt>
      <trkpt lat="49.40695" lon="1.07522">
        <ele>36.2</ele>
        <time>2021-10-16T07:21:05Z</time>
      </trkpt>
      <trkpt lat="49.40691" lon="1.07522">
        <ele>36.3</ele>
        <time>2021-10-16T07:21:06Z</time>
      </trkpt>
      <trkpt lat="49.40689" lon="1.07521">
        <ele>36.4</ele>
        <time>2021-10-16T07:21:07Z</time>
      </trkpt>
      <trkpt lat="49.40686" lon="1.07521">
        <ele>36.4</ele>
        <time>2021-10-16T07:21:08Z</time>
      </trkpt>
      <trkpt lat="49.40682" lon="1.07521">
        <ele>36.5</ele>
        <time>2021-10-16T07:21:10Z</time>
      </trkpt>
      <trkpt lat="49.40678" lon="1.07521">
        <ele>36.6</ele>
        <time>2021-10-16T07:21:11Z</time>
      </trkpt>
      <trkpt lat="49.40675" lon="1.0752">
        <ele>36.7</ele>
        <time>2021-10-16T07:21:12Z</time>
      </trkpt>
      <trkpt lat="49.40672" lon="1.0752">
        <ele>36.8</ele>
        <time>2021-10-16T07:21:13Z</time>
      </trkpt>
      <trkpt lat="49.40669" lon="1.0752">
        <ele>36.8</ele>
        <time>2021-10-16T07:21:14Z</time>
      </trkpt>
      <trkpt lat="49.40665" lon="1.07519">
        <ele>36.9</ele>
        <time>2021-10-16T07:21:15Z</time>
      </trkpt>
      <trkpt lat="49.40661" lon="1.07517">
        <ele>37</ele>
        <time>2021-10-16T07:21:17Z</time>
      </trkpt>
      <trkpt lat="49.40657" lon="1.07517">
        <ele>37.1</ele>
        <time>2021-10-16T07:21:19Z</time>
      </trkpt>
      <trkpt lat="49.40656" lon="1.07517">
        <ele>37.1</ele>
        <time>2021-10-16T07:21:20Z</time>
      </trkpt>
      <trkpt lat="49.40653" lon="1.07517">
        <ele>37.2</ele>
        <time>2021-10-16T07:21:21Z</time>
      </trkpt>
      <trkpt lat="49.40652" lon="1.07516">
        <ele>37.2</ele>
        <time>2021-10-16T07:21:22Z</time>
      </trkpt>
      <trkpt lat="49.40649" lon="1.07516">
        <ele>37.3</ele>
        <time>2021-10-16T07:21:24Z</time>
      </trkpt>
      <trkpt lat="49.40645" lon="1.07515">
        <ele>37.3</ele>
        <time>2021-10-16T07:21:25Z</time>
      </trkpt>
      <trkpt lat="49.40642" lon="1.07515">
        <ele>37.4</ele>
        <time>2021-10-16T07:21:26Z</time>
      </trkpt>
      <trkpt lat="49.40639" lon="1.07515">
        <ele>37.5</ele>
        <time>2021-10-16T07:21:27Z</time>
      </trkpt>
      <trkpt lat="49.40635" lon="1.07515">
        <ele>37.6</ele>
        <time>2021-10-16T07:21:29Z</time>
      </trkpt>
      <trkpt lat="49.40632" lon="1.07515">
        <ele>37.6</ele>
        <time>2021-10-16T07:21:30Z</time>
      </trkpt>
      <trkpt lat="49.40627" lon="1.07515">
        <ele>37.7</ele>
        <time>2021-10-16T07:21:31Z</time>
      </trkpt>
      <trkpt lat="49.40623" lon="1.07515">
        <ele>37.8</ele>
        <time>2021-10-16T07:21:32Z</time>
      </trkpt>
      <trkpt lat="49.40619" lon="1.07515">
        <ele>37.9</ele>
        <time>2021-10-16T07:21:33Z</time>
      </trkpt>
      <trkpt lat="49.40615" lon="1.07515">
        <ele>38</ele>
        <time>2021-10-16T07:21:34Z</time>
      </trkpt>
      <trkpt lat="49.40611" lon="1.07514">
        <ele>38.2</ele>
        <time>2021-10-16T07:21:36Z</time>
      </trkpt>
      <trkpt lat="49.40607" lon="1.07514">
        <ele>38.3</ele>
        <time>2021-10-16T07:21:37Z</time>
      </trkpt>
      <trkpt lat="49.40603" lon="1.07514">
        <ele>38.4</ele>
        <time>2021-10-16T07:21:38Z</time>
      </trkpt>
      <trkpt lat="49.406" lon="1.07513">
        <ele>38.4</ele>
        <time>2021-10-16T07:21:39Z</time>
      </trkpt>
      <trkpt lat="49.40597" lon="1.07513">
        <ele>38.5</ele>
        <time>2021-10-16T07:21:40Z</time>
      </trkpt>
      <trkpt lat="49.40592" lon="1.07512">
        <ele>38.7</ele>
        <time>2021-10-16T07:21:42Z</time>
      </trkpt>
      <trkpt lat="49.40589" lon="1.07512">
        <ele>38.8</ele>
        <time>2021-10-16T07:21:43Z</time>
      </trkpt>
      <trkpt lat="49.40586" lon="1.07511">
        <ele>38.9</ele>
        <time>2021-10-16T07:21:44Z</time>
      </trkpt>
      <trkpt lat="49.40582" lon="1.07511">
        <ele>39</ele>
        <time>2021-10-16T07:21:45Z</time>
      </trkpt>
      <trkpt lat="49.40578" lon="1.0751">
        <ele>39.1</ele>
        <time>2021-10-16T07:21:46Z</time>
      </trkpt>
      <trkpt lat="49.40574" lon="1.07509">
        <ele>39.2</ele>
        <time>2021-10-16T07:21:48Z</time>
      </trkpt>
      <trkpt lat="49.40571" lon="1.07509">
        <ele>39.2</ele>
        <time>2021-10-16T07:21:49Z</time>
      </trkpt>
      <trkpt lat="49.40568" lon="1.07508">
        <ele>39.3</ele>
        <time>2021-10-16T07:21:50Z</time>
      </trkpt>
      <trkpt lat="49.40565" lon="1.07508">
        <ele>39.4</ele>
        <time>2021-10-16T07:21:51Z</time>
      </trkpt>
      <trkpt lat="49.40562" lon="1.07508">
        <ele>39.4</ele>
        <time>2021-10-16T07:21:52Z</time>
      </trkpt>
      <trkpt lat="49.40557" lon="1.07507">
        <ele>39.5</ele>
        <time>2021-10-16T07:21:54Z</time>
      </trkpt>
      <trkpt lat="49.40554" lon="1.07506">
        <ele>39.6</ele>
        <time>2021-10-16T07:21:55Z</time>
      </trkpt>
      <trkpt lat="49.40551" lon="1.07506">
        <ele>39.7</ele>
        <time>2021-10-16T07:21:56Z</time>
      </trkpt>
      <trkpt lat="49.40547" lon="1.07505">
        <ele>39.7</ele>
        <time>2021-10-16T07:21:57Z</time>
      </trkpt>
      <trkpt lat="49.40545" lon="1.07504">
        <ele>39.8</ele>
        <time>2021-10-16T07:21:58Z</time>
      </trkpt>
      <trkpt lat="49.4054" lon="1.07504">
        <ele>39.9</ele>
        <time>2021-10-16T07:22:00Z</time>
      </trkpt>
      <trkpt lat="49.40537" lon="1.07503">
        <ele>40</ele>
        <time>2021-10-16T07:22:01Z</time>
      </trkpt>
      <trkpt lat="49.40534" lon="1.07503">
        <ele>40.1</ele>
        <time>2021-10-16T07:22:02Z</time>
      </trkpt>
      <trkpt lat="49.40531" lon="1.07502">
        <ele>40.1</ele>
        <time>2021-10-16T07:22:03Z</time>
      </trkpt>
      <trkpt lat="49.40527" lon="1.075">
        <ele>40.2</ele>
        <time>2021-10-16T07:22:05Z</time>
      </trkpt>
      <trkpt lat="49.40524" lon="1.075">
        <ele>40.3</ele>
        <time>2021-10-16T07:22:06Z</time>
      </trkpt>
      <trkpt lat="49.40521" lon="1.075">
        <ele>40.4</ele>
        <time>2021-10-16T07:22:07Z</time>
      </trkpt>
      <trkpt lat="49.40518" lon="1.075">
        <ele>40.4</ele>
        <time>2021-10-16T07:22:08Z</time>
      </trkpt>
      <trkpt lat="49.40514" lon="1.07501">
        <ele>40.5</ele>
        <time>2021-10-16T07:22:10Z</time>
      </trkpt>
      <trkpt lat="49.40511" lon="1.07501">
        <ele>40.6</ele>
        <time>2021-10-16T07:22:11Z</time>
      </trkpt>
      <trkpt lat="49.40507" lon="1.07501">
        <ele>40.7</ele>
        <time>2021-10-16T07:22:12Z</time>
      </trkpt>
      <trkpt lat="49.40504" lon="1.07501">
        <ele>40.7</ele>
        <time>2021-10-16T07:22:13Z</time>
      </trkpt>
      <trkpt lat="49.40499" lon="1.07501">
        <ele>40.8</ele>
        <time>2021-10-16T07:22:15Z</time>
      </trkpt>
      <trkpt lat="49.40496" lon="1.075">
        <ele>40.9</ele>
        <time>2021-10-16T07:22:16Z</time>
      </trkpt>
      <trkpt lat="49.40494" lon="1.07496">
        <ele>41</ele>
        <time>2021-10-16T07:22:17Z</time>
      </trkpt>
      <trkpt lat="49.40491" lon="1.07493">
        <ele>41</ele>
        <time>2021-10-16T07:22:19Z</time>
      </trkpt>
      <trkpt lat="49.40488" lon="1.07491">
        <ele>41.1</ele>
        <time>2021-10-16T07:22:20Z</time>
      </trkpt>
      <trkpt lat="49.40487" lon="1.0749">
        <ele>41.1</ele>
        <time>2021-10-16T07:22:21Z</time>
      </trkpt>
      <trkpt lat="49.40484" lon="1.07486">
        <ele>41.2</ele>
        <time>2021-10-16T07:22:22Z</time>
      </trkpt>
      <trkpt lat="49.40483" lon="1.07485">
        <ele>41.3</ele>
        <time>2021-10-16T07:22:23Z</time>
      </trkpt>
      <trkpt lat="49.40481" lon="1.0748">
        <ele>41.3</ele>
        <time>2021-10-16T07:22:24Z</time>
      </trkpt>
      <trkpt lat="49.4048" lon="1.07479">
        <ele>41.4</ele>
        <time>2021-10-16T07:22:25Z</time>
      </trkpt>
      <trkpt lat="49.40475" lon="1.07473">
        <ele>41.5</ele>
        <time>2021-10-16T07:22:27Z</time>
      </trkpt>
      <trkpt lat="49.40472" lon="1.07469">
        <ele>41.5</ele>
        <time>2021-10-16T07:22:28Z</time>
      </trkpt>
      <trkpt lat="49.40469" lon="1.07465">
        <ele>41.6</ele>
        <time>2021-10-16T07:22:29Z</time>
      </trkpt>
      <trkpt lat="49.40467" lon="1.07461">
        <ele>41.6</ele>
        <time>2021-10-16T07:22:30Z</time>
      </trkpt>
      <trkpt lat="49.40464" lon="1.07457">
        <ele>41.7</ele>
        <time>2021-10-16T07:22:31Z</time>
      </trkpt>
      <trkpt lat="49.40461" lon="1.07452">
        <ele>41.7</ele>
        <time>2021-10-16T07:22:33Z</time>
      </trkpt>
      <trkpt lat="49.40459" lon="1.07448">
        <ele>41.8</ele>
        <time>2021-10-16T07:22:34Z</time>
      </trkpt>
      <trkpt lat="49.40457" lon="1.07443">
        <ele>41.8</ele>
        <time>2021-10-16T07:22:35Z</time>
      </trkpt>
      <trkpt lat="49.40455" lon="1.07437">
        <ele>41.8</ele>
        <time>2021-10-16T07:22:37Z</time>
      </trkpt>
      <trkpt lat="49.40454" lon="1.07432">
        <ele>41.8</ele>
        <time>2021-10-16T07:22:38Z</time>
      </trkpt>
      <trkpt lat="49.40453" lon="1.07427">
        <ele>41.8</ele>
        <time>2021-10-16T07:22:39Z</time>
      </trkpt>
      <trkpt lat="49.40452" lon="1.07422">
        <ele>41.8</ele>
        <time>2021-10-16T07:22:40Z</time>
      </trkpt>
      <trkpt lat="49.40451" lon="1.07418">
        <ele>41.8</ele>
        <time>2021-10-16T07:22:41Z</time>
      </trkpt>
      <trkpt lat="49.40451" lon="1.07413">
        <ele>41.8</ele>
        <time>2021-10-16T07:22:42Z</time>
      </trkpt>
      <trkpt lat="49.4045" lon="1.07406">
        <ele>41.9</ele>
        <time>2021-10-16T07:22:44Z</time>
      </trkpt>
      <trkpt lat="49.4045" lon="1.07401">
        <ele>41.9</ele>
        <time>2021-10-16T07:22:45Z</time>
      </trkpt>
      <trkpt lat="49.40449" lon="1.07397">
        <ele>41.9</ele>
        <time>2021-10-16T07:22:46Z</time>
      </trkpt>
      <trkpt lat="49.40448" lon="1.07392">
        <ele>41.9</ele>
        <time>2021-10-16T07:22:47Z</time>
      </trkpt>
      <trkpt lat="49.40448" lon="1.07386">
        <ele>41.8</ele>
        <time>2021-10-16T07:22:48Z</time>
      </trkpt>
      <trkpt lat="49.40448" lon="1.07382">
        <ele>41.8</ele>
        <time>2021-10-16T07:22:49Z</time>
      </trkpt>
      <trkpt lat="49.40449" lon="1.07378">
        <ele>41.8</ele>
        <time>2021-10-16T07:22:51Z</time>
      </trkpt>
      <trkpt lat="49.40449" lon="1.07372">
        <ele>41.8</ele>
        <time>2021-10-16T07:22:52Z</time>
      </trkpt>
      <trkpt lat="49.40449" lon="1.0737">
        <ele>41.8</ele>
        <time>2021-10-16T07:22:53Z</time>
      </trkpt>
      <trkpt lat="49.4045" lon="1.07366">
        <ele>41.8</ele>
        <time>2021-10-16T07:22:54Z</time>
      </trkpt>
      <trkpt lat="49.40451" lon="1.07358">
        <ele>41.8</ele>
        <time>2021-10-16T07:22:56Z</time>
      </trkpt>
      <trkpt lat="49.40452" lon="1.07353">
        <ele>41.8</ele>
        <time>2021-10-16T07:22:57Z</time>
      </trkpt>
      <trkpt lat="49.40453" lon="1.07347">
        <ele>41.7</ele>
        <time>2021-10-16T07:22:58Z</time>
      </trkpt>
      <trkpt lat="49.40454" lon="1.0734">
        <ele>41.7</ele>
        <time>2021-10-16T07:22:59Z</time>
      </trkpt>
      <trkpt lat="49.40456" lon="1.07335">
        <ele>41.7</ele>
        <time>2021-10-16T07:23:00Z</time>
      </trkpt>
      <trkpt lat="49.40458" lon="1.07327">
        <ele>41.7</ele>
        <time>2021-10-16T07:23:02Z</time>
      </trkpt>
      <trkpt lat="49.40459" lon="1.07321">
        <ele>41.6</ele>
        <time>2021-10-16T07:23:03Z</time>
      </trkpt>
      <trkpt lat="49.40461" lon="1.07316">
        <ele>41.6</ele>
        <time>2021-10-16T07:23:04Z</time>
      </trkpt>
      <trkpt lat="49.40462" lon="1.07312">
        <ele>41.6</ele>
        <time>2021-10-16T07:23:05Z</time>
      </trkpt>
      <trkpt lat="49.40464" lon="1.07307">
        <ele>41.5</ele>
        <time>2021-10-16T07:23:06Z</time>
      </trkpt>
      <trkpt lat="49.40465" lon="1.07303">
        <ele>41.5</ele>
        <time>2021-10-16T07:23:07Z</time>
      </trkpt>
      <trkpt lat="49.40467" lon="1.07296">
        <ele>41.5</ele>
        <time>2021-10-16T07:23:09Z</time>
      </trkpt>
      <trkpt lat="49.40468" lon="1.07292">
        <ele>41.5</ele>
        <time>2021-10-16T07:23:10Z</time>
      </trkpt>
      <trkpt lat="49.40469" lon="1.07287">
        <ele>41.4</ele>
        <time>2021-10-16T07:23:11Z</time>
      </trkpt>
      <trkpt lat="49.4047" lon="1.07282">
        <ele>41.4</ele>
        <time>2021-10-16T07:23:12Z</time>
      </trkpt>
      <trkpt lat="49.40472" lon="1.07278">
        <ele>41.4</ele>
        <time>2021-10-16T07:23:13Z</time>
      </trkpt>
      <trkpt lat="49.40474" lon="1.07271">
        <ele>41.3</ele>
        <time>2021-10-16T07:23:15Z</time>
      </trkpt>
      <trkpt lat="49.40476" lon="1.07265">
        <ele>41.3</ele>
        <time>2021-10-16T07:23:16Z</time>
      </trkpt>
      <trkpt lat="49.40478" lon="1.07259">
        <ele>41.2</ele>
        <time>2021-10-16T07:23:18Z</time>
      </trkpt>
      <trkpt lat="49.40479" lon="1.07256">
        <ele>41.2</ele>
        <time>2021-10-16T07:23:19Z</time>
      </trkpt>
      <trkpt lat="49.40481" lon="1.0725">
        <ele>41.2</ele>
        <time>2021-10-16T07:23:21Z</time>
      </trkpt>
      <trkpt lat="49.40483" lon="1.07247">
        <ele>41.1</ele>
        <time>2021-10-16T07:23:22Z</time>
      </trkpt>
      <trkpt lat="49.40484" lon="1.07242">
        <ele>41.1</ele>
        <time>2021-10-16T07:23:24Z</time>
      </trkpt>
      <trkpt lat="49.40486" lon="1.07237">
        <ele>41</ele>
        <time>2021-10-16T07:23:25Z</time>
      </trkpt>
      <trkpt lat="49.40487" lon="1.07236">
        <ele>41</ele>
        <time>2021-10-16T07:23:26Z</time>
      </trkpt>
      <trkpt lat="49.40486" lon="1.07232">
        <ele>41</ele>
        <time>2021-10-16T07:23:28Z</time>
      </trkpt>
      <trkpt lat="49.40489" lon="1.07227">
        <ele>41</ele>
        <time>2021-10-16T07:23:29Z</time>
      </trkpt>
      <trkpt lat="49.40488" lon="1.07222">
        <ele>40.9</ele>
        <time>2021-10-16T07:23:30Z</time>
      </trkpt>
      <trkpt lat="49.4049" lon="1.07216">
        <ele>40.9</ele>
        <time>2021-10-16T07:23:32Z</time>
      </trkpt>
      <trkpt lat="49.40492" lon="1.07211">
        <ele>40.8</ele>
        <time>2021-10-16T07:23:33Z</time>
      </trkpt>
      <trkpt lat="49.40494" lon="1.07205">
        <ele>40.8</ele>
        <time>2021-10-16T07:23:34Z</time>
      </trkpt>
      <trkpt lat="49.40495" lon="1.07201">
        <ele>40.7</ele>
        <time>2021-10-16T07:23:35Z</time>
      </trkpt>
      <trkpt lat="49.40498" lon="1.07195">
        <ele>40.7</ele>
        <time>2021-10-16T07:23:37Z</time>
      </trkpt>
      <trkpt lat="49.40499" lon="1.07189">
        <ele>40.6</ele>
        <time>2021-10-16T07:23:38Z</time>
      </trkpt>
      <trkpt lat="49.40501" lon="1.07184">
        <ele>40.5</ele>
        <time>2021-10-16T07:23:39Z</time>
      </trkpt>
      <trkpt lat="49.40502" lon="1.07179">
        <ele>40.5</ele>
        <time>2021-10-16T07:23:40Z</time>
      </trkpt>
      <trkpt lat="49.40504" lon="1.07173">
        <ele>40.4</ele>
        <time>2021-10-16T07:23:41Z</time>
      </trkpt>
      <trkpt lat="49.40505" lon="1.07166">
        <ele>40.3</ele>
        <time>2021-10-16T07:23:42Z</time>
      </trkpt>
      <trkpt lat="49.40508" lon="1.07159">
        <ele>40.2</ele>
        <time>2021-10-16T07:23:43Z</time>
      </trkpt>
      <trkpt lat="49.4051" lon="1.07153">
        <ele>40.1</ele>
        <time>2021-10-16T07:23:44Z</time>
      </trkpt>
      <trkpt lat="49.40511" lon="1.07147">
        <ele>40</ele>
        <time>2021-10-16T07:23:45Z</time>
      </trkpt>
      <trkpt lat="49.40513" lon="1.07142">
        <ele>40</ele>
        <time>2021-10-16T07:23:46Z</time>
      </trkpt>
      <trkpt lat="49.40515" lon="1.07137">
        <ele>39.9</ele>
        <time>2021-10-16T07:23:47Z</time>
      </trkpt>
      <trkpt lat="49.40517" lon="1.0713">
        <ele>39.8</ele>
        <time>2021-10-16T07:23:49Z</time>
      </trkpt>
      <trkpt lat="49.40519" lon="1.07123">
        <ele>39.6</ele>
        <time>2021-10-16T07:23:51Z</time>
      </trkpt>
      <trkpt lat="49.4052" lon="1.07121">
        <ele>39.6</ele>
        <time>2021-10-16T07:23:52Z</time>
      </trkpt>
      <trkpt lat="49.40521" lon="1.0712">
        <ele>39.6</ele>
        <time>2021-10-16T07:23:53Z</time>
      </trkpt>
      <trkpt lat="49.40522" lon="1.07115">
        <ele>39.5</ele>
        <time>2021-10-16T07:23:54Z</time>
      </trkpt>
      <trkpt lat="49.40523" lon="1.07111">
        <ele>39.4</ele>
        <time>2021-10-16T07:23:56Z</time>
      </trkpt>
      <trkpt lat="49.40525" lon="1.07107">
        <ele>39.4</ele>
        <time>2021-10-16T07:23:57Z</time>
      </trkpt>
      <trkpt lat="49.40525" lon="1.07102">
        <ele>39.3</ele>
        <time>2021-10-16T07:23:58Z</time>
      </trkpt>
      <trkpt lat="49.40527" lon="1.07098">
        <ele>39.2</ele>
        <time>2021-10-16T07:23:59Z</time>
      </trkpt>
      <trkpt lat="49.40528" lon="1.07093">
        <ele>39.2</ele>
        <time>2021-10-16T07:24:00Z</time>
      </trkpt>
      <trkpt lat="49.40529" lon="1.07088">
        <ele>39.1</ele>
        <time>2021-10-16T07:24:01Z</time>
      </trkpt>
      <trkpt lat="49.40531" lon="1.07081">
        <ele>39</ele>
        <time>2021-10-16T07:24:02Z</time>
      </trkpt>
      <trkpt lat="49.40534" lon="1.07073">
        <ele>38.8</ele>
        <time>2021-10-16T07:24:04Z</time>
      </trkpt>
      <trkpt lat="49.40536" lon="1.07066">
        <ele>38.7</ele>
        <time>2021-10-16T07:24:05Z</time>
      </trkpt>
      <trkpt lat="49.40537" lon="1.0706">
        <ele>38.7</ele>
        <time>2021-10-16T07:24:06Z</time>
      </trkpt>
      <trkpt lat="49.40539" lon="1.07054">
        <ele>38.6</ele>
        <time>2021-10-16T07:24:07Z</time>
      </trkpt>
      <trkpt lat="49.4054" lon="1.07049">
        <ele>38.5</ele>
        <time>2021-10-16T07:24:08Z</time>
      </trkpt>
      <trkpt lat="49.40542" lon="1.07044">
        <ele>38.4</ele>
        <time>2021-10-16T07:24:09Z</time>
      </trkpt>
      <trkpt lat="49.40543" lon="1.0704">
        <ele>38.3</ele>
        <time>2021-10-16T07:24:10Z</time>
      </trkpt>
      <trkpt lat="49.40544" lon="1.07036">
        <ele>38.3</ele>
        <time>2021-10-16T07:24:11Z</time>
      </trkpt>
      <trkpt lat="49.40545" lon="1.07032">
        <ele>38.2</ele>
        <time>2021-10-16T07:24:13Z</time>
      </trkpt>
      <trkpt lat="49.40547" lon="1.07027">
        <ele>38.1</ele>
        <time>2021-10-16T07:24:14Z</time>
      </trkpt>
      <trkpt lat="49.40547" lon="1.07025">
        <ele>38.1</ele>
        <time>2021-10-16T07:24:15Z</time>
      </trkpt>
      <trkpt lat="49.40549" lon="1.0702">
        <ele>38</ele>
        <time>2021-10-16T07:24:16Z</time>
      </trkpt>
      <trkpt lat="49.4055" lon="1.07018">
        <ele>38</ele>
        <time>2021-10-16T07:24:17Z</time>
      </trkpt>
      <trkpt lat="49.40551" lon="1.07014">
        <ele>37.9</ele>
        <time>2021-10-16T07:24:19Z</time>
      </trkpt>
      <trkpt lat="49.40553" lon="1.07011">
        <ele>37.9</ele>
        <time>2021-10-16T07:24:20Z</time>
      </trkpt>
      <trkpt lat="49.40556" lon="1.07007">
        <ele>37.8</ele>
        <time>2021-10-16T07:24:21Z</time>
      </trkpt>
      <trkpt lat="49.40558" lon="1.07002">
        <ele>37.7</ele>
        <time>2021-10-16T07:24:22Z</time>
      </trkpt>
      <trkpt lat="49.40559" lon="1.06997">
        <ele>37.6</ele>
        <time>2021-10-16T07:24:23Z</time>
      </trkpt>
      <trkpt lat="49.40561" lon="1.06993">
        <ele>37.5</ele>
        <time>2021-10-16T07:24:24Z</time>
      </trkpt>
      <trkpt lat="49.40563" lon="1.06988">
        <ele>37.5</ele>
        <time>2021-10-16T07:24:25Z</time>
      </trkpt>
      <trkpt lat="49.40566" lon="1.06982">
        <ele>37.4</ele>
        <time>2021-10-16T07:24:27Z</time>
      </trkpt>
      <trkpt lat="49.4057" lon="1.06978">
        <ele>37.3</ele>
        <time>2021-10-16T07:24:28Z</time>
      </trkpt>
      <trkpt lat="49.40574" lon="1.06974">
        <ele>37.2</ele>
        <time>2021-10-16T07:24:29Z</time>
      </trkpt>
      <trkpt lat="49.40577" lon="1.06969">
        <ele>37.1</ele>
        <time>2021-10-16T07:24:30Z</time>
      </trkpt>
      <trkpt lat="49.4058" lon="1.06966">
        <ele>37</ele>
        <time>2021-10-16T07:24:31Z</time>
      </trkpt>
      <trkpt lat="49.40584" lon="1.06963">
        <ele>36.9</ele>
        <time>2021-10-16T07:24:32Z</time>
      </trkpt>
      <trkpt lat="49.40588" lon="1.06959">
        <ele>36.8</ele>
        <time>2021-10-16T07:24:34Z</time>
      </trkpt>
      <trkpt lat="49.40592" lon="1.06958">
        <ele>36.7</ele>
        <time>2021-10-16T07:24:35Z</time>
      </trkpt>
      <trkpt lat="49.40597" lon="1.06955">
        <ele>36.6</ele>
        <time>2021-10-16T07:24:36Z</time>
      </trkpt>
      <trkpt lat="49.406" lon="1.06954">
        <ele>36.5</ele>
        <time>2021-10-16T07:24:37Z</time>
      </trkpt>
      <trkpt lat="49.40606" lon="1.06952">
        <ele>36.4</ele>
        <time>2021-10-16T07:24:39Z</time>
      </trkpt>
      <trkpt lat="49.4061" lon="1.06951">
        <ele>36.3</ele>
        <time>2021-10-16T07:24:40Z</time>
      </trkpt>
      <trkpt lat="49.40613" lon="1.0695">
        <ele>36.2</ele>
        <time>2021-10-16T07:24:41Z</time>
      </trkpt>
      <trkpt lat="49.40617" lon="1.0695">
        <ele>36.1</ele>
        <time>2021-10-16T07:24:42Z</time>
      </trkpt>
      <trkpt lat="49.4062" lon="1.06949">
        <ele>36</ele>
        <time>2021-10-16T07:24:43Z</time>
      </trkpt>
      <trkpt lat="49.40624" lon="1.06949">
        <ele>36</ele>
        <time>2021-10-16T07:24:44Z</time>
      </trkpt>
      <trkpt lat="49.40629" lon="1.06949">
        <ele>35.9</ele>
        <time>2021-10-16T07:24:46Z</time>
      </trkpt>
      <trkpt lat="49.40632" lon="1.06949">
        <ele>35.8</ele>
        <time>2021-10-16T07:24:47Z</time>
      </trkpt>
      <trkpt lat="49.40636" lon="1.06949">
        <ele>35.7</ele>
        <time>2021-10-16T07:24:48Z</time>
      </trkpt>
      <trkpt lat="49.40639" lon="1.06949">
        <ele>35.7</ele>
        <time>2021-10-16T07:24:49Z</time>
      </trkpt>
      <trkpt lat="49.40644" lon="1.0695">
        <ele>35.6</ele>
        <time>2021-10-16T07:24:51Z</time>
      </trkpt>
      <trkpt lat="49.40648" lon="1.06951">
        <ele>35.5</ele>
        <time>2021-10-16T07:24:52Z</time>
      </trkpt>
      <trkpt lat="49.40651" lon="1.06952">
        <ele>35.5</ele>
        <time>2021-10-16T07:24:53Z</time>
      </trkpt>
      <trkpt lat="49.40656" lon="1.06955">
        <ele>35.4</ele>
        <time>2021-10-16T07:24:55Z</time>
      </trkpt>
      <trkpt lat="49.40659" lon="1.06957">
        <ele>35.4</ele>
        <time>2021-10-16T07:24:56Z</time>
      </trkpt>
      <trkpt lat="49.40662" lon="1.06959">
        <ele>35.3</ele>
        <time>2021-10-16T07:24:57Z</time>
      </trkpt>
      <trkpt lat="49.40665" lon="1.06962">
        <ele>35.3</ele>
        <time>2021-10-16T07:24:58Z</time>
      </trkpt>
      <trkpt lat="49.40667" lon="1.06964">
        <ele>35.3</ele>
        <time>2021-10-16T07:24:59Z</time>
      </trkpt>
      <trkpt lat="49.4067" lon="1.06967">
        <ele>35.2</ele>
        <time>2021-10-16T07:25:01Z</time>
      </trkpt>
      <trkpt lat="49.40674" lon="1.06969">
        <ele>35.2</ele>
        <time>2021-10-16T07:25:02Z</time>
      </trkpt>
      <trkpt lat="49.40676" lon="1.06971">
        <ele>35.1</ele>
        <time>2021-10-16T07:25:03Z</time>
      </trkpt>
      <trkpt lat="49.40677" lon="1.06972">
        <ele>35.1</ele>
        <time>2021-10-16T07:25:04Z</time>
      </trkpt>
      <trkpt lat="49.4068" lon="1.06974">
        <ele>35.1</ele>
        <time>2021-10-16T07:25:06Z</time>
      </trkpt>
      <trkpt lat="49.40682" lon="1.06975">
        <ele>35.1</ele>
        <time>2021-10-16T07:25:07Z</time>
      </trkpt>
      <trkpt lat="49.40685" lon="1.06978">
        <ele>35.1</ele>
        <time>2021-10-16T07:25:09Z</time>
      </trkpt>
      <trkpt lat="49.40689" lon="1.0698">
        <ele>35</ele>
        <time>2021-10-16T07:25:10Z</time>
      </trkpt>
      <trkpt lat="49.40692" lon="1.06983">
        <ele>35</ele>
        <time>2021-10-16T07:25:11Z</time>
      </trkpt>
      <trkpt lat="49.40697" lon="1.06988">
        <ele>34.9</ele>
        <time>2021-10-16T07:25:12Z</time>
      </trkpt>
      <trkpt lat="49.407" lon="1.06992">
        <ele>34.8</ele>
        <time>2021-10-16T07:25:13Z</time>
      </trkpt>
      <trkpt lat="49.40706" lon="1.06995">
        <ele>34.8</ele>
        <time>2021-10-16T07:25:15Z</time>
      </trkpt>
      <trkpt lat="49.40709" lon="1.06998">
        <ele>34.7</ele>
        <time>2021-10-16T07:25:16Z</time>
      </trkpt>
      <trkpt lat="49.40713" lon="1.07001">
        <ele>34.7</ele>
        <time>2021-10-16T07:25:17Z</time>
      </trkpt>
      <trkpt lat="49.40716" lon="1.07003">
        <ele>34.7</ele>
        <time>2021-10-16T07:25:18Z</time>
      </trkpt>
      <trkpt lat="49.40719" lon="1.07006">
        <ele>34.6</ele>
        <time>2021-10-16T07:25:19Z</time>
      </trkpt>
      <trkpt lat="49.40722" lon="1.07008">
        <ele>34.6</ele>
        <time>2021-10-16T07:25:20Z</time>
      </trkpt>
      <trkpt lat="49.40726" lon="1.07011">
        <ele>34.5</ele>
        <time>2021-10-16T07:25:22Z</time>
      </trkpt>
      <trkpt lat="49.40729" lon="1.07014">
        <ele>34.5</ele>
        <time>2021-10-16T07:25:23Z</time>
      </trkpt>
      <trkpt lat="49.40732" lon="1.07017">
        <ele>34.5</ele>
        <time>2021-10-16T07:25:24Z</time>
      </trkpt>
      <trkpt lat="49.40735" lon="1.07019">
        <ele>34.4</ele>
        <time>2021-10-16T07:25:25Z</time>
      </trkpt>
      <trkpt lat="49.40738" lon="1.07021">
        <ele>34.4</ele>
        <time>2021-10-16T07:25:26Z</time>
      </trkpt>
      <trkpt lat="49.4074" lon="1.07022">
        <ele>34.4</ele>
        <time>2021-10-16T07:25:27Z</time>
      </trkpt>
      <trkpt lat="49.40742" lon="1.07023">
        <ele>34.4</ele>
        <time>2021-10-16T07:25:28Z</time>
      </trkpt>
      <trkpt lat="49.40744" lon="1.07025">
        <ele>34.4</ele>
        <time>2021-10-16T07:25:30Z</time>
      </trkpt>
      <trkpt lat="49.40747" lon="1.07026">
        <ele>34.3</ele>
        <time>2021-10-16T07:25:31Z</time>
      </trkpt>
      <trkpt lat="49.40751" lon="1.07028">
        <ele>34.3</ele>
        <time>2021-10-16T07:25:32Z</time>
      </trkpt>
      <trkpt lat="49.40752" lon="1.07029">
        <ele>34.3</ele>
        <time>2021-10-16T07:25:33Z</time>
      </trkpt>
      <trkpt lat="49.40756" lon="1.07033">
        <ele>34.2</ele>
        <time>2021-10-16T07:25:35Z</time>
      </trkpt>
      <trkpt lat="49.40759" lon="1.07034">
        <ele>34.2</ele>
        <time>2021-10-16T07:25:36Z</time>
      </trkpt>
      <trkpt lat="49.40764" lon="1.07038">
        <ele>34.2</ele>
        <time>2021-10-16T07:25:38Z</time>
      </trkpt>
      <trkpt lat="49.40768" lon="1.07041">
        <ele>34.1</ele>
        <time>2021-10-16T07:25:39Z</time>
      </trkpt>
      <trkpt lat="49.40772" lon="1.07043">
        <ele>34.1</ele>
        <time>2021-10-16T07:25:40Z</time>
      </trkpt>
      <trkpt lat="49.40777" lon="1.07047">
        <ele>34.1</ele>
        <time>2021-10-16T07:25:41Z</time>
      </trkpt>
      <trkpt lat="49.4078" lon="1.0705">
        <ele>34.1</ele>
        <time>2021-10-16T07:25:42Z</time>
      </trkpt>
      <trkpt lat="49.40785" lon="1.07054">
        <ele>34</ele>
        <time>2021-10-16T07:25:44Z</time>
      </trkpt>
      <trkpt lat="49.40788" lon="1.07056">
        <ele>34</ele>
        <time>2021-10-16T07:25:45Z</time>
      </trkpt>
      <trkpt lat="49.40791" lon="1.07058">
        <ele>34</ele>
        <time>2021-10-16T07:25:46Z</time>
      </trkpt>
      <trkpt lat="49.40793" lon="1.07059">
        <ele>34</ele>
        <time>2021-10-16T07:25:47Z</time>
      </trkpt>
      <trkpt lat="49.40797" lon="1.07063">
        <ele>34</ele>
        <time>2021-10-16T07:25:49Z</time>
      </trkpt>
      <trkpt lat="49.40801" lon="1.07065">
        <ele>34</ele>
        <time>2021-10-16T07:25:50Z</time>
      </trkpt>
      <trkpt lat="49.40804" lon="1.07069">
        <ele>34</ele>
        <time>2021-10-16T07:25:51Z</time>
      </trkpt>
      <trkpt lat="49.40808" lon="1.07072">
        <ele>34</ele>
        <time>2021-10-16T07:25:53Z</time>
      </trkpt>
      <trkpt lat="49.4081" lon="1.07073">
        <ele>34</ele>
        <time>2021-10-16T07:25:54Z</time>
      </trkpt>
      <trkpt lat="49.40811" lon="1.07074">
        <ele>34</ele>
        <time>2021-10-16T07:25:55Z</time>
      </trkpt>
      <trkpt lat="49.40815" lon="1.07078">
        <ele>33.9</ele>
        <time>2021-10-16T07:25:56Z</time>
      </trkpt>
      <trkpt lat="49.40816" lon="1.07079">
        <ele>33.9</ele>
        <time>2021-10-16T07:25:57Z</time>
      </trkpt>
      <trkpt lat="49.40819" lon="1.07081">
        <ele>33.9</ele>
        <time>2021-10-16T07:25:59Z</time>
      </trkpt>
      <trkpt lat="49.40822" lon="1.07084">
        <ele>33.9</ele>
        <time>2021-10-16T07:26:00Z</time>
      </trkpt>
      <trkpt lat="49.40825" lon="1.07087">
        <ele>33.9</ele>
        <time>2021-10-16T07:26:01Z</time>
      </trkpt>
      <trkpt lat="49.4083" lon="1.07091">
        <ele>33.8</ele>
        <time>2021-10-16T07:26:02Z</time>
      </trkpt>
      <trkpt lat="49.40835" lon="1.07095">
        <ele>33.8</ele>
        <time>2021-10-16T07:26:04Z</time>
      </trkpt>
      <trkpt lat="49.40839" lon="1.07097">
        <ele>33.8</ele>
        <time>2021-10-16T07:26:05Z</time>
      </trkpt>
      <trkpt lat="49.40842" lon="1.07099">
        <ele>33.8</ele>
        <time>2021-10-16T07:26:06Z</time>
      </trkpt>
      <trkpt lat="49.40846" lon="1.07102">
        <ele>33.8</ele>
        <time>2021-10-16T07:26:07Z</time>
      </trkpt>
      <trkpt lat="49.40848" lon="1.07104">
        <ele>33.8</ele>
        <time>2021-10-16T07:26:08Z</time>
      </trkpt>
      <trkpt lat="49.40853" lon="1.07108">
        <ele>33.7</ele>
        <time>2021-10-16T07:26:10Z</time>
      </trkpt>
      <trkpt lat="49.40856" lon="1.0711">
        <ele>33.7</ele>
        <time>2021-10-16T07:26:11Z</time>
      </trkpt>
      <trkpt lat="49.40858" lon="1.07111">
        <ele>33.7</ele>
        <time>2021-10-16T07:26:13Z</time>
      </trkpt>
      <trkpt lat="49.40862" lon="1.07114">
        <ele>33.7</ele>
        <time>2021-10-16T07:26:14Z</time>
      </trkpt>
      <trkpt lat="49.40866" lon="1.07117">
        <ele>33.7</ele>
        <time>2021-10-16T07:26:16Z</time>
      </trkpt>
      <trkpt lat="49.4087" lon="1.07121">
        <ele>33.7</ele>
        <time>2021-10-16T07:26:17Z</time>
      </trkpt>
      <trkpt lat="49.40872" lon="1.07124">
        <ele>33.7</ele>
        <time>2021-10-16T07:26:18Z</time>
      </trkpt>
      <trkpt lat="49.40875" lon="1.07127">
        <ele>33.7</ele>
        <time>2021-10-16T07:26:19Z</time>
      </trkpt>
      <trkpt lat="49.40876" lon="1.07129">
        <ele>33.7</ele>
        <time>2021-10-16T07:26:20Z</time>
      </trkpt>
      <trkpt lat="49.40878" lon="1.07131">
        <ele>33.6</ele>
        <time>2021-10-16T07:26:21Z</time>
      </trkpt>
      <trkpt lat="49.40881" lon="1.07134">
        <ele>33.6</ele>
        <time>2021-10-16T07:26:23Z</time>
      </trkpt>
      <trkpt lat="49.40883" lon="1.07137">
        <ele>33.6</ele>
        <time>2021-10-16T07:26:24Z</time>
      </trkpt>
      <trkpt lat="49.40885" lon="1.0714">
        <ele>33.6</ele>
        <time>2021-10-16T07:26:25Z</time>
      </trkpt>
      <trkpt lat="49.40888" lon="1.07143">
        <ele>33.6</ele>
        <time>2021-10-16T07:26:26Z</time>
      </trkpt>
      <trkpt lat="49.4089" lon="1.07147">
        <ele>33.6</ele>
        <time>2021-10-16T07:26:27Z</time>
      </trkpt>
      <trkpt lat="49.40894" lon="1.07154">
        <ele>33.6</ele>
        <time>2021-10-16T07:26:29Z</time>
      </trkpt>
      <trkpt lat="49.40896" lon="1.07159">
        <ele>33.5</ele>
        <time>2021-10-16T07:26:30Z</time>
      </trkpt>
      <trkpt lat="49.40899" lon="1.07164">
        <ele>33.5</ele>
        <time>2021-10-16T07:26:31Z</time>
      </trkpt>
      <trkpt lat="49.40903" lon="1.0717">
        <ele>33.5</ele>
        <time>2021-10-16T07:26:33Z</time>
      </trkpt>
      <trkpt lat="49.40905" lon="1.07176">
        <ele>33.5</ele>
        <time>2021-10-16T07:26:34Z</time>
      </trkpt>
      <trkpt lat="49.40907" lon="1.07181">
        <ele>33.5</ele>
        <time>2021-10-16T07:26:35Z</time>
      </trkpt>
      <trkpt lat="49.40909" lon="1.07188">
        <ele>33.5</ele>
        <time>2021-10-16T07:26:37Z</time>
      </trkpt>
      <trkpt lat="49.4091" lon="1.07193">
        <ele>33.5</ele>
        <time>2021-10-16T07:26:38Z</time>
      </trkpt>
      <trkpt lat="49.40911" lon="1.07198">
        <ele>33.5</ele>
        <time>2021-10-16T07:26:39Z</time>
      </trkpt>
      <trkpt lat="49.40912" lon="1.07203">
        <ele>33.5</ele>
        <time>2021-10-16T07:26:40Z</time>
      </trkpt>
      <trkpt lat="49.40913" lon="1.07209">
        <ele>33.5</ele>
        <time>2021-10-16T07:26:41Z</time>
      </trkpt>
      <trkpt lat="49.40914" lon="1.07216">
        <ele>33.5</ele>
        <time>2021-10-16T07:26:43Z</time>
      </trkpt>
      <trkpt lat="49.40914" lon="1.07221">
        <ele>33.5</ele>
        <time>2021-10-16T07:26:44Z</time>
      </trkpt>
      <trkpt lat="49.40914" lon="1.07227">
        <ele>33.5</ele>
        <time>2021-10-16T07:26:45Z</time>
      </trkpt>
      <trkpt lat="49.40914" lon="1.07233">
        <ele>33.5</ele>
        <time>2021-10-16T07:26:47Z</time>
      </trkpt>
      <trkpt lat="49.40915" lon="1.07241">
        <ele>33.5</ele>
        <time>2021-10-16T07:26:48Z</time>
      </trkpt>
      <trkpt lat="49.40915" lon="1.07245">
        <ele>33.5</ele>
        <time>2021-10-16T07:26:49Z</time>
      </trkpt>
      <trkpt lat="49.40914" lon="1.0725">
        <ele>33.4</ele>
        <time>2021-10-16T07:26:50Z</time>
      </trkpt>
      <trkpt lat="49.40915" lon="1.07256">
        <ele>33.4</ele>
        <time>2021-10-16T07:26:52Z</time>
      </trkpt>
      <trkpt lat="49.40914" lon="1.07261">
        <ele>33.4</ele>
        <time>2021-10-16T07:26:53Z</time>
      </trkpt>
      <trkpt lat="49.40914" lon="1.07267">
        <ele>33.4</ele>
        <time>2021-10-16T07:26:54Z</time>
      </trkpt>
      <trkpt lat="49.40914" lon="1.07273">
        <ele>33.4</ele>
        <time>2021-10-16T07:26:55Z</time>
      </trkpt>
      <trkpt lat="49.40914" lon="1.07277">
        <ele>33.4</ele>
        <time>2021-10-16T07:26:56Z</time>
      </trkpt>
      <trkpt lat="49.40913" lon="1.07283">
        <ele>33.4</ele>
        <time>2021-10-16T07:26:58Z</time>
      </trkpt>
      <trkpt lat="49.40912" lon="1.07288">
        <ele>33.3</ele>
        <time>2021-10-16T07:26:59Z</time>
      </trkpt>
      <trkpt lat="49.40911" lon="1.07293">
        <ele>33.3</ele>
        <time>2021-10-16T07:27:00Z</time>
      </trkpt>
      <trkpt lat="49.4091" lon="1.07299">
        <ele>33.3</ele>
        <time>2021-10-16T07:27:01Z</time>
      </trkpt>
      <trkpt lat="49.40909" lon="1.07304">
        <ele>33.3</ele>
        <time>2021-10-16T07:27:03Z</time>
      </trkpt>
      <trkpt lat="49.40908" lon="1.07308">
        <ele>33.3</ele>
        <time>2021-10-16T07:27:04Z</time>
      </trkpt>
      <trkpt lat="49.40906" lon="1.07314">
        <ele>33.3</ele>
        <time>2021-10-16T07:27:05Z</time>
      </trkpt>
      <trkpt lat="49.40904" lon="1.0732">
        <ele>33.3</ele>
        <time>2021-10-16T07:27:07Z</time>
      </trkpt>
      <trkpt lat="49.40902" lon="1.07324">
        <ele>33.3</ele>
        <time>2021-10-16T07:27:08Z</time>
      </trkpt>
      <trkpt lat="49.40901" lon="1.0733">
        <ele>33.3</ele>
        <time>2021-10-16T07:27:09Z</time>
      </trkpt>
      <trkpt lat="49.409" lon="1.07331">
        <ele>33.3</ele>
        <time>2021-10-16T07:27:10Z</time>
      </trkpt>
      <trkpt lat="49.40899" lon="1.07338">
        <ele>33.3</ele>
        <time>2021-10-16T07:27:12Z</time>
      </trkpt>
      <trkpt lat="49.40898" lon="1.0734">
        <ele>33.3</ele>
        <time>2021-10-16T07:27:13Z</time>
      </trkpt>
      <trkpt lat="49.40898" lon="1.07342">
        <ele>33.3</ele>
        <time>2021-10-16T07:27:14Z</time>
      </trkpt>
      <trkpt lat="49.40897" lon="1.07348">
        <ele>33.3</ele>
        <time>2021-10-16T07:27:15Z</time>
      </trkpt>
      <trkpt lat="49.40896" lon="1.0735">
        <ele>33.3</ele>
        <time>2021-10-16T07:27:16Z</time>
      </trkpt>
      <trkpt lat="49.40895" lon="1.07355">
        <ele>33.3</ele>
        <time>2021-10-16T07:27:17Z</time>
      </trkpt>
      <trkpt lat="49.40891" lon="1.07363">
        <ele>33.3</ele>
        <time>2021-10-16T07:27:19Z</time>
      </trkpt>
      <trkpt lat="49.40889" lon="1.07369">
        <ele>33.4</ele>
        <time>2021-10-16T07:27:20Z</time>
      </trkpt>
      <trkpt lat="49.40886" lon="1.07374">
        <ele>33.4</ele>
        <time>2021-10-16T07:27:21Z</time>
      </trkpt>
      <trkpt lat="49.40885" lon="1.07378">
        <ele>33.4</ele>
        <time>2021-10-16T07:27:22Z</time>
      </trkpt>
      <trkpt lat="49.40882" lon="1.07386">
        <ele>33.4</ele>
        <time>2021-10-16T07:27:24Z</time>
      </trkpt>
      <trkpt lat="49.4088" lon="1.07391">
        <ele>33.5</ele>
        <time>2021-10-16T07:27:25Z</time>
      </trkpt>
      <trkpt lat="49.40878" lon="1.07395">
        <ele>33.5</ele>
        <time>2021-10-16T07:27:26Z</time>
      </trkpt>
      <trkpt lat="49.40877" lon="1.074">
        <ele>33.5</ele>
        <time>2021-10-16T07:27:27Z</time>
      </trkpt>
      <trkpt lat="49.40874" lon="1.07406">
        <ele>33.5</ele>
        <time>2021-10-16T07:27:29Z</time>
      </trkpt>
      <trkpt lat="49.40873" lon="1.07411">
        <ele>33.5</ele>
        <time>2021-10-16T07:27:30Z</time>
      </trkpt>
      <trkpt lat="49.40872" lon="1.07415">
        <ele>33.5</ele>
        <time>2021-10-16T07:27:31Z</time>
      </trkpt>
      <trkpt lat="49.4087" lon="1.0742">
        <ele>33.6</ele>
        <time>2021-10-16T07:27:32Z</time>
      </trkpt>
      <trkpt lat="49.40869" lon="1.07426">
        <ele>33.6</ele>
        <time>2021-10-16T07:27:34Z</time>
      </trkpt>
      <trkpt lat="49.40867" lon="1.0743">
        <ele>33.6</ele>
        <time>2021-10-16T07:27:35Z</time>
      </trkpt>
      <trkpt lat="49.40865" lon="1.07435">
        <ele>33.6</ele>
        <time>2021-10-16T07:27:36Z</time>
      </trkpt>
      <trkpt lat="49.40864" lon="1.0744">
        <ele>33.6</ele>
        <time>2021-10-16T07:27:37Z</time>
      </trkpt>
      <trkpt lat="49.40862" lon="1.07445">
        <ele>33.6</ele>
        <time>2021-10-16T07:27:39Z</time>
      </trkpt>
      <trkpt lat="49.4086" lon="1.07449">
        <ele>33.6</ele>
        <time>2021-10-16T07:27:40Z</time>
      </trkpt>
      <trkpt lat="49.40859" lon="1.07453">
        <ele>33.6</ele>
        <time>2021-10-16T07:27:41Z</time>
      </trkpt>
      <trkpt lat="49.40857" lon="1.07457">
        <ele>33.7</ele>
        <time>2021-10-16T07:27:42Z</time>
      </trkpt>
      <trkpt lat="49.40855" lon="1.07462">
        <ele>33.7</ele>
        <time>2021-10-16T07:27:43Z</time>
      </trkpt>
      <trkpt lat="49.40853" lon="1.07467">
        <ele>33.7</ele>
        <time>2021-10-16T07:27:45Z</time>
      </trkpt>
      <trkpt lat="49.40851" lon="1.07471">
        <ele>33.7</ele>
        <time>2021-10-16T07:27:46Z</time>
      </trkpt>
      <trkpt lat="49.40848" lon="1.07475">
        <ele>33.8</ele>
        <time>2021-10-16T07:27:47Z</time>
      </trkpt>
      <trkpt lat="49.40846" lon="1.07479">
        <ele>33.8</ele>
        <time>2021-10-16T07:27:48Z</time>
      </trkpt>
      <trkpt lat="49.40843" lon="1.07483">
        <ele>33.8</ele>
        <time>2021-10-16T07:27:49Z</time>
      </trkpt>
      <trkpt lat="49.4084" lon="1.07488">
        <ele>33.9</ele>
        <time>2021-10-16T07:27:51Z</time>
      </trkpt>
      <trkpt lat="49.40837" lon="1.07491">
        <ele>33.9</ele>
        <time>2021-10-16T07:27:52Z</time>
      </trkpt>
      <trkpt lat="49.40834" lon="1.07494">
        <ele>33.9</ele>
        <time>2021-10-16T07:27:53Z</time>
      </trkpt>
      <trkpt lat="49.40832" lon="1.07498">
        <ele>34</ele>
        <time>2021-10-16T07:27:54Z</time>
      </trkpt>
      <trkpt lat="49.40829" lon="1.07502">
        <ele>34</ele>
        <time>2021-10-16T07:27:55Z</time>
      </trkpt>
      <trkpt lat="49.40825" lon="1.07505">
        <ele>34.1</ele>
        <time>2021-10-16T07:27:57Z</time>
      </trkpt>
      <trkpt lat="49.40822" lon="1.07508">
        <ele>34.1</ele>
        <time>2021-10-16T07:27:58Z</time>
      </trkpt>
      <trkpt lat="49.40819" lon="1.0751">
        <ele>34.1</ele>
        <time>2021-10-16T07:27:59Z</time>
      </trkpt>
      <trkpt lat="49.40817" lon="1.07512">
        <ele>34.2</ele>
        <time>2021-10-16T07:28:00Z</time>
      </trkpt>
      <trkpt lat="49.40813" lon="1.07514">
        <ele>34.2</ele>
        <time>2021-10-16T07:28:01Z</time>
      </trkpt>
      <trkpt lat="49.40809" lon="1.07517">
        <ele>34.3</ele>
        <time>2021-10-16T07:28:03Z</time>
      </trkpt>
      <trkpt lat="49.40806" lon="1.07519">
        <ele>34.3</ele>
        <time>2021-10-16T07:28:04Z</time>
      </trkpt>
      <trkpt lat="49.40804" lon="1.07521">
        <ele>34.3</ele>
        <time>2021-10-16T07:28:05Z</time>
      </trkpt>
      <trkpt lat="49.408" lon="1.07522">
        <ele>34.4</ele>
        <time>2021-10-16T07:28:06Z</time>
      </trkpt>
      <trkpt lat="49.40799" lon="1.07523">
        <ele>34.4</ele>
        <time>2021-10-16T07:28:07Z</time>
      </trkpt>
      <trkpt lat="49.40795" lon="1.07524">
        <ele>34.4</ele>
        <time>2021-10-16T07:28:09Z</time>
      </trkpt>
      <trkpt lat="49.40792" lon="1.07525">
        <ele>34.5</ele>
        <time>2021-10-16T07:28:10Z</time>
      </trkpt>
      <trkpt lat="49.4079" lon="1.07525">
        <ele>34.5</ele>
        <time>2021-10-16T07:28:11Z</time>
      </trkpt>
      <trkpt lat="49.40785" lon="1.07526">
        <ele>34.6</ele>
        <time>2021-10-16T07:28:13Z</time>
      </trkpt>
      <trkpt lat="49.40781" lon="1.07527">
        <ele>34.6</ele>
        <time>2021-10-16T07:28:14Z</time>
      </trkpt>
      <trkpt lat="49.40777" lon="1.07528">
        <ele>34.7</ele>
        <time>2021-10-16T07:28:15Z</time>
      </trkpt>
      <trkpt lat="49.40774" lon="1.07529">
        <ele>34.7</ele>
        <time>2021-10-16T07:28:16Z</time>
      </trkpt>
      <trkpt lat="49.40769" lon="1.07528">
        <ele>34.8</ele>
        <time>2021-10-16T07:28:18Z</time>
      </trkpt>
      <trkpt lat="49.40766" lon="1.07527">
        <ele>34.9</ele>
        <time>2021-10-16T07:28:19Z</time>
      </trkpt>
      <trkpt lat="49.40761" lon="1.07527">
        <ele>34.9</ele>
        <time>2021-10-16T07:28:20Z</time>
      </trkpt>
      <trkpt lat="49.40757" lon="1.07527">
        <ele>35</ele>
        <time>2021-10-16T07:28:22Z</time>
      </trkpt>
      <trkpt lat="49.40754" lon="1.07526">
        <ele>35.1</ele>
        <time>2021-10-16T07:28:23Z</time>
      </trkpt>
      <trkpt lat="49.40751" lon="1.07526">
        <ele>35.1</ele>
        <time>2021-10-16T07:28:24Z</time>
      </trkpt>
      <trkpt lat="49.40747" lon="1.07526">
        <ele>35.2</ele>
        <time>2021-10-16T07:28:26Z</time>
      </trkpt>
      <trkpt lat="49.40743" lon="1.07526">
        <ele>35.2</ele>
        <time>2021-10-16T07:28:27Z</time>
      </trkpt>
      <trkpt lat="49.40741" lon="1.07525">
        <ele>35.3</ele>
        <time>2021-10-16T07:28:28Z</time>
      </trkpt>
      <trkpt lat="49.40738" lon="1.07525">
        <ele>35.3</ele>
        <time>2021-10-16T07:28:29Z</time>
      </trkpt>
      <trkpt lat="49.40734" lon="1.07525">
        <ele>35.4</ele>
        <time>2021-10-16T07:28:31Z</time>
      </trkpt>
      <trkpt lat="49.40732" lon="1.07524">
        <ele>35.5</ele>
        <time>2021-10-16T07:28:32Z</time>
      </trkpt>
      <trkpt lat="49.40729" lon="1.07524">
        <ele>35.5</ele>
        <time>2021-10-16T07:28:33Z</time>
      </trkpt>
      <trkpt lat="49.40725" lon="1.07523">
        <ele>35.6</ele>
        <time>2021-10-16T07:28:34Z</time>
      </trkpt>
      <trkpt lat="49.40721" lon="1.07523">
        <ele>35.7</ele>
        <time>2021-10-16T07:28:36Z</time>
      </trkpt>
      <trkpt lat="49.40718" lon="1.07523">
        <ele>35.7</ele>
        <time>2021-10-16T07:28:37Z</time>
      </trkpt>
      <trkpt lat="49.40715" lon="1.07522">
        <ele>35.8</ele>
        <time>2021-10-16T07:28:38Z</time>
      </trkpt>
      <trkpt lat="49.4071" lon="1.07522">
        <ele>35.9</ele>
        <time>2021-10-16T07:28:40Z</time>
      </trkpt>
      <trkpt lat="49.40706" lon="1.0752">
        <ele>36</ele>
        <time>2021-10-16T07:28:41Z</time>
      </trkpt>
      <trkpt lat="49.40703" lon="1.0752">
        <ele>36</ele>
        <time>2021-10-16T07:28:42Z</time>
      </trkpt>
      <trkpt lat="49.40699" lon="1.0752">
        <ele>36.1</ele>
        <time>2021-10-16T07:28:44Z</time>
      </trkpt>
      <trkpt lat="49.40694" lon="1.0752">
        <ele>36.2</ele>
        <time>2021-10-16T07:28:45Z</time>
      </trkpt>
      <trkpt lat="49.4069" lon="1.0752">
        <ele>36.3</ele>
        <time>2021-10-16T07:28:47Z</time>
      </trkpt>
      <trkpt lat="49.40687" lon="1.0752">
        <ele>36.4</ele>
        <time>2021-10-16T07:28:48Z</time>
      </trkpt>
      <trkpt lat="49.40684" lon="1.0752">
        <ele>36.5</ele>
        <time>2021-10-16T07:28:49Z</time>
      </trkpt>
      <trkpt lat="49.40681" lon="1.07519">
        <ele>36.5</ele>
        <time>2021-10-16T07:28:50Z</time>
      </trkpt>
      <trkpt lat="49.40677" lon="1.07519">
        <ele>36.6</ele>
        <time>2021-10-16T07:28:51Z</time>
      </trkpt>
      <trkpt lat="49.40676" lon="1.07519">
        <ele>36.7</ele>
        <time>2021-10-16T07:28:52Z</time>
      </trkpt>
      <trkpt lat="49.40672" lon="1.07519">
        <ele>36.8</ele>
        <time>2021-10-16T07:28:54Z</time>
      </trkpt>
      <trkpt lat="49.40671" lon="1.07519">
        <ele>36.8</ele>
        <time>2021-10-16T07:28:55Z</time>
      </trkpt>
      <trkpt lat="49.40668" lon="1.07519">
        <ele>36.9</ele>
        <time>2021-10-16T07:28:57Z</time>
      </trkpt>
      <trkpt lat="49.40664" lon="1.07519">
        <ele>36.9</ele>
        <time>2021-10-16T07:28:58Z</time>
      </trkpt>
      <trkpt lat="49.40661" lon="1.07518">
        <ele>37</ele>
        <time>2021-10-16T07:29:00Z</time>
      </trkpt>
      <trkpt lat="49.40658" lon="1.07518">
        <ele>37.1</ele>
        <time>2021-10-16T07:29:01Z</time>
      </trkpt>
      <trkpt lat="49.40655" lon="1.07517">
        <ele>37.1</ele>
        <time>2021-10-16T07:29:02Z</time>
      </trkpt>
      <trkpt lat="49.4065" lon="1.07519">
        <ele>37.2</ele>
        <time>2021-10-16T07:29:03Z</time>
      </trkpt>
      <trkpt lat="49.40646" lon="1.07517">
        <ele>37.3</ele>
        <time>2021-10-16T07:29:04Z</time>
      </trkpt>
      <trkpt lat="49.40642" lon="1.07515">
        <ele>37.4</ele>
        <time>2021-10-16T07:29:05Z</time>
      </trkpt>
      <trkpt lat="49.40637" lon="1.07516">
        <ele>37.5</ele>
        <time>2021-10-16T07:29:07Z</time>
      </trkpt>
      <trkpt lat="49.40634" lon="1.07516">
        <ele>37.6</ele>
        <time>2021-10-16T07:29:08Z</time>
      </trkpt>
      <trkpt lat="49.40632" lon="1.07516">
        <ele>37.6</ele>
        <time>2021-10-16T07:29:09Z</time>
      </trkpt>
      <trkpt lat="49.4063" lon="1.07516">
        <ele>37.7</ele>
        <time>2021-10-16T07:29:10Z</time>
      </trkpt>
      <trkpt lat="49.40627" lon="1.07516">
        <ele>37.8</ele>
        <time>2021-10-16T07:29:11Z</time>
      </trkpt>
      <trkpt lat="49.40622" lon="1.07515">
        <ele>37.9</ele>
        <time>2021-10-16T07:29:13Z</time>
      </trkpt>
      <trkpt lat="49.40617" lon="1.07514">
        <ele>38</ele>
        <time>2021-10-16T07:29:14Z</time>
      </trkpt>
      <trkpt lat="49.40613" lon="1.07514">
        <ele>38.1</ele>
        <time>2021-10-16T07:29:15Z</time>
      </trkpt>
      <trkpt lat="49.40609" lon="1.07512">
        <ele>38.2</ele>
        <time>2021-10-16T07:29:16Z</time>
      </trkpt>
      <trkpt lat="49.40604" lon="1.07512">
        <ele>38.3</ele>
        <time>2021-10-16T07:29:18Z</time>
      </trkpt>
      <trkpt lat="49.406" lon="1.07511">
        <ele>38.4</ele>
        <time>2021-10-16T07:29:19Z</time>
      </trkpt>
      <trkpt lat="49.40596" lon="1.07509">
        <ele>38.6</ele>
        <time>2021-10-16T07:29:20Z</time>
      </trkpt>
      <trkpt lat="49.40592" lon="1.07509">
        <ele>38.7</ele>
        <time>2021-10-16T07:29:21Z</time>
      </trkpt>
      <trkpt lat="49.40588" lon="1.07508">
        <ele>38.8</ele>
        <time>2021-10-16T07:29:23Z</time>
      </trkpt>
      <trkpt lat="49.40584" lon="1.07508">
        <ele>38.9</ele>
        <time>2021-10-16T07:29:24Z</time>
      </trkpt>
      <trkpt lat="49.40581" lon="1.07509">
        <ele>39</ele>
        <time>2021-10-16T07:29:25Z</time>
      </trkpt>
      <trkpt lat="49.40578" lon="1.07509">
        <ele>39.1</ele>
        <time>2021-10-16T07:29:26Z</time>
      </trkpt>
      <trkpt lat="49.40575" lon="1.0751">
        <ele>39.1</ele>
        <time>2021-10-16T07:29:27Z</time>
      </trkpt>
      <trkpt lat="49.40572" lon="1.0751">
        <ele>39.2</ele>
        <time>2021-10-16T07:29:28Z</time>
      </trkpt>
      <trkpt lat="49.40569" lon="1.0751">
        <ele>39.3</ele>
        <time>2021-10-16T07:29:30Z</time>
      </trkpt>
      <trkpt lat="49.40566" lon="1.07511">
        <ele>39.3</ele>
        <time>2021-10-16T07:29:31Z</time>
      </trkpt>
      <trkpt lat="49.40563" lon="1.07512">
        <ele>39.4</ele>
        <time>2021-10-16T07:29:32Z</time>
      </trkpt>
      <trkpt lat="49.4056" lon="1.07512">
        <ele>39.5</ele>
        <time>2021-10-16T07:29:33Z</time>
      </trkpt>
      <trkpt lat="49.40557" lon="1.07509">
        <ele>39.5</ele>
        <time>2021-10-16T07:29:34Z</time>
      </trkpt>
      <trkpt lat="49.40552" lon="1.07508">
        <ele>39.6</ele>
        <time>2021-10-16T07:29:36Z</time>
      </trkpt>
      <trkpt lat="49.40551" lon="1.07507">
        <ele>39.7</ele>
        <time>2021-10-16T07:29:37Z</time>
      </trkpt>
      <trkpt lat="49.40549" lon="1.07506">
        <ele>39.7</ele>
        <time>2021-10-16T07:29:38Z</time>
      </trkpt>
      <trkpt lat="49.40546" lon="1.07505">
        <ele>39.8</ele>
        <time>2021-10-16T07:29:39Z</time>
      </trkpt>
      <trkpt lat="49.40545" lon="1.07505">
        <ele>39.8</ele>
        <time>2021-10-16T07:29:40Z</time>
      </trkpt>
      <trkpt lat="49.40541" lon="1.07504">
        <ele>39.9</ele>
        <time>2021-10-16T07:29:41Z</time>
      </trkpt>
      <trkpt lat="49.40539" lon="1.07504">
        <ele>39.9</ele>
        <time>2021-10-16T07:29:42Z</time>
      </trkpt>
      <trkpt lat="49.40533" lon="1.07504">
        <ele>40.1</ele>
        <time>2021-10-16T07:29:44Z</time>
      </trkpt>
      <trkpt lat="49.40529" lon="1.07503">
        <ele>40.2</ele>
        <time>2021-10-16T07:29:45Z</time>
      </trkpt>
      <trkpt lat="49.40525" lon="1.07502">
        <ele>40.3</ele>
        <time>2021-10-16T07:29:46Z</time>
      </trkpt>
      <trkpt lat="49.40519" lon="1.07502">
        <ele>40.4</ele>
        <time>2021-10-16T07:29:48Z</time>
      </trkpt>
      <trkpt lat="49.40515" lon="1.07502">
        <ele>40.5</ele>
        <time>2021-10-16T07:29:49Z</time>
      </trkpt>
      <trkpt lat="49.40512" lon="1.07501">
        <ele>40.6</ele>
        <time>2021-10-16T07:29:50Z</time>
      </trkpt>
      <trkpt lat="49.40509" lon="1.075">
        <ele>40.6</ele>
        <time>2021-10-16T07:29:51Z</time>
      </trkpt>
      <trkpt lat="49.40505" lon="1.07498">
        <ele>40.7</ele>
        <time>2021-10-16T07:29:53Z</time>
      </trkpt>
      <trkpt lat="49.40503" lon="1.07496">
        <ele>40.8</ele>
        <time>2021-10-16T07:29:54Z</time>
      </trkpt>
      <trkpt lat="49.40499" lon="1.07494">
        <ele>40.8</ele>
        <time>2021-10-16T07:29:55Z</time>
      </trkpt>
      <trkpt lat="49.40495" lon="1.07492">
        <ele>40.9</ele>
        <time>2021-10-16T07:29:57Z</time>
      </trkpt>
      <trkpt lat="49.40493" lon="1.07489">
        <ele>41</ele>
        <time>2021-10-16T07:29:58Z</time>
      </trkpt>
      <trkpt lat="49.4049" lon="1.07488">
        <ele>41.1</ele>
        <time>2021-10-16T07:29:59Z</time>
      </trkpt>
      <trkpt lat="49.40487" lon="1.07486">
        <ele>41.1</ele>
        <time>2021-10-16T07:30:00Z</time>
      </trkpt>
      <trkpt lat="49.40484" lon="1.07484">
        <ele>41.2</ele>
        <time>2021-10-16T07:30:01Z</time>
      </trkpt>
      <trkpt lat="49.4048" lon="1.07482">
        <ele>41.3</ele>
        <time>2021-10-16T07:30:03Z</time>
      </trkpt>
      <trkpt lat="49.40478" lon="1.07479">
        <ele>41.4</ele>
        <time>2021-10-16T07:30:04Z</time>
      </trkpt>
      <trkpt lat="49.40475" lon="1.07476">
        <ele>41.4</ele>
        <time>2021-10-16T07:30:05Z</time>
      </trkpt>
      <trkpt lat="49.40473" lon="1.07473">
        <ele>41.5</ele>
        <time>2021-10-16T07:30:06Z</time>
      </trkpt>
      <trkpt lat="49.40471" lon="1.0747">
        <ele>41.5</ele>
        <time>2021-10-16T07:30:07Z</time>
      </trkpt>
      <trkpt lat="49.40468" lon="1.07464">
        <ele>41.6</ele>
        <time>2021-10-16T07:30:09Z</time>
      </trkpt>
      <trkpt lat="49.40466" lon="1.0746">
        <ele>41.6</ele>
        <time>2021-10-16T07:30:10Z</time>
      </trkpt>
      <trkpt lat="49.40464" lon="1.07456">
        <ele>41.7</ele>
        <time>2021-10-16T07:30:11Z</time>
      </trkpt>
      <trkpt lat="49.40462" lon="1.07452">
        <ele>41.7</ele>
        <time>2021-10-16T07:30:12Z</time>
      </trkpt>
      <trkpt lat="49.40461" lon="1.07448">
        <ele>41.7</ele>
        <time>2021-10-16T07:30:13Z</time>
      </trkpt>
      <trkpt lat="49.40459" lon="1.07441">
        <ele>41.8</ele>
        <time>2021-10-16T07:30:15Z</time>
      </trkpt>
      <trkpt lat="49.40458" lon="1.07436">
        <ele>41.8</ele>
        <time>2021-10-16T07:30:16Z</time>
      </trkpt>
      <trkpt lat="49.40456" lon="1.07432">
        <ele>41.8</ele>
        <time>2021-10-16T07:30:17Z</time>
      </trkpt>
      <trkpt lat="49.40454" lon="1.07425">
        <ele>41.8</ele>
        <time>2021-10-16T07:30:19Z</time>
      </trkpt>
      <trkpt lat="49.40453" lon="1.0742">
        <ele>41.8</ele>
        <time>2021-10-16T07:30:20Z</time>
      </trkpt>
      <trkpt lat="49.40452" lon="1.07414">
        <ele>41.8</ele>
        <time>2021-10-16T07:30:21Z</time>
      </trkpt>
      <trkpt lat="49.40452" lon="1.07409">
        <ele>41.8</ele>
        <time>2021-10-16T07:30:22Z</time>
      </trkpt>
      <trkpt lat="49.40452" lon="1.07405">
        <ele>41.9</ele>
        <time>2021-10-16T07:30:23Z</time>
      </trkpt>
      <trkpt lat="49.40451" lon="1.074">
        <ele>41.9</ele>
        <time>2021-10-16T07:30:25Z</time>
      </trkpt>
      <trkpt lat="49.4045" lon="1.07395">
        <ele>41.9</ele>
        <time>2021-10-16T07:30:26Z</time>
      </trkpt>
      <trkpt lat="49.4045" lon="1.0739">
        <ele>41.9</ele>
        <time>2021-10-16T07:30:27Z</time>
      </trkpt>
      <trkpt lat="49.4045" lon="1.07385">
        <ele>41.8</ele>
        <time>2021-10-16T07:30:28Z</time>
      </trkpt>
      <trkpt lat="49.4045" lon="1.0738">
        <ele>41.8</ele>
        <time>2021-10-16T07:30:29Z</time>
      </trkpt>
      <trkpt lat="49.4045" lon="1.07375">
        <ele>41.8</ele>
        <time>2021-10-16T07:30:30Z</time>
      </trkpt>
      <trkpt lat="49.4045" lon="1.07369">
        <ele>41.8</ele>
        <time>2021-10-16T07:30:31Z</time>
      </trkpt>
      <trkpt lat="49.4045" lon="1.07363">
        <ele>41.8</ele>
        <time>2021-10-16T07:30:33Z</time>
      </trkpt>
      <trkpt lat="49.40451" lon="1.07358">
        <ele>41.8</ele>
        <time>2021-10-16T07:30:34Z</time>
      </trkpt>
      <trkpt lat="49.40451" lon="1.07353">
        <ele>41.8</ele>
        <time>2021-10-16T07:30:35Z</time>
      </trkpt>
      <trkpt lat="49.40452" lon="1.07348">
        <ele>41.8</ele>
        <time>2021-10-16T07:30:36Z</time>
      </trkpt>
      <trkpt lat="49.40453" lon="1.07343">
        <ele>41.7</ele>
        <time>2021-10-16T07:30:37Z</time>
      </trkpt>
      <trkpt lat="49.40454" lon="1.07339">
        <ele>41.7</ele>
        <time>2021-10-16T07:30:38Z</time>
      </trkpt>
      <trkpt lat="49.40455" lon="1.07334">
        <ele>41.7</ele>
        <time>2021-10-16T07:30:40Z</time>
      </trkpt>
      <trkpt lat="49.40457" lon="1.07329">
        <ele>41.7</ele>
        <time>2021-10-16T07:30:41Z</time>
      </trkpt>
      <trkpt lat="49.40458" lon="1.07324">
        <ele>41.6</ele>
        <time>2021-10-16T07:30:42Z</time>
      </trkpt>
      <trkpt lat="49.40459" lon="1.0732">
        <ele>41.6</ele>
        <time>2021-10-16T07:30:43Z</time>
      </trkpt>
      <trkpt lat="49.4046" lon="1.07316">
        <ele>41.6</ele>
        <time>2021-10-16T07:30:44Z</time>
      </trkpt>
      <trkpt lat="49.40461" lon="1.07312">
        <ele>41.6</ele>
        <time>2021-10-16T07:30:45Z</time>
      </trkpt>
      <trkpt lat="49.40462" lon="1.07305">
        <ele>41.5</ele>
        <time>2021-10-16T07:30:47Z</time>
      </trkpt>
      <trkpt lat="49.40464" lon="1.073">
        <ele>41.5</ele>
        <time>2021-10-16T07:30:48Z</time>
      </trkpt>
      <trkpt lat="49.40465" lon="1.07296">
        <ele>41.5</ele>
        <time>2021-10-16T07:30:49Z</time>
      </trkpt>
      <trkpt lat="49.40467" lon="1.07289">
        <ele>41.5</ele>
        <time>2021-10-16T07:30:51Z</time>
      </trkpt>
      <trkpt lat="49.40469" lon="1.07285">
        <ele>41.4</ele>
        <time>2021-10-16T07:30:52Z</time>
      </trkpt>
      <trkpt lat="49.40471" lon="1.0728">
        <ele>41.4</ele>
        <time>2021-10-16T07:30:53Z</time>
      </trkpt>
      <trkpt lat="49.40473" lon="1.07277">
        <ele>41.4</ele>
        <time>2021-10-16T07:30:54Z</time>
      </trkpt>
      <trkpt lat="49.40475" lon="1.07272">
        <ele>41.3</ele>
        <time>2021-10-16T07:30:55Z</time>
      </trkpt>
      <trkpt lat="49.40478" lon="1.07266">
        <ele>41.3</ele>
        <time>2021-10-16T07:30:57Z</time>
      </trkpt>
      <trkpt lat="49.40479" lon="1.07261">
        <ele>41.2</ele>
        <time>2021-10-16T07:30:58Z</time>
      </trkpt>
      <trkpt lat="49.40479" lon="1.07256">
        <ele>41.2</ele>
        <time>2021-10-16T07:30:59Z</time>
      </trkpt>
      <trkpt lat="49.40481" lon="1.07251">
        <ele>41.2</ele>
        <time>2021-10-16T07:31:00Z</time>
      </trkpt>
      <trkpt lat="49.40482" lon="1.07246">
        <ele>41.1</ele>
        <time>2021-10-16T07:31:01Z</time>
      </trkpt>
      <trkpt lat="49.40484" lon="1.07241">
        <ele>41.1</ele>
        <time>2021-10-16T07:31:03Z</time>
      </trkpt>
      <trkpt lat="49.40485" lon="1.07236">
        <ele>41</ele>
        <time>2021-10-16T07:31:04Z</time>
      </trkpt>
      <trkpt lat="49.40486" lon="1.07231">
        <ele>41</ele>
        <time>2021-10-16T07:31:05Z</time>
      </trkpt>
      <trkpt lat="49.40488" lon="1.07226">
        <ele>41</ele>
        <time>2021-10-16T07:31:06Z</time>
      </trkpt>
      <trkpt lat="49.4049" lon="1.07221">
        <ele>40.9</ele>
        <time>2021-10-16T07:31:07Z</time>
      </trkpt>
      <trkpt lat="49.40491" lon="1.07217">
        <ele>40.9</ele>
        <time>2021-10-16T07:31:08Z</time>
      </trkpt>
      <trkpt lat="49.40492" lon="1.07212">
        <ele>40.8</ele>
        <time>2021-10-16T07:31:10Z</time>
      </trkpt>
      <trkpt lat="49.40493" lon="1.07208">
        <ele>40.8</ele>
        <time>2021-10-16T07:31:11Z</time>
      </trkpt>
      <trkpt lat="49.40494" lon="1.07205">
        <ele>40.8</ele>
        <time>2021-10-16T07:31:12Z</time>
      </trkpt>
      <trkpt lat="49.40496" lon="1.07201">
        <ele>40.7</ele>
        <time>2021-10-16T07:31:14Z</time>
      </trkpt>
      <trkpt lat="49.40497" lon="1.07194">
        <ele>40.7</ele>
        <time>2021-10-16T07:31:15Z</time>
      </trkpt>
      <trkpt lat="49.40498" lon="1.07191">
        <ele>40.6</ele>
        <time>2021-10-16T07:31:16Z</time>
      </trkpt>
      <trkpt lat="49.40499" lon="1.07186">
        <ele>40.6</ele>
        <time>2021-10-16T07:31:17Z</time>
      </trkpt>
      <trkpt lat="49.40501" lon="1.07181">
        <ele>40.5</ele>
        <time>2021-10-16T07:31:18Z</time>
      </trkpt>
      <trkpt lat="49.40503" lon="1.07175">
        <ele>40.4</ele>
        <time>2021-10-16T07:31:19Z</time>
      </trkpt>
      <trkpt lat="49.40505" lon="1.07167">
        <ele>40.3</ele>
        <time>2021-10-16T07:31:21Z</time>
      </trkpt>
      <trkpt lat="49.40507" lon="1.07162">
        <ele>40.3</ele>
        <time>2021-10-16T07:31:22Z</time>
      </trkpt>
      <trkpt lat="49.40508" lon="1.07156">
        <ele>40.2</ele>
        <time>2021-10-16T07:31:23Z</time>
      </trkpt>
      <trkpt lat="49.4051" lon="1.07152">
        <ele>40.1</ele>
        <time>2021-10-16T07:31:24Z</time>
      </trkpt>
      <trkpt lat="49.40512" lon="1.07148">
        <ele>40</ele>
        <time>2021-10-16T07:31:25Z</time>
      </trkpt>
      <trkpt lat="49.40514" lon="1.07143">
        <ele>40</ele>
        <time>2021-10-16T07:31:26Z</time>
      </trkpt>
      <trkpt lat="49.40516" lon="1.07135">
        <ele>39.8</ele>
        <time>2021-10-16T07:31:28Z</time>
      </trkpt>
      <trkpt lat="49.40518" lon="1.0713">
        <ele>39.8</ele>
        <time>2021-10-16T07:31:29Z</time>
      </trkpt>
      <trkpt lat="49.40519" lon="1.07124">
        <ele>39.7</ele>
        <time>2021-10-16T07:31:30Z</time>
      </trkpt>
      <trkpt lat="49.4052" lon="1.07119">
        <ele>39.6</ele>
        <time>2021-10-16T07:31:31Z</time>
      </trkpt>
      <trkpt lat="49.40521" lon="1.07115">
        <ele>39.5</ele>
        <time>2021-10-16T07:31:32Z</time>
      </trkpt>
      <trkpt lat="49.40522" lon="1.0711">
        <ele>39.4</ele>
        <time>2021-10-16T07:31:34Z</time>
      </trkpt>
      <trkpt lat="49.40524" lon="1.07104">
        <ele>39.4</ele>
        <time>2021-10-16T07:31:35Z</time>
      </trkpt>
      <trkpt lat="49.40524" lon="1.07103">
        <ele>39.3</ele>
        <time>2021-10-16T07:31:36Z</time>
      </trkpt>
      <trkpt lat="49.40525" lon="1.07099">
        <ele>39.3</ele>
        <time>2021-10-16T07:31:37Z</time>
      </trkpt>
      <trkpt lat="49.40527" lon="1.07094">
        <ele>39.2</ele>
        <time>2021-10-16T07:31:39Z</time>
      </trkpt>
      <trkpt lat="49.40528" lon="1.07091">
        <ele>39.1</ele>
        <time>2021-10-16T07:31:40Z</time>
      </trkpt>
      <trkpt lat="49.4053" lon="1.07085">
        <ele>39.1</ele>
        <time>2021-10-16T07:31:41Z</time>
      </trkpt>
      <trkpt lat="49.40532" lon="1.0708">
        <ele>39</ele>
        <time>2021-10-16T07:31:42Z</time>
      </trkpt>
      <trkpt lat="49.40535" lon="1.07072">
        <ele>38.8</ele>
        <time>2021-10-16T07:31:44Z</time>
      </trkpt>
      <trkpt lat="49.40536" lon="1.07066">
        <ele>38.7</ele>
        <time>2021-10-16T07:31:45Z</time>
      </trkpt>
      <trkpt lat="49.40538" lon="1.0706">
        <ele>38.6</ele>
        <time>2021-10-16T07:31:46Z</time>
      </trkpt>
      <trkpt lat="49.4054" lon="1.07055">
        <ele>38.6</ele>
        <time>2021-10-16T07:31:47Z</time>
      </trkpt>
      <trkpt lat="49.40542" lon="1.0705">
        <ele>38.5</ele>
        <time>2021-10-16T07:31:48Z</time>
      </trkpt>
      <trkpt lat="49.40543" lon="1.07045">
        <ele>38.4</ele>
        <time>2021-10-16T07:31:49Z</time>
      </trkpt>
      <trkpt lat="49.40545" lon="1.07041">
        <ele>38.3</ele>
        <time>2021-10-16T07:31:50Z</time>
      </trkpt>
      <trkpt lat="49.40546" lon="1.07034">
        <ele>38.2</ele>
        <time>2021-10-16T07:31:52Z</time>
      </trkpt>
      <trkpt lat="49.40548" lon="1.07028">
        <ele>38.1</ele>
        <time>2021-10-16T07:31:54Z</time>
      </trkpt>
      <trkpt lat="49.4055" lon="1.07021">
        <ele>38</ele>
        <time>2021-10-16T07:31:56Z</time>
      </trkpt>
      <trkpt lat="49.40551" lon="1.07018">
        <ele>38</ele>
        <time>2021-10-16T07:31:57Z</time>
      </trkpt>
      <trkpt lat="49.40553" lon="1.07011">
        <ele>37.9</ele>
        <time>2021-10-16T07:31:59Z</time>
      </trkpt>
      <trkpt lat="49.40555" lon="1.07005">
        <ele>37.8</ele>
        <time>2021-10-16T07:32:00Z</time>
      </trkpt>
      <trkpt lat="49.40558" lon="1.06999">
        <ele>37.7</ele>
        <time>2021-10-16T07:32:01Z</time>
      </trkpt>
      <trkpt lat="49.4056" lon="1.06995">
        <ele>37.6</ele>
        <time>2021-10-16T07:32:02Z</time>
      </trkpt>
      <trkpt lat="49.40562" lon="1.06991">
        <ele>37.5</ele>
        <time>2021-10-16T07:32:03Z</time>
      </trkpt>
      <trkpt lat="49.40565" lon="1.06987">
        <ele>37.4</ele>
        <time>2021-10-16T07:32:04Z</time>
      </trkpt>
      <trkpt lat="49.40567" lon="1.06984">
        <ele>37.4</ele>
        <time>2021-10-16T07:32:05Z</time>
      </trkpt>
      <trkpt lat="49.40569" lon="1.0698">
        <ele>37.3</ele>
        <time>2021-10-16T07:32:07Z</time>
      </trkpt>
      <trkpt lat="49.40572" lon="1.06977">
        <ele>37.2</ele>
        <time>2021-10-16T07:32:08Z</time>
      </trkpt>
      <trkpt lat="49.40575" lon="1.06973">
        <ele>37.2</ele>
        <time>2021-10-16T07:32:09Z</time>
      </trkpt>
      <trkpt lat="49.40579" lon="1.06968">
        <ele>37</ele>
        <time>2021-10-16T07:32:10Z</time>
      </trkpt>
      <trkpt lat="49.40583" lon="1.06964">
        <ele>36.9</ele>
        <time>2021-10-16T07:32:11Z</time>
      </trkpt>
      <trkpt lat="49.40587" lon="1.0696">
        <ele>36.8</ele>
        <time>2021-10-16T07:32:13Z</time>
      </trkpt>
      <trkpt lat="49.40591" lon="1.06958">
        <ele>36.7</ele>
        <time>2021-10-16T07:32:14Z</time>
      </trkpt>
      <trkpt lat="49.40593" lon="1.06957">
        <ele>36.7</ele>
        <time>2021-10-16T07:32:15Z</time>
      </trkpt>
      <trkpt lat="49.40596" lon="1.06955">
        <ele>36.6</ele>
        <time>2021-10-16T07:32:16Z</time>
      </trkpt>
      <trkpt lat="49.40599" lon="1.06953">
        <ele>36.5</ele>
        <time>2021-10-16T07:32:17Z</time>
      </trkpt>
      <trkpt lat="49.40604" lon="1.06949">
        <ele>36.4</ele>
        <time>2021-10-16T07:32:19Z</time>
      </trkpt>
      <trkpt lat="49.40608" lon="1.06948">
        <ele>36.3</ele>
        <time>2021-10-16T07:32:20Z</time>
      </trkpt>
      <trkpt lat="49.40611" lon="1.06947">
        <ele>36.2</ele>
        <time>2021-10-16T07:32:21Z</time>
      </trkpt>
      <trkpt lat="49.40616" lon="1.06947">
        <ele>36.1</ele>
        <time>2021-10-16T07:32:23Z</time>
      </trkpt>
      <trkpt lat="49.4062" lon="1.06946">
        <ele>36</ele>
        <time>2021-10-16T07:32:24Z</time>
      </trkpt>
      <trkpt lat="49.40624" lon="1.06945">
        <ele>35.9</ele>
        <time>2021-10-16T07:32:25Z</time>
      </trkpt>
      <trkpt lat="49.40629" lon="1.06946">
        <ele>35.9</ele>
        <time>2021-10-16T07:32:26Z</time>
      </trkpt>
      <trkpt lat="49.40634" lon="1.06946">
        <ele>35.8</ele>
        <time>2021-10-16T07:32:27Z</time>
      </trkpt>
      <trkpt lat="49.40638" lon="1.06947">
        <ele>35.7</ele>
        <time>2021-10-16T07:32:28Z</time>
      </trkpt>
      <trkpt lat="49.40643" lon="1.06949">
        <ele>35.6</ele>
        <time>2021-10-16T07:32:30Z</time>
      </trkpt>
      <trkpt lat="49.40648" lon="1.06951">
        <ele>35.5</ele>
        <time>2021-10-16T07:32:31Z</time>
      </trkpt>
      <trkpt lat="49.40651" lon="1.06952">
        <ele>35.5</ele>
        <time>2021-10-16T07:32:32Z</time>
      </trkpt>
      <trkpt lat="49.40656" lon="1.06954">
        <ele>35.4</ele>
        <time>2021-10-16T07:32:34Z</time>
      </trkpt>
      <trkpt lat="49.40659" lon="1.06956">
        <ele>35.4</ele>
        <time>2021-10-16T07:32:35Z</time>
      </trkpt>
      <trkpt lat="49.40662" lon="1.06958">
        <ele>35.3</ele>
        <time>2021-10-16T07:32:36Z</time>
      </trkpt>
      <trkpt lat="49.40664" lon="1.06961">
        <ele>35.3</ele>
        <time>2021-10-16T07:32:37Z</time>
      </trkpt>
      <trkpt lat="49.40668" lon="1.06964">
        <ele>35.3</ele>
        <time>2021-10-16T07:32:39Z</time>
      </trkpt>
      <trkpt lat="49.40671" lon="1.06967">
        <ele>35.2</ele>
        <time>2021-10-16T07:32:40Z</time>
      </trkpt>
      <trkpt lat="49.40674" lon="1.06969">
        <ele>35.2</ele>
        <time>2021-10-16T07:32:41Z</time>
      </trkpt>
      <trkpt lat="49.40676" lon="1.0697">
        <ele>35.2</ele>
        <time>2021-10-16T07:32:42Z</time>
      </trkpt>
      <trkpt lat="49.40679" lon="1.06973">
        <ele>35.1</ele>
        <time>2021-10-16T07:32:43Z</time>
      </trkpt>
      <trkpt lat="49.40684" lon="1.06975">
        <ele>35.1</ele>
        <time>2021-10-16T07:32:45Z</time>
      </trkpt>
      <trkpt lat="49.40687" lon="1.06978">
        <ele>35</ele>
        <time>2021-10-16T07:32:46Z</time>
      </trkpt>
      <trkpt lat="49.4069" lon="1.06981">
        <ele>35</ele>
        <time>2021-10-16T07:32:48Z</time>
      </trkpt>
      <trkpt lat="49.40693" lon="1.06983">
        <ele>35</ele>
        <time>2021-10-16T07:32:49Z</time>
      </trkpt>
      <trkpt lat="49.40695" lon="1.06984">
        <ele>34.9</ele>
        <time>2021-10-16T07:32:50Z</time>
      </trkpt>
      <trkpt lat="49.40698" lon="1.06987">
        <ele>34.9</ele>
        <time>2021-10-16T07:32:51Z</time>
      </trkpt>
      <trkpt lat="49.40702" lon="1.06989">
        <ele>34.8</ele>
        <time>2021-10-16T07:32:52Z</time>
      </trkpt>
      <trkpt lat="49.40705" lon="1.06992">
        <ele>34.8</ele>
        <time>2021-10-16T07:32:53Z</time>
      </trkpt>
      <trkpt lat="49.40709" lon="1.06996">
        <ele>34.7</ele>
        <time>2021-10-16T07:32:55Z</time>
      </trkpt>
      <trkpt lat="49.40712" lon="1.06999">
        <ele>34.7</ele>
        <time>2021-10-16T07:32:56Z</time>
      </trkpt>
      <trkpt lat="49.40715" lon="1.07001">
        <ele>34.7</ele>
        <time>2021-10-16T07:32:57Z</time>
      </trkpt>
      <trkpt lat="49.40718" lon="1.07004">
        <ele>34.6</ele>
        <time>2021-10-16T07:32:58Z</time>
      </trkpt>
      <trkpt lat="49.4072" lon="1.07007">
        <ele>34.6</ele>
        <time>2021-10-16T07:32:59Z</time>
      </trkpt>
      <trkpt lat="49.40723" lon="1.07009">
        <ele>34.6</ele>
        <time>2021-10-16T07:33:00Z</time>
      </trkpt>
      <trkpt lat="49.40728" lon="1.07011">
        <ele>34.5</ele>
        <time>2021-10-16T07:33:02Z</time>
      </trkpt>
      <trkpt lat="49.40731" lon="1.07013">
        <ele>34.5</ele>
        <time>2021-10-16T07:33:03Z</time>
      </trkpt>
      <trkpt lat="49.40734" lon="1.07015">
        <ele>34.5</ele>
        <time>2021-10-16T07:33:04Z</time>
      </trkpt>
      <trkpt lat="49.40738" lon="1.07017">
        <ele>34.4</ele>
        <time>2021-10-16T07:33:05Z</time>
      </trkpt>
      <trkpt lat="49.40741" lon="1.07019">
        <ele>34.4</ele>
        <time>2021-10-16T07:33:06Z</time>
      </trkpt>
      <trkpt lat="49.40744" lon="1.07021">
        <ele>34.4</ele>
        <time>2021-10-16T07:33:07Z</time>
      </trkpt>
      <trkpt lat="49.40747" lon="1.07023">
        <ele>34.3</ele>
        <time>2021-10-16T07:33:08Z</time>
      </trkpt>
      <trkpt lat="49.40752" lon="1.07026">
        <ele>34.3</ele>
        <time>2021-10-16T07:33:10Z</time>
      </trkpt>
      <trkpt lat="49.40755" lon="1.07029">
        <ele>34.3</ele>
        <time>2021-10-16T07:33:11Z</time>
      </trkpt>
      <trkpt lat="49.40758" lon="1.07031">
        <ele>34.2</ele>
        <time>2021-10-16T07:33:12Z</time>
      </trkpt>
      <trkpt lat="49.40761" lon="1.07033">
        <ele>34.2</ele>
        <time>2021-10-16T07:33:13Z</time>
      </trkpt>
      <trkpt lat="49.40764" lon="1.07036">
        <ele>34.2</ele>
        <time>2021-10-16T07:33:14Z</time>
      </trkpt>
      <trkpt lat="49.40765" lon="1.07037">
        <ele>34.2</ele>
        <time>2021-10-16T07:33:15Z</time>
      </trkpt>
      <trkpt lat="49.40767" lon="1.07038">
        <ele>34.1</ele>
        <time>2021-10-16T07:33:16Z</time>
      </trkpt>
      <trkpt lat="49.4077" lon="1.0704">
        <ele>34.1</ele>
        <time>2021-10-16T07:33:18Z</time>
      </trkpt>
      <trkpt lat="49.40773" lon="1.07042">
        <ele>34.1</ele>
        <time>2021-10-16T07:33:19Z</time>
      </trkpt>
      <trkpt lat="49.40775" lon="1.07043">
        <ele>34.1</ele>
        <time>2021-10-16T07:33:20Z</time>
      </trkpt>
      <trkpt lat="49.40778" lon="1.07046">
        <ele>34.1</ele>
        <time>2021-10-16T07:33:21Z</time>
      </trkpt>
      <trkpt lat="49.40783" lon="1.07049">
        <ele>34</ele>
        <time>2021-10-16T07:33:22Z</time>
      </trkpt>
      <trkpt lat="49.40789" lon="1.07053">
        <ele>34</ele>
        <time>2021-10-16T07:33:24Z</time>
      </trkpt>
      <trkpt lat="49.40793" lon="1.07056">
        <ele>34</ele>
        <time>2021-10-16T07:33:25Z</time>
      </trkpt>
      <trkpt lat="49.40796" lon="1.07059">
        <ele>34</ele>
        <time>2021-10-16T07:33:26Z</time>
      </trkpt>
      <trkpt lat="49.408" lon="1.07062">
        <ele>34</ele>
        <time>2021-10-16T07:33:27Z</time>
      </trkpt>
      <trkpt lat="49.40803" lon="1.07066">
        <ele>34</ele>
        <time>2021-10-16T07:33:28Z</time>
      </trkpt>
      <trkpt lat="49.40806" lon="1.07069">
        <ele>34</ele>
        <time>2021-10-16T07:33:29Z</time>
      </trkpt>
      <trkpt lat="49.40811" lon="1.07073">
        <ele>34</ele>
        <time>2021-10-16T07:33:31Z</time>
      </trkpt>
      <trkpt lat="49.40814" lon="1.07076">
        <ele>33.9</ele>
        <time>2021-10-16T07:33:32Z</time>
      </trkpt>
      <trkpt lat="49.40817" lon="1.07079">
        <ele>33.9</ele>
        <time>2021-10-16T07:33:33Z</time>
      </trkpt>
      <trkpt lat="49.4082" lon="1.07081">
        <ele>33.9</ele>
        <time>2021-10-16T07:33:34Z</time>
      </trkpt>
      <trkpt lat="49.40824" lon="1.07083">
        <ele>33.9</ele>
        <time>2021-10-16T07:33:35Z</time>
      </trkpt>
      <trkpt lat="49.40828" lon="1.07087">
        <ele>33.9</ele>
        <time>2021-10-16T07:33:37Z</time>
      </trkpt>
      <trkpt lat="49.40831" lon="1.07089">
        <ele>33.8</ele>
        <time>2021-10-16T07:33:38Z</time>
      </trkpt>
      <trkpt lat="49.40834" lon="1.07091">
        <ele>33.8</ele>
        <time>2021-10-16T07:33:39Z</time>
      </trkpt>
      <trkpt lat="49.40837" lon="1.07093">
        <ele>33.8</ele>
        <time>2021-10-16T07:33:40Z</time>
      </trkpt>
      <trkpt lat="49.40839" lon="1.07096">
        <ele>33.8</ele>
        <time>2021-10-16T07:33:41Z</time>
      </trkpt>
      <trkpt lat="49.40842" lon="1.07099">
        <ele>33.8</ele>
        <time>2021-10-16T07:33:42Z</time>
      </trkpt>
      <trkpt lat="49.40846" lon="1.07102">
        <ele>33.8</ele>
        <time>2021-10-16T07:33:44Z</time>
      </trkpt>
      <trkpt lat="49.40849" lon="1.07104">
        <ele>33.8</ele>
        <time>2021-10-16T07:33:45Z</time>
      </trkpt>
      <trkpt lat="49.40852" lon="1.07106">
        <ele>33.7</ele>
        <time>2021-10-16T07:33:46Z</time>
      </trkpt>
      <trkpt lat="49.40855" lon="1.07108">
        <ele>33.7</ele>
        <time>2021-10-16T07:33:47Z</time>
      </trkpt>
      <trkpt lat="49.40858" lon="1.07111">
        <ele>33.7</ele>
        <time>2021-10-16T07:33:48Z</time>
      </trkpt>
      <trkpt lat="49.40861" lon="1.07113">
        <ele>33.7</ele>
        <time>2021-10-16T07:33:49Z</time>
      </trkpt>
      <trkpt lat="49.40863" lon="1.07116">
        <ele>33.7</ele>
        <time>2021-10-16T07:33:50Z</time>
      </trkpt>
      <trkpt lat="49.40866" lon="1.07119">
        <ele>33.7</ele>
        <time>2021-10-16T07:33:51Z</time>
      </trkpt>
      <trkpt lat="49.40869" lon="1.07122">
        <ele>33.7</ele>
        <time>2021-10-16T07:33:52Z</time>
      </trkpt>
      <trkpt lat="49.40873" lon="1.07126">
        <ele>33.7</ele>
        <time>2021-10-16T07:33:54Z</time>
      </trkpt>
      <trkpt lat="49.40876" lon="1.07129">
        <ele>33.7</ele>
        <time>2021-10-16T07:33:55Z</time>
      </trkpt>
      <trkpt lat="49.4088" lon="1.07132">
        <ele>33.6</ele>
        <time>2021-10-16T07:33:56Z</time>
      </trkpt>
      <trkpt lat="49.40882" lon="1.07134">
        <ele>33.6</ele>
        <time>2021-10-16T07:33:57Z</time>
      </trkpt>
      <trkpt lat="49.40885" lon="1.07137">
        <ele>33.6</ele>
        <time>2021-10-16T07:33:58Z</time>
      </trkpt>
      <trkpt lat="49.40889" lon="1.07141">
        <ele>33.6</ele>
        <time>2021-10-16T07:34:00Z</time>
      </trkpt>
      <trkpt lat="49.40894" lon="1.07143">
        <ele>33.6</ele>
        <time>2021-10-16T07:34:02Z</time>
      </trkpt>
      <trkpt lat="49.40897" lon="1.07144">
        <ele>33.6</ele>
        <time>2021-10-16T07:34:03Z</time>
      </trkpt>
      <trkpt lat="49.40902" lon="1.07144">
        <ele>33.7</ele>
        <time>2021-10-16T07:34:05Z</time>
      </trkpt>
      <trkpt lat="49.40904" lon="1.07145">
        <ele>33.7</ele>
        <time>2021-10-16T07:34:06Z</time>
      </trkpt>
      <trkpt lat="49.40905" lon="1.07145">
        <ele>33.7</ele>
        <time>2021-10-16T07:34:07Z</time>
      </trkpt>
      <trkpt lat="49.40909" lon="1.07147">
        <ele>33.7</ele>
        <time>2021-10-16T07:34:08Z</time>
      </trkpt>
      <trkpt lat="49.4091" lon="1.07147">
        <ele>33.8</ele>
        <time>2021-10-16T07:34:09Z</time>
      </trkpt>
      <trkpt lat="49.40912" lon="1.07149">
        <ele>33.8</ele>
        <time>2021-10-16T07:34:10Z</time>
      </trkpt>
      <trkpt lat="49.40915" lon="1.07149">
        <ele>33.8</ele>
        <time>2021-10-16T07:34:11Z</time>
      </trkpt>
      <trkpt lat="49.4092" lon="1.07153">
        <ele>33.8</ele>
        <time>2021-10-16T07:34:13Z</time>
      </trkpt>
      <trkpt lat="49.40925" lon="1.07153">
        <ele>33.8</ele>
        <time>2021-10-16T07:34:14Z</time>
      </trkpt>
      <trkpt lat="49.4093" lon="1.07155">
        <ele>33.9</ele>
        <time>2021-10-16T07:34:15Z</time>
      </trkpt>
      <trkpt lat="49.40934" lon="1.07156">
        <ele>33.9</ele>
        <time>2021-10-16T07:34:16Z</time>
      </trkpt>
      <trkpt lat="49.40937" lon="1.07157">
        <ele>33.9</ele>
        <time>2021-10-16T07:34:17Z</time>
      </trkpt>
      <trkpt lat="49.40942" lon="1.07158">
        <ele>33.9</ele>
        <time>2021-10-16T07:34:19Z</time>
      </trkpt>
      <trkpt lat="49.40943" lon="1.07158">
        <ele>33.9</ele>
        <time>2021-10-16T07:34:20Z</time>
      </trkpt>
      <trkpt lat="49.40945" lon="1.07158">
        <ele>33.9</ele>
        <time>2021-10-16T07:34:21Z</time>
      </trkpt>
      <trkpt lat="49.40948" lon="1.07159">
        <ele>33.8</ele>
        <time>2021-10-16T07:34:22Z</time>
      </trkpt>
      <trkpt lat="49.40952" lon="1.07161">
        <ele>33.8</ele>
        <time>2021-10-16T07:34:23Z</time>
      </trkpt>
      <trkpt lat="49.40957" lon="1.07162">
        <ele>33.8</ele>
        <time>2021-10-16T07:34:24Z</time>
      </trkpt>
      <trkpt lat="49.40961" lon="1.07163">
        <ele>33.7</ele>
        <time>2021-10-16T07:34:25Z</time>
      </trkpt>
      <trkpt lat="49.40968" lon="1.07165">
        <ele>33.7</ele>
        <time>2021-10-16T07:34:27Z</time>
      </trkpt>
      <trkpt lat="49.40972" lon="1.07166">
        <ele>33.7</ele>
        <time>2021-10-16T07:34:28Z</time>
      </trkpt>
      <trkpt lat="49.40976" lon="1.07165">
        <ele>33.7</ele>
        <time>2021-10-16T07:34:29Z</time>
      </trkpt>
      <trkpt lat="49.4098" lon="1.07164">
        <ele>33.7</ele>
        <time>2021-10-16T07:34:31Z</time>
      </trkpt>
      <trkpt lat="49.40984" lon="1.07164">
        <ele>33.6</ele>
        <time>2021-10-16T07:34:32Z</time>
      </trkpt>
      <trkpt lat="49.40987" lon="1.07163">
        <ele>33.6</ele>
        <time>2021-10-16T07:34:33Z</time>
      </trkpt>
      <trkpt lat="49.40991" lon="1.07162">
        <ele>33.6</ele>
        <time>2021-10-16T07:34:34Z</time>
      </trkpt>
      <trkpt lat="49.40996" lon="1.07162">
        <ele>33.6</ele>
        <time>2021-10-16T07:34:36Z</time>
      </trkpt>
      <trkpt lat="49.40999" lon="1.07162">
        <ele>33.6</ele>
        <time>2021-10-16T07:34:37Z</time>
      </trkpt>
      <trkpt lat="49.41003" lon="1.0716">
        <ele>33.6</ele>
        <time>2021-10-16T07:34:38Z</time>
      </trkpt>
      <trkpt lat="49.41008" lon="1.07157">
        <ele>33.8</ele>
        <time>2021-10-16T07:34:40Z</time>
      </trkpt>
      <trkpt lat="49.4101" lon="1.07155">
        <ele>33.8</ele>
        <time>2021-10-16T07:34:41Z</time>
      </trkpt>
      <trkpt lat="49.41013" lon="1.07151">
        <ele>33.9</ele>
        <time>2021-10-16T07:34:42Z</time>
      </trkpt>
      <trkpt lat="49.41014" lon="1.0715">
        <ele>33.9</ele>
        <time>2021-10-16T07:34:43Z</time>
      </trkpt>
      <trkpt lat="49.41016" lon="1.07146">
        <ele>33.9</ele>
        <time>2021-10-16T07:34:45Z</time>
      </trkpt>
      <trkpt lat="49.41017" lon="1.07142">
        <ele>33.9</ele>
        <time>2021-10-16T07:34:46Z</time>
      </trkpt>
      <trkpt lat="49.41019" lon="1.07137">
        <ele>34.1</ele>
        <time>2021-10-16T07:34:47Z</time>
      </trkpt>
      <trkpt lat="49.4102" lon="1.07135">
        <ele>34.1</ele>
        <time>2021-10-16T07:34:48Z</time>
      </trkpt>
      <trkpt lat="49.41022" lon="1.0713">
        <ele>34.1</ele>
        <time>2021-10-16T07:34:49Z</time>
      </trkpt>
      <trkpt lat="49.41024" lon="1.07126">
        <ele>34.1</ele>
        <time>2021-10-16T07:34:50Z</time>
      </trkpt>
      <trkpt lat="49.41028" lon="1.07122">
        <ele>33.9</ele>
        <time>2021-10-16T07:34:52Z</time>
      </trkpt>
      <trkpt lat="49.41031" lon="1.07122">
        <ele>33.9</ele>
        <time>2021-10-16T07:34:53Z</time>
      </trkpt>
      <trkpt lat="49.41034" lon="1.07122">
        <ele>33.9</ele>
        <time>2021-10-16T07:34:54Z</time>
      </trkpt>
      <trkpt lat="49.41038" lon="1.07124">
        <ele>33.9</ele>
        <time>2021-10-16T07:34:56Z</time>
      </trkpt>
      <trkpt lat="49.41041" lon="1.07126">
        <ele>33.8</ele>
        <time>2021-10-16T07:34:57Z</time>
      </trkpt>
      <trkpt lat="49.41044" lon="1.07128">
        <ele>33.8</ele>
        <time>2021-10-16T07:34:58Z</time>
      </trkpt>
      <trkpt lat="49.41048" lon="1.07131">
        <ele>33.8</ele>
        <time>2021-10-16T07:35:00Z</time>
      </trkpt>
      <trkpt lat="49.41051" lon="1.07132">
        <ele>33.7</ele>
        <time>2021-10-16T07:35:01Z</time>
      </trkpt>
      <trkpt lat="49.41054" lon="1.07135">
        <ele>33.7</ele>
        <time>2021-10-16T07:35:02Z</time>
      </trkpt>
      <trkpt lat="49.41057" lon="1.07137">
        <ele>33.7</ele>
        <time>2021-10-16T07:35:03Z</time>
      </trkpt>
      <trkpt lat="49.41061" lon="1.0714">
        <ele>33.7</ele>
        <time>2021-10-16T07:35:04Z</time>
      </trkpt>
      <trkpt lat="49.41064" lon="1.07143">
        <ele>33.7</ele>
        <time>2021-10-16T07:35:06Z</time>
      </trkpt>
      <trkpt lat="49.41066" lon="1.07146">
        <ele>33.6</ele>
        <time>2021-10-16T07:35:07Z</time>
      </trkpt>
      <trkpt lat="49.41069" lon="1.07149">
        <ele>33.6</ele>
        <time>2021-10-16T07:35:08Z</time>
      </trkpt>
      <trkpt lat="49.41073" lon="1.07152">
        <ele>33.6</ele>
        <time>2021-10-16T07:35:09Z</time>
      </trkpt>
      <trkpt lat="49.41077" lon="1.07155">
        <ele>33.6</ele>
        <time>2021-10-16T07:35:11Z</time>
      </trkpt>
      <trkpt lat="49.4108" lon="1.07157">
        <ele>33.6</ele>
        <time>2021-10-16T07:35:12Z</time>
      </trkpt>
      <trkpt lat="49.41083" lon="1.0716">
        <ele>33.6</ele>
        <time>2021-10-16T07:35:13Z</time>
      </trkpt>
      <trkpt lat="49.41086" lon="1.07163">
        <ele>33.6</ele>
        <time>2021-10-16T07:35:14Z</time>
      </trkpt>
      <trkpt lat="49.41089" lon="1.07165">
        <ele>33.6</ele>
        <time>2021-10-16T07:35:15Z</time>
      </trkpt>
      <trkpt lat="49.41093" lon="1.07168">
        <ele>33.5</ele>
        <time>2021-10-16T07:35:17Z</time>
      </trkpt>
      <trkpt lat="49.41096" lon="1.07171">
        <ele>33.5</ele>
        <time>2021-10-16T07:35:18Z</time>
      </trkpt>
      <trkpt lat="49.41098" lon="1.07173">
        <ele>33.5</ele>
        <time>2021-10-16T07:35:19Z</time>
      </trkpt>
      <trkpt lat="49.41101" lon="1.07176">
        <ele>33.5</ele>
        <time>2021-10-16T07:35:20Z</time>
      </trkpt>
      <trkpt lat="49.41104" lon="1.07178">
        <ele>33.5</ele>
        <time>2021-10-16T07:35:21Z</time>
      </trkpt>
      <trkpt lat="49.41107" lon="1.0718">
        <ele>33.5</ele>
        <time>2021-10-16T07:35:22Z</time>
      </trkpt>
      <trkpt lat="49.4111" lon="1.07182">
        <ele>33.5</ele>
        <time>2021-10-16T07:35:23Z</time>
      </trkpt>
      <trkpt lat="49.41115" lon="1.07184">
        <ele>33.5</ele>
        <time>2021-10-16T07:35:25Z</time>
      </trkpt>
      <trkpt lat="49.41118" lon="1.07186">
        <ele>33.5</ele>
        <time>2021-10-16T07:35:26Z</time>
      </trkpt>
      <trkpt lat="49.41122" lon="1.07189">
        <ele>33.5</ele>
        <time>2021-10-16T07:35:27Z</time>
      </trkpt>
      <trkpt lat="49.41125" lon="1.0719">
        <ele>33.5</ele>
        <time>2021-10-16T07:35:28Z</time>
      </trkpt>
      <trkpt lat="49.41128" lon="1.07192">
        <ele>33.5</ele>
        <time>2021-10-16T07:35:29Z</time>
      </trkpt>
      <trkpt lat="49.41131" lon="1.07194">
        <ele>33.5</ele>
        <time>2021-10-16T07:35:31Z</time>
      </trkpt>
      <trkpt lat="49.41135" lon="1.07196">
        <ele>33.5</ele>
        <time>2021-10-16T07:35:32Z</time>
      </trkpt>
      <trkpt lat="49.41138" lon="1.07198">
        <ele>33.5</ele>
        <time>2021-10-16T07:35:33Z</time>
      </trkpt>
      <trkpt lat="49.41141" lon="1.072">
        <ele>33.5</ele>
        <time>2021-10-16T07:35:34Z</time>
      </trkpt>
      <trkpt lat="49.41144" lon="1.07202">
        <ele>33.5</ele>
        <time>2021-10-16T07:35:35Z</time>
      </trkpt>
      <trkpt lat="49.41147" lon="1.07204">
        <ele>33.6</ele>
        <time>2021-10-16T07:35:36Z</time>
      </trkpt>
      <trkpt lat="49.4115" lon="1.07206">
        <ele>33.6</ele>
        <time>2021-10-16T07:35:37Z</time>
      </trkpt>
      <trkpt lat="49.41152" lon="1.07208">
        <ele>33.6</ele>
        <time>2021-10-16T07:35:38Z</time>
      </trkpt>
      <trkpt lat="49.41155" lon="1.0721">
        <ele>33.6</ele>
        <time>2021-10-16T07:35:39Z</time>
      </trkpt>
      <trkpt lat="49.41158" lon="1.07211">
        <ele>33.6</ele>
        <time>2021-10-16T07:35:40Z</time>
      </trkpt>
      <trkpt lat="49.41163" lon="1.07209">
        <ele>33.6</ele>
        <time>2021-10-16T07:35:42Z</time>
      </trkpt>
      <trkpt lat="49.41166" lon="1.07207">
        <ele>33.6</ele>
        <time>2021-10-16T07:35:43Z</time>
      </trkpt>
      <trkpt lat="49.41169" lon="1.07203">
        <ele>33.6</ele>
        <time>2021-10-16T07:35:45Z</time>
      </trkpt>
      <trkpt lat="49.41172" lon="1.07201">
        <ele>33.6</ele>
        <time>2021-10-16T07:35:46Z</time>
      </trkpt>
      <trkpt lat="49.41175" lon="1.07199">
        <ele>33.6</ele>
        <time>2021-10-16T07:35:47Z</time>
      </trkpt>
      <trkpt lat="49.41178" lon="1.07196">
        <ele>33.6</ele>
        <time>2021-10-16T07:35:48Z</time>
      </trkpt>
      <trkpt lat="49.41181" lon="1.07194">
        <ele>33.6</ele>
        <time>2021-10-16T07:35:49Z</time>
      </trkpt>
      <trkpt lat="49.41184" lon="1.07191">
        <ele>33.5</ele>
        <time>2021-10-16T07:35:50Z</time>
      </trkpt>
      <trkpt lat="49.41189" lon="1.07188">
        <ele>33.5</ele>
        <time>2021-10-16T07:35:52Z</time>
      </trkpt>
      <trkpt lat="49.41192" lon="1.07187">
        <ele>33.5</ele>
        <time>2021-10-16T07:35:53Z</time>
      </trkpt>
      <trkpt lat="49.41196" lon="1.07185">
        <ele>33.5</ele>
        <time>2021-10-16T07:35:54Z</time>
      </trkpt>
      <trkpt lat="49.412" lon="1.07182">
        <ele>33.4</ele>
        <time>2021-10-16T07:35:55Z</time>
      </trkpt>
      <trkpt lat="49.41204" lon="1.07179">
        <ele>33.4</ele>
        <time>2021-10-16T07:35:57Z</time>
      </trkpt>
      <trkpt lat="49.41207" lon="1.07178">
        <ele>33.4</ele>
        <time>2021-10-16T07:35:58Z</time>
      </trkpt>
      <trkpt lat="49.4121" lon="1.07176">
        <ele>33.3</ele>
        <time>2021-10-16T07:35:59Z</time>
      </trkpt>
      <trkpt lat="49.41213" lon="1.07175">
        <ele>33.3</ele>
        <time>2021-10-16T07:36:00Z</time>
      </trkpt>
      <trkpt lat="49.41216" lon="1.07175">
        <ele>33.3</ele>
        <time>2021-10-16T07:36:01Z</time>
      </trkpt>
      <trkpt lat="49.41219" lon="1.07175">
        <ele>33.3</ele>
        <time>2021-10-16T07:36:02Z</time>
      </trkpt>
      <trkpt lat="49.41223" lon="1.07176">
        <ele>33.3</ele>
        <time>2021-10-16T07:36:04Z</time>
      </trkpt>
      <trkpt lat="49.41226" lon="1.07177">
        <ele>33.3</ele>
        <time>2021-10-16T07:36:05Z</time>
      </trkpt>
      <trkpt lat="49.41229" lon="1.07177">
        <ele>33.3</ele>
        <time>2021-10-16T07:36:06Z</time>
      </trkpt>
      <trkpt lat="49.41233" lon="1.07181">
        <ele>33.3</ele>
        <time>2021-10-16T07:36:08Z</time>
      </trkpt>
      <trkpt lat="49.41235" lon="1.07185">
        <ele>33.3</ele>
        <time>2021-10-16T07:36:09Z</time>
      </trkpt>
      <trkpt lat="49.41237" lon="1.07189">
        <ele>33.4</ele>
        <time>2021-10-16T07:36:10Z</time>
      </trkpt>
      <trkpt lat="49.41238" lon="1.07193">
        <ele>33.4</ele>
        <time>2021-10-16T07:36:11Z</time>
      </trkpt>
      <trkpt lat="49.41239" lon="1.07196">
        <ele>33.4</ele>
        <time>2021-10-16T07:36:12Z</time>
      </trkpt>
      <trkpt lat="49.41241" lon="1.07202">
        <ele>33.4</ele>
        <time>2021-10-16T07:36:14Z</time>
      </trkpt>
      <trkpt lat="49.41243" lon="1.07206">
        <ele>33.4</ele>
        <time>2021-10-16T07:36:15Z</time>
      </trkpt>
      <trkpt lat="49.41244" lon="1.0721">
        <ele>33.4</ele>
        <time>2021-10-16T07:36:16Z</time>
      </trkpt>
      <trkpt lat="49.41246" lon="1.07214">
        <ele>33.4</ele>
        <time>2021-10-16T07:36:17Z</time>
      </trkpt>
      <trkpt lat="49.41249" lon="1.07219">
        <ele>33.4</ele>
        <time>2021-10-16T07:36:19Z</time>
      </trkpt>
      <trkpt lat="49.4125" lon="1.07223">
        <ele>33.4</ele>
        <time>2021-10-16T07:36:20Z</time>
      </trkpt>
      <trkpt lat="49.41252" lon="1.07227">
        <ele>33.4</ele>
        <time>2021-10-16T07:36:21Z</time>
      </trkpt>
      <trkpt lat="49.41254" lon="1.07232">
        <ele>33.4</ele>
        <time>2021-10-16T07:36:22Z</time>
      </trkpt>
      <trkpt lat="49.41255" lon="1.07236">
        <ele>33.4</ele>
        <time>2021-10-16T07:36:23Z</time>
      </trkpt>
      <trkpt lat="49.41257" lon="1.0724">
        <ele>33.5</ele>
        <time>2021-10-16T07:36:24Z</time>
      </trkpt>
      <trkpt lat="49.41259" lon="1.07246">
        <ele>33.5</ele>
        <time>2021-10-16T07:36:26Z</time>
      </trkpt>
      <trkpt lat="49.41261" lon="1.07251">
        <ele>33.5</ele>
        <time>2021-10-16T07:36:27Z</time>
      </trkpt>
      <trkpt lat="49.41262" lon="1.07256">
        <ele>33.5</ele>
        <time>2021-10-16T07:36:28Z</time>
      </trkpt>
      <trkpt lat="49.41263" lon="1.07261">
        <ele>33.4</ele>
        <time>2021-10-16T07:36:29Z</time>
      </trkpt>
      <trkpt lat="49.41264" lon="1.07268">
        <ele>33.4</ele>
        <time>2021-10-16T07:36:31Z</time>
      </trkpt>
      <trkpt lat="49.41266" lon="1.07274">
        <ele>33.4</ele>
        <time>2021-10-16T07:36:32Z</time>
      </trkpt>
      <trkpt lat="49.41266" lon="1.07279">
        <ele>33.3</ele>
        <time>2021-10-16T07:36:33Z</time>
      </trkpt>
      <trkpt lat="49.41268" lon="1.07283">
        <ele>33.3</ele>
        <time>2021-10-16T07:36:34Z</time>
      </trkpt>
      <trkpt lat="49.4127" lon="1.07286">
        <ele>33.3</ele>
        <time>2021-10-16T07:36:35Z</time>
      </trkpt>
      <trkpt lat="49.41274" lon="1.07291">
        <ele>33.2</ele>
        <time>2021-10-16T07:36:37Z</time>
      </trkpt>
      <trkpt lat="49.41277" lon="1.07294">
        <ele>33.2</ele>
        <time>2021-10-16T07:36:38Z</time>
      </trkpt>
      <trkpt lat="49.4128" lon="1.07297">
        <ele>33.1</ele>
        <time>2021-10-16T07:36:39Z</time>
      </trkpt>
      <trkpt lat="49.41283" lon="1.073">
        <ele>33.1</ele>
        <time>2021-10-16T07:36:40Z</time>
      </trkpt>
      <trkpt lat="49.41285" lon="1.07303">
        <ele>33</ele>
        <time>2021-10-16T07:36:41Z</time>
      </trkpt>
      <trkpt lat="49.41289" lon="1.07307">
        <ele>33</ele>
        <time>2021-10-16T07:36:43Z</time>
      </trkpt>
      <trkpt lat="49.41292" lon="1.0731">
        <ele>32.9</ele>
        <time>2021-10-16T07:36:44Z</time>
      </trkpt>
      <trkpt lat="49.41295" lon="1.07311">
        <ele>32.9</ele>
        <time>2021-10-16T07:36:45Z</time>
      </trkpt>
      <trkpt lat="49.41297" lon="1.07314">
        <ele>32.8</ele>
        <time>2021-10-16T07:36:46Z</time>
      </trkpt>
      <trkpt lat="49.41302" lon="1.07316">
        <ele>32.8</ele>
        <time>2021-10-16T07:36:48Z</time>
      </trkpt>
      <trkpt lat="49.41306" lon="1.07318">
        <ele>32.7</ele>
        <time>2021-10-16T07:36:49Z</time>
      </trkpt>
      <trkpt lat="49.4131" lon="1.0732">
        <ele>32.7</ele>
        <time>2021-10-16T07:36:50Z</time>
      </trkpt>
      <trkpt lat="49.41314" lon="1.07322">
        <ele>32.6</ele>
        <time>2021-10-16T07:36:51Z</time>
      </trkpt>
      <trkpt lat="49.41318" lon="1.07324">
        <ele>32.5</ele>
        <time>2021-10-16T07:36:53Z</time>
      </trkpt>
      <trkpt lat="49.41321" lon="1.07326">
        <ele>32.4</ele>
        <time>2021-10-16T07:36:54Z</time>
      </trkpt>
      <trkpt lat="49.41325" lon="1.0733">
        <ele>32.4</ele>
        <time>2021-10-16T07:36:55Z</time>
      </trkpt>
      <trkpt lat="49.41328" lon="1.07333">
        <ele>32.3</ele>
        <time>2021-10-16T07:36:56Z</time>
      </trkpt>
      <trkpt lat="49.41333" lon="1.07336">
        <ele>32.3</ele>
        <time>2021-10-16T07:36:58Z</time>
      </trkpt>
      <trkpt lat="49.41336" lon="1.0734">
        <ele>32.2</ele>
        <time>2021-10-16T07:36:59Z</time>
      </trkpt>
      <trkpt lat="49.4134" lon="1.07344">
        <ele>32.2</ele>
        <time>2021-10-16T07:37:00Z</time>
      </trkpt>
      <trkpt lat="49.41343" lon="1.07347">
        <ele>32.2</ele>
        <time>2021-10-16T07:37:01Z</time>
      </trkpt>
      <trkpt lat="49.41346" lon="1.07351">
        <ele>32.1</ele>
        <time>2021-10-16T07:37:02Z</time>
      </trkpt>
      <trkpt lat="49.41349" lon="1.07354">
        <ele>32.1</ele>
        <time>2021-10-16T07:37:03Z</time>
      </trkpt>
      <trkpt lat="49.41353" lon="1.07358">
        <ele>32</ele>
        <time>2021-10-16T07:37:05Z</time>
      </trkpt>
      <trkpt lat="49.41355" lon="1.0736">
        <ele>32</ele>
        <time>2021-10-16T07:37:06Z</time>
      </trkpt>
      <trkpt lat="49.41358" lon="1.07362">
        <ele>31.9</ele>
        <time>2021-10-16T07:37:07Z</time>
      </trkpt>
      <trkpt lat="49.41362" lon="1.07365">
        <ele>31.9</ele>
        <time>2021-10-16T07:37:08Z</time>
      </trkpt>
      <trkpt lat="49.41364" lon="1.07367">
        <ele>31.9</ele>
        <time>2021-10-16T07:37:09Z</time>
      </trkpt>
      <trkpt lat="49.41368" lon="1.0737">
        <ele>31.8</ele>
        <time>2021-10-16T07:37:11Z</time>
      </trkpt>
      <trkpt lat="49.41371" lon="1.07371">
        <ele>31.8</ele>
        <time>2021-10-16T07:37:12Z</time>
      </trkpt>
      <trkpt lat="49.41374" lon="1.07374">
        <ele>31.8</ele>
        <time>2021-10-16T07:37:13Z</time>
      </trkpt>
      <trkpt lat="49.41377" lon="1.07376">
        <ele>31.7</ele>
        <time>2021-10-16T07:37:14Z</time>
      </trkpt>
      <trkpt lat="49.4138" lon="1.07379">
        <ele>31.7</ele>
        <time>2021-10-16T07:37:15Z</time>
      </trkpt>
      <trkpt lat="49.41383" lon="1.07381">
        <ele>31.7</ele>
        <time>2021-10-16T07:37:17Z</time>
      </trkpt>
      <trkpt lat="49.41386" lon="1.07383">
        <ele>31.7</ele>
        <time>2021-10-16T07:37:18Z</time>
      </trkpt>
      <trkpt lat="49.41388" lon="1.07385">
        <ele>31.6</ele>
        <time>2021-10-16T07:37:19Z</time>
      </trkpt>
      <trkpt lat="49.41391" lon="1.07387">
        <ele>31.6</ele>
        <time>2021-10-16T07:37:20Z</time>
      </trkpt>
      <trkpt lat="49.41394" lon="1.0739">
        <ele>31.6</ele>
        <time>2021-10-16T07:37:21Z</time>
      </trkpt>
      <trkpt lat="49.41397" lon="1.07392">
        <ele>31.5</ele>
        <time>2021-10-16T07:37:22Z</time>
      </trkpt>
      <trkpt lat="49.414" lon="1.07395">
        <ele>31.5</ele>
        <time>2021-10-16T07:37:23Z</time>
      </trkpt>
      <trkpt lat="49.41404" lon="1.07397">
        <ele>31.4</ele>
        <time>2021-10-16T07:37:25Z</time>
      </trkpt>
      <trkpt lat="49.41408" lon="1.07399">
        <ele>31.4</ele>
        <time>2021-10-16T07:37:26Z</time>
      </trkpt>
      <trkpt lat="49.41412" lon="1.074">
        <ele>31.3</ele>
        <time>2021-10-16T07:37:28Z</time>
      </trkpt>
      <trkpt lat="49.41416" lon="1.07402">
        <ele>31.3</ele>
        <time>2021-10-16T07:37:29Z</time>
      </trkpt>
      <trkpt lat="49.41418" lon="1.07403">
        <ele>31.2</ele>
        <time>2021-10-16T07:37:30Z</time>
      </trkpt>
      <trkpt lat="49.41423" lon="1.07406">
        <ele>31.2</ele>
        <time>2021-10-16T07:37:32Z</time>
      </trkpt>
      <trkpt lat="49.41425" lon="1.07407">
        <ele>31.2</ele>
        <time>2021-10-16T07:37:33Z</time>
      </trkpt>
      <trkpt lat="49.41428" lon="1.07408">
        <ele>31.1</ele>
        <time>2021-10-16T07:37:35Z</time>
      </trkpt>
      <trkpt lat="49.41431" lon="1.07411">
        <ele>31.1</ele>
        <time>2021-10-16T07:37:36Z</time>
      </trkpt>
      <trkpt lat="49.41432" lon="1.07412">
        <ele>31.1</ele>
        <time>2021-10-16T07:37:37Z</time>
      </trkpt>
      <trkpt lat="49.41435" lon="1.07414">
        <ele>31</ele>
        <time>2021-10-16T07:37:38Z</time>
      </trkpt>
      <trkpt lat="49.41437" lon="1.07417">
        <ele>31</ele>
        <time>2021-10-16T07:37:39Z</time>
      </trkpt>
      <trkpt lat="49.4144" lon="1.07419">
        <ele>31</ele>
        <time>2021-10-16T07:37:41Z</time>
      </trkpt>
      <trkpt lat="49.41443" lon="1.07422">
        <ele>30.9</ele>
        <time>2021-10-16T07:37:42Z</time>
      </trkpt>
      <trkpt lat="49.41447" lon="1.07425">
        <ele>30.9</ele>
        <time>2021-10-16T07:37:43Z</time>
      </trkpt>
      <trkpt lat="49.41451" lon="1.07427">
        <ele>30.9</ele>
        <time>2021-10-16T07:37:44Z</time>
      </trkpt>
      <trkpt lat="49.41455" lon="1.07429">
        <ele>30.9</ele>
        <time>2021-10-16T07:37:45Z</time>
      </trkpt>
      <trkpt lat="49.41459" lon="1.07432">
        <ele>30.8</ele>
        <time>2021-10-16T07:37:46Z</time>
      </trkpt>
      <trkpt lat="49.41464" lon="1.07435">
        <ele>30.8</ele>
        <time>2021-10-16T07:37:47Z</time>
      </trkpt>
      <trkpt lat="49.41468" lon="1.07439">
        <ele>30.7</ele>
        <time>2021-10-16T07:37:48Z</time>
      </trkpt>
      <trkpt lat="49.41472" lon="1.07441">
        <ele>30.6</ele>
        <time>2021-10-16T07:37:49Z</time>
      </trkpt>
      <trkpt lat="49.41476" lon="1.07445">
        <ele>30.6</ele>
        <time>2021-10-16T07:37:50Z</time>
      </trkpt>
      <trkpt lat="49.41481" lon="1.07448">
        <ele>30.6</ele>
        <time>2021-10-16T07:37:52Z</time>
      </trkpt>
      <trkpt lat="49.41484" lon="1.07451">
        <ele>30.5</ele>
        <time>2021-10-16T07:37:53Z</time>
      </trkpt>
      <trkpt lat="49.41488" lon="1.07454">
        <ele>30.5</ele>
        <time>2021-10-16T07:37:54Z</time>
      </trkpt>
      <trkpt lat="49.41492" lon="1.07457">
        <ele>30.5</ele>
        <time>2021-10-16T07:37:55Z</time>
      </trkpt>
      <trkpt lat="49.41494" lon="1.07459">
        <ele>30.5</ele>
        <time>2021-10-16T07:37:56Z</time>
      </trkpt>
      <trkpt lat="49.41496" lon="1.07461">
        <ele>30.4</ele>
        <time>2021-10-16T07:37:58Z</time>
      </trkpt>
      <trkpt lat="49.415" lon="1.07462">
        <ele>30.4</ele>
        <time>2021-10-16T07:37:59Z</time>
      </trkpt>
      <trkpt lat="49.41501" lon="1.07463">
        <ele>30.4</ele>
        <time>2021-10-16T07:38:00Z</time>
      </trkpt>
      <trkpt lat="49.41504" lon="1.07465">
        <ele>30.4</ele>
        <time>2021-10-16T07:38:01Z</time>
      </trkpt>
      <trkpt lat="49.41507" lon="1.07467">
        <ele>30.3</ele>
        <time>2021-10-16T07:38:02Z</time>
      </trkpt>
      <trkpt lat="49.41508" lon="1.07468">
        <ele>30.3</ele>
        <time>2021-10-16T07:38:03Z</time>
      </trkpt>
      <trkpt lat="49.41511" lon="1.0747">
        <ele>30.3</ele>
        <time>2021-10-16T07:38:04Z</time>
      </trkpt>
      <trkpt lat="49.41514" lon="1.07471">
        <ele>30.3</ele>
        <time>2021-10-16T07:38:06Z</time>
      </trkpt>
      <trkpt lat="49.41517" lon="1.07473">
        <ele>30.2</ele>
        <time>2021-10-16T07:38:07Z</time>
      </trkpt>
      <trkpt lat="49.4152" lon="1.07476">
        <ele>30.2</ele>
        <time>2021-10-16T07:38:08Z</time>
      </trkpt>
      <trkpt lat="49.41523" lon="1.07479">
        <ele>30.2</ele>
        <time>2021-10-16T07:38:09Z</time>
      </trkpt>
      <trkpt lat="49.41526" lon="1.0748">
        <ele>30.1</ele>
        <time>2021-10-16T07:38:10Z</time>
      </trkpt>
      <trkpt lat="49.41529" lon="1.07482">
        <ele>30.1</ele>
        <time>2021-10-16T07:38:11Z</time>
      </trkpt>
      <trkpt lat="49.41531" lon="1.07483">
        <ele>30</ele>
        <time>2021-10-16T07:38:12Z</time>
      </trkpt>
      <trkpt lat="49.41535" lon="1.07485">
        <ele>30</ele>
        <time>2021-10-16T07:38:13Z</time>
      </trkpt>
      <trkpt lat="49.4154" lon="1.0749">
        <ele>29.9</ele>
        <time>2021-10-16T07:38:15Z</time>
      </trkpt>
      <trkpt lat="49.41545" lon="1.07492">
        <ele>29.9</ele>
        <time>2021-10-16T07:38:16Z</time>
      </trkpt>
      <trkpt lat="49.4155" lon="1.07495">
        <ele>29.8</ele>
        <time>2021-10-16T07:38:17Z</time>
      </trkpt>
      <trkpt lat="49.41554" lon="1.07498">
        <ele>29.8</ele>
        <time>2021-10-16T07:38:18Z</time>
      </trkpt>
      <trkpt lat="49.41558" lon="1.075">
        <ele>29.7</ele>
        <time>2021-10-16T07:38:20Z</time>
      </trkpt>
      <trkpt lat="49.41561" lon="1.07503">
        <ele>29.7</ele>
        <time>2021-10-16T07:38:21Z</time>
      </trkpt>
      <trkpt lat="49.41565" lon="1.07506">
        <ele>29.6</ele>
        <time>2021-10-16T07:38:22Z</time>
      </trkpt>
      <trkpt lat="49.41569" lon="1.0751">
        <ele>29.6</ele>
        <time>2021-10-16T07:38:24Z</time>
      </trkpt>
      <trkpt lat="49.41572" lon="1.07512">
        <ele>29.5</ele>
        <time>2021-10-16T07:38:25Z</time>
      </trkpt>
      <trkpt lat="49.41575" lon="1.07515">
        <ele>29.5</ele>
        <time>2021-10-16T07:38:26Z</time>
      </trkpt>
      <trkpt lat="49.41577" lon="1.07517">
        <ele>29.5</ele>
        <time>2021-10-16T07:38:27Z</time>
      </trkpt>
      <trkpt lat="49.4158" lon="1.07519">
        <ele>29.4</ele>
        <time>2021-10-16T07:38:28Z</time>
      </trkpt>
      <trkpt lat="49.41583" lon="1.07522">
        <ele>29.4</ele>
        <time>2021-10-16T07:38:29Z</time>
      </trkpt>
      <trkpt lat="49.41587" lon="1.07526">
        <ele>29.4</ele>
        <time>2021-10-16T07:38:31Z</time>
      </trkpt>
      <trkpt lat="49.4159" lon="1.07529">
        <ele>29.4</ele>
        <time>2021-10-16T07:38:32Z</time>
      </trkpt>
      <trkpt lat="49.41593" lon="1.07531">
        <ele>29.3</ele>
        <time>2021-10-16T07:38:33Z</time>
      </trkpt>
      <trkpt lat="49.41596" lon="1.07534">
        <ele>29.3</ele>
        <time>2021-10-16T07:38:34Z</time>
      </trkpt>
      <trkpt lat="49.41599" lon="1.07537">
        <ele>29.3</ele>
        <time>2021-10-16T07:38:36Z</time>
      </trkpt>
      <trkpt lat="49.41602" lon="1.07539">
        <ele>29.2</ele>
        <time>2021-10-16T07:38:37Z</time>
      </trkpt>
      <trkpt lat="49.41605" lon="1.07541">
        <ele>29.2</ele>
        <time>2021-10-16T07:38:38Z</time>
      </trkpt>
      <trkpt lat="49.41608" lon="1.07542">
        <ele>29.2</ele>
        <time>2021-10-16T07:38:39Z</time>
      </trkpt>
      <trkpt lat="49.41611" lon="1.07545">
        <ele>29.1</ele>
        <time>2021-10-16T07:38:40Z</time>
      </trkpt>
      <trkpt lat="49.41613" lon="1.07547">
        <ele>29.1</ele>
        <time>2021-10-16T07:38:41Z</time>
      </trkpt>
      <trkpt lat="49.41615" lon="1.07551">
        <ele>29.1</ele>
        <time>2021-10-16T07:38:43Z</time>
      </trkpt>
      <trkpt lat="49.41616" lon="1.07553">
        <ele>29</ele>
        <time>2021-10-16T07:38:44Z</time>
      </trkpt>
      <trkpt lat="49.41618" lon="1.07554">
        <ele>29</ele>
        <time>2021-10-16T07:38:45Z</time>
      </trkpt>
      <trkpt lat="49.41621" lon="1.07555">
        <ele>29</ele>
        <time>2021-10-16T07:38:47Z</time>
      </trkpt>
      <trkpt lat="49.41622" lon="1.07556">
        <ele>29</ele>
        <time>2021-10-16T07:38:48Z</time>
      </trkpt>
      <trkpt lat="49.41625" lon="1.0756">
        <ele>28.9</ele>
        <time>2021-10-16T07:38:49Z</time>
      </trkpt>
      <trkpt lat="49.41626" lon="1.07561">
        <ele>28.9</ele>
        <time>2021-10-16T07:38:50Z</time>
      </trkpt>
      <trkpt lat="49.41628" lon="1.07562">
        <ele>28.9</ele>
        <time>2021-10-16T07:38:51Z</time>
      </trkpt>
      <trkpt lat="49.41631" lon="1.07562">
        <ele>28.8</ele>
        <time>2021-10-16T07:38:53Z</time>
      </trkpt>
      <trkpt lat="49.41634" lon="1.07563">
        <ele>28.8</ele>
        <time>2021-10-16T07:38:54Z</time>
      </trkpt>
      <trkpt lat="49.41635" lon="1.07563">
        <ele>28.8</ele>
        <time>2021-10-16T07:38:55Z</time>
      </trkpt>
      <trkpt lat="49.4164" lon="1.07567">
        <ele>28.7</ele>
        <time>2021-10-16T07:38:56Z</time>
      </trkpt>
      <trkpt lat="49.41644" lon="1.07569">
        <ele>28.6</ele>
        <time>2021-10-16T07:38:57Z</time>
      </trkpt>
      <trkpt lat="49.41651" lon="1.07573">
        <ele>28.5</ele>
        <time>2021-10-16T07:38:59Z</time>
      </trkpt>
      <trkpt lat="49.41656" lon="1.07576">
        <ele>28.4</ele>
        <time>2021-10-16T07:39:00Z</time>
      </trkpt>
      <trkpt lat="49.4166" lon="1.07579">
        <ele>28.4</ele>
        <time>2021-10-16T07:39:01Z</time>
      </trkpt>
      <trkpt lat="49.41665" lon="1.07582">
        <ele>28.3</ele>
        <time>2021-10-16T07:39:03Z</time>
      </trkpt>
      <trkpt lat="49.41669" lon="1.07584">
        <ele>28.2</ele>
        <time>2021-10-16T07:39:04Z</time>
      </trkpt>
      <trkpt lat="49.41672" lon="1.07586">
        <ele>28.2</ele>
        <time>2021-10-16T07:39:05Z</time>
      </trkpt>
      <trkpt lat="49.41675" lon="1.07588">
        <ele>28.1</ele>
        <time>2021-10-16T07:39:06Z</time>
      </trkpt>
      <trkpt lat="49.4168" lon="1.07591">
        <ele>28</ele>
        <time>2021-10-16T07:39:08Z</time>
      </trkpt>
      <trkpt lat="49.41683" lon="1.07594">
        <ele>27.9</ele>
        <time>2021-10-16T07:39:09Z</time>
      </trkpt>
      <trkpt lat="49.41687" lon="1.07598">
        <ele>27.8</ele>
        <time>2021-10-16T07:39:10Z</time>
      </trkpt>
      <trkpt lat="49.4169" lon="1.076">
        <ele>27.7</ele>
        <time>2021-10-16T07:39:11Z</time>
      </trkpt>
      <trkpt lat="49.41694" lon="1.07602">
        <ele>27.6</ele>
        <time>2021-10-16T07:39:13Z</time>
      </trkpt>
      <trkpt lat="49.41698" lon="1.07605">
        <ele>27.5</ele>
        <time>2021-10-16T07:39:14Z</time>
      </trkpt>
      <trkpt lat="49.41701" lon="1.07607">
        <ele>27.5</ele>
        <time>2021-10-16T07:39:15Z</time>
      </trkpt>
      <trkpt lat="49.41705" lon="1.07609">
        <ele>27.4</ele>
        <time>2021-10-16T07:39:17Z</time>
      </trkpt>
      <trkpt lat="49.41708" lon="1.07611">
        <ele>27.3</ele>
        <time>2021-10-16T07:39:18Z</time>
      </trkpt>
      <trkpt lat="49.41711" lon="1.07612">
        <ele>27.2</ele>
        <time>2021-10-16T07:39:19Z</time>
      </trkpt>
      <trkpt lat="49.41714" lon="1.07614">
        <ele>27.1</ele>
        <time>2021-10-16T07:39:20Z</time>
      </trkpt>
      <trkpt lat="49.41718" lon="1.07616">
        <ele>27</ele>
        <time>2021-10-16T07:39:22Z</time>
      </trkpt>
      <trkpt lat="49.41721" lon="1.07618">
        <ele>26.9</ele>
        <time>2021-10-16T07:39:23Z</time>
      </trkpt>
      <trkpt lat="49.41724" lon="1.0762">
        <ele>26.8</ele>
        <time>2021-10-16T07:39:24Z</time>
      </trkpt>
      <trkpt lat="49.41726" lon="1.07622">
        <ele>26.7</ele>
        <time>2021-10-16T07:39:25Z</time>
      </trkpt>
      <trkpt lat="49.41729" lon="1.07624">
        <ele>26.6</ele>
        <time>2021-10-16T07:39:26Z</time>
      </trkpt>
      <trkpt lat="49.41732" lon="1.07627">
        <ele>26.5</ele>
        <time>2021-10-16T07:39:28Z</time>
      </trkpt>
      <trkpt lat="49.41735" lon="1.07629">
        <ele>26.4</ele>
        <time>2021-10-16T07:39:29Z</time>
      </trkpt>
      <trkpt lat="49.41739" lon="1.0763">
        <ele>26.2</ele>
        <time>2021-10-16T07:39:30Z</time>
      </trkpt>
      <trkpt lat="49.41742" lon="1.07634">
        <ele>26.1</ele>
        <time>2021-10-16T07:39:32Z</time>
      </trkpt>
      <trkpt lat="49.41745" lon="1.07636">
        <ele>26</ele>
        <time>2021-10-16T07:39:33Z</time>
      </trkpt>
      <trkpt lat="49.41749" lon="1.07639">
        <ele>25.8</ele>
        <time>2021-10-16T07:39:34Z</time>
      </trkpt>
      <trkpt lat="49.41751" lon="1.07641">
        <ele>25.7</ele>
        <time>2021-10-16T07:39:35Z</time>
      </trkpt>
      <trkpt lat="49.41755" lon="1.07643">
        <ele>25.5</ele>
        <time>2021-10-16T07:39:37Z</time>
      </trkpt>
      <trkpt lat="49.41759" lon="1.07646">
        <ele>25.4</ele>
        <time>2021-10-16T07:39:38Z</time>
      </trkpt>
      <trkpt lat="49.41761" lon="1.07648">
        <ele>25.2</ele>
        <time>2021-10-16T07:39:39Z</time>
      </trkpt>
      <trkpt lat="49.41764" lon="1.0765">
        <ele>25.1</ele>
        <time>2021-10-16T07:39:40Z</time>
      </trkpt>
      <trkpt lat="49.41769" lon="1.07653">
        <ele>24.9</ele>
        <time>2021-10-16T07:39:42Z</time>
      </trkpt>
      <trkpt lat="49.41772" lon="1.07654">
        <ele>24.8</ele>
        <time>2021-10-16T07:39:43Z</time>
      </trkpt>
      <trkpt lat="49.41774" lon="1.07656">
        <ele>24.7</ele>
        <time>2021-10-16T07:39:44Z</time>
      </trkpt>
      <trkpt lat="49.41778" lon="1.07659">
        <ele>24.5</ele>
        <time>2021-10-16T07:39:46Z</time>
      </trkpt>
      <trkpt lat="49.41781" lon="1.07661">
        <ele>24.4</ele>
        <time>2021-10-16T07:39:47Z</time>
      </trkpt>
      <trkpt lat="49.41785" lon="1.07663">
        <ele>24.2</ele>
        <time>2021-10-16T07:39:48Z</time>
      </trkpt>
      <trkpt lat="49.41788" lon="1.07665">
        <ele>24.1</ele>
        <time>2021-10-16T07:39:49Z</time>
      </trkpt>
      <trkpt lat="49.41792" lon="1.07668">
        <ele>23.9</ele>
        <time>2021-10-16T07:39:51Z</time>
      </trkpt>
      <trkpt lat="49.41795" lon="1.0767">
        <ele>23.7</ele>
        <time>2021-10-16T07:39:52Z</time>
      </trkpt>
      <trkpt lat="49.41798" lon="1.07673">
        <ele>23.6</ele>
        <time>2021-10-16T07:39:53Z</time>
      </trkpt>
      <trkpt lat="49.41801" lon="1.07676">
        <ele>23.4</ele>
        <time>2021-10-16T07:39:54Z</time>
      </trkpt>
      <trkpt lat="49.41805" lon="1.07679">
        <ele>23.2</ele>
        <time>2021-10-16T07:39:55Z</time>
      </trkpt>
      <trkpt lat="49.4181" lon="1.07684">
        <ele>22.9</ele>
        <time>2021-10-16T07:39:57Z</time>
      </trkpt>
      <trkpt lat="49.41813" lon="1.07687">
        <ele>22.8</ele>
        <time>2021-10-16T07:39:58Z</time>
      </trkpt>
      <trkpt lat="49.41817" lon="1.0769">
        <ele>22.6</ele>
        <time>2021-10-16T07:39:59Z</time>
      </trkpt>
      <trkpt lat="49.41821" lon="1.07693">
        <ele>22.4</ele>
        <time>2021-10-16T07:40:01Z</time>
      </trkpt>
      <trkpt lat="49.41824" lon="1.07695">
        <ele>22.3</ele>
        <time>2021-10-16T07:40:02Z</time>
      </trkpt>
      <trkpt lat="49.41827" lon="1.07697">
        <ele>22.1</ele>
        <time>2021-10-16T07:40:03Z</time>
      </trkpt>
      <trkpt lat="49.41829" lon="1.07699">
        <ele>22</ele>
        <time>2021-10-16T07:40:04Z</time>
      </trkpt>
      <trkpt lat="49.41832" lon="1.07701">
        <ele>21.9</ele>
        <time>2021-10-16T07:40:05Z</time>
      </trkpt>
      <trkpt lat="49.41836" lon="1.07705">
        <ele>21.7</ele>
        <time>2021-10-16T07:40:07Z</time>
      </trkpt>
      <trkpt lat="49.41838" lon="1.07706">
        <ele>21.6</ele>
        <time>2021-10-16T07:40:08Z</time>
      </trkpt>
      <trkpt lat="49.41841" lon="1.07708">
        <ele>21.4</ele>
        <time>2021-10-16T07:40:09Z</time>
      </trkpt>
      <trkpt lat="49.41845" lon="1.0771">
        <ele>21.2</ele>
        <time>2021-10-16T07:40:11Z</time>
      </trkpt>
      <trkpt lat="49.41848" lon="1.07713">
        <ele>21.1</ele>
        <time>2021-10-16T07:40:12Z</time>
      </trkpt>
      <trkpt lat="49.41852" lon="1.07716">
        <ele>20.9</ele>
        <time>2021-10-16T07:40:13Z</time>
      </trkpt>
      <trkpt lat="49.41855" lon="1.07718">
        <ele>20.7</ele>
        <time>2021-10-16T07:40:14Z</time>
      </trkpt>
      <trkpt lat="49.41859" lon="1.07721">
        <ele>20.5</ele>
        <time>2021-10-16T07:40:16Z</time>
      </trkpt>
      <trkpt lat="49.41862" lon="1.07723">
        <ele>20.4</ele>
        <time>2021-10-16T07:40:17Z</time>
      </trkpt>
      <trkpt lat="49.41865" lon="1.07724">
        <ele>20.2</ele>
        <time>2021-10-16T07:40:18Z</time>
      </trkpt>
      <trkpt lat="49.4187" lon="1.07728">
        <ele>20</ele>
        <time>2021-10-16T07:40:20Z</time>
      </trkpt>
      <trkpt lat="49.41873" lon="1.07731">
        <ele>19.8</ele>
        <time>2021-10-16T07:40:21Z</time>
      </trkpt>
      <trkpt lat="49.41877" lon="1.07734">
        <ele>19.7</ele>
        <time>2021-10-16T07:40:22Z</time>
      </trkpt>
      <trkpt lat="49.4188" lon="1.07737">
        <ele>19.5</ele>
        <time>2021-10-16T07:40:23Z</time>
      </trkpt>
      <trkpt lat="49.41884" lon="1.07741">
        <ele>19.3</ele>
        <time>2021-10-16T07:40:25Z</time>
      </trkpt>
      <trkpt lat="49.4189" lon="1.07747">
        <ele>19.1</ele>
        <time>2021-10-16T07:40:26Z</time>
      </trkpt>
      <trkpt lat="49.41893" lon="1.07751">
        <ele>19</ele>
        <time>2021-10-16T07:40:27Z</time>
      </trkpt>
      <trkpt lat="49.41898" lon="1.07757">
        <ele>18.8</ele>
        <time>2021-10-16T07:40:29Z</time>
      </trkpt>
      <trkpt lat="49.41901" lon="1.0776">
        <ele>18.7</ele>
        <time>2021-10-16T07:40:30Z</time>
      </trkpt>
      <trkpt lat="49.41904" lon="1.07761">
        <ele>18.6</ele>
        <time>2021-10-16T07:40:31Z</time>
      </trkpt>
      <trkpt lat="49.41906" lon="1.07763">
        <ele>18.5</ele>
        <time>2021-10-16T07:40:32Z</time>
      </trkpt>
      <trkpt lat="49.4191" lon="1.07766">
        <ele>18.4</ele>
        <time>2021-10-16T07:40:34Z</time>
      </trkpt>
      <trkpt lat="49.41912" lon="1.07768">
        <ele>18.3</ele>
        <time>2021-10-16T07:40:35Z</time>
      </trkpt>
      <trkpt lat="49.41915" lon="1.0777">
        <ele>18.2</ele>
        <time>2021-10-16T07:40:36Z</time>
      </trkpt>
      <trkpt lat="49.41919" lon="1.07772">
        <ele>18</ele>
        <time>2021-10-16T07:40:38Z</time>
      </trkpt>
      <trkpt lat="49.41921" lon="1.07774">
        <ele>17.9</ele>
        <time>2021-10-16T07:40:39Z</time>
      </trkpt>
      <trkpt lat="49.41924" lon="1.07776">
        <ele>17.8</ele>
        <time>2021-10-16T07:40:40Z</time>
      </trkpt>
      <trkpt lat="49.41928" lon="1.07779">
        <ele>17.6</ele>
        <time>2021-10-16T07:40:41Z</time>
      </trkpt>
      <trkpt lat="49.41931" lon="1.07782">
        <ele>17.5</ele>
        <time>2021-10-16T07:40:43Z</time>
      </trkpt>
      <trkpt lat="49.41935" lon="1.07782">
        <ele>17.4</ele>
        <time>2021-10-16T07:40:44Z</time>
      </trkpt>
      <trkpt lat="49.41938" lon="1.07783">
        <ele>17.2</ele>
        <time>2021-10-16T07:40:45Z</time>
      </trkpt>
      <trkpt lat="49.41942" lon="1.07783">
        <ele>17.1</ele>
        <time>2021-10-16T07:40:46Z</time>
      </trkpt>
      <trkpt lat="49.41945" lon="1.07782">
        <ele>17</ele>
        <time>2021-10-16T07:40:47Z</time>
      </trkpt>
      <trkpt lat="49.41949" lon="1.0778">
        <ele>16.8</ele>
        <time>2021-10-16T07:40:49Z</time>
      </trkpt>
      <trkpt lat="49.41952" lon="1.07779">
        <ele>16.7</ele>
        <time>2021-10-16T07:40:50Z</time>
      </trkpt>
      <trkpt lat="49.41955" lon="1.07778">
        <ele>16.7</ele>
        <time>2021-10-16T07:40:51Z</time>
      </trkpt>
      <trkpt lat="49.41958" lon="1.07778">
        <ele>16.6</ele>
        <time>2021-10-16T07:40:52Z</time>
      </trkpt>
      <trkpt lat="49.41961" lon="1.07779">
        <ele>16.6</ele>
        <time>2021-10-16T07:40:53Z</time>
      </trkpt>
      <trkpt lat="49.41967" lon="1.0778">
        <ele>16.5</ele>
        <time>2021-10-16T07:40:55Z</time>
      </trkpt>
      <trkpt lat="49.41971" lon="1.07782">
        <ele>16.5</ele>
        <time>2021-10-16T07:40:56Z</time>
      </trkpt>
      <trkpt lat="49.41977" lon="1.07785">
        <ele>16.3</ele>
        <time>2021-10-16T07:40:58Z</time>
      </trkpt>
      <trkpt lat="49.41981" lon="1.07789">
        <ele>16.2</ele>
        <time>2021-10-16T07:40:59Z</time>
      </trkpt>
      <trkpt lat="49.41983" lon="1.07792">
        <ele>16</ele>
        <time>2021-10-16T07:41:00Z</time>
      </trkpt>
      <trkpt lat="49.41986" lon="1.07796">
        <ele>15.9</ele>
        <time>2021-10-16T07:41:01Z</time>
      </trkpt>
      <trkpt lat="49.41989" lon="1.078">
        <ele>15.8</ele>
        <time>2021-10-16T07:41:02Z</time>
      </trkpt>
      <trkpt lat="49.41992" lon="1.07803">
        <ele>15.7</ele>
        <time>2021-10-16T07:41:04Z</time>
      </trkpt>
      <trkpt lat="49.41995" lon="1.07804">
        <ele>15.7</ele>
        <time>2021-10-16T07:41:05Z</time>
      </trkpt>
      <trkpt lat="49.41998" lon="1.07805">
        <ele>15.7</ele>
        <time>2021-10-16T07:41:06Z</time>
      </trkpt>
      <trkpt lat="49.41999" lon="1.07805">
        <ele>15.8</ele>
        <time>2021-10-16T07:41:07Z</time>
      </trkpt>
      <trkpt lat="49.42" lon="1.07805">
        <ele>15.8</ele>
        <time>2021-10-16T07:41:09Z</time>
      </trkpt>
      <trkpt lat="49.42002" lon="1.07804">
        <ele>15.8</ele>
        <time>2021-10-16T07:41:10Z</time>
      </trkpt>
      <trkpt lat="49.42005" lon="1.07805">
        <ele>15.8</ele>
        <time>2021-10-16T07:41:11Z</time>
      </trkpt>
      <trkpt lat="49.42006" lon="1.07805">
        <ele>15.9</ele>
        <time>2021-10-16T07:41:12Z</time>
      </trkpt>
      <trkpt lat="49.42008" lon="1.07806">
        <ele>15.9</ele>
        <time>2021-10-16T07:41:13Z</time>
      </trkpt>
      <trkpt lat="49.42013" lon="1.07809">
        <ele>15.8</ele>
        <time>2021-10-16T07:41:15Z</time>
      </trkpt>
      <trkpt lat="49.42018" lon="1.07814">
        <ele>15.7</ele>
        <time>2021-10-16T07:41:16Z</time>
      </trkpt>
      <trkpt lat="49.42022" lon="1.07818">
        <ele>15.6</ele>
        <time>2021-10-16T07:41:17Z</time>
      </trkpt>
      <trkpt lat="49.42025" lon="1.07822">
        <ele>15.6</ele>
        <time>2021-10-16T07:41:18Z</time>
      </trkpt>
      <trkpt lat="49.4203" lon="1.07828">
        <ele>15.4</ele>
        <time>2021-10-16T07:41:20Z</time>
      </trkpt>
      <trkpt lat="49.42033" lon="1.07832">
        <ele>15.4</ele>
        <time>2021-10-16T07:41:21Z</time>
      </trkpt>
      <trkpt lat="49.42037" lon="1.07837">
        <ele>15.2</ele>
        <time>2021-10-16T07:41:23Z</time>
      </trkpt>
      <trkpt lat="49.42041" lon="1.0784">
        <ele>15.1</ele>
        <time>2021-10-16T07:41:24Z</time>
      </trkpt>
      <trkpt lat="49.42045" lon="1.07844">
        <ele>14.9</ele>
        <time>2021-10-16T07:41:25Z</time>
      </trkpt>
      <trkpt lat="49.4205" lon="1.07848">
        <ele>14.8</ele>
        <time>2021-10-16T07:41:26Z</time>
      </trkpt>
      <trkpt lat="49.42054" lon="1.07853">
        <ele>14.6</ele>
        <time>2021-10-16T07:41:28Z</time>
      </trkpt>
      <trkpt lat="49.42057" lon="1.07855">
        <ele>14.5</ele>
        <time>2021-10-16T07:41:29Z</time>
      </trkpt>
      <trkpt lat="49.42062" lon="1.07859">
        <ele>14.4</ele>
        <time>2021-10-16T07:41:31Z</time>
      </trkpt>
      <trkpt lat="49.42065" lon="1.07862">
        <ele>14.3</ele>
        <time>2021-10-16T07:41:33Z</time>
      </trkpt>
      <trkpt lat="49.42069" lon="1.07864">
        <ele>14.2</ele>
        <time>2021-10-16T07:41:34Z</time>
      </trkpt>
      <trkpt lat="49.42073" lon="1.07867">
        <ele>14.1</ele>
        <time>2021-10-16T07:41:36Z</time>
      </trkpt>
      <trkpt lat="49.42075" lon="1.07869">
        <ele>14.1</ele>
        <time>2021-10-16T07:41:37Z</time>
      </trkpt>
      <trkpt lat="49.42077" lon="1.0787">
        <ele>14.1</ele>
        <time>2021-10-16T07:41:38Z</time>
      </trkpt>
      <trkpt lat="49.42079" lon="1.07872">
        <ele>14</ele>
        <time>2021-10-16T07:41:39Z</time>
      </trkpt>
      <trkpt lat="49.42082" lon="1.07874">
        <ele>13.9</ele>
        <time>2021-10-16T07:41:41Z</time>
      </trkpt>
      <trkpt lat="49.42085" lon="1.07877">
        <ele>13.9</ele>
        <time>2021-10-16T07:41:42Z</time>
      </trkpt>
      <trkpt lat="49.42086" lon="1.07878">
        <ele>13.8</ele>
        <time>2021-10-16T07:41:43Z</time>
      </trkpt>
      <trkpt lat="49.42091" lon="1.07882">
        <ele>13.7</ele>
        <time>2021-10-16T07:41:45Z</time>
      </trkpt>
      <trkpt lat="49.42093" lon="1.07884">
        <ele>13.7</ele>
        <time>2021-10-16T07:41:46Z</time>
      </trkpt>
      <trkpt lat="49.42098" lon="1.07888">
        <ele>13.5</ele>
        <time>2021-10-16T07:41:47Z</time>
      </trkpt>
      <trkpt lat="49.42105" lon="1.07894">
        <ele>13.4</ele>
        <time>2021-10-16T07:41:49Z</time>
      </trkpt>
      <trkpt lat="49.42109" lon="1.07897">
        <ele>13.2</ele>
        <time>2021-10-16T07:41:50Z</time>
      </trkpt>
      <trkpt lat="49.42113" lon="1.07901">
        <ele>13.1</ele>
        <time>2021-10-16T07:41:51Z</time>
      </trkpt>
      <trkpt lat="49.42119" lon="1.07905">
        <ele>13</ele>
        <time>2021-10-16T07:41:53Z</time>
      </trkpt>
      <trkpt lat="49.42122" lon="1.07907">
        <ele>13</ele>
        <time>2021-10-16T07:41:54Z</time>
      </trkpt>
      <trkpt lat="49.42126" lon="1.0791">
        <ele>12.9</ele>
        <time>2021-10-16T07:41:55Z</time>
      </trkpt>
      <trkpt lat="49.42129" lon="1.07913">
        <ele>12.9</ele>
        <time>2021-10-16T07:41:56Z</time>
      </trkpt>
      <trkpt lat="49.42133" lon="1.07916">
        <ele>12.9</ele>
        <time>2021-10-16T07:41:57Z</time>
      </trkpt>
      <trkpt lat="49.42136" lon="1.07918">
        <ele>12.8</ele>
        <time>2021-10-16T07:41:58Z</time>
      </trkpt>
      <trkpt lat="49.4214" lon="1.07921">
        <ele>12.8</ele>
        <time>2021-10-16T07:42:00Z</time>
      </trkpt>
      <trkpt lat="49.42144" lon="1.07923">
        <ele>12.7</ele>
        <time>2021-10-16T07:42:01Z</time>
      </trkpt>
      <trkpt lat="49.42148" lon="1.07926">
        <ele>12.7</ele>
        <time>2021-10-16T07:42:02Z</time>
      </trkpt>
      <trkpt lat="49.42151" lon="1.07928">
        <ele>12.7</ele>
        <time>2021-10-16T07:42:03Z</time>
      </trkpt>
      <trkpt lat="49.42154" lon="1.0793">
        <ele>12.6</ele>
        <time>2021-10-16T07:42:04Z</time>
      </trkpt>
      <trkpt lat="49.42159" lon="1.07933">
        <ele>12.5</ele>
        <time>2021-10-16T07:42:06Z</time>
      </trkpt>
      <trkpt lat="49.42163" lon="1.07934">
        <ele>12.4</ele>
        <time>2021-10-16T07:42:07Z</time>
      </trkpt>
      <trkpt lat="49.42166" lon="1.07934">
        <ele>12.3</ele>
        <time>2021-10-16T07:42:08Z</time>
      </trkpt>
      <trkpt lat="49.42169" lon="1.0793">
        <ele>12.3</ele>
        <time>2021-10-16T07:42:10Z</time>
      </trkpt>
      <trkpt lat="49.42171" lon="1.07926">
        <ele>12.3</ele>
        <time>2021-10-16T07:42:11Z</time>
      </trkpt>
      <trkpt lat="49.42173" lon="1.07922">
        <ele>12.3</ele>
        <time>2021-10-16T07:42:12Z</time>
      </trkpt>
      <trkpt lat="49.42174" lon="1.07919">
        <ele>12.3</ele>
        <time>2021-10-16T07:42:13Z</time>
      </trkpt>
      <trkpt lat="49.42176" lon="1.07915">
        <ele>12.3</ele>
        <time>2021-10-16T07:42:15Z</time>
      </trkpt>
      <trkpt lat="49.42178" lon="1.07909">
        <ele>12.3</ele>
        <time>2021-10-16T07:42:16Z</time>
      </trkpt>
      <trkpt lat="49.4218" lon="1.07903">
        <ele>12.3</ele>
        <time>2021-10-16T07:42:17Z</time>
      </trkpt>
      <trkpt lat="49.42181" lon="1.07898">
        <ele>12.4</ele>
        <time>2021-10-16T07:42:19Z</time>
      </trkpt>
      <trkpt lat="49.42183" lon="1.07893">
        <ele>12.4</ele>
        <time>2021-10-16T07:42:20Z</time>
      </trkpt>
      <trkpt lat="49.42185" lon="1.07889">
        <ele>12.4</ele>
        <time>2021-10-16T07:42:21Z</time>
      </trkpt>
      <trkpt lat="49.42186" lon="1.07883">
        <ele>12.4</ele>
        <time>2021-10-16T07:42:22Z</time>
      </trkpt>
      <trkpt lat="49.42188" lon="1.07876">
        <ele>12.5</ele>
        <time>2021-10-16T07:42:24Z</time>
      </trkpt>
      <trkpt lat="49.42188" lon="1.07872">
        <ele>12.5</ele>
        <time>2021-10-16T07:42:25Z</time>
      </trkpt>
      <trkpt lat="49.42188" lon="1.07867">
        <ele>12.5</ele>
        <time>2021-10-16T07:42:26Z</time>
      </trkpt>
      <trkpt lat="49.42188" lon="1.07863">
        <ele>12.6</ele>
        <time>2021-10-16T07:42:27Z</time>
      </trkpt>
      <trkpt lat="49.42186" lon="1.07858">
        <ele>12.6</ele>
        <time>2021-10-16T07:42:29Z</time>
      </trkpt>
      <trkpt lat="49.42184" lon="1.07854">
        <ele>12.6</ele>
        <time>2021-10-16T07:42:30Z</time>
      </trkpt>
      <trkpt lat="49.42182" lon="1.07851">
        <ele>12.7</ele>
        <time>2021-10-16T07:42:31Z</time>
      </trkpt>
      <trkpt lat="49.42179" lon="1.07849">
        <ele>12.7</ele>
        <time>2021-10-16T07:42:32Z</time>
      </trkpt>
      <trkpt lat="49.42176" lon="1.07848">
        <ele>12.7</ele>
        <time>2021-10-16T07:42:33Z</time>
      </trkpt>
      <trkpt lat="49.42172" lon="1.07847">
        <ele>12.7</ele>
        <time>2021-10-16T07:42:35Z</time>
      </trkpt>
      <trkpt lat="49.42169" lon="1.07848">
        <ele>12.7</ele>
        <time>2021-10-16T07:42:36Z</time>
      </trkpt>
      <trkpt lat="49.42166" lon="1.07849">
        <ele>12.7</ele>
        <time>2021-10-16T07:42:37Z</time>
      </trkpt>
      <trkpt lat="49.42163" lon="1.07849">
        <ele>12.7</ele>
        <time>2021-10-16T07:42:39Z</time>
      </trkpt>
      <trkpt lat="49.4216" lon="1.07848">
        <ele>12.7</ele>
        <time>2021-10-16T07:42:40Z</time>
      </trkpt>
      <trkpt lat="49.42159" lon="1.07847">
        <ele>12.7</ele>
        <time>2021-10-16T07:42:41Z</time>
      </trkpt>
      <trkpt lat="49.42156" lon="1.07845">
        <ele>12.6</ele>
        <time>2021-10-16T07:42:42Z</time>
      </trkpt>
      <trkpt lat="49.42154" lon="1.07839">
        <ele>12.6</ele>
        <time>2021-10-16T07:42:44Z</time>
      </trkpt>
      <trkpt lat="49.42153" lon="1.07837">
        <ele>12.6</ele>
        <time>2021-10-16T07:42:45Z</time>
      </trkpt>
      <trkpt lat="49.42153" lon="1.07834">
        <ele>12.5</ele>
        <time>2021-10-16T07:42:46Z</time>
      </trkpt>
      <trkpt lat="49.42153" lon="1.07829">
        <ele>12.4</ele>
        <time>2021-10-16T07:42:47Z</time>
      </trkpt>
      <trkpt lat="49.42153" lon="1.07826">
        <ele>12.4</ele>
        <time>2021-10-16T07:42:48Z</time>
      </trkpt>
      <trkpt lat="49.42155" lon="1.07819">
        <ele>12.4</ele>
        <time>2021-10-16T07:42:50Z</time>
      </trkpt>
      <trkpt lat="49.42156" lon="1.07814">
        <ele>12.3</ele>
        <time>2021-10-16T07:42:51Z</time>
      </trkpt>
      <trkpt lat="49.42158" lon="1.07809">
        <ele>12.3</ele>
        <time>2021-10-16T07:42:52Z</time>
      </trkpt>
      <trkpt lat="49.42161" lon="1.07802">
        <ele>12.3</ele>
        <time>2021-10-16T07:42:54Z</time>
      </trkpt>
      <trkpt lat="49.42164" lon="1.078">
        <ele>12.2</ele>
        <time>2021-10-16T07:42:55Z</time>
      </trkpt>
      <trkpt lat="49.42167" lon="1.07798">
        <ele>12.2</ele>
        <time>2021-10-16T07:42:56Z</time>
      </trkpt>
      <trkpt lat="49.4217" lon="1.078">
        <ele>12.2</ele>
        <time>2021-10-16T07:42:57Z</time>
      </trkpt>
      <trkpt lat="49.42174" lon="1.07801">
        <ele>12.2</ele>
        <time>2021-10-16T07:42:59Z</time>
      </trkpt>
      <trkpt lat="49.42179" lon="1.07804">
        <ele>12.2</ele>
        <time>2021-10-16T07:43:00Z</time>
      </trkpt>
      <trkpt lat="49.42182" lon="1.07806">
        <ele>12.2</ele>
        <time>2021-10-16T07:43:01Z</time>
      </trkpt>
      <trkpt lat="49.42187" lon="1.07808">
        <ele>12.2</ele>
        <time>2021-10-16T07:43:03Z</time>
      </trkpt>
      <trkpt lat="49.4219" lon="1.07809">
        <ele>12.2</ele>
        <time>2021-10-16T07:43:04Z</time>
      </trkpt>
      <trkpt lat="49.42194" lon="1.07809">
        <ele>12.2</ele>
        <time>2021-10-16T07:43:05Z</time>
      </trkpt>
      <trkpt lat="49.42197" lon="1.07809">
        <ele>12.1</ele>
        <time>2021-10-16T07:43:06Z</time>
      </trkpt>
      <trkpt lat="49.422" lon="1.07808">
        <ele>12.1</ele>
        <time>2021-10-16T07:43:07Z</time>
      </trkpt>
      <trkpt lat="49.42204" lon="1.07808">
        <ele>12.1</ele>
        <time>2021-10-16T07:43:08Z</time>
      </trkpt>
      <trkpt lat="49.42205" lon="1.07808">
        <ele>12.1</ele>
        <time>2021-10-16T07:43:09Z</time>
      </trkpt>
      <trkpt lat="49.42208" lon="1.07806">
        <ele>12</ele>
        <time>2021-10-16T07:43:11Z</time>
      </trkpt>
      <trkpt lat="49.42209" lon="1.07806">
        <ele>12</ele>
        <time>2021-10-16T07:43:12Z</time>
      </trkpt>
      <trkpt lat="49.42212" lon="1.07805">
        <ele>12</ele>
        <time>2021-10-16T07:43:13Z</time>
      </trkpt>
      <trkpt lat="49.42215" lon="1.07805">
        <ele>11.9</ele>
        <time>2021-10-16T07:43:14Z</time>
      </trkpt>
      <trkpt lat="49.42218" lon="1.07805">
        <ele>11.9</ele>
        <time>2021-10-16T07:43:15Z</time>
      </trkpt>
      <trkpt lat="49.42222" lon="1.07805">
        <ele>11.8</ele>
        <time>2021-10-16T07:43:16Z</time>
      </trkpt>
      <trkpt lat="49.42226" lon="1.07805">
        <ele>11.8</ele>
        <time>2021-10-16T07:43:17Z</time>
      </trkpt>
      <trkpt lat="49.42231" lon="1.07805">
        <ele>11.7</ele>
        <time>2021-10-16T07:43:19Z</time>
      </trkpt>
      <trkpt lat="49.42234" lon="1.07803">
        <ele>11.6</ele>
        <time>2021-10-16T07:43:21Z</time>
      </trkpt>
      <trkpt lat="49.42237" lon="1.07803">
        <ele>11.6</ele>
        <time>2021-10-16T07:43:22Z</time>
      </trkpt>
      <trkpt lat="49.42241" lon="1.07805">
        <ele>11.6</ele>
        <time>2021-10-16T07:43:24Z</time>
      </trkpt>
      <trkpt lat="49.42243" lon="1.07807">
        <ele>11.5</ele>
        <time>2021-10-16T07:43:25Z</time>
      </trkpt>
      <trkpt lat="49.42247" lon="1.07809">
        <ele>11.5</ele>
        <time>2021-10-16T07:43:26Z</time>
      </trkpt>
      <trkpt lat="49.4225" lon="1.0781">
        <ele>11.5</ele>
        <time>2021-10-16T07:43:28Z</time>
      </trkpt>
      <trkpt lat="49.42252" lon="1.07811">
        <ele>11.5</ele>
        <time>2021-10-16T07:43:29Z</time>
      </trkpt>
      <trkpt lat="49.42254" lon="1.07811">
        <ele>11.5</ele>
        <time>2021-10-16T07:43:30Z</time>
      </trkpt>
      <trkpt lat="49.42258" lon="1.07812">
        <ele>11.4</ele>
        <time>2021-10-16T07:43:31Z</time>
      </trkpt>
      <trkpt lat="49.42259" lon="1.07813">
        <ele>11.4</ele>
        <time>2021-10-16T07:43:32Z</time>
      </trkpt>
      <trkpt lat="49.42263" lon="1.07813">
        <ele>11.4</ele>
        <time>2021-10-16T07:43:34Z</time>
      </trkpt>
      <trkpt lat="49.42266" lon="1.0781">
        <ele>11.4</ele>
        <time>2021-10-16T07:43:35Z</time>
      </trkpt>
      <trkpt lat="49.42266" lon="1.07809">
        <ele>11.4</ele>
        <time>2021-10-16T07:43:36Z</time>
      </trkpt>
      <trkpt lat="49.42268" lon="1.07804">
        <ele>11.3</ele>
        <time>2021-10-16T07:43:38Z</time>
      </trkpt>
      <trkpt lat="49.42269" lon="1.078">
        <ele>11.3</ele>
        <time>2021-10-16T07:43:39Z</time>
      </trkpt>
      <trkpt lat="49.42271" lon="1.07793">
        <ele>11.3</ele>
        <time>2021-10-16T07:43:40Z</time>
      </trkpt>
      <trkpt lat="49.42272" lon="1.07789">
        <ele>11.3</ele>
        <time>2021-10-16T07:43:41Z</time>
      </trkpt>
      <trkpt lat="49.42273" lon="1.07784">
        <ele>11.4</ele>
        <time>2021-10-16T07:43:42Z</time>
      </trkpt>
      <trkpt lat="49.42273" lon="1.07777">
        <ele>11.4</ele>
        <time>2021-10-16T07:43:44Z</time>
      </trkpt>
      <trkpt lat="49.42274" lon="1.0777">
        <ele>11.4</ele>
        <time>2021-10-16T07:43:45Z</time>
      </trkpt>
      <trkpt lat="49.42275" lon="1.07764">
        <ele>11.4</ele>
        <time>2021-10-16T07:43:46Z</time>
      </trkpt>
      <trkpt lat="49.42276" lon="1.07758">
        <ele>11.5</ele>
        <time>2021-10-16T07:43:47Z</time>
      </trkpt>
      <trkpt lat="49.42278" lon="1.07752">
        <ele>11.5</ele>
        <time>2021-10-16T07:43:48Z</time>
      </trkpt>
      <trkpt lat="49.4228" lon="1.07747">
        <ele>11.7</ele>
        <time>2021-10-16T07:43:49Z</time>
      </trkpt>
      <trkpt lat="49.42283" lon="1.07741">
        <ele>11.8</ele>
        <time>2021-10-16T07:43:51Z</time>
      </trkpt>
      <trkpt lat="49.42285" lon="1.07736">
        <ele>12</ele>
        <time>2021-10-16T07:43:52Z</time>
      </trkpt>
      <trkpt lat="49.42286" lon="1.07732">
        <ele>12.1</ele>
        <time>2021-10-16T07:43:53Z</time>
      </trkpt>
      <trkpt lat="49.42288" lon="1.07726">
        <ele>12.3</ele>
        <time>2021-10-16T07:43:55Z</time>
      </trkpt>
      <trkpt lat="49.42288" lon="1.07721">
        <ele>12.5</ele>
        <time>2021-10-16T07:43:56Z</time>
      </trkpt>
      <trkpt lat="49.42288" lon="1.07715">
        <ele>12.7</ele>
        <time>2021-10-16T07:43:57Z</time>
      </trkpt>
      <trkpt lat="49.42287" lon="1.0771">
        <ele>12.9</ele>
        <time>2021-10-16T07:43:59Z</time>
      </trkpt>
      <trkpt lat="49.42286" lon="1.07705">
        <ele>13.1</ele>
        <time>2021-10-16T07:44:00Z</time>
      </trkpt>
      <trkpt lat="49.42286" lon="1.077">
        <ele>13.2</ele>
        <time>2021-10-16T07:44:01Z</time>
      </trkpt>
      <trkpt lat="49.42285" lon="1.07693">
        <ele>13.4</ele>
        <time>2021-10-16T07:44:03Z</time>
      </trkpt>
      <trkpt lat="49.42284" lon="1.07689">
        <ele>13.5</ele>
        <time>2021-10-16T07:44:04Z</time>
      </trkpt>
      <trkpt lat="49.42283" lon="1.07685">
        <ele>13.6</ele>
        <time>2021-10-16T07:44:05Z</time>
      </trkpt>
      <trkpt lat="49.42282" lon="1.07679">
        <ele>13.6</ele>
        <time>2021-10-16T07:44:07Z</time>
      </trkpt>
      <trkpt lat="49.42281" lon="1.07675">
        <ele>13.6</ele>
        <time>2021-10-16T07:44:08Z</time>
      </trkpt>
      <trkpt lat="49.4228" lon="1.0767">
        <ele>13.6</ele>
        <time>2021-10-16T07:44:09Z</time>
      </trkpt>
      <trkpt lat="49.4228" lon="1.07666">
        <ele>13.6</ele>
        <time>2021-10-16T07:44:10Z</time>
      </trkpt>
      <trkpt lat="49.4228" lon="1.07661">
        <ele>13.6</ele>
        <time>2021-10-16T07:44:11Z</time>
      </trkpt>
      <trkpt lat="49.42279" lon="1.07657">
        <ele>13.5</ele>
        <time>2021-10-16T07:44:12Z</time>
      </trkpt>
      <trkpt lat="49.42278" lon="1.07651">
        <ele>13.4</ele>
        <time>2021-10-16T07:44:14Z</time>
      </trkpt>
      <trkpt lat="49.42276" lon="1.07646">
        <ele>13.3</ele>
        <time>2021-10-16T07:44:15Z</time>
      </trkpt>
      <trkpt lat="49.42274" lon="1.0764">
        <ele>13</ele>
        <time>2021-10-16T07:44:17Z</time>
      </trkpt>
      <trkpt lat="49.42271" lon="1.07637">
        <ele>12.9</ele>
        <time>2021-10-16T07:44:18Z</time>
      </trkpt>
      <trkpt lat="49.42268" lon="1.07634">
        <ele>12.6</ele>
        <time>2021-10-16T07:44:19Z</time>
      </trkpt>
      <trkpt lat="49.42266" lon="1.07631">
        <ele>12.5</ele>
        <time>2021-10-16T07:44:20Z</time>
      </trkpt>
      <trkpt lat="49.42263" lon="1.07626">
        <ele>12.2</ele>
        <time>2021-10-16T07:44:22Z</time>
      </trkpt>
      <trkpt lat="49.4226" lon="1.07622">
        <ele>12</ele>
        <time>2021-10-16T07:44:23Z</time>
      </trkpt>
      <trkpt lat="49.42258" lon="1.07617">
        <ele>12</ele>
        <time>2021-10-16T07:44:24Z</time>
      </trkpt>
      <trkpt lat="49.42257" lon="1.07612">
        <ele>12</ele>
        <time>2021-10-16T07:44:25Z</time>
      </trkpt>
      <trkpt lat="49.42255" lon="1.07607">
        <ele>12</ele>
        <time>2021-10-16T07:44:26Z</time>
      </trkpt>
      <trkpt lat="49.42253" lon="1.07602">
        <ele>12</ele>
        <time>2021-10-16T07:44:27Z</time>
      </trkpt>
      <trkpt lat="49.4225" lon="1.07596">
        <ele>12</ele>
        <time>2021-10-16T07:44:29Z</time>
      </trkpt>
      <trkpt lat="49.42248" lon="1.07592">
        <ele>12</ele>
        <time>2021-10-16T07:44:30Z</time>
      </trkpt>
      <trkpt lat="49.42246" lon="1.07587">
        <ele>12</ele>
        <time>2021-10-16T07:44:31Z</time>
      </trkpt>
      <trkpt lat="49.42245" lon="1.07582">
        <ele>12.1</ele>
        <time>2021-10-16T07:44:33Z</time>
      </trkpt>
      <trkpt lat="49.42243" lon="1.07578">
        <ele>12.1</ele>
        <time>2021-10-16T07:44:34Z</time>
      </trkpt>
      <trkpt lat="49.42241" lon="1.07574">
        <ele>12.1</ele>
        <time>2021-10-16T07:44:35Z</time>
      </trkpt>
      <trkpt lat="49.42239" lon="1.07569">
        <ele>12.2</ele>
        <time>2021-10-16T07:44:36Z</time>
      </trkpt>
      <trkpt lat="49.42237" lon="1.07564">
        <ele>12.2</ele>
        <time>2021-10-16T07:44:37Z</time>
      </trkpt>
      <trkpt lat="49.42236" lon="1.07562">
        <ele>12.2</ele>
        <time>2021-10-16T07:44:38Z</time>
      </trkpt>
      <trkpt lat="49.42234" lon="1.07557">
        <ele>12.3</ele>
        <time>2021-10-16T07:44:40Z</time>
      </trkpt>
      <trkpt lat="49.42231" lon="1.07553">
        <ele>12.4</ele>
        <time>2021-10-16T07:44:42Z</time>
      </trkpt>
      <trkpt lat="49.42229" lon="1.0755">
        <ele>12.5</ele>
        <time>2021-10-16T07:44:43Z</time>
      </trkpt>
      <trkpt lat="49.42228" lon="1.07549">
        <ele>12.5</ele>
        <time>2021-10-16T07:44:44Z</time>
      </trkpt>
      <trkpt lat="49.42224" lon="1.07544">
        <ele>12.6</ele>
        <time>2021-10-16T07:44:47Z</time>
      </trkpt>
      <trkpt lat="49.42222" lon="1.07542">
        <ele>12.7</ele>
        <time>2021-10-16T07:44:48Z</time>
      </trkpt>
      <trkpt lat="49.42218" lon="1.07538">
        <ele>12.7</ele>
        <time>2021-10-16T07:44:49Z</time>
      </trkpt>
      <trkpt lat="49.42217" lon="1.07537">
        <ele>12.8</ele>
        <time>2021-10-16T07:44:50Z</time>
      </trkpt>
      <trkpt lat="49.42215" lon="1.07534">
        <ele>12.8</ele>
        <time>2021-10-16T07:44:51Z</time>
      </trkpt>
      <trkpt lat="49.42213" lon="1.07531">
        <ele>12.9</ele>
        <time>2021-10-16T07:44:52Z</time>
      </trkpt>
      <trkpt lat="49.42211" lon="1.0753">
        <ele>12.9</ele>
        <time>2021-10-16T07:44:53Z</time>
      </trkpt>
      <trkpt lat="49.42208" lon="1.07529">
        <ele>13</ele>
        <time>2021-10-16T07:44:55Z</time>
      </trkpt>
      <trkpt lat="49.42205" lon="1.07528">
        <ele>13.1</ele>
        <time>2021-10-16T07:44:56Z</time>
      </trkpt>
      <trkpt lat="49.42201" lon="1.07527">
        <ele>13.1</ele>
        <time>2021-10-16T07:44:57Z</time>
      </trkpt>
      <trkpt lat="49.42199" lon="1.07525">
        <ele>13.2</ele>
        <time>2021-10-16T07:44:58Z</time>
      </trkpt>
      <trkpt lat="49.42195" lon="1.07521">
        <ele>13.3</ele>
        <time>2021-10-16T07:45:00Z</time>
      </trkpt>
      <trkpt lat="49.42193" lon="1.07518">
        <ele>13.5</ele>
        <time>2021-10-16T07:45:01Z</time>
      </trkpt>
      <trkpt lat="49.42193" lon="1.07517">
        <ele>13.5</ele>
        <time>2021-10-16T07:45:02Z</time>
      </trkpt>
      <trkpt lat="49.42192" lon="1.07512">
        <ele>13.6</ele>
        <time>2021-10-16T07:45:04Z</time>
      </trkpt>
      <trkpt lat="49.42191" lon="1.07511">
        <ele>13.6</ele>
        <time>2021-10-16T07:45:05Z</time>
      </trkpt>
      <trkpt lat="49.4219" lon="1.07504">
        <ele>13.7</ele>
        <time>2021-10-16T07:45:06Z</time>
      </trkpt>
      <trkpt lat="49.42187" lon="1.07495">
        <ele>13.8</ele>
        <time>2021-10-16T07:45:08Z</time>
      </trkpt>
      <trkpt lat="49.42185" lon="1.07489">
        <ele>14</ele>
        <time>2021-10-16T07:45:09Z</time>
      </trkpt>
      <trkpt lat="49.42184" lon="1.07483">
        <ele>14.1</ele>
        <time>2021-10-16T07:45:10Z</time>
      </trkpt>
      <trkpt lat="49.42181" lon="1.07477">
        <ele>14.3</ele>
        <time>2021-10-16T07:45:12Z</time>
      </trkpt>
      <trkpt lat="49.42179" lon="1.07472">
        <ele>14.4</ele>
        <time>2021-10-16T07:45:13Z</time>
      </trkpt>
      <trkpt lat="49.42178" lon="1.07465">
        <ele>14.8</ele>
        <time>2021-10-16T07:45:14Z</time>
      </trkpt>
      <trkpt lat="49.42176" lon="1.07459">
        <ele>15</ele>
        <time>2021-10-16T07:45:16Z</time>
      </trkpt>
      <trkpt lat="49.42174" lon="1.07453">
        <ele>15.3</ele>
        <time>2021-10-16T07:45:17Z</time>
      </trkpt>
      <trkpt lat="49.42173" lon="1.07449">
        <ele>15.4</ele>
        <time>2021-10-16T07:45:18Z</time>
      </trkpt>
      <trkpt lat="49.4217" lon="1.07444">
        <ele>15.7</ele>
        <time>2021-10-16T07:45:20Z</time>
      </trkpt>
      <trkpt lat="49.42168" lon="1.0744">
        <ele>15.8</ele>
        <time>2021-10-16T07:45:21Z</time>
      </trkpt>
      <trkpt lat="49.42166" lon="1.07437">
        <ele>16</ele>
        <time>2021-10-16T07:45:22Z</time>
      </trkpt>
      <trkpt lat="49.42164" lon="1.07434">
        <ele>16.2</ele>
        <time>2021-10-16T07:45:23Z</time>
      </trkpt>
      <trkpt lat="49.42161" lon="1.07431">
        <ele>16.4</ele>
        <time>2021-10-16T07:45:25Z</time>
      </trkpt>
      <trkpt lat="49.42157" lon="1.07428">
        <ele>16.6</ele>
        <time>2021-10-16T07:45:26Z</time>
      </trkpt>
      <trkpt lat="49.42156" lon="1.07427">
        <ele>16.7</ele>
        <time>2021-10-16T07:45:27Z</time>
      </trkpt>
      <trkpt lat="49.42153" lon="1.07424">
        <ele>16.9</ele>
        <time>2021-10-16T07:45:29Z</time>
      </trkpt>
      <trkpt lat="49.42149" lon="1.07421">
        <ele>17.2</ele>
        <time>2021-10-16T07:45:30Z</time>
      </trkpt>
      <trkpt lat="49.42148" lon="1.0742">
        <ele>17.3</ele>
        <time>2021-10-16T07:45:31Z</time>
      </trkpt>
      <trkpt lat="49.42146" lon="1.07419">
        <ele>17.4</ele>
        <time>2021-10-16T07:45:32Z</time>
      </trkpt>
      <trkpt lat="49.42143" lon="1.07418">
        <ele>17.5</ele>
        <time>2021-10-16T07:45:34Z</time>
      </trkpt>
      <trkpt lat="49.4214" lon="1.07417">
        <ele>17.7</ele>
        <time>2021-10-16T07:45:35Z</time>
      </trkpt>
      <trkpt lat="49.42137" lon="1.07415">
        <ele>17.9</ele>
        <time>2021-10-16T07:45:36Z</time>
      </trkpt>
      <trkpt lat="49.42134" lon="1.07414">
        <ele>18.1</ele>
        <time>2021-10-16T07:45:37Z</time>
      </trkpt>
      <trkpt lat="49.42131" lon="1.07412">
        <ele>18.2</ele>
        <time>2021-10-16T07:45:38Z</time>
      </trkpt>
      <trkpt lat="49.42128" lon="1.07411">
        <ele>18.4</ele>
        <time>2021-10-16T07:45:39Z</time>
      </trkpt>
      <trkpt lat="49.42125" lon="1.07411">
        <ele>18.5</ele>
        <time>2021-10-16T07:45:41Z</time>
      </trkpt>
      <trkpt lat="49.42122" lon="1.0741">
        <ele>18.7</ele>
        <time>2021-10-16T07:45:42Z</time>
      </trkpt>
      <trkpt lat="49.42119" lon="1.0741">
        <ele>18.8</ele>
        <time>2021-10-16T07:45:43Z</time>
      </trkpt>
      <trkpt lat="49.42115" lon="1.07409">
        <ele>19</ele>
        <time>2021-10-16T07:45:44Z</time>
      </trkpt>
      <trkpt lat="49.42113" lon="1.07408">
        <ele>19.1</ele>
        <time>2021-10-16T07:45:45Z</time>
      </trkpt>
      <trkpt lat="49.42111" lon="1.07408">
        <ele>19.2</ele>
        <time>2021-10-16T07:45:46Z</time>
      </trkpt>
      <trkpt lat="49.42107" lon="1.07406">
        <ele>19.3</ele>
        <time>2021-10-16T07:45:48Z</time>
      </trkpt>
      <trkpt lat="49.42104" lon="1.07404">
        <ele>19.5</ele>
        <time>2021-10-16T07:45:49Z</time>
      </trkpt>
      <trkpt lat="49.42103" lon="1.07403">
        <ele>19.5</ele>
        <time>2021-10-16T07:45:50Z</time>
      </trkpt>
      <trkpt lat="49.42102" lon="1.07402">
        <ele>19.6</ele>
        <time>2021-10-16T07:45:51Z</time>
      </trkpt>
      <trkpt lat="49.421" lon="1.074">
        <ele>19.7</ele>
        <time>2021-10-16T07:45:53Z</time>
      </trkpt>
      <trkpt lat="49.42097" lon="1.07398">
        <ele>19.8</ele>
        <time>2021-10-16T07:45:54Z</time>
      </trkpt>
      <trkpt lat="49.42096" lon="1.07396">
        <ele>20.1</ele>
        <time>2021-10-16T07:45:55Z</time>
      </trkpt>
      <trkpt lat="49.42093" lon="1.07394">
        <ele>20.6</ele>
        <time>2021-10-16T07:45:57Z</time>
      </trkpt>
      <trkpt lat="49.42093" lon="1.07389">
        <ele>20.5</ele>
        <time>2021-10-16T07:45:59Z</time>
      </trkpt>
      <trkpt lat="49.42094" lon="1.07388">
        <ele>20.4</ele>
        <time>2021-10-16T07:46:00Z</time>
      </trkpt>
      <trkpt lat="49.42097" lon="1.07384">
        <ele>20.3</ele>
        <time>2021-10-16T07:46:01Z</time>
      </trkpt>
      <trkpt lat="49.42098" lon="1.07383">
        <ele>20.1</ele>
        <time>2021-10-16T07:46:04Z</time>
      </trkpt>
      <trkpt lat="49.42099" lon="1.07381">
        <ele>20</ele>
        <time>2021-10-16T07:46:05Z</time>
      </trkpt>
      <trkpt lat="49.421" lon="1.07379">
        <ele>19.9</ele>
        <time>2021-10-16T07:46:06Z</time>
      </trkpt>
      <trkpt lat="49.421" lon="1.07377">
        <ele>19.7</ele>
        <time>2021-10-16T07:46:08Z</time>
      </trkpt>
      <trkpt lat="49.42101" lon="1.07376">
        <ele>19.6</ele>
        <time>2021-10-16T07:46:09Z</time>
      </trkpt>
      <trkpt lat="49.42104" lon="1.07377">
        <ele>19.5</ele>
        <time>2021-10-16T07:46:10Z</time>
      </trkpt>
      <trkpt lat="49.42106" lon="1.07377">
        <ele>19.3</ele>
        <time>2021-10-16T07:46:11Z</time>
      </trkpt>
      <trkpt lat="49.42108" lon="1.07377">
        <ele>19.2</ele>
        <time>2021-10-16T07:46:12Z</time>
      </trkpt>
      <trkpt lat="49.42111" lon="1.07376">
        <ele>19.1</ele>
        <time>2021-10-16T07:46:14Z</time>
      </trkpt>
      <trkpt lat="49.42112" lon="1.07376">
        <ele>19</ele>
        <time>2021-10-16T07:46:15Z</time>
      </trkpt>
      <trkpt lat="49.42115" lon="1.07376">
        <ele>18.9</ele>
        <time>2021-10-16T07:46:17Z</time>
      </trkpt>
      <trkpt lat="49.4212" lon="1.07379">
        <ele>18.7</ele>
        <time>2021-10-16T07:46:19Z</time>
      </trkpt>
      <trkpt lat="49.42126" lon="1.07383">
        <ele>18.5</ele>
        <time>2021-10-16T07:46:21Z</time>
      </trkpt>
      <trkpt lat="49.42131" lon="1.07386">
        <ele>18.3</ele>
        <time>2021-10-16T07:46:22Z</time>
      </trkpt>
      <trkpt lat="49.42135" lon="1.07388">
        <ele>18.1</ele>
        <time>2021-10-16T07:46:23Z</time>
      </trkpt>
      <trkpt lat="49.42139" lon="1.0739">
        <ele>18</ele>
        <time>2021-10-16T07:46:24Z</time>
      </trkpt>
      <trkpt lat="49.42142" lon="1.07392">
        <ele>17.8</ele>
        <time>2021-10-16T07:46:25Z</time>
      </trkpt>
      <trkpt lat="49.42145" lon="1.07393">
        <ele>17.8</ele>
        <time>2021-10-16T07:46:26Z</time>
      </trkpt>
      <trkpt lat="49.42147" lon="1.07394">
        <ele>17.7</ele>
        <time>2021-10-16T07:46:27Z</time>
      </trkpt>
      <trkpt lat="49.42151" lon="1.07396">
        <ele>17.5</ele>
        <time>2021-10-16T07:46:29Z</time>
      </trkpt>
      <trkpt lat="49.42154" lon="1.07398">
        <ele>17.4</ele>
        <time>2021-10-16T07:46:30Z</time>
      </trkpt>
      <trkpt lat="49.42156" lon="1.07399">
        <ele>17.3</ele>
        <time>2021-10-16T07:46:31Z</time>
      </trkpt>
      <trkpt lat="49.42159" lon="1.07401">
        <ele>17.2</ele>
        <time>2021-10-16T07:46:32Z</time>
      </trkpt>
      <trkpt lat="49.42162" lon="1.07403">
        <ele>17.1</ele>
        <time>2021-10-16T07:46:33Z</time>
      </trkpt>
      <trkpt lat="49.42163" lon="1.07404">
        <ele>17.1</ele>
        <time>2021-10-16T07:46:34Z</time>
      </trkpt>
      <trkpt lat="49.42167" lon="1.07406">
        <ele>17</ele>
        <time>2021-10-16T07:46:35Z</time>
      </trkpt>
      <trkpt lat="49.42168" lon="1.07407">
        <ele>16.9</ele>
        <time>2021-10-16T07:46:36Z</time>
      </trkpt>
      <trkpt lat="49.42171" lon="1.0741">
        <ele>16.8</ele>
        <time>2021-10-16T07:46:38Z</time>
      </trkpt>
      <trkpt lat="49.42174" lon="1.07412">
        <ele>16.7</ele>
        <time>2021-10-16T07:46:39Z</time>
      </trkpt>
      <trkpt lat="49.42176" lon="1.07414">
        <ele>16.6</ele>
        <time>2021-10-16T07:46:40Z</time>
      </trkpt>
      <trkpt lat="49.4218" lon="1.07417">
        <ele>16.5</ele>
        <time>2021-10-16T07:46:41Z</time>
      </trkpt>
      <trkpt lat="49.42187" lon="1.07421">
        <ele>16.3</ele>
        <time>2021-10-16T07:46:43Z</time>
      </trkpt>
      <trkpt lat="49.42192" lon="1.07424">
        <ele>16.1</ele>
        <time>2021-10-16T07:46:44Z</time>
      </trkpt>
      <trkpt lat="49.42198" lon="1.07427">
        <ele>15.9</ele>
        <time>2021-10-16T07:46:45Z</time>
      </trkpt>
      <trkpt lat="49.42203" lon="1.0743">
        <ele>15.7</ele>
        <time>2021-10-16T07:46:46Z</time>
      </trkpt>
      <trkpt lat="49.42207" lon="1.07433">
        <ele>15.6</ele>
        <time>2021-10-16T07:46:47Z</time>
      </trkpt>
      <trkpt lat="49.4221" lon="1.07436">
        <ele>15.5</ele>
        <time>2021-10-16T07:46:48Z</time>
      </trkpt>
      <trkpt lat="49.42215" lon="1.07438">
        <ele>15.3</ele>
        <time>2021-10-16T07:46:50Z</time>
      </trkpt>
      <trkpt lat="49.42218" lon="1.0744">
        <ele>15.2</ele>
        <time>2021-10-16T07:46:51Z</time>
      </trkpt>
      <trkpt lat="49.42222" lon="1.07442">
        <ele>15.1</ele>
        <time>2021-10-16T07:46:52Z</time>
      </trkpt>
      <trkpt lat="49.42224" lon="1.07443">
        <ele>15</ele>
        <time>2021-10-16T07:46:53Z</time>
      </trkpt>
      <trkpt lat="49.42228" lon="1.07445">
        <ele>14.8</ele>
        <time>2021-10-16T07:46:55Z</time>
      </trkpt>
      <trkpt lat="49.42231" lon="1.07447">
        <ele>14.7</ele>
        <time>2021-10-16T07:46:56Z</time>
      </trkpt>
      <trkpt lat="49.42233" lon="1.07449">
        <ele>14.6</ele>
        <time>2021-10-16T07:46:57Z</time>
      </trkpt>
      <trkpt lat="49.42238" lon="1.07452">
        <ele>14.4</ele>
        <time>2021-10-16T07:46:59Z</time>
      </trkpt>
      <trkpt lat="49.42241" lon="1.07455">
        <ele>14.2</ele>
        <time>2021-10-16T07:47:00Z</time>
      </trkpt>
      <trkpt lat="49.42244" lon="1.07458">
        <ele>14.1</ele>
        <time>2021-10-16T07:47:01Z</time>
      </trkpt>
      <trkpt lat="49.42247" lon="1.0746">
        <ele>14</ele>
        <time>2021-10-16T07:47:02Z</time>
      </trkpt>
      <trkpt lat="49.42251" lon="1.07462">
        <ele>13.8</ele>
        <time>2021-10-16T07:47:03Z</time>
      </trkpt>
      <trkpt lat="49.42252" lon="1.07463">
        <ele>13.8</ele>
        <time>2021-10-16T07:47:04Z</time>
      </trkpt>
      <trkpt lat="49.42256" lon="1.07467">
        <ele>13.6</ele>
        <time>2021-10-16T07:47:06Z</time>
      </trkpt>
      <trkpt lat="49.42259" lon="1.07469">
        <ele>13.5</ele>
        <time>2021-10-16T07:47:07Z</time>
      </trkpt>
      <trkpt lat="49.42264" lon="1.07472">
        <ele>13.3</ele>
        <time>2021-10-16T07:47:09Z</time>
      </trkpt>
      <trkpt lat="49.42266" lon="1.07473">
        <ele>13.2</ele>
        <time>2021-10-16T07:47:10Z</time>
      </trkpt>
      <trkpt lat="49.42269" lon="1.07475">
        <ele>13.1</ele>
        <time>2021-10-16T07:47:11Z</time>
      </trkpt>
      <trkpt lat="49.42274" lon="1.07478">
        <ele>12.9</ele>
        <time>2021-10-16T07:47:13Z</time>
      </trkpt>
      <trkpt lat="49.42277" lon="1.07479">
        <ele>12.8</ele>
        <time>2021-10-16T07:47:15Z</time>
      </trkpt>
      <trkpt lat="49.4228" lon="1.0748">
        <ele>12.8</ele>
        <time>2021-10-16T07:47:16Z</time>
      </trkpt>
      <trkpt lat="49.42283" lon="1.07482">
        <ele>12.6</ele>
        <time>2021-10-16T07:47:18Z</time>
      </trkpt>
      <trkpt lat="49.42286" lon="1.07483">
        <ele>12.6</ele>
        <time>2021-10-16T07:47:19Z</time>
      </trkpt>
      <trkpt lat="49.42289" lon="1.07486">
        <ele>12.4</ele>
        <time>2021-10-16T07:47:20Z</time>
      </trkpt>
      <trkpt lat="49.4229" lon="1.07487">
        <ele>12.4</ele>
        <time>2021-10-16T07:47:21Z</time>
      </trkpt>
      <trkpt lat="49.42294" lon="1.0749">
        <ele>12.3</ele>
        <time>2021-10-16T07:47:22Z</time>
      </trkpt>
      <trkpt lat="49.42296" lon="1.07491">
        <ele>12.2</ele>
        <time>2021-10-16T07:47:23Z</time>
      </trkpt>
      <trkpt lat="49.42301" lon="1.07494">
        <ele>12.1</ele>
        <time>2021-10-16T07:47:24Z</time>
      </trkpt>
      <trkpt lat="49.42307" lon="1.07499">
        <ele>11.9</ele>
        <time>2021-10-16T07:47:26Z</time>
      </trkpt>
      <trkpt lat="49.4231" lon="1.07502">
        <ele>11.8</ele>
        <time>2021-10-16T07:47:27Z</time>
      </trkpt>
      <trkpt lat="49.42314" lon="1.07504">
        <ele>11.6</ele>
        <time>2021-10-16T07:47:28Z</time>
      </trkpt>
      <trkpt lat="49.42318" lon="1.07505">
        <ele>11.5</ele>
        <time>2021-10-16T07:47:29Z</time>
      </trkpt>
      <trkpt lat="49.42321" lon="1.07508">
        <ele>11.4</ele>
        <time>2021-10-16T07:47:31Z</time>
      </trkpt>
      <trkpt lat="49.42324" lon="1.07509">
        <ele>11.3</ele>
        <time>2021-10-16T07:47:32Z</time>
      </trkpt>
      <trkpt lat="49.42327" lon="1.07511">
        <ele>11.2</ele>
        <time>2021-10-16T07:47:33Z</time>
      </trkpt>
      <trkpt lat="49.42331" lon="1.07512">
        <ele>11.2</ele>
        <time>2021-10-16T07:47:34Z</time>
      </trkpt>
      <trkpt lat="49.42334" lon="1.07514">
        <ele>11.1</ele>
        <time>2021-10-16T07:47:35Z</time>
      </trkpt>
      <trkpt lat="49.42338" lon="1.07516">
        <ele>11</ele>
        <time>2021-10-16T07:47:36Z</time>
      </trkpt>
      <trkpt lat="49.42341" lon="1.07518">
        <ele>10.9</ele>
        <time>2021-10-16T07:47:37Z</time>
      </trkpt>
      <trkpt lat="49.42346" lon="1.07521">
        <ele>10.8</ele>
        <time>2021-10-16T07:47:39Z</time>
      </trkpt>
      <trkpt lat="49.42349" lon="1.07522">
        <ele>10.7</ele>
        <time>2021-10-16T07:47:40Z</time>
      </trkpt>
      <trkpt lat="49.42353" lon="1.07524">
        <ele>10.7</ele>
        <time>2021-10-16T07:47:41Z</time>
      </trkpt>
      <trkpt lat="49.42356" lon="1.07526">
        <ele>10.6</ele>
        <time>2021-10-16T07:47:43Z</time>
      </trkpt>
      <trkpt lat="49.4236" lon="1.07527">
        <ele>10.5</ele>
        <time>2021-10-16T07:47:44Z</time>
      </trkpt>
      <trkpt lat="49.42363" lon="1.07529">
        <ele>10.4</ele>
        <time>2021-10-16T07:47:45Z</time>
      </trkpt>
      <trkpt lat="49.42366" lon="1.07531">
        <ele>10.4</ele>
        <time>2021-10-16T07:47:46Z</time>
      </trkpt>
      <trkpt lat="49.4237" lon="1.07533">
        <ele>10.3</ele>
        <time>2021-10-16T07:47:47Z</time>
      </trkpt>
      <trkpt lat="49.42375" lon="1.07536">
        <ele>10.2</ele>
        <time>2021-10-16T07:47:49Z</time>
      </trkpt>
      <trkpt lat="49.42379" lon="1.07538">
        <ele>10.1</ele>
        <time>2021-10-16T07:47:50Z</time>
      </trkpt>
      <trkpt lat="49.42382" lon="1.0754">
        <ele>10</ele>
        <time>2021-10-16T07:47:51Z</time>
      </trkpt>
      <trkpt lat="49.42385" lon="1.07541">
        <ele>10</ele>
        <time>2021-10-16T07:47:52Z</time>
      </trkpt>
      <trkpt lat="49.42388" lon="1.07543">
        <ele>9.9</ele>
        <time>2021-10-16T07:47:53Z</time>
      </trkpt>
      <trkpt lat="49.4239" lon="1.07544">
        <ele>9.9</ele>
        <time>2021-10-16T07:47:54Z</time>
      </trkpt>
      <trkpt lat="49.42391" lon="1.07544">
        <ele>9.9</ele>
        <time>2021-10-16T07:47:56Z</time>
      </trkpt>
      <trkpt lat="49.42393" lon="1.07545">
        <ele>9.8</ele>
        <time>2021-10-16T07:47:57Z</time>
      </trkpt>
      <trkpt lat="49.42394" lon="1.07545">
        <ele>9.8</ele>
        <time>2021-10-16T07:47:58Z</time>
      </trkpt>
      <trkpt lat="49.42399" lon="1.07547">
        <ele>9.8</ele>
        <time>2021-10-16T07:47:59Z</time>
      </trkpt>
      <trkpt lat="49.42406" lon="1.0755">
        <ele>9.7</ele>
        <time>2021-10-16T07:48:00Z</time>
      </trkpt>
      <trkpt lat="49.42414" lon="1.07551">
        <ele>9.6</ele>
        <time>2021-10-16T07:48:02Z</time>
      </trkpt>
      <trkpt lat="49.4242" lon="1.07554">
        <ele>9.6</ele>
        <time>2021-10-16T07:48:03Z</time>
      </trkpt>
      <trkpt lat="49.42426" lon="1.07554">
        <ele>9.5</ele>
        <time>2021-10-16T07:48:04Z</time>
      </trkpt>
      <trkpt lat="49.4243" lon="1.07553">
        <ele>9.5</ele>
        <time>2021-10-16T07:48:05Z</time>
      </trkpt>
      <trkpt lat="49.42434" lon="1.0755">
        <ele>9.5</ele>
        <time>2021-10-16T07:48:06Z</time>
      </trkpt>
      <trkpt lat="49.42437" lon="1.07546">
        <ele>9.5</ele>
        <time>2021-10-16T07:48:08Z</time>
      </trkpt>
      <trkpt lat="49.4244" lon="1.07545">
        <ele>9.5</ele>
        <time>2021-10-16T07:48:09Z</time>
      </trkpt>
      <trkpt lat="49.42443" lon="1.07546">
        <ele>9.6</ele>
        <time>2021-10-16T07:48:10Z</time>
      </trkpt>
      <trkpt lat="49.42445" lon="1.07546">
        <ele>9.6</ele>
        <time>2021-10-16T07:48:11Z</time>
      </trkpt>
      <trkpt lat="49.42448" lon="1.07544">
        <ele>9.6</ele>
        <time>2021-10-16T07:48:12Z</time>
      </trkpt>
      <trkpt lat="49.42452" lon="1.07545">
        <ele>9.6</ele>
        <time>2021-10-16T07:48:13Z</time>
      </trkpt>
      <trkpt lat="49.42453" lon="1.07546">
        <ele>9.6</ele>
        <time>2021-10-16T07:48:14Z</time>
      </trkpt>
      <trkpt lat="49.42457" lon="1.07548">
        <ele>9.6</ele>
        <time>2021-10-16T07:48:16Z</time>
      </trkpt>
      <trkpt lat="49.4246" lon="1.07549">
        <ele>9.6</ele>
        <time>2021-10-16T07:48:17Z</time>
      </trkpt>
      <trkpt lat="49.42463" lon="1.07553">
        <ele>9.6</ele>
        <time>2021-10-16T07:48:19Z</time>
      </trkpt>
      <trkpt lat="49.42467" lon="1.07558">
        <ele>9.6</ele>
        <time>2021-10-16T07:48:21Z</time>
      </trkpt>
      <trkpt lat="49.4247" lon="1.07561">
        <ele>9.6</ele>
        <time>2021-10-16T07:48:22Z</time>
      </trkpt>
      <trkpt lat="49.42473" lon="1.07564">
        <ele>9.6</ele>
        <time>2021-10-16T07:48:23Z</time>
      </trkpt>
      <trkpt lat="49.42476" lon="1.07567">
        <ele>9.6</ele>
        <time>2021-10-16T07:48:24Z</time>
      </trkpt>
      <trkpt lat="49.42478" lon="1.07569">
        <ele>9.6</ele>
        <time>2021-10-16T07:48:25Z</time>
      </trkpt>
      <trkpt lat="49.42479" lon="1.0757">
        <ele>9.6</ele>
        <time>2021-10-16T07:48:26Z</time>
      </trkpt>
      <trkpt lat="49.42482" lon="1.07572">
        <ele>9.6</ele>
        <time>2021-10-16T07:48:27Z</time>
      </trkpt>
      <trkpt lat="49.42482" lon="1.07573">
        <ele>9.6</ele>
        <time>2021-10-16T07:48:28Z</time>
      </trkpt>
      <trkpt lat="49.42486" lon="1.07577">
        <ele>9.6</ele>
        <time>2021-10-16T07:48:30Z</time>
      </trkpt>
      <trkpt lat="49.4249" lon="1.07582">
        <ele>9.6</ele>
        <time>2021-10-16T07:48:31Z</time>
      </trkpt>
      <trkpt lat="49.42493" lon="1.07585">
        <ele>9.6</ele>
        <time>2021-10-16T07:48:32Z</time>
      </trkpt>
      <trkpt lat="49.42498" lon="1.0759">
        <ele>9.6</ele>
        <time>2021-10-16T07:48:34Z</time>
      </trkpt>
      <trkpt lat="49.42501" lon="1.07592">
        <ele>9.6</ele>
        <time>2021-10-16T07:48:35Z</time>
      </trkpt>
      <trkpt lat="49.42503" lon="1.07595">
        <ele>9.6</ele>
        <time>2021-10-16T07:48:36Z</time>
      </trkpt>
      <trkpt lat="49.42507" lon="1.07598">
        <ele>9.7</ele>
        <time>2021-10-16T07:48:38Z</time>
      </trkpt>
      <trkpt lat="49.4251" lon="1.07601">
        <ele>9.7</ele>
        <time>2021-10-16T07:48:39Z</time>
      </trkpt>
      <trkpt lat="49.42513" lon="1.07603">
        <ele>9.7</ele>
        <time>2021-10-16T07:48:40Z</time>
      </trkpt>
      <trkpt lat="49.42517" lon="1.07606">
        <ele>9.7</ele>
        <time>2021-10-16T07:48:42Z</time>
      </trkpt>
      <trkpt lat="49.4252" lon="1.07609">
        <ele>9.8</ele>
        <time>2021-10-16T07:48:43Z</time>
      </trkpt>
      <trkpt lat="49.42524" lon="1.07612">
        <ele>9.8</ele>
        <time>2021-10-16T07:48:44Z</time>
      </trkpt>
      <trkpt lat="49.42528" lon="1.07614">
        <ele>9.8</ele>
        <time>2021-10-16T07:48:45Z</time>
      </trkpt>
      <trkpt lat="49.42532" lon="1.07616">
        <ele>9.9</ele>
        <time>2021-10-16T07:48:46Z</time>
      </trkpt>
      <trkpt lat="49.42537" lon="1.07619">
        <ele>9.9</ele>
        <time>2021-10-16T07:48:48Z</time>
      </trkpt>
      <trkpt lat="49.42541" lon="1.07621">
        <ele>10</ele>
        <time>2021-10-16T07:48:49Z</time>
      </trkpt>
      <trkpt lat="49.42544" lon="1.07623">
        <ele>10</ele>
        <time>2021-10-16T07:48:50Z</time>
      </trkpt>
      <trkpt lat="49.42549" lon="1.07626">
        <ele>10</ele>
        <time>2021-10-16T07:48:51Z</time>
      </trkpt>
      <trkpt lat="49.42553" lon="1.07629">
        <ele>10.1</ele>
        <time>2021-10-16T07:48:53Z</time>
      </trkpt>
      <trkpt lat="49.42556" lon="1.0763">
        <ele>10.1</ele>
        <time>2021-10-16T07:48:54Z</time>
      </trkpt>
      <trkpt lat="49.42559" lon="1.07632">
        <ele>10.2</ele>
        <time>2021-10-16T07:48:55Z</time>
      </trkpt>
      <trkpt lat="49.42562" lon="1.07633">
        <ele>10.2</ele>
        <time>2021-10-16T07:48:56Z</time>
      </trkpt>
      <trkpt lat="49.42564" lon="1.07635">
        <ele>10.3</ele>
        <time>2021-10-16T07:48:57Z</time>
      </trkpt>
      <trkpt lat="49.42568" lon="1.07637">
        <ele>10.3</ele>
        <time>2021-10-16T07:48:59Z</time>
      </trkpt>
      <trkpt lat="49.42571" lon="1.07639">
        <ele>10.4</ele>
        <time>2021-10-16T07:49:00Z</time>
      </trkpt>
      <trkpt lat="49.42574" lon="1.07641">
        <ele>10.5</ele>
        <time>2021-10-16T07:49:01Z</time>
      </trkpt>
      <trkpt lat="49.42576" lon="1.07642">
        <ele>10.5</ele>
        <time>2021-10-16T07:49:02Z</time>
      </trkpt>
      <trkpt lat="49.4258" lon="1.07644">
        <ele>10.6</ele>
        <time>2021-10-16T07:49:04Z</time>
      </trkpt>
      <trkpt lat="49.42583" lon="1.07646">
        <ele>10.6</ele>
        <time>2021-10-16T07:49:05Z</time>
      </trkpt>
      <trkpt lat="49.42586" lon="1.07648">
        <ele>10.7</ele>
        <time>2021-10-16T07:49:06Z</time>
      </trkpt>
      <trkpt lat="49.42589" lon="1.07649">
        <ele>10.8</ele>
        <time>2021-10-16T07:49:07Z</time>
      </trkpt>
      <trkpt lat="49.42592" lon="1.07651">
        <ele>10.8</ele>
        <time>2021-10-16T07:49:08Z</time>
      </trkpt>
      <trkpt lat="49.42596" lon="1.07653">
        <ele>10.9</ele>
        <time>2021-10-16T07:49:10Z</time>
      </trkpt>
      <trkpt lat="49.42599" lon="1.07654">
        <ele>11</ele>
        <time>2021-10-16T07:49:11Z</time>
      </trkpt>
      <trkpt lat="49.42603" lon="1.07655">
        <ele>11.1</ele>
        <time>2021-10-16T07:49:12Z</time>
      </trkpt>
      <trkpt lat="49.42606" lon="1.07656">
        <ele>11.1</ele>
        <time>2021-10-16T07:49:13Z</time>
      </trkpt>
      <trkpt lat="49.42608" lon="1.07657">
        <ele>11.2</ele>
        <time>2021-10-16T07:49:14Z</time>
      </trkpt>
      <trkpt lat="49.42611" lon="1.07659">
        <ele>11.3</ele>
        <time>2021-10-16T07:49:15Z</time>
      </trkpt>
      <trkpt lat="49.42614" lon="1.07661">
        <ele>11.3</ele>
        <time>2021-10-16T07:49:17Z</time>
      </trkpt>
      <trkpt lat="49.42618" lon="1.07664">
        <ele>11.4</ele>
        <time>2021-10-16T07:49:18Z</time>
      </trkpt>
      <trkpt lat="49.4262" lon="1.07665">
        <ele>11.5</ele>
        <time>2021-10-16T07:49:19Z</time>
      </trkpt>
      <trkpt lat="49.42623" lon="1.07667">
        <ele>11.5</ele>
        <time>2021-10-16T07:49:21Z</time>
      </trkpt>
      <trkpt lat="49.42627" lon="1.07669">
        <ele>11.6</ele>
        <time>2021-10-16T07:49:22Z</time>
      </trkpt>
      <trkpt lat="49.42628" lon="1.0767">
        <ele>11.7</ele>
        <time>2021-10-16T07:49:23Z</time>
      </trkpt>
      <trkpt lat="49.42632" lon="1.07673">
        <ele>11.8</ele>
        <time>2021-10-16T07:49:25Z</time>
      </trkpt>
      <trkpt lat="49.42635" lon="1.07675">
        <ele>11.8</ele>
        <time>2021-10-16T07:49:26Z</time>
      </trkpt>
      <trkpt lat="49.42638" lon="1.07677">
        <ele>11.9</ele>
        <time>2021-10-16T07:49:27Z</time>
      </trkpt>
      <trkpt lat="49.42642" lon="1.07679">
        <ele>12</ele>
        <time>2021-10-16T07:49:29Z</time>
      </trkpt>
      <trkpt lat="49.42645" lon="1.07681">
        <ele>12.1</ele>
        <time>2021-10-16T07:49:30Z</time>
      </trkpt>
      <trkpt lat="49.42648" lon="1.07683">
        <ele>12.2</ele>
        <time>2021-10-16T07:49:31Z</time>
      </trkpt>
      <trkpt lat="49.42651" lon="1.07685">
        <ele>12.3</ele>
        <time>2021-10-16T07:49:33Z</time>
      </trkpt>
      <trkpt lat="49.42654" lon="1.07687">
        <ele>12.4</ele>
        <time>2021-10-16T07:49:34Z</time>
      </trkpt>
      <trkpt lat="49.42657" lon="1.07689">
        <ele>12.4</ele>
        <time>2021-10-16T07:49:35Z</time>
      </trkpt>
      <trkpt lat="49.42661" lon="1.07692">
        <ele>12.5</ele>
        <time>2021-10-16T07:49:37Z</time>
      </trkpt>
      <trkpt lat="49.42664" lon="1.07694">
        <ele>12.6</ele>
        <time>2021-10-16T07:49:38Z</time>
      </trkpt>
      <trkpt lat="49.42667" lon="1.07696">
        <ele>12.7</ele>
        <time>2021-10-16T07:49:39Z</time>
      </trkpt>
      <trkpt lat="49.42668" lon="1.07696">
        <ele>12.7</ele>
        <time>2021-10-16T07:49:40Z</time>
      </trkpt>
      <trkpt lat="49.42672" lon="1.07694">
        <ele>12.8</ele>
        <time>2021-10-16T07:49:42Z</time>
      </trkpt>
      <trkpt lat="49.42675" lon="1.07692">
        <ele>12.9</ele>
        <time>2021-10-16T07:49:43Z</time>
      </trkpt>
      <trkpt lat="49.42677" lon="1.07691">
        <ele>12.9</ele>
        <time>2021-10-16T07:49:44Z</time>
      </trkpt>
      <trkpt lat="49.42681" lon="1.07691">
        <ele>13</ele>
        <time>2021-10-16T07:49:46Z</time>
      </trkpt>
      <trkpt lat="49.42682" lon="1.0769">
        <ele>13</ele>
        <time>2021-10-16T07:49:47Z</time>
      </trkpt>
      <trkpt lat="49.42686" lon="1.0769">
        <ele>13</ele>
        <time>2021-10-16T07:49:48Z</time>
      </trkpt>
      <trkpt lat="49.42687" lon="1.0769">
        <ele>13</ele>
        <time>2021-10-16T07:49:49Z</time>
      </trkpt>
      <trkpt lat="49.4269" lon="1.07691">
        <ele>13</ele>
        <time>2021-10-16T07:49:50Z</time>
      </trkpt>
      <trkpt lat="49.42694" lon="1.07692">
        <ele>13.1</ele>
        <time>2021-10-16T07:49:51Z</time>
      </trkpt>
      <trkpt lat="49.42697" lon="1.07694">
        <ele>13.1</ele>
        <time>2021-10-16T07:49:52Z</time>
      </trkpt>
      <trkpt lat="49.42701" lon="1.07696">
        <ele>13.1</ele>
        <time>2021-10-16T07:49:54Z</time>
      </trkpt>
      <trkpt lat="49.42703" lon="1.07698">
        <ele>13.2</ele>
        <time>2021-10-16T07:49:55Z</time>
      </trkpt>
      <trkpt lat="49.42706" lon="1.07701">
        <ele>13.2</ele>
        <time>2021-10-16T07:49:56Z</time>
      </trkpt>
      <trkpt lat="49.42709" lon="1.07705">
        <ele>13.2</ele>
        <time>2021-10-16T07:49:58Z</time>
      </trkpt>
      <trkpt lat="49.42712" lon="1.07708">
        <ele>13.3</ele>
        <time>2021-10-16T07:49:59Z</time>
      </trkpt>
      <trkpt lat="49.42715" lon="1.07712">
        <ele>13.2</ele>
        <time>2021-10-16T07:50:00Z</time>
      </trkpt>
      <trkpt lat="49.42716" lon="1.07713">
        <ele>13.2</ele>
        <time>2021-10-16T07:50:01Z</time>
      </trkpt>
      <trkpt lat="49.4272" lon="1.07714">
        <ele>13.2</ele>
        <time>2021-10-16T07:50:03Z</time>
      </trkpt>
      <trkpt lat="49.42723" lon="1.07716">
        <ele>13.2</ele>
        <time>2021-10-16T07:50:04Z</time>
      </trkpt>
      <trkpt lat="49.42724" lon="1.07717">
        <ele>13.2</ele>
        <time>2021-10-16T07:50:05Z</time>
      </trkpt>
      <trkpt lat="49.42727" lon="1.07718">
        <ele>13.2</ele>
        <time>2021-10-16T07:50:06Z</time>
      </trkpt>
      <trkpt lat="49.4273" lon="1.0772">
        <ele>13.1</ele>
        <time>2021-10-16T07:50:08Z</time>
      </trkpt>
      <trkpt lat="49.42732" lon="1.0772">
        <ele>13.1</ele>
        <time>2021-10-16T07:50:09Z</time>
      </trkpt>
      <trkpt lat="49.42735" lon="1.07722">
        <ele>13.1</ele>
        <time>2021-10-16T07:50:11Z</time>
      </trkpt>
      <trkpt lat="49.42737" lon="1.07723">
        <ele>13.1</ele>
        <time>2021-10-16T07:50:12Z</time>
      </trkpt>
      <trkpt lat="49.42738" lon="1.07724">
        <ele>13.1</ele>
        <time>2021-10-16T07:50:13Z</time>
      </trkpt>
      <trkpt lat="49.4274" lon="1.07724">
        <ele>13.1</ele>
        <time>2021-10-16T07:50:14Z</time>
      </trkpt>
      <trkpt lat="49.42743" lon="1.07726">
        <ele>13</ele>
        <time>2021-10-16T07:50:16Z</time>
      </trkpt>
      <trkpt lat="49.42746" lon="1.07728">
        <ele>13</ele>
        <time>2021-10-16T07:50:17Z</time>
      </trkpt>
      <trkpt lat="49.42748" lon="1.07731">
        <ele>13</ele>
        <time>2021-10-16T07:50:18Z</time>
      </trkpt>
      <trkpt lat="49.42751" lon="1.07731">
        <ele>13</ele>
        <time>2021-10-16T07:50:19Z</time>
      </trkpt>
      <trkpt lat="49.42754" lon="1.07732">
        <ele>13</ele>
        <time>2021-10-16T07:50:20Z</time>
      </trkpt>
      <trkpt lat="49.42758" lon="1.07735">
        <ele>13</ele>
        <time>2021-10-16T07:50:22Z</time>
      </trkpt>
      <trkpt lat="49.4276" lon="1.07737">
        <ele>13</ele>
        <time>2021-10-16T07:50:23Z</time>
      </trkpt>
      <trkpt lat="49.42763" lon="1.07738">
        <ele>13</ele>
        <time>2021-10-16T07:50:24Z</time>
      </trkpt>
      <trkpt lat="49.42765" lon="1.07741">
        <ele>13</ele>
        <time>2021-10-16T07:50:25Z</time>
      </trkpt>
      <trkpt lat="49.4277" lon="1.07746">
        <ele>13</ele>
        <time>2021-10-16T07:50:27Z</time>
      </trkpt>
      <trkpt lat="49.42775" lon="1.07749">
        <ele>12.9</ele>
        <time>2021-10-16T07:50:28Z</time>
      </trkpt>
      <trkpt lat="49.4278" lon="1.07754">
        <ele>12.9</ele>
        <time>2021-10-16T07:50:30Z</time>
      </trkpt>
      <trkpt lat="49.42785" lon="1.07757">
        <ele>12.9</ele>
        <time>2021-10-16T07:50:31Z</time>
      </trkpt>
      <trkpt lat="49.42788" lon="1.0776">
        <ele>12.9</ele>
        <time>2021-10-16T07:50:32Z</time>
      </trkpt>
      <trkpt lat="49.42791" lon="1.07762">
        <ele>12.9</ele>
        <time>2021-10-16T07:50:33Z</time>
      </trkpt>
      <trkpt lat="49.42794" lon="1.07764">
        <ele>12.9</ele>
        <time>2021-10-16T07:50:35Z</time>
      </trkpt>
      <trkpt lat="49.42797" lon="1.07766">
        <ele>12.9</ele>
        <time>2021-10-16T07:50:36Z</time>
      </trkpt>
      <trkpt lat="49.428" lon="1.07768">
        <ele>12.8</ele>
        <time>2021-10-16T07:50:37Z</time>
      </trkpt>
      <trkpt lat="49.42803" lon="1.07769">
        <ele>12.8</ele>
        <time>2021-10-16T07:50:38Z</time>
      </trkpt>
      <trkpt lat="49.42806" lon="1.07771">
        <ele>12.8</ele>
        <time>2021-10-16T07:50:39Z</time>
      </trkpt>
      <trkpt lat="49.4281" lon="1.07774">
        <ele>12.8</ele>
        <time>2021-10-16T07:50:40Z</time>
      </trkpt>
      <trkpt lat="49.42813" lon="1.07777">
        <ele>12.8</ele>
        <time>2021-10-16T07:50:42Z</time>
      </trkpt>
      <trkpt lat="49.42816" lon="1.07779">
        <ele>12.8</ele>
        <time>2021-10-16T07:50:43Z</time>
      </trkpt>
      <trkpt lat="49.42819" lon="1.07782">
        <ele>12.8</ele>
        <time>2021-10-16T07:50:44Z</time>
      </trkpt>
      <trkpt lat="49.42821" lon="1.07783">
        <ele>12.8</ele>
        <time>2021-10-16T07:50:45Z</time>
      </trkpt>
      <trkpt lat="49.42824" lon="1.07786">
        <ele>12.8</ele>
        <time>2021-10-16T07:50:46Z</time>
      </trkpt>
      <trkpt lat="49.42825" lon="1.07787">
        <ele>12.8</ele>
        <time>2021-10-16T07:50:47Z</time>
      </trkpt>
      <trkpt lat="49.42829" lon="1.07788">
        <ele>12.7</ele>
        <time>2021-10-16T07:50:48Z</time>
      </trkpt>
      <trkpt lat="49.42831" lon="1.07789">
        <ele>12.7</ele>
        <time>2021-10-16T07:50:49Z</time>
      </trkpt>
      <trkpt lat="49.42835" lon="1.07791">
        <ele>12.7</ele>
        <time>2021-10-16T07:50:50Z</time>
      </trkpt>
      <trkpt lat="49.4284" lon="1.07795">
        <ele>12.7</ele>
        <time>2021-10-16T07:50:52Z</time>
      </trkpt>
      <trkpt lat="49.42844" lon="1.07796">
        <ele>12.7</ele>
        <time>2021-10-16T07:50:53Z</time>
      </trkpt>
      <trkpt lat="49.42847" lon="1.07799">
        <ele>12.7</ele>
        <time>2021-10-16T07:50:54Z</time>
      </trkpt>
      <trkpt lat="49.4285" lon="1.07801">
        <ele>12.6</ele>
        <time>2021-10-16T07:50:55Z</time>
      </trkpt>
      <trkpt lat="49.42853" lon="1.07803">
        <ele>12.6</ele>
        <time>2021-10-16T07:50:56Z</time>
      </trkpt>
      <trkpt lat="49.42858" lon="1.07806">
        <ele>12.6</ele>
        <time>2021-10-16T07:50:58Z</time>
      </trkpt>
      <trkpt lat="49.42861" lon="1.07808">
        <ele>12.6</ele>
        <time>2021-10-16T07:50:59Z</time>
      </trkpt>
      <trkpt lat="49.42864" lon="1.0781">
        <ele>12.5</ele>
        <time>2021-10-16T07:51:00Z</time>
      </trkpt>
      <trkpt lat="49.42866" lon="1.0781">
        <ele>12.5</ele>
        <time>2021-10-16T07:51:01Z</time>
      </trkpt>
      <trkpt lat="49.42868" lon="1.07811">
        <ele>12.5</ele>
        <time>2021-10-16T07:51:02Z</time>
      </trkpt>
      <trkpt lat="49.42871" lon="1.07813">
        <ele>12.4</ele>
        <time>2021-10-16T07:51:04Z</time>
      </trkpt>
      <trkpt lat="49.42874" lon="1.07814">
        <ele>12.4</ele>
        <time>2021-10-16T07:51:05Z</time>
      </trkpt>
      <trkpt lat="49.42876" lon="1.07815">
        <ele>12.4</ele>
        <time>2021-10-16T07:51:06Z</time>
      </trkpt>
      <trkpt lat="49.42879" lon="1.07817">
        <ele>12.4</ele>
        <time>2021-10-16T07:51:07Z</time>
      </trkpt>
      <trkpt lat="49.42888" lon="1.07822">
        <ele>12.3</ele>
        <time>2021-10-16T07:51:10Z</time>
      </trkpt>
      <trkpt lat="49.42893" lon="1.07824">
        <ele>12.3</ele>
        <time>2021-10-16T07:51:11Z</time>
      </trkpt>
      <trkpt lat="49.42897" lon="1.07827">
        <ele>12.3</ele>
        <time>2021-10-16T07:51:12Z</time>
      </trkpt>
      <trkpt lat="49.429" lon="1.0783">
        <ele>12.3</ele>
        <time>2021-10-16T07:51:13Z</time>
      </trkpt>
      <trkpt lat="49.42903" lon="1.07832">
        <ele>12.2</ele>
        <time>2021-10-16T07:51:14Z</time>
      </trkpt>
      <trkpt lat="49.42906" lon="1.07834">
        <ele>12.2</ele>
        <time>2021-10-16T07:51:15Z</time>
      </trkpt>
      <trkpt lat="49.4291" lon="1.07836">
        <ele>12.2</ele>
        <time>2021-10-16T07:51:17Z</time>
      </trkpt>
      <trkpt lat="49.42914" lon="1.07839">
        <ele>12.2</ele>
        <time>2021-10-16T07:51:18Z</time>
      </trkpt>
      <trkpt lat="49.42917" lon="1.07842">
        <ele>12.2</ele>
        <time>2021-10-16T07:51:19Z</time>
      </trkpt>
      <trkpt lat="49.42921" lon="1.07846">
        <ele>12.2</ele>
        <time>2021-10-16T07:51:21Z</time>
      </trkpt>
      <trkpt lat="49.42923" lon="1.07848">
        <ele>12.2</ele>
        <time>2021-10-16T07:51:22Z</time>
      </trkpt>
      <trkpt lat="49.42926" lon="1.07851">
        <ele>12.2</ele>
        <time>2021-10-16T07:51:23Z</time>
      </trkpt>
      <trkpt lat="49.42928" lon="1.07854">
        <ele>12.2</ele>
        <time>2021-10-16T07:51:24Z</time>
      </trkpt>
      <trkpt lat="49.42931" lon="1.07857">
        <ele>12.2</ele>
        <time>2021-10-16T07:51:25Z</time>
      </trkpt>
      <trkpt lat="49.42935" lon="1.0786">
        <ele>12.2</ele>
        <time>2021-10-16T07:51:27Z</time>
      </trkpt>
      <trkpt lat="49.42937" lon="1.07862">
        <ele>12.2</ele>
        <time>2021-10-16T07:51:28Z</time>
      </trkpt>
      <trkpt lat="49.4294" lon="1.07864">
        <ele>12.2</ele>
        <time>2021-10-16T07:51:29Z</time>
      </trkpt>
      <trkpt lat="49.42941" lon="1.07864">
        <ele>12.2</ele>
        <time>2021-10-16T07:51:30Z</time>
      </trkpt>
      <trkpt lat="49.42942" lon="1.07866">
        <ele>12.2</ele>
        <time>2021-10-16T07:51:31Z</time>
      </trkpt>
      <trkpt lat="49.42944" lon="1.07868">
        <ele>12.2</ele>
        <time>2021-10-16T07:51:33Z</time>
      </trkpt>
      <trkpt lat="49.42946" lon="1.07871">
        <ele>12.2</ele>
        <time>2021-10-16T07:51:34Z</time>
      </trkpt>
      <trkpt lat="49.42947" lon="1.07872">
        <ele>12.2</ele>
        <time>2021-10-16T07:51:35Z</time>
      </trkpt>
      <trkpt lat="49.42951" lon="1.07876">
        <ele>12.2</ele>
        <time>2021-10-16T07:51:36Z</time>
      </trkpt>
      <trkpt lat="49.42952" lon="1.07877">
        <ele>12.1</ele>
        <time>2021-10-16T07:51:37Z</time>
      </trkpt>
      <trkpt lat="49.42955" lon="1.07879">
        <ele>12.1</ele>
        <time>2021-10-16T07:51:38Z</time>
      </trkpt>
      <trkpt lat="49.4296" lon="1.07883">
        <ele>12.1</ele>
        <time>2021-10-16T07:51:40Z</time>
      </trkpt>
      <trkpt lat="49.42963" lon="1.07885">
        <ele>12.1</ele>
        <time>2021-10-16T07:51:41Z</time>
      </trkpt>
      <trkpt lat="49.42966" lon="1.07887">
        <ele>12.1</ele>
        <time>2021-10-16T07:51:42Z</time>
      </trkpt>
      <trkpt lat="49.42969" lon="1.07889">
        <ele>12.1</ele>
        <time>2021-10-16T07:51:43Z</time>
      </trkpt>
      <trkpt lat="49.42972" lon="1.0789">
        <ele>12.1</ele>
        <time>2021-10-16T07:51:44Z</time>
      </trkpt>
      <trkpt lat="49.42975" lon="1.07892">
        <ele>12.1</ele>
        <time>2021-10-16T07:51:46Z</time>
      </trkpt>
      <trkpt lat="49.42979" lon="1.07893">
        <ele>12.1</ele>
        <time>2021-10-16T07:51:47Z</time>
      </trkpt>
      <trkpt lat="49.42983" lon="1.07892">
        <ele>12</ele>
        <time>2021-10-16T07:51:48Z</time>
      </trkpt>
      <trkpt lat="49.42984" lon="1.07892">
        <ele>12</ele>
        <time>2021-10-16T07:51:49Z</time>
      </trkpt>
      <trkpt lat="49.42989" lon="1.07891">
        <ele>12</ele>
        <time>2021-10-16T07:51:51Z</time>
      </trkpt>
      <trkpt lat="49.42994" lon="1.0789">
        <ele>11.9</ele>
        <time>2021-10-16T07:51:52Z</time>
      </trkpt>
      <trkpt lat="49.43" lon="1.07888">
        <ele>11.9</ele>
        <time>2021-10-16T07:51:53Z</time>
      </trkpt>
      <trkpt lat="49.43006" lon="1.07886">
        <ele>11.8</ele>
        <time>2021-10-16T07:51:54Z</time>
      </trkpt>
      <trkpt lat="49.43011" lon="1.07885">
        <ele>11.8</ele>
        <time>2021-10-16T07:51:55Z</time>
      </trkpt>
      <trkpt lat="49.43016" lon="1.07882">
        <ele>11.8</ele>
        <time>2021-10-16T07:51:57Z</time>
      </trkpt>
      <trkpt lat="49.4302" lon="1.07879">
        <ele>11.7</ele>
        <time>2021-10-16T07:51:58Z</time>
      </trkpt>
      <trkpt lat="49.43023" lon="1.07876">
        <ele>11.7</ele>
        <time>2021-10-16T07:51:59Z</time>
      </trkpt>
      <trkpt lat="49.43027" lon="1.0787">
        <ele>11.7</ele>
        <time>2021-10-16T07:52:00Z</time>
      </trkpt>
      <trkpt lat="49.4303" lon="1.07864">
        <ele>11.5</ele>
        <time>2021-10-16T07:52:02Z</time>
      </trkpt>
      <trkpt lat="49.43032" lon="1.0786">
        <ele>11.4</ele>
        <time>2021-10-16T07:52:03Z</time>
      </trkpt>
      <trkpt lat="49.43033" lon="1.07854">
        <ele>11.4</ele>
        <time>2021-10-16T07:52:04Z</time>
      </trkpt>
      <trkpt lat="49.43034" lon="1.0785">
        <ele>11.4</ele>
        <time>2021-10-16T07:52:05Z</time>
      </trkpt>
      <trkpt lat="49.43034" lon="1.07845">
        <ele>11.3</ele>
        <time>2021-10-16T07:52:06Z</time>
      </trkpt>
      <trkpt lat="49.43033" lon="1.07839">
        <ele>11.3</ele>
        <time>2021-10-16T07:52:08Z</time>
      </trkpt>
      <trkpt lat="49.43033" lon="1.07835">
        <ele>11.2</ele>
        <time>2021-10-16T07:52:09Z</time>
      </trkpt>
      <trkpt lat="49.43032" lon="1.07829">
        <ele>11.2</ele>
        <time>2021-10-16T07:52:11Z</time>
      </trkpt>
      <trkpt lat="49.43031" lon="1.07824">
        <ele>11.2</ele>
        <time>2021-10-16T07:52:12Z</time>
      </trkpt>
      <trkpt lat="49.43029" lon="1.0782">
        <ele>11.2</ele>
        <time>2021-10-16T07:52:13Z</time>
      </trkpt>
      <trkpt lat="49.43028" lon="1.07816">
        <ele>11.1</ele>
        <time>2021-10-16T07:52:14Z</time>
      </trkpt>
      <trkpt lat="49.43027" lon="1.07812">
        <ele>11.1</ele>
        <time>2021-10-16T07:52:15Z</time>
      </trkpt>
      <trkpt lat="49.43025" lon="1.07807">
        <ele>11.1</ele>
        <time>2021-10-16T07:52:16Z</time>
      </trkpt>
      <trkpt lat="49.43024" lon="1.07802">
        <ele>11.1</ele>
        <time>2021-10-16T07:52:17Z</time>
      </trkpt>
      <trkpt lat="49.43022" lon="1.07797">
        <ele>11.1</ele>
        <time>2021-10-16T07:52:18Z</time>
      </trkpt>
      <trkpt lat="49.4302" lon="1.07789">
        <ele>11.1</ele>
        <time>2021-10-16T07:52:20Z</time>
      </trkpt>
      <trkpt lat="49.43019" lon="1.07784">
        <ele>11.1</ele>
        <time>2021-10-16T07:52:21Z</time>
      </trkpt>
      <trkpt lat="49.43017" lon="1.07779">
        <ele>11</ele>
        <time>2021-10-16T07:52:22Z</time>
      </trkpt>
      <trkpt lat="49.43016" lon="1.07773">
        <ele>11</ele>
        <time>2021-10-16T07:52:23Z</time>
      </trkpt>
      <trkpt lat="49.43014" lon="1.07768">
        <ele>11</ele>
        <time>2021-10-16T07:52:24Z</time>
      </trkpt>
      <trkpt lat="49.43012" lon="1.07762">
        <ele>11</ele>
        <time>2021-10-16T07:52:26Z</time>
      </trkpt>
      <trkpt lat="49.43011" lon="1.07757">
        <ele>11</ele>
        <time>2021-10-16T07:52:27Z</time>
      </trkpt>
      <trkpt lat="49.4301" lon="1.07752">
        <ele>10.9</ele>
        <time>2021-10-16T07:52:28Z</time>
      </trkpt>
      <trkpt lat="49.43008" lon="1.07747">
        <ele>10.9</ele>
        <time>2021-10-16T07:52:29Z</time>
      </trkpt>
      <trkpt lat="49.43007" lon="1.07742">
        <ele>10.9</ele>
        <time>2021-10-16T07:52:30Z</time>
      </trkpt>
      <trkpt lat="49.43005" lon="1.07735">
        <ele>10.9</ele>
        <time>2021-10-16T07:52:32Z</time>
      </trkpt>
      <trkpt lat="49.43004" lon="1.0773">
        <ele>10.9</ele>
        <time>2021-10-16T07:52:33Z</time>
      </trkpt>
      <trkpt lat="49.43003" lon="1.07725">
        <ele>10.8</ele>
        <time>2021-10-16T07:52:34Z</time>
      </trkpt>
      <trkpt lat="49.43002" lon="1.07719">
        <ele>10.8</ele>
        <time>2021-10-16T07:52:35Z</time>
      </trkpt>
      <trkpt lat="49.43" lon="1.07713">
        <ele>10.8</ele>
        <time>2021-10-16T07:52:36Z</time>
      </trkpt>
      <trkpt lat="49.42999" lon="1.07707">
        <ele>10.8</ele>
        <time>2021-10-16T07:52:38Z</time>
      </trkpt>
      <trkpt lat="49.42998" lon="1.07702">
        <ele>10.8</ele>
        <time>2021-10-16T07:52:39Z</time>
      </trkpt>
      <trkpt lat="49.42997" lon="1.07697">
        <ele>10.8</ele>
        <time>2021-10-16T07:52:40Z</time>
      </trkpt>
      <trkpt lat="49.42996" lon="1.07693">
        <ele>10.8</ele>
        <time>2021-10-16T07:52:41Z</time>
      </trkpt>
      <trkpt lat="49.42996" lon="1.07688">
        <ele>10.8</ele>
        <time>2021-10-16T07:52:42Z</time>
      </trkpt>
      <trkpt lat="49.42995" lon="1.07682">
        <ele>10.8</ele>
        <time>2021-10-16T07:52:43Z</time>
      </trkpt>
      <trkpt lat="49.42995" lon="1.0768">
        <ele>10.8</ele>
        <time>2021-10-16T07:52:44Z</time>
      </trkpt>
      <trkpt lat="49.42994" lon="1.07676">
        <ele>10.8</ele>
        <time>2021-10-16T07:52:45Z</time>
      </trkpt>
      <trkpt lat="49.42993" lon="1.07669">
        <ele>10.8</ele>
        <time>2021-10-16T07:52:47Z</time>
      </trkpt>
      <trkpt lat="49.42992" lon="1.07665">
        <ele>10.8</ele>
        <time>2021-10-16T07:52:48Z</time>
      </trkpt>
      <trkpt lat="49.42992" lon="1.0766">
        <ele>10.9</ele>
        <time>2021-10-16T07:52:49Z</time>
      </trkpt>
      <trkpt lat="49.42991" lon="1.07654">
        <ele>10.9</ele>
        <time>2021-10-16T07:52:50Z</time>
      </trkpt>
      <trkpt lat="49.4299" lon="1.07648">
        <ele>10.9</ele>
        <time>2021-10-16T07:52:52Z</time>
      </trkpt>
      <trkpt lat="49.4299" lon="1.07643">
        <ele>10.9</ele>
        <time>2021-10-16T07:52:53Z</time>
      </trkpt>
      <trkpt lat="49.42988" lon="1.07636">
        <ele>10.9</ele>
        <time>2021-10-16T07:52:55Z</time>
      </trkpt>
      <trkpt lat="49.42987" lon="1.0763">
        <ele>10.9</ele>
        <time>2021-10-16T07:52:56Z</time>
      </trkpt>
      <trkpt lat="49.42986" lon="1.07624">
        <ele>10.9</ele>
        <time>2021-10-16T07:52:58Z</time>
      </trkpt>
      <trkpt lat="49.42985" lon="1.07618">
        <ele>10.9</ele>
        <time>2021-10-16T07:52:59Z</time>
      </trkpt>
      <trkpt lat="49.42984" lon="1.07613">
        <ele>10.9</ele>
        <time>2021-10-16T07:53:00Z</time>
      </trkpt>
      <trkpt lat="49.42982" lon="1.07609">
        <ele>11</ele>
        <time>2021-10-16T07:53:01Z</time>
      </trkpt>
      <trkpt lat="49.42979" lon="1.07605">
        <ele>11</ele>
        <time>2021-10-16T07:53:03Z</time>
      </trkpt>
      <trkpt lat="49.42976" lon="1.07602">
        <ele>10.9</ele>
        <time>2021-10-16T07:53:04Z</time>
      </trkpt>
      <trkpt lat="49.42974" lon="1.076">
        <ele>10.8</ele>
        <time>2021-10-16T07:53:05Z</time>
      </trkpt>
      <trkpt lat="49.42973" lon="1.07599">
        <ele>10.7</ele>
        <time>2021-10-16T07:53:06Z</time>
      </trkpt>
      <trkpt lat="49.4297" lon="1.07598">
        <ele>10.3</ele>
        <time>2021-10-16T07:53:07Z</time>
      </trkpt>
      <trkpt lat="49.42968" lon="1.07599">
        <ele>10.7</ele>
        <time>2021-10-16T07:53:08Z</time>
      </trkpt>
      <trkpt lat="49.42966" lon="1.07602">
        <ele>10.7</ele>
        <time>2021-10-16T07:53:09Z</time>
      </trkpt>
      <trkpt lat="49.42964" lon="1.07607">
        <ele>10.7</ele>
        <time>2021-10-16T07:53:11Z</time>
      </trkpt>
      <trkpt lat="49.42961" lon="1.07612">
        <ele>10.7</ele>
        <time>2021-10-16T07:53:12Z</time>
      </trkpt>
      <trkpt lat="49.42957" lon="1.07618">
        <ele>10.7</ele>
        <time>2021-10-16T07:53:14Z</time>
      </trkpt>
      <trkpt lat="49.42955" lon="1.07622">
        <ele>10.7</ele>
        <time>2021-10-16T07:53:15Z</time>
      </trkpt>
      <trkpt lat="49.42951" lon="1.07628">
        <ele>10.7</ele>
        <time>2021-10-16T07:53:17Z</time>
      </trkpt>
      <trkpt lat="49.42948" lon="1.07631">
        <ele>10.7</ele>
        <time>2021-10-16T07:53:18Z</time>
      </trkpt>
      <trkpt lat="49.42946" lon="1.07636">
        <ele>10.8</ele>
        <time>2021-10-16T07:53:19Z</time>
      </trkpt>
      <trkpt lat="49.42943" lon="1.07639">
        <ele>10.8</ele>
        <time>2021-10-16T07:53:20Z</time>
      </trkpt>
      <trkpt lat="49.42942" lon="1.07642">
        <ele>10.8</ele>
        <time>2021-10-16T07:53:21Z</time>
      </trkpt>
    </trkseg>
  </trk>
</gpx>